<?xml version="1.0" encoding="UTF-8" standalone="no" ?>
<gpx xmlns="http://www.topografix.com/GPX/1/1" xmlns:xsi="http://www.w3.org/2001/XMLSchema-instance" xsi:schemaLocation="http://www.topografix.com/GPX/1/1 http://www.topografix.com/GPX/1/1/gpx.xsd" version="1.1" creator="VisuGPX - https://www.visugpx.com">
  <metadata>
    <name>De Nemours à Moret + halte resto Bourron Marlotte</name>
    <desc><![CDATA[Version automne de cette rando que nous avions faite au printemps 
superbes couleurs]]></desc>
  </metadata>
  <trk>
    <name><![CDATA[SityTrail - De Nemours à Moret + halte resto Bourron Marlotte]]></name>
    <desc><![CDATA[Version automne de cette rando que nous avions faite au printemps 
superbes couleurs]]></desc>
    <trkseg>
      <trkpt lat="48.26815" lon="2.68552">
        <ele>59</ele>
        <time>2022-11-23T07:25:31.085Z</time>
      </trkpt>
      <trkpt lat="48.26815" lon="2.68552">
        <ele>59</ele>
        <time>2022-11-23T07:25:31.085Z</time>
      </trkpt>
      <trkpt lat="48.26811" lon="2.68563">
        <ele>59</ele>
        <time>2022-11-23T07:26:12.472Z</time>
      </trkpt>
      <trkpt lat="48.2681" lon="2.68565">
        <ele>59</ele>
        <time>2022-11-23T07:26:17.449Z</time>
      </trkpt>
      <trkpt lat="48.26812" lon="2.68569">
        <ele>59</ele>
        <time>2022-11-23T07:26:22.006Z</time>
      </trkpt>
      <trkpt lat="48.26813" lon="2.68574">
        <ele>59</ele>
        <time>2022-11-23T07:26:25.981Z</time>
      </trkpt>
      <trkpt lat="48.26812" lon="2.68578">
        <ele>59</ele>
        <time>2022-11-23T07:26:30.483Z</time>
      </trkpt>
      <trkpt lat="48.26804" lon="2.68582">
        <ele>59</ele>
        <time>2022-11-23T07:27:12.478Z</time>
      </trkpt>
      <trkpt lat="48.26804" lon="2.68582">
        <ele>59</ele>
        <time>2022-11-23T07:27:17.502Z</time>
      </trkpt>
      <trkpt lat="48.26802" lon="2.68586">
        <ele>59</ele>
        <time>2022-11-23T07:27:22.046Z</time>
      </trkpt>
      <trkpt lat="48.26798" lon="2.68586">
        <ele>59</ele>
        <time>2022-11-23T07:27:26.105Z</time>
      </trkpt>
      <trkpt lat="48.2679" lon="2.68587">
        <ele>60</ele>
        <time>2022-11-23T07:27:30.365Z</time>
      </trkpt>
      <trkpt lat="48.26786" lon="2.68589">
        <ele>60</ele>
        <time>2022-11-23T07:27:34.498Z</time>
      </trkpt>
      <trkpt lat="48.2678" lon="2.68594">
        <ele>60</ele>
        <time>2022-11-23T07:27:38.513Z</time>
      </trkpt>
      <trkpt lat="48.26773" lon="2.68598">
        <ele>60</ele>
        <time>2022-11-23T07:27:43.243Z</time>
      </trkpt>
      <trkpt lat="48.26767" lon="2.68604">
        <ele>60</ele>
        <time>2022-11-23T07:27:47.482Z</time>
      </trkpt>
      <trkpt lat="48.26761" lon="2.68609">
        <ele>61</ele>
        <time>2022-11-23T07:27:52.283Z</time>
      </trkpt>
      <trkpt lat="48.26756" lon="2.68615">
        <ele>61</ele>
        <time>2022-11-23T07:27:56.507Z</time>
      </trkpt>
      <trkpt lat="48.26752" lon="2.68621">
        <ele>61</ele>
        <time>2022-11-23T07:28:00.492Z</time>
      </trkpt>
      <trkpt lat="48.26747" lon="2.68627">
        <ele>61</ele>
        <time>2022-11-23T07:28:05.068Z</time>
      </trkpt>
      <trkpt lat="48.26744" lon="2.68637">
        <ele>61</ele>
        <time>2022-11-23T07:28:09.498Z</time>
      </trkpt>
      <trkpt lat="48.26743" lon="2.68645">
        <ele>61</ele>
        <time>2022-11-23T07:28:13.789Z</time>
      </trkpt>
      <trkpt lat="48.26738" lon="2.6865">
        <ele>61</ele>
        <time>2022-11-23T07:28:18.044Z</time>
      </trkpt>
      <trkpt lat="48.26733" lon="2.68657">
        <ele>61</ele>
        <time>2022-11-23T07:28:22.451Z</time>
      </trkpt>
      <trkpt lat="48.26729" lon="2.68663">
        <ele>61</ele>
        <time>2022-11-23T07:28:26.508Z</time>
      </trkpt>
      <trkpt lat="48.26724" lon="2.68669">
        <ele>61</ele>
        <time>2022-11-23T07:28:31.168Z</time>
      </trkpt>
      <trkpt lat="48.2672" lon="2.68676">
        <ele>61</ele>
        <time>2022-11-23T07:28:36.203Z</time>
      </trkpt>
      <trkpt lat="48.26716" lon="2.68683">
        <ele>60</ele>
        <time>2022-11-23T07:28:40.365Z</time>
      </trkpt>
      <trkpt lat="48.26712" lon="2.68689">
        <ele>60</ele>
        <time>2022-11-23T07:28:44.430Z</time>
      </trkpt>
      <trkpt lat="48.26709" lon="2.68696">
        <ele>60</ele>
        <time>2022-11-23T07:28:48.628Z</time>
      </trkpt>
      <trkpt lat="48.26704" lon="2.68701">
        <ele>61</ele>
        <time>2022-11-23T07:28:53.103Z</time>
      </trkpt>
      <trkpt lat="48.26698" lon="2.68706">
        <ele>61</ele>
        <time>2022-11-23T07:28:57.473Z</time>
      </trkpt>
      <trkpt lat="48.26694" lon="2.6871">
        <ele>60</ele>
        <time>2022-11-23T07:29:01.522Z</time>
      </trkpt>
      <trkpt lat="48.26695" lon="2.68718">
        <ele>60</ele>
        <time>2022-11-23T07:29:06.165Z</time>
      </trkpt>
      <trkpt lat="48.26692" lon="2.68726">
        <ele>60</ele>
        <time>2022-11-23T07:29:10.465Z</time>
      </trkpt>
      <trkpt lat="48.26688" lon="2.68734">
        <ele>60</ele>
        <time>2022-11-23T07:29:14.496Z</time>
      </trkpt>
      <trkpt lat="48.26684" lon="2.68744">
        <ele>60</ele>
        <time>2022-11-23T07:29:18.994Z</time>
      </trkpt>
      <trkpt lat="48.26679" lon="2.68751">
        <ele>61</ele>
        <time>2022-11-23T07:29:23.188Z</time>
      </trkpt>
      <trkpt lat="48.26676" lon="2.68758">
        <ele>61</ele>
        <time>2022-11-23T07:29:27.349Z</time>
      </trkpt>
      <trkpt lat="48.26677" lon="2.6877">
        <ele>61</ele>
        <time>2022-11-23T07:29:32.166Z</time>
      </trkpt>
      <trkpt lat="48.26678" lon="2.68779">
        <ele>61</ele>
        <time>2022-11-23T07:29:36.507Z</time>
      </trkpt>
      <trkpt lat="48.26678" lon="2.68789">
        <ele>61</ele>
        <time>2022-11-23T07:29:41.014Z</time>
      </trkpt>
      <trkpt lat="48.26678" lon="2.68798">
        <ele>62</ele>
        <time>2022-11-23T07:29:45.079Z</time>
      </trkpt>
      <trkpt lat="48.26679" lon="2.68805">
        <ele>62</ele>
        <time>2022-11-23T07:29:49.184Z</time>
      </trkpt>
      <trkpt lat="48.26678" lon="2.68815">
        <ele>62</ele>
        <time>2022-11-23T07:29:53.308Z</time>
      </trkpt>
      <trkpt lat="48.26678" lon="2.68822">
        <ele>61</ele>
        <time>2022-11-23T07:29:57.473Z</time>
      </trkpt>
      <trkpt lat="48.26678" lon="2.68832">
        <ele>61</ele>
        <time>2022-11-23T07:30:01.767Z</time>
      </trkpt>
      <trkpt lat="48.26679" lon="2.68842">
        <ele>61</ele>
        <time>2022-11-23T07:30:06.466Z</time>
      </trkpt>
      <trkpt lat="48.26677" lon="2.68848">
        <ele>61</ele>
        <time>2022-11-23T07:30:11.457Z</time>
      </trkpt>
      <trkpt lat="48.26676" lon="2.68851">
        <ele>61</ele>
        <time>2022-11-23T07:30:16.163Z</time>
      </trkpt>
      <trkpt lat="48.26673" lon="2.68861">
        <ele>61</ele>
        <time>2022-11-23T07:30:20.444Z</time>
      </trkpt>
      <trkpt lat="48.26672" lon="2.68869">
        <ele>61</ele>
        <time>2022-11-23T07:30:25.303Z</time>
      </trkpt>
      <trkpt lat="48.26671" lon="2.68873">
        <ele>61</ele>
        <time>2022-11-23T07:30:29.581Z</time>
      </trkpt>
      <trkpt lat="48.26663" lon="2.6887">
        <ele>61</ele>
        <time>2022-11-23T07:30:34.466Z</time>
      </trkpt>
      <trkpt lat="48.26655" lon="2.68863">
        <ele>61</ele>
        <time>2022-11-23T07:30:38.908Z</time>
      </trkpt>
      <trkpt lat="48.2665" lon="2.68865">
        <ele>60</ele>
        <time>2022-11-23T07:30:43.455Z</time>
      </trkpt>
      <trkpt lat="48.2665" lon="2.68869">
        <ele>60</ele>
        <time>2022-11-23T07:30:47.805Z</time>
      </trkpt>
      <trkpt lat="48.26642" lon="2.68873">
        <ele>60</ele>
        <time>2022-11-23T07:30:52.240Z</time>
      </trkpt>
      <trkpt lat="48.26637" lon="2.6888">
        <ele>60</ele>
        <time>2022-11-23T07:30:56.465Z</time>
      </trkpt>
      <trkpt lat="48.26631" lon="2.68886">
        <ele>60</ele>
        <time>2022-11-23T07:31:01.459Z</time>
      </trkpt>
      <trkpt lat="48.26625" lon="2.68893">
        <ele>60</ele>
        <time>2022-11-23T07:31:05.504Z</time>
      </trkpt>
      <trkpt lat="48.2662" lon="2.689">
        <ele>61</ele>
        <time>2022-11-23T07:31:09.508Z</time>
      </trkpt>
      <trkpt lat="48.26615" lon="2.68907">
        <ele>61</ele>
        <time>2022-11-23T07:31:14.043Z</time>
      </trkpt>
      <trkpt lat="48.26608" lon="2.68916">
        <ele>61</ele>
        <time>2022-11-23T07:31:18.494Z</time>
      </trkpt>
      <trkpt lat="48.26604" lon="2.6892">
        <ele>61</ele>
        <time>2022-11-23T07:31:23.124Z</time>
      </trkpt>
      <trkpt lat="48.266" lon="2.68926">
        <ele>61</ele>
        <time>2022-11-23T07:31:27.462Z</time>
      </trkpt>
      <trkpt lat="48.26594" lon="2.68932">
        <ele>61</ele>
        <time>2022-11-23T07:31:32.241Z</time>
      </trkpt>
      <trkpt lat="48.26589" lon="2.68937">
        <ele>61</ele>
        <time>2022-11-23T07:31:36.456Z</time>
      </trkpt>
      <trkpt lat="48.26582" lon="2.68944">
        <ele>61</ele>
        <time>2022-11-23T07:31:41.403Z</time>
      </trkpt>
      <trkpt lat="48.26579" lon="2.68951">
        <ele>61</ele>
        <time>2022-11-23T07:31:46.127Z</time>
      </trkpt>
      <trkpt lat="48.26572" lon="2.68962">
        <ele>60</ele>
        <time>2022-11-23T07:31:51.143Z</time>
      </trkpt>
      <trkpt lat="48.26567" lon="2.68963">
        <ele>60</ele>
        <time>2022-11-23T07:31:55.168Z</time>
      </trkpt>
      <trkpt lat="48.26563" lon="2.68966">
        <ele>60</ele>
        <time>2022-11-23T07:31:59.495Z</time>
      </trkpt>
      <trkpt lat="48.26558" lon="2.68971">
        <ele>60</ele>
        <time>2022-11-23T07:32:04.262Z</time>
      </trkpt>
      <trkpt lat="48.26553" lon="2.68976">
        <ele>60</ele>
        <time>2022-11-23T07:32:08.364Z</time>
      </trkpt>
      <trkpt lat="48.26549" lon="2.68982">
        <ele>60</ele>
        <time>2022-11-23T07:32:12.388Z</time>
      </trkpt>
      <trkpt lat="48.26543" lon="2.68987">
        <ele>60</ele>
        <time>2022-11-23T07:32:16.463Z</time>
      </trkpt>
      <trkpt lat="48.26539" lon="2.68996">
        <ele>60</ele>
        <time>2022-11-23T07:32:21.268Z</time>
      </trkpt>
      <trkpt lat="48.26535" lon="2.68998">
        <ele>60</ele>
        <time>2022-11-23T07:32:25.386Z</time>
      </trkpt>
      <trkpt lat="48.2653" lon="2.69004">
        <ele>60</ele>
        <time>2022-11-23T07:32:29.900Z</time>
      </trkpt>
      <trkpt lat="48.26525" lon="2.69009">
        <ele>60</ele>
        <time>2022-11-23T07:32:33.966Z</time>
      </trkpt>
      <trkpt lat="48.26524" lon="2.69011">
        <ele>60</ele>
        <time>2022-11-23T07:32:37.982Z</time>
      </trkpt>
      <trkpt lat="48.26516" lon="2.6902">
        <ele>59</ele>
        <time>2022-11-23T07:32:42.184Z</time>
      </trkpt>
      <trkpt lat="48.26513" lon="2.69028">
        <ele>59</ele>
        <time>2022-11-23T07:32:46.388Z</time>
      </trkpt>
      <trkpt lat="48.26508" lon="2.69035">
        <ele>59</ele>
        <time>2022-11-23T07:32:50.999Z</time>
      </trkpt>
      <trkpt lat="48.26505" lon="2.69038">
        <ele>59</ele>
        <time>2022-11-23T07:32:55.062Z</time>
      </trkpt>
      <trkpt lat="48.265" lon="2.69042">
        <ele>59</ele>
        <time>2022-11-23T07:32:59.425Z</time>
      </trkpt>
      <trkpt lat="48.26495" lon="2.69047">
        <ele>58</ele>
        <time>2022-11-23T07:33:03.807Z</time>
      </trkpt>
      <trkpt lat="48.26492" lon="2.69053">
        <ele>58</ele>
        <time>2022-11-23T07:33:08.021Z</time>
      </trkpt>
      <trkpt lat="48.26491" lon="2.69056">
        <ele>58</ele>
        <time>2022-11-23T07:33:12.461Z</time>
      </trkpt>
      <trkpt lat="48.26487" lon="2.6906">
        <ele>58</ele>
        <time>2022-11-23T07:33:16.586Z</time>
      </trkpt>
      <trkpt lat="48.26482" lon="2.69065">
        <ele>59</ele>
        <time>2022-11-23T07:33:20.880Z</time>
      </trkpt>
      <trkpt lat="48.26477" lon="2.69072">
        <ele>58</ele>
        <time>2022-11-23T07:33:25.426Z</time>
      </trkpt>
      <trkpt lat="48.26472" lon="2.69077">
        <ele>58</ele>
        <time>2022-11-23T07:33:29.768Z</time>
      </trkpt>
      <trkpt lat="48.26468" lon="2.69082">
        <ele>58</ele>
        <time>2022-11-23T07:33:34.473Z</time>
      </trkpt>
      <trkpt lat="48.26464" lon="2.69088">
        <ele>58</ele>
        <time>2022-11-23T07:33:38.745Z</time>
      </trkpt>
      <trkpt lat="48.26461" lon="2.69095">
        <ele>58</ele>
        <time>2022-11-23T07:33:43.113Z</time>
      </trkpt>
      <trkpt lat="48.26455" lon="2.69096">
        <ele>60</ele>
        <time>2022-11-23T07:33:47.489Z</time>
      </trkpt>
      <trkpt lat="48.26449" lon="2.69102">
        <ele>60</ele>
        <time>2022-11-23T07:33:52.264Z</time>
      </trkpt>
      <trkpt lat="48.26444" lon="2.6911">
        <ele>60</ele>
        <time>2022-11-23T07:33:56.348Z</time>
      </trkpt>
      <trkpt lat="48.26439" lon="2.69115">
        <ele>60</ele>
        <time>2022-11-23T07:34:00.472Z</time>
      </trkpt>
      <trkpt lat="48.26435" lon="2.69122">
        <ele>60</ele>
        <time>2022-11-23T07:34:04.787Z</time>
      </trkpt>
      <trkpt lat="48.2643" lon="2.69129">
        <ele>60</ele>
        <time>2022-11-23T07:34:09.495Z</time>
      </trkpt>
      <trkpt lat="48.26426" lon="2.69135">
        <ele>60</ele>
        <time>2022-11-23T07:34:13.911Z</time>
      </trkpt>
      <trkpt lat="48.26421" lon="2.69141">
        <ele>60</ele>
        <time>2022-11-23T07:34:18.470Z</time>
      </trkpt>
      <trkpt lat="48.26416" lon="2.69149">
        <ele>60</ele>
        <time>2022-11-23T07:34:23.429Z</time>
      </trkpt>
      <trkpt lat="48.26412" lon="2.69157">
        <ele>59</ele>
        <time>2022-11-23T07:34:27.466Z</time>
      </trkpt>
      <trkpt lat="48.26409" lon="2.69166">
        <ele>59</ele>
        <time>2022-11-23T07:34:32.185Z</time>
      </trkpt>
      <trkpt lat="48.26406" lon="2.69176">
        <ele>59</ele>
        <time>2022-11-23T07:34:36.498Z</time>
      </trkpt>
      <trkpt lat="48.26402" lon="2.69186">
        <ele>60</ele>
        <time>2022-11-23T07:34:40.506Z</time>
      </trkpt>
      <trkpt lat="48.264" lon="2.69194">
        <ele>60</ele>
        <time>2022-11-23T07:34:44.525Z</time>
      </trkpt>
      <trkpt lat="48.26397" lon="2.69201">
        <ele>60</ele>
        <time>2022-11-23T07:34:48.501Z</time>
      </trkpt>
      <trkpt lat="48.26394" lon="2.69209">
        <ele>60</ele>
        <time>2022-11-23T07:34:52.505Z</time>
      </trkpt>
      <trkpt lat="48.26391" lon="2.69221">
        <ele>60</ele>
        <time>2022-11-23T07:34:57.230Z</time>
      </trkpt>
      <trkpt lat="48.26388" lon="2.69231">
        <ele>60</ele>
        <time>2022-11-23T07:35:02.142Z</time>
      </trkpt>
      <trkpt lat="48.26386" lon="2.6924">
        <ele>61</ele>
        <time>2022-11-23T07:35:06.579Z</time>
      </trkpt>
      <trkpt lat="48.26383" lon="2.69249">
        <ele>61</ele>
        <time>2022-11-23T07:35:11.206Z</time>
      </trkpt>
      <trkpt lat="48.26379" lon="2.6926">
        <ele>61</ele>
        <time>2022-11-23T07:35:16.494Z</time>
      </trkpt>
      <trkpt lat="48.26377" lon="2.69269">
        <ele>62</ele>
        <time>2022-11-23T07:35:20.689Z</time>
      </trkpt>
      <trkpt lat="48.26373" lon="2.69277">
        <ele>64</ele>
        <time>2022-11-23T07:35:24.746Z</time>
      </trkpt>
      <trkpt lat="48.26372" lon="2.69285">
        <ele>64</ele>
        <time>2022-11-23T07:35:29.201Z</time>
      </trkpt>
      <trkpt lat="48.26368" lon="2.69295">
        <ele>64</ele>
        <time>2022-11-23T07:35:33.321Z</time>
      </trkpt>
      <trkpt lat="48.26365" lon="2.69305">
        <ele>64</ele>
        <time>2022-11-23T07:35:37.425Z</time>
      </trkpt>
      <trkpt lat="48.26361" lon="2.69314">
        <ele>64</ele>
        <time>2022-11-23T07:35:42.241Z</time>
      </trkpt>
      <trkpt lat="48.26359" lon="2.69324">
        <ele>63</ele>
        <time>2022-11-23T07:35:47.109Z</time>
      </trkpt>
      <trkpt lat="48.26357" lon="2.69332">
        <ele>63</ele>
        <time>2022-11-23T07:35:51.164Z</time>
      </trkpt>
      <trkpt lat="48.26356" lon="2.6934">
        <ele>63</ele>
        <time>2022-11-23T07:35:55.501Z</time>
      </trkpt>
      <trkpt lat="48.26354" lon="2.69344">
        <ele>63</ele>
        <time>2022-11-23T07:35:59.521Z</time>
      </trkpt>
      <trkpt lat="48.26349" lon="2.69354">
        <ele>63</ele>
        <time>2022-11-23T07:36:04.511Z</time>
      </trkpt>
      <trkpt lat="48.26349" lon="2.69363">
        <ele>63</ele>
        <time>2022-11-23T07:36:09.021Z</time>
      </trkpt>
      <trkpt lat="48.26348" lon="2.69372">
        <ele>63</ele>
        <time>2022-11-23T07:36:13.466Z</time>
      </trkpt>
      <trkpt lat="48.26342" lon="2.69385">
        <ele>62</ele>
        <time>2022-11-23T07:36:18.086Z</time>
      </trkpt>
      <trkpt lat="48.26339" lon="2.69392">
        <ele>62</ele>
        <time>2022-11-23T07:36:22.466Z</time>
      </trkpt>
      <trkpt lat="48.26334" lon="2.69394">
        <ele>62</ele>
        <time>2022-11-23T07:36:26.475Z</time>
      </trkpt>
      <trkpt lat="48.26331" lon="2.694">
        <ele>62</ele>
        <time>2022-11-23T07:36:30.472Z</time>
      </trkpt>
      <trkpt lat="48.26328" lon="2.69406">
        <ele>61</ele>
        <time>2022-11-23T07:36:35.007Z</time>
      </trkpt>
      <trkpt lat="48.26319" lon="2.69417">
        <ele>60</ele>
        <time>2022-11-23T07:36:49.323Z</time>
      </trkpt>
      <trkpt lat="48.26317" lon="2.69426">
        <ele>60</ele>
        <time>2022-11-23T07:36:54.463Z</time>
      </trkpt>
      <trkpt lat="48.26318" lon="2.69438">
        <ele>60</ele>
        <time>2022-11-23T07:36:59.163Z</time>
      </trkpt>
      <trkpt lat="48.26321" lon="2.69445">
        <ele>61</ele>
        <time>2022-11-23T07:37:03.482Z</time>
      </trkpt>
      <trkpt lat="48.26328" lon="2.6945">
        <ele>61</ele>
        <time>2022-11-23T07:37:08.361Z</time>
      </trkpt>
      <trkpt lat="48.26332" lon="2.69446">
        <ele>61</ele>
        <time>2022-11-23T07:37:12.458Z</time>
      </trkpt>
      <trkpt lat="48.26334" lon="2.69447">
        <ele>61</ele>
        <time>2022-11-23T07:37:16.457Z</time>
      </trkpt>
      <trkpt lat="48.26334" lon="2.69456">
        <ele>61</ele>
        <time>2022-11-23T07:37:21.207Z</time>
      </trkpt>
      <trkpt lat="48.26337" lon="2.69462">
        <ele>61</ele>
        <time>2022-11-23T07:37:25.364Z</time>
      </trkpt>
      <trkpt lat="48.2634" lon="2.69461">
        <ele>61</ele>
        <time>2022-11-23T07:37:33.495Z</time>
      </trkpt>
      <trkpt lat="48.2634" lon="2.69462">
        <ele>61</ele>
        <time>2022-11-23T07:37:38.465Z</time>
      </trkpt>
      <trkpt lat="48.2634" lon="2.69462">
        <ele>61</ele>
        <time>2022-11-23T07:37:42.511Z</time>
      </trkpt>
      <trkpt lat="48.26342" lon="2.69467">
        <ele>61</ele>
        <time>2022-11-23T07:37:47.407Z</time>
      </trkpt>
      <trkpt lat="48.26343" lon="2.69473">
        <ele>61</ele>
        <time>2022-11-23T07:37:51.462Z</time>
      </trkpt>
      <trkpt lat="48.26341" lon="2.69476">
        <ele>61</ele>
        <time>2022-11-23T07:38:05.523Z</time>
      </trkpt>
      <trkpt lat="48.2634" lon="2.69475">
        <ele>61</ele>
        <time>2022-11-23T07:38:10.501Z</time>
      </trkpt>
      <trkpt lat="48.2634" lon="2.69474">
        <ele>61</ele>
        <time>2022-11-23T07:38:14.518Z</time>
      </trkpt>
      <trkpt lat="48.26342" lon="2.69471">
        <ele>61</ele>
        <time>2022-11-23T07:38:19.080Z</time>
      </trkpt>
      <trkpt lat="48.26346" lon="2.69465">
        <ele>61</ele>
        <time>2022-11-23T07:38:23.069Z</time>
      </trkpt>
      <trkpt lat="48.26351" lon="2.69459">
        <ele>62</ele>
        <time>2022-11-23T07:38:27.367Z</time>
      </trkpt>
      <trkpt lat="48.26354" lon="2.69454">
        <ele>62</ele>
        <time>2022-11-23T07:38:32.005Z</time>
      </trkpt>
      <trkpt lat="48.26358" lon="2.69452">
        <ele>62</ele>
        <time>2022-11-23T07:38:36.462Z</time>
      </trkpt>
      <trkpt lat="48.26362" lon="2.69447">
        <ele>62</ele>
        <time>2022-11-23T07:38:41.465Z</time>
      </trkpt>
      <trkpt lat="48.26367" lon="2.69442">
        <ele>62</ele>
        <time>2022-11-23T07:38:45.944Z</time>
      </trkpt>
      <trkpt lat="48.26371" lon="2.69439">
        <ele>62</ele>
        <time>2022-11-23T07:38:50.460Z</time>
      </trkpt>
      <trkpt lat="48.26371" lon="2.69441">
        <ele>62</ele>
        <time>2022-11-23T07:38:54.474Z</time>
      </trkpt>
      <trkpt lat="48.26375" lon="2.69438">
        <ele>61</ele>
        <time>2022-11-23T07:38:59.125Z</time>
      </trkpt>
      <trkpt lat="48.26382" lon="2.69433">
        <ele>61</ele>
        <time>2022-11-23T07:39:03.475Z</time>
      </trkpt>
      <trkpt lat="48.26389" lon="2.69432">
        <ele>61</ele>
        <time>2022-11-23T07:39:08.386Z</time>
      </trkpt>
      <trkpt lat="48.26394" lon="2.69424">
        <ele>61</ele>
        <time>2022-11-23T07:39:12.485Z</time>
      </trkpt>
      <trkpt lat="48.26396" lon="2.69419">
        <ele>61</ele>
        <time>2022-11-23T07:39:16.506Z</time>
      </trkpt>
      <trkpt lat="48.26395" lon="2.69417">
        <ele>61</ele>
        <time>2022-11-23T07:39:21.463Z</time>
      </trkpt>
      <trkpt lat="48.264" lon="2.69418">
        <ele>61</ele>
        <time>2022-11-23T07:39:25.922Z</time>
      </trkpt>
      <trkpt lat="48.26404" lon="2.69416">
        <ele>60</ele>
        <time>2022-11-23T07:39:30.023Z</time>
      </trkpt>
      <trkpt lat="48.26407" lon="2.6941">
        <ele>60</ele>
        <time>2022-11-23T07:39:34.326Z</time>
      </trkpt>
      <trkpt lat="48.26415" lon="2.69403">
        <ele>60</ele>
        <time>2022-11-23T07:39:38.997Z</time>
      </trkpt>
      <trkpt lat="48.26421" lon="2.69403">
        <ele>60</ele>
        <time>2022-11-23T07:39:43.340Z</time>
      </trkpt>
      <trkpt lat="48.26426" lon="2.69401">
        <ele>60</ele>
        <time>2022-11-23T07:39:47.431Z</time>
      </trkpt>
      <trkpt lat="48.26433" lon="2.69396">
        <ele>60</ele>
        <time>2022-11-23T07:39:52.463Z</time>
      </trkpt>
      <trkpt lat="48.26439" lon="2.69396">
        <ele>60</ele>
        <time>2022-11-23T07:39:56.629Z</time>
      </trkpt>
      <trkpt lat="48.26445" lon="2.69394">
        <ele>60</ele>
        <time>2022-11-23T07:40:00.742Z</time>
      </trkpt>
      <trkpt lat="48.26451" lon="2.6939">
        <ele>60</ele>
        <time>2022-11-23T07:40:05.025Z</time>
      </trkpt>
      <trkpt lat="48.26455" lon="2.69386">
        <ele>60</ele>
        <time>2022-11-23T07:40:09.046Z</time>
      </trkpt>
      <trkpt lat="48.26461" lon="2.69383">
        <ele>60</ele>
        <time>2022-11-23T07:40:13.167Z</time>
      </trkpt>
      <trkpt lat="48.26468" lon="2.6938">
        <ele>60</ele>
        <time>2022-11-23T07:40:17.486Z</time>
      </trkpt>
      <trkpt lat="48.26475" lon="2.6938">
        <ele>60</ele>
        <time>2022-11-23T07:40:22.308Z</time>
      </trkpt>
      <trkpt lat="48.2648" lon="2.69379">
        <ele>60</ele>
        <time>2022-11-23T07:40:26.465Z</time>
      </trkpt>
      <trkpt lat="48.26487" lon="2.69377">
        <ele>60</ele>
        <time>2022-11-23T07:40:31.496Z</time>
      </trkpt>
      <trkpt lat="48.26494" lon="2.69374">
        <ele>60</ele>
        <time>2022-11-23T07:40:36.048Z</time>
      </trkpt>
      <trkpt lat="48.26499" lon="2.69371">
        <ele>60</ele>
        <time>2022-11-23T07:40:40.496Z</time>
      </trkpt>
      <trkpt lat="48.26501" lon="2.69369">
        <ele>60</ele>
        <time>2022-11-23T07:40:44.924Z</time>
      </trkpt>
      <trkpt lat="48.26506" lon="2.69367">
        <ele>60</ele>
        <time>2022-11-23T07:40:49.186Z</time>
      </trkpt>
      <trkpt lat="48.26516" lon="2.69363">
        <ele>59</ele>
        <time>2022-11-23T07:40:53.488Z</time>
      </trkpt>
      <trkpt lat="48.26522" lon="2.69363">
        <ele>59</ele>
        <time>2022-11-23T07:40:57.751Z</time>
      </trkpt>
      <trkpt lat="48.26529" lon="2.69363">
        <ele>59</ele>
        <time>2022-11-23T07:41:02.289Z</time>
      </trkpt>
      <trkpt lat="48.26536" lon="2.69362">
        <ele>59</ele>
        <time>2022-11-23T07:41:06.501Z</time>
      </trkpt>
      <trkpt lat="48.26543" lon="2.69357">
        <ele>59</ele>
        <time>2022-11-23T07:41:11.489Z</time>
      </trkpt>
      <trkpt lat="48.2655" lon="2.69354">
        <ele>59</ele>
        <time>2022-11-23T07:41:16.477Z</time>
      </trkpt>
      <trkpt lat="48.26555" lon="2.69352">
        <ele>59</ele>
        <time>2022-11-23T07:41:21.464Z</time>
      </trkpt>
      <trkpt lat="48.2656" lon="2.69352">
        <ele>59</ele>
        <time>2022-11-23T07:41:25.468Z</time>
      </trkpt>
      <trkpt lat="48.26567" lon="2.69348">
        <ele>59</ele>
        <time>2022-11-23T07:41:29.506Z</time>
      </trkpt>
      <trkpt lat="48.26574" lon="2.69347">
        <ele>58</ele>
        <time>2022-11-23T07:41:34.228Z</time>
      </trkpt>
      <trkpt lat="48.26579" lon="2.69342">
        <ele>58</ele>
        <time>2022-11-23T07:41:38.292Z</time>
      </trkpt>
      <trkpt lat="48.26586" lon="2.69347">
        <ele>58</ele>
        <time>2022-11-23T07:41:42.463Z</time>
      </trkpt>
      <trkpt lat="48.26589" lon="2.69347">
        <ele>58</ele>
        <time>2022-11-23T07:41:47.457Z</time>
      </trkpt>
      <trkpt lat="48.26588" lon="2.69354">
        <ele>58</ele>
        <time>2022-11-23T07:41:51.458Z</time>
      </trkpt>
      <trkpt lat="48.26585" lon="2.69367">
        <ele>58</ele>
        <time>2022-11-23T07:41:55.439Z</time>
      </trkpt>
      <trkpt lat="48.26586" lon="2.69379">
        <ele>59</ele>
        <time>2022-11-23T07:42:00.488Z</time>
      </trkpt>
      <trkpt lat="48.26588" lon="2.69388">
        <ele>59</ele>
        <time>2022-11-23T07:42:04.471Z</time>
      </trkpt>
      <trkpt lat="48.2659" lon="2.694">
        <ele>59</ele>
        <time>2022-11-23T07:42:09.161Z</time>
      </trkpt>
      <trkpt lat="48.26589" lon="2.69413">
        <ele>60</ele>
        <time>2022-11-23T07:42:14.040Z</time>
      </trkpt>
      <trkpt lat="48.26588" lon="2.69425">
        <ele>60</ele>
        <time>2022-11-23T07:42:18.464Z</time>
      </trkpt>
      <trkpt lat="48.26588" lon="2.69438">
        <ele>61</ele>
        <time>2022-11-23T07:42:23.222Z</time>
      </trkpt>
      <trkpt lat="48.26588" lon="2.69446">
        <ele>61</ele>
        <time>2022-11-23T07:42:27.244Z</time>
      </trkpt>
      <trkpt lat="48.26588" lon="2.69456">
        <ele>61</ele>
        <time>2022-11-23T07:42:31.500Z</time>
      </trkpt>
      <trkpt lat="48.26587" lon="2.69467">
        <ele>62</ele>
        <time>2022-11-23T07:42:36.148Z</time>
      </trkpt>
      <trkpt lat="48.26589" lon="2.69477">
        <ele>62</ele>
        <time>2022-11-23T07:42:41.286Z</time>
      </trkpt>
      <trkpt lat="48.2659" lon="2.69486">
        <ele>62</ele>
        <time>2022-11-23T07:42:45.502Z</time>
      </trkpt>
      <trkpt lat="48.2659" lon="2.69495">
        <ele>62</ele>
        <time>2022-11-23T07:42:50.405Z</time>
      </trkpt>
      <trkpt lat="48.26591" lon="2.69506">
        <ele>62</ele>
        <time>2022-11-23T07:42:54.964Z</time>
      </trkpt>
      <trkpt lat="48.26592" lon="2.69515">
        <ele>62</ele>
        <time>2022-11-23T07:42:59.186Z</time>
      </trkpt>
      <trkpt lat="48.26593" lon="2.69524">
        <ele>62</ele>
        <time>2022-11-23T07:43:03.509Z</time>
      </trkpt>
      <trkpt lat="48.26595" lon="2.69533">
        <ele>62</ele>
        <time>2022-11-23T07:43:08.500Z</time>
      </trkpt>
      <trkpt lat="48.26597" lon="2.69539">
        <ele>62</ele>
        <time>2022-11-23T07:43:13.064Z</time>
      </trkpt>
      <trkpt lat="48.266" lon="2.69546">
        <ele>62</ele>
        <time>2022-11-23T07:43:17.185Z</time>
      </trkpt>
      <trkpt lat="48.26599" lon="2.69554">
        <ele>62</ele>
        <time>2022-11-23T07:43:21.506Z</time>
      </trkpt>
      <trkpt lat="48.266" lon="2.6956">
        <ele>62</ele>
        <time>2022-11-23T07:43:25.497Z</time>
      </trkpt>
      <trkpt lat="48.26605" lon="2.6957">
        <ele>61</ele>
        <time>2022-11-23T07:43:29.766Z</time>
      </trkpt>
      <trkpt lat="48.26607" lon="2.69581">
        <ele>61</ele>
        <time>2022-11-23T07:43:34.505Z</time>
      </trkpt>
      <trkpt lat="48.26608" lon="2.69588">
        <ele>61</ele>
        <time>2022-11-23T07:43:38.629Z</time>
      </trkpt>
      <trkpt lat="48.26612" lon="2.69595">
        <ele>61</ele>
        <time>2022-11-23T07:43:43.066Z</time>
      </trkpt>
      <trkpt lat="48.26613" lon="2.69604">
        <ele>61</ele>
        <time>2022-11-23T07:43:47.304Z</time>
      </trkpt>
      <trkpt lat="48.26615" lon="2.69608">
        <ele>61</ele>
        <time>2022-11-23T07:43:51.847Z</time>
      </trkpt>
      <trkpt lat="48.26615" lon="2.6961">
        <ele>61</ele>
        <time>2022-11-23T07:43:56.450Z</time>
      </trkpt>
      <trkpt lat="48.2662" lon="2.69608">
        <ele>61</ele>
        <time>2022-11-23T07:44:01.062Z</time>
      </trkpt>
      <trkpt lat="48.26629" lon="2.69606">
        <ele>61</ele>
        <time>2022-11-23T07:44:05.121Z</time>
      </trkpt>
      <trkpt lat="48.26635" lon="2.69609">
        <ele>61</ele>
        <time>2022-11-23T07:44:09.366Z</time>
      </trkpt>
      <trkpt lat="48.26643" lon="2.69609">
        <ele>61</ele>
        <time>2022-11-23T07:44:13.672Z</time>
      </trkpt>
      <trkpt lat="48.26648" lon="2.69611">
        <ele>61</ele>
        <time>2022-11-23T07:44:17.949Z</time>
      </trkpt>
      <trkpt lat="48.26652" lon="2.69609">
        <ele>61</ele>
        <time>2022-11-23T07:44:22.452Z</time>
      </trkpt>
      <trkpt lat="48.26659" lon="2.69608">
        <ele>62</ele>
        <time>2022-11-23T07:44:26.470Z</time>
      </trkpt>
      <trkpt lat="48.26665" lon="2.69609">
        <ele>62</ele>
        <time>2022-11-23T07:44:31.066Z</time>
      </trkpt>
      <trkpt lat="48.26667" lon="2.6961">
        <ele>62</ele>
        <time>2022-11-23T07:44:35.455Z</time>
      </trkpt>
      <trkpt lat="48.26667" lon="2.69611">
        <ele>62</ele>
        <time>2022-11-23T07:44:39.464Z</time>
      </trkpt>
      <trkpt lat="48.26674" lon="2.69613">
        <ele>62</ele>
        <time>2022-11-23T07:44:43.905Z</time>
      </trkpt>
      <trkpt lat="48.26681" lon="2.69611">
        <ele>62</ele>
        <time>2022-11-23T07:44:48.462Z</time>
      </trkpt>
      <trkpt lat="48.26689" lon="2.6961">
        <ele>62</ele>
        <time>2022-11-23T07:44:53.085Z</time>
      </trkpt>
      <trkpt lat="48.26696" lon="2.69609">
        <ele>62</ele>
        <time>2022-11-23T07:44:57.485Z</time>
      </trkpt>
      <trkpt lat="48.26704" lon="2.69609">
        <ele>62</ele>
        <time>2022-11-23T07:45:02.280Z</time>
      </trkpt>
      <trkpt lat="48.26706" lon="2.69609">
        <ele>62</ele>
        <time>2022-11-23T07:45:06.451Z</time>
      </trkpt>
      <trkpt lat="48.26709" lon="2.69614">
        <ele>61</ele>
        <time>2022-11-23T07:45:11.080Z</time>
      </trkpt>
      <trkpt lat="48.26713" lon="2.69625">
        <ele>61</ele>
        <time>2022-11-23T07:45:15.231Z</time>
      </trkpt>
      <trkpt lat="48.26714" lon="2.69631">
        <ele>61</ele>
        <time>2022-11-23T07:45:19.462Z</time>
      </trkpt>
      <trkpt lat="48.26713" lon="2.69629">
        <ele>61</ele>
        <time>2022-11-23T07:45:23.728Z</time>
      </trkpt>
      <trkpt lat="48.26717" lon="2.69623">
        <ele>61</ele>
        <time>2022-11-23T07:45:28.448Z</time>
      </trkpt>
      <trkpt lat="48.26719" lon="2.69631">
        <ele>61</ele>
        <time>2022-11-23T07:45:33.456Z</time>
      </trkpt>
      <trkpt lat="48.26722" lon="2.69627">
        <ele>61</ele>
        <time>2022-11-23T07:45:38.442Z</time>
      </trkpt>
      <trkpt lat="48.26725" lon="2.69627">
        <ele>61</ele>
        <time>2022-11-23T07:47:31.005Z</time>
      </trkpt>
      <trkpt lat="48.26726" lon="2.69624">
        <ele>61</ele>
        <time>2022-11-23T07:47:35.324Z</time>
      </trkpt>
      <trkpt lat="48.2673" lon="2.69624">
        <ele>61</ele>
        <time>2022-11-23T07:47:39.366Z</time>
      </trkpt>
      <trkpt lat="48.26735" lon="2.69639">
        <ele>61</ele>
        <time>2022-11-23T07:47:43.494Z</time>
      </trkpt>
      <trkpt lat="48.26735" lon="2.69648">
        <ele>61</ele>
        <time>2022-11-23T07:47:48.409Z</time>
      </trkpt>
      <trkpt lat="48.26735" lon="2.69654">
        <ele>61</ele>
        <time>2022-11-23T07:47:52.492Z</time>
      </trkpt>
      <trkpt lat="48.26736" lon="2.69664">
        <ele>60</ele>
        <time>2022-11-23T07:47:56.506Z</time>
      </trkpt>
      <trkpt lat="48.26737" lon="2.69674">
        <ele>60</ele>
        <time>2022-11-23T07:48:01.499Z</time>
      </trkpt>
      <trkpt lat="48.2674" lon="2.69686">
        <ele>60</ele>
        <time>2022-11-23T07:48:06.304Z</time>
      </trkpt>
      <trkpt lat="48.26742" lon="2.69696">
        <ele>60</ele>
        <time>2022-11-23T07:48:10.469Z</time>
      </trkpt>
      <trkpt lat="48.2674" lon="2.69704">
        <ele>60</ele>
        <time>2022-11-23T07:48:14.506Z</time>
      </trkpt>
      <trkpt lat="48.2674" lon="2.69711">
        <ele>59</ele>
        <time>2022-11-23T07:48:18.809Z</time>
      </trkpt>
      <trkpt lat="48.26743" lon="2.69722">
        <ele>59</ele>
        <time>2022-11-23T07:48:23.521Z</time>
      </trkpt>
      <trkpt lat="48.26744" lon="2.69732">
        <ele>59</ele>
        <time>2022-11-23T07:48:28.148Z</time>
      </trkpt>
      <trkpt lat="48.26745" lon="2.6974">
        <ele>58</ele>
        <time>2022-11-23T07:48:32.494Z</time>
      </trkpt>
      <trkpt lat="48.26746" lon="2.69752">
        <ele>58</ele>
        <time>2022-11-23T07:48:37.488Z</time>
      </trkpt>
      <trkpt lat="48.26747" lon="2.69759">
        <ele>58</ele>
        <time>2022-11-23T07:48:42.461Z</time>
      </trkpt>
      <trkpt lat="48.26738" lon="2.69771">
        <ele>57</ele>
        <time>2022-11-23T07:49:22.186Z</time>
      </trkpt>
      <trkpt lat="48.26738" lon="2.69757">
        <ele>58</ele>
        <time>2022-11-23T07:49:26.464Z</time>
      </trkpt>
      <trkpt lat="48.26736" lon="2.6975">
        <ele>58</ele>
        <time>2022-11-23T07:49:31.464Z</time>
      </trkpt>
      <trkpt lat="48.26735" lon="2.69749">
        <ele>58</ele>
        <time>2022-11-23T07:49:35.947Z</time>
      </trkpt>
      <trkpt lat="48.26731" lon="2.6975">
        <ele>58</ele>
        <time>2022-11-23T07:49:40.466Z</time>
      </trkpt>
      <trkpt lat="48.2673" lon="2.69752">
        <ele>58</ele>
        <time>2022-11-23T07:49:44.962Z</time>
      </trkpt>
      <trkpt lat="48.2673" lon="2.69756">
        <ele>58</ele>
        <time>2022-11-23T07:49:49.264Z</time>
      </trkpt>
      <trkpt lat="48.26728" lon="2.69755">
        <ele>58</ele>
        <time>2022-11-23T07:49:53.463Z</time>
      </trkpt>
      <trkpt lat="48.26727" lon="2.69753">
        <ele>58</ele>
        <time>2022-11-23T07:49:58.199Z</time>
      </trkpt>
      <trkpt lat="48.2672" lon="2.69753">
        <ele>58</ele>
        <time>2022-11-23T07:50:02.440Z</time>
      </trkpt>
      <trkpt lat="48.26717" lon="2.69757">
        <ele>58</ele>
        <time>2022-11-23T07:50:07.204Z</time>
      </trkpt>
      <trkpt lat="48.26712" lon="2.6976">
        <ele>58</ele>
        <time>2022-11-23T07:50:11.385Z</time>
      </trkpt>
      <trkpt lat="48.26705" lon="2.69761">
        <ele>59</ele>
        <time>2022-11-23T07:50:15.461Z</time>
      </trkpt>
      <trkpt lat="48.26702" lon="2.69759">
        <ele>59</ele>
        <time>2022-11-23T07:50:20.105Z</time>
      </trkpt>
      <trkpt lat="48.26692" lon="2.69759">
        <ele>59</ele>
        <time>2022-11-23T07:50:37.457Z</time>
      </trkpt>
      <trkpt lat="48.26689" lon="2.69763">
        <ele>59</ele>
        <time>2022-11-23T07:50:41.479Z</time>
      </trkpt>
      <trkpt lat="48.26681" lon="2.69765">
        <ele>59</ele>
        <time>2022-11-23T07:50:46.284Z</time>
      </trkpt>
      <trkpt lat="48.26673" lon="2.69766">
        <ele>59</ele>
        <time>2022-11-23T07:50:50.927Z</time>
      </trkpt>
      <trkpt lat="48.26668" lon="2.69765">
        <ele>59</ele>
        <time>2022-11-23T07:50:55.107Z</time>
      </trkpt>
      <trkpt lat="48.26663" lon="2.69765">
        <ele>59</ele>
        <time>2022-11-23T07:50:59.266Z</time>
      </trkpt>
      <trkpt lat="48.26656" lon="2.69766">
        <ele>59</ele>
        <time>2022-11-23T07:51:03.403Z</time>
      </trkpt>
      <trkpt lat="48.2665" lon="2.69765">
        <ele>60</ele>
        <time>2022-11-23T07:51:08.028Z</time>
      </trkpt>
      <trkpt lat="48.26644" lon="2.69765">
        <ele>60</ele>
        <time>2022-11-23T07:51:12.183Z</time>
      </trkpt>
      <trkpt lat="48.26639" lon="2.69765">
        <ele>60</ele>
        <time>2022-11-23T07:51:16.455Z</time>
      </trkpt>
      <trkpt lat="48.26631" lon="2.69763">
        <ele>61</ele>
        <time>2022-11-23T07:51:21.469Z</time>
      </trkpt>
      <trkpt lat="48.26629" lon="2.69761">
        <ele>61</ele>
        <time>2022-11-23T07:51:25.459Z</time>
      </trkpt>
      <trkpt lat="48.26627" lon="2.69757">
        <ele>61</ele>
        <time>2022-11-23T07:51:30.244Z</time>
      </trkpt>
      <trkpt lat="48.26625" lon="2.69755">
        <ele>61</ele>
        <time>2022-11-23T07:51:34.506Z</time>
      </trkpt>
      <trkpt lat="48.26623" lon="2.69753">
        <ele>63</ele>
        <time>2022-11-23T07:51:39.368Z</time>
      </trkpt>
      <trkpt lat="48.26612" lon="2.69756">
        <ele>63</ele>
        <time>2022-11-23T07:51:44.463Z</time>
      </trkpt>
      <trkpt lat="48.26601" lon="2.69754">
        <ele>63</ele>
        <time>2022-11-23T07:51:49.347Z</time>
      </trkpt>
      <trkpt lat="48.26593" lon="2.69757">
        <ele>63</ele>
        <time>2022-11-23T07:52:11.361Z</time>
      </trkpt>
      <trkpt lat="48.26588" lon="2.69748">
        <ele>63</ele>
        <time>2022-11-23T07:52:15.464Z</time>
      </trkpt>
      <trkpt lat="48.26582" lon="2.69742">
        <ele>63</ele>
        <time>2022-11-23T07:52:20.043Z</time>
      </trkpt>
      <trkpt lat="48.26575" lon="2.69737">
        <ele>63</ele>
        <time>2022-11-23T07:52:24.285Z</time>
      </trkpt>
      <trkpt lat="48.2657" lon="2.69734">
        <ele>64</ele>
        <time>2022-11-23T07:52:28.469Z</time>
      </trkpt>
      <trkpt lat="48.26565" lon="2.69732">
        <ele>62</ele>
        <time>2022-11-23T07:52:33.001Z</time>
      </trkpt>
      <trkpt lat="48.26559" lon="2.69729">
        <ele>62</ele>
        <time>2022-11-23T07:52:37.443Z</time>
      </trkpt>
      <trkpt lat="48.26553" lon="2.69725">
        <ele>62</ele>
        <time>2022-11-23T07:52:41.983Z</time>
      </trkpt>
      <trkpt lat="48.26548" lon="2.69725">
        <ele>62</ele>
        <time>2022-11-23T07:52:46.423Z</time>
      </trkpt>
      <trkpt lat="48.26547" lon="2.6972">
        <ele>62</ele>
        <time>2022-11-23T07:52:50.943Z</time>
      </trkpt>
      <trkpt lat="48.26542" lon="2.69714">
        <ele>62</ele>
        <time>2022-11-23T07:52:55.222Z</time>
      </trkpt>
      <trkpt lat="48.26544" lon="2.69706">
        <ele>62</ele>
        <time>2022-11-23T07:52:59.367Z</time>
      </trkpt>
      <trkpt lat="48.26546" lon="2.69696">
        <ele>62</ele>
        <time>2022-11-23T07:53:03.862Z</time>
      </trkpt>
      <trkpt lat="48.2655" lon="2.69695">
        <ele>62</ele>
        <time>2022-11-23T07:53:07.914Z</time>
      </trkpt>
      <trkpt lat="48.26552" lon="2.69689">
        <ele>62</ele>
        <time>2022-11-23T07:53:12.167Z</time>
      </trkpt>
      <trkpt lat="48.26556" lon="2.6968">
        <ele>63</ele>
        <time>2022-11-23T07:53:16.455Z</time>
      </trkpt>
      <trkpt lat="48.26557" lon="2.69677">
        <ele>63</ele>
        <time>2022-11-23T07:53:20.900Z</time>
      </trkpt>
      <trkpt lat="48.26558" lon="2.69672">
        <ele>63</ele>
        <time>2022-11-23T07:53:24.963Z</time>
      </trkpt>
      <trkpt lat="48.26558" lon="2.69666">
        <ele>63</ele>
        <time>2022-11-23T07:53:29.460Z</time>
      </trkpt>
      <trkpt lat="48.2656" lon="2.69663">
        <ele>63</ele>
        <time>2022-11-23T07:53:34.123Z</time>
      </trkpt>
      <trkpt lat="48.2656" lon="2.69652">
        <ele>62</ele>
        <time>2022-11-23T07:53:38.159Z</time>
      </trkpt>
      <trkpt lat="48.26561" lon="2.69649">
        <ele>62</ele>
        <time>2022-11-23T07:53:42.166Z</time>
      </trkpt>
      <trkpt lat="48.26562" lon="2.69645">
        <ele>62</ele>
        <time>2022-11-23T07:53:46.304Z</time>
      </trkpt>
      <trkpt lat="48.26563" lon="2.69632">
        <ele>62</ele>
        <time>2022-11-23T07:53:50.325Z</time>
      </trkpt>
      <trkpt lat="48.2657" lon="2.69625">
        <ele>61</ele>
        <time>2022-11-23T07:53:54.369Z</time>
      </trkpt>
      <trkpt lat="48.26575" lon="2.69625">
        <ele>61</ele>
        <time>2022-11-23T07:53:58.449Z</time>
      </trkpt>
      <trkpt lat="48.2658" lon="2.69622">
        <ele>61</ele>
        <time>2022-11-23T07:54:03.179Z</time>
      </trkpt>
      <trkpt lat="48.26584" lon="2.6962">
        <ele>61</ele>
        <time>2022-11-23T07:54:07.280Z</time>
      </trkpt>
      <trkpt lat="48.26589" lon="2.6962">
        <ele>61</ele>
        <time>2022-11-23T07:54:11.401Z</time>
      </trkpt>
      <trkpt lat="48.26597" lon="2.69617">
        <ele>61</ele>
        <time>2022-11-23T07:54:15.468Z</time>
      </trkpt>
      <trkpt lat="48.26605" lon="2.69615">
        <ele>61</ele>
        <time>2022-11-23T07:54:20.146Z</time>
      </trkpt>
      <trkpt lat="48.26611" lon="2.69613">
        <ele>61</ele>
        <time>2022-11-23T07:54:24.501Z</time>
      </trkpt>
      <trkpt lat="48.26612" lon="2.69623">
        <ele>61</ele>
        <time>2022-11-23T07:54:28.878Z</time>
      </trkpt>
      <trkpt lat="48.26612" lon="2.69631">
        <ele>61</ele>
        <time>2022-11-23T07:54:33.041Z</time>
      </trkpt>
      <trkpt lat="48.26613" lon="2.6964">
        <ele>61</ele>
        <time>2022-11-23T07:54:37.246Z</time>
      </trkpt>
      <trkpt lat="48.26614" lon="2.69651">
        <ele>61</ele>
        <time>2022-11-23T07:54:41.453Z</time>
      </trkpt>
      <trkpt lat="48.26614" lon="2.69658">
        <ele>62</ele>
        <time>2022-11-23T07:54:45.983Z</time>
      </trkpt>
      <trkpt lat="48.26616" lon="2.69658">
        <ele>62</ele>
        <time>2022-11-23T07:54:50.306Z</time>
      </trkpt>
      <trkpt lat="48.26617" lon="2.69658">
        <ele>62</ele>
        <time>2022-11-23T07:54:54.456Z</time>
      </trkpt>
      <trkpt lat="48.2662" lon="2.69657">
        <ele>62</ele>
        <time>2022-11-23T07:54:59.466Z</time>
      </trkpt>
      <trkpt lat="48.26634" lon="2.69653">
        <ele>62</ele>
        <time>2022-11-23T07:55:03.888Z</time>
      </trkpt>
      <trkpt lat="48.26641" lon="2.69652">
        <ele>61</ele>
        <time>2022-11-23T07:55:08.422Z</time>
      </trkpt>
      <trkpt lat="48.26646" lon="2.69654">
        <ele>62</ele>
        <time>2022-11-23T07:55:13.122Z</time>
      </trkpt>
      <trkpt lat="48.26653" lon="2.69656">
        <ele>62</ele>
        <time>2022-11-23T07:55:17.266Z</time>
      </trkpt>
      <trkpt lat="48.26655" lon="2.69656">
        <ele>62</ele>
        <time>2022-11-23T07:55:21.381Z</time>
      </trkpt>
      <trkpt lat="48.26658" lon="2.69656">
        <ele>62</ele>
        <time>2022-11-23T07:55:25.500Z</time>
      </trkpt>
      <trkpt lat="48.26666" lon="2.69652">
        <ele>62</ele>
        <time>2022-11-23T07:55:29.783Z</time>
      </trkpt>
      <trkpt lat="48.26675" lon="2.69648">
        <ele>62</ele>
        <time>2022-11-23T07:55:34.325Z</time>
      </trkpt>
      <trkpt lat="48.26683" lon="2.69644">
        <ele>62</ele>
        <time>2022-11-23T07:55:39.047Z</time>
      </trkpt>
      <trkpt lat="48.26689" lon="2.69643">
        <ele>62</ele>
        <time>2022-11-23T07:55:43.240Z</time>
      </trkpt>
      <trkpt lat="48.26697" lon="2.69637">
        <ele>62</ele>
        <time>2022-11-23T07:55:47.468Z</time>
      </trkpt>
      <trkpt lat="48.26704" lon="2.69627">
        <ele>62</ele>
        <time>2022-11-23T07:55:52.286Z</time>
      </trkpt>
      <trkpt lat="48.2671" lon="2.69624">
        <ele>61</ele>
        <time>2022-11-23T07:55:56.477Z</time>
      </trkpt>
      <trkpt lat="48.26722" lon="2.69627">
        <ele>61</ele>
        <time>2022-11-23T07:56:51.225Z</time>
      </trkpt>
      <trkpt lat="48.26723" lon="2.69629">
        <ele>61</ele>
        <time>2022-11-23T07:56:55.462Z</time>
      </trkpt>
      <trkpt lat="48.26725" lon="2.6963">
        <ele>61</ele>
        <time>2022-11-23T07:57:00.042Z</time>
      </trkpt>
      <trkpt lat="48.26728" lon="2.69631">
        <ele>61</ele>
        <time>2022-11-23T07:57:04.168Z</time>
      </trkpt>
      <trkpt lat="48.26731" lon="2.69621">
        <ele>61</ele>
        <time>2022-11-23T07:57:08.304Z</time>
      </trkpt>
      <trkpt lat="48.26732" lon="2.69607">
        <ele>61</ele>
        <time>2022-11-23T07:57:12.947Z</time>
      </trkpt>
      <trkpt lat="48.26739" lon="2.69607">
        <ele>60</ele>
        <time>2022-11-23T07:57:17.320Z</time>
      </trkpt>
      <trkpt lat="48.26747" lon="2.69606">
        <ele>60</ele>
        <time>2022-11-23T07:57:22.403Z</time>
      </trkpt>
      <trkpt lat="48.26754" lon="2.69603">
        <ele>60</ele>
        <time>2022-11-23T07:57:26.406Z</time>
      </trkpt>
      <trkpt lat="48.26761" lon="2.69601">
        <ele>60</ele>
        <time>2022-11-23T07:57:30.640Z</time>
      </trkpt>
      <trkpt lat="48.26767" lon="2.696">
        <ele>60</ele>
        <time>2022-11-23T07:57:35.066Z</time>
      </trkpt>
      <trkpt lat="48.26773" lon="2.696">
        <ele>60</ele>
        <time>2022-11-23T07:57:39.240Z</time>
      </trkpt>
      <trkpt lat="48.2678" lon="2.69599">
        <ele>60</ele>
        <time>2022-11-23T07:57:43.999Z</time>
      </trkpt>
      <trkpt lat="48.26786" lon="2.69601">
        <ele>60</ele>
        <time>2022-11-23T07:57:48.463Z</time>
      </trkpt>
      <trkpt lat="48.26792" lon="2.696">
        <ele>59</ele>
        <time>2022-11-23T07:57:52.501Z</time>
      </trkpt>
      <trkpt lat="48.26797" lon="2.696">
        <ele>59</ele>
        <time>2022-11-23T07:57:56.481Z</time>
      </trkpt>
      <trkpt lat="48.26806" lon="2.69599">
        <ele>59</ele>
        <time>2022-11-23T07:58:01.247Z</time>
      </trkpt>
      <trkpt lat="48.26812" lon="2.69596">
        <ele>60</ele>
        <time>2022-11-23T07:58:06.011Z</time>
      </trkpt>
      <trkpt lat="48.26819" lon="2.69594">
        <ele>60</ele>
        <time>2022-11-23T07:58:10.304Z</time>
      </trkpt>
      <trkpt lat="48.2682" lon="2.69595">
        <ele>59</ele>
        <time>2022-11-23T07:58:14.465Z</time>
      </trkpt>
      <trkpt lat="48.26826" lon="2.69597">
        <ele>59</ele>
        <time>2022-11-23T07:58:19.224Z</time>
      </trkpt>
      <trkpt lat="48.26834" lon="2.69603">
        <ele>59</ele>
        <time>2022-11-23T07:58:23.460Z</time>
      </trkpt>
      <trkpt lat="48.26836" lon="2.69619">
        <ele>59</ele>
        <time>2022-11-23T07:58:28.169Z</time>
      </trkpt>
      <trkpt lat="48.2684" lon="2.69629">
        <ele>59</ele>
        <time>2022-11-23T07:58:33.266Z</time>
      </trkpt>
      <trkpt lat="48.26842" lon="2.69638">
        <ele>59</ele>
        <time>2022-11-23T07:58:38.162Z</time>
      </trkpt>
      <trkpt lat="48.26845" lon="2.69646">
        <ele>59</ele>
        <time>2022-11-23T07:58:42.501Z</time>
      </trkpt>
      <trkpt lat="48.26847" lon="2.69653">
        <ele>60</ele>
        <time>2022-11-23T07:58:47.008Z</time>
      </trkpt>
      <trkpt lat="48.26855" lon="2.6966">
        <ele>60</ele>
        <time>2022-11-23T07:58:51.482Z</time>
      </trkpt>
      <trkpt lat="48.26859" lon="2.69669">
        <ele>60</ele>
        <time>2022-11-23T07:58:56.462Z</time>
      </trkpt>
      <trkpt lat="48.26862" lon="2.69677">
        <ele>60</ele>
        <time>2022-11-23T07:59:00.526Z</time>
      </trkpt>
      <trkpt lat="48.26862" lon="2.69687">
        <ele>61</ele>
        <time>2022-11-23T07:59:05.252Z</time>
      </trkpt>
      <trkpt lat="48.26869" lon="2.69693">
        <ele>61</ele>
        <time>2022-11-23T07:59:09.497Z</time>
      </trkpt>
      <trkpt lat="48.26873" lon="2.69699">
        <ele>61</ele>
        <time>2022-11-23T07:59:13.807Z</time>
      </trkpt>
      <trkpt lat="48.26877" lon="2.69707">
        <ele>60</ele>
        <time>2022-11-23T07:59:18.145Z</time>
      </trkpt>
      <trkpt lat="48.2688" lon="2.69715">
        <ele>60</ele>
        <time>2022-11-23T07:59:22.444Z</time>
      </trkpt>
      <trkpt lat="48.26884" lon="2.69719">
        <ele>60</ele>
        <time>2022-11-23T07:59:26.466Z</time>
      </trkpt>
      <trkpt lat="48.2689" lon="2.69717">
        <ele>60</ele>
        <time>2022-11-23T07:59:30.861Z</time>
      </trkpt>
      <trkpt lat="48.26895" lon="2.69713">
        <ele>60</ele>
        <time>2022-11-23T07:59:34.949Z</time>
      </trkpt>
      <trkpt lat="48.26899" lon="2.69706">
        <ele>60</ele>
        <time>2022-11-23T07:59:39.299Z</time>
      </trkpt>
      <trkpt lat="48.26904" lon="2.69704">
        <ele>59</ele>
        <time>2022-11-23T07:59:43.342Z</time>
      </trkpt>
      <trkpt lat="48.26908" lon="2.69698">
        <ele>59</ele>
        <time>2022-11-23T07:59:47.970Z</time>
      </trkpt>
      <trkpt lat="48.26915" lon="2.69693">
        <ele>59</ele>
        <time>2022-11-23T07:59:52.295Z</time>
      </trkpt>
      <trkpt lat="48.26919" lon="2.69688">
        <ele>59</ele>
        <time>2022-11-23T07:59:56.963Z</time>
      </trkpt>
      <trkpt lat="48.26922" lon="2.69681">
        <ele>59</ele>
        <time>2022-11-23T08:00:01.001Z</time>
      </trkpt>
      <trkpt lat="48.26927" lon="2.69676">
        <ele>60</ele>
        <time>2022-11-23T08:00:05.301Z</time>
      </trkpt>
      <trkpt lat="48.26932" lon="2.69672">
        <ele>59</ele>
        <time>2022-11-23T08:00:09.471Z</time>
      </trkpt>
      <trkpt lat="48.26937" lon="2.69667">
        <ele>59</ele>
        <time>2022-11-23T08:00:13.949Z</time>
      </trkpt>
      <trkpt lat="48.26943" lon="2.69662">
        <ele>59</ele>
        <time>2022-11-23T08:00:18.449Z</time>
      </trkpt>
      <trkpt lat="48.26948" lon="2.69656">
        <ele>59</ele>
        <time>2022-11-23T08:00:23.463Z</time>
      </trkpt>
      <trkpt lat="48.2695" lon="2.69649">
        <ele>61</ele>
        <time>2022-11-23T08:00:27.463Z</time>
      </trkpt>
      <trkpt lat="48.26955" lon="2.69644">
        <ele>61</ele>
        <time>2022-11-23T08:00:31.967Z</time>
      </trkpt>
      <trkpt lat="48.2696" lon="2.69639">
        <ele>60</ele>
        <time>2022-11-23T08:00:36.462Z</time>
      </trkpt>
      <trkpt lat="48.26966" lon="2.69633">
        <ele>60</ele>
        <time>2022-11-23T08:00:41.469Z</time>
      </trkpt>
      <trkpt lat="48.26972" lon="2.69628">
        <ele>60</ele>
        <time>2022-11-23T08:00:45.478Z</time>
      </trkpt>
      <trkpt lat="48.26978" lon="2.69626">
        <ele>60</ele>
        <time>2022-11-23T08:00:49.946Z</time>
      </trkpt>
      <trkpt lat="48.26983" lon="2.69623">
        <ele>61</ele>
        <time>2022-11-23T08:00:54.022Z</time>
      </trkpt>
      <trkpt lat="48.26989" lon="2.69622">
        <ele>60</ele>
        <time>2022-11-23T08:00:58.498Z</time>
      </trkpt>
      <trkpt lat="48.26995" lon="2.69619">
        <ele>60</ele>
        <time>2022-11-23T08:01:03.046Z</time>
      </trkpt>
      <trkpt lat="48.27001" lon="2.69617">
        <ele>60</ele>
        <time>2022-11-23T08:01:07.083Z</time>
      </trkpt>
      <trkpt lat="48.27008" lon="2.69613">
        <ele>60</ele>
        <time>2022-11-23T08:01:11.180Z</time>
      </trkpt>
      <trkpt lat="48.27014" lon="2.69608">
        <ele>61</ele>
        <time>2022-11-23T08:01:15.379Z</time>
      </trkpt>
      <trkpt lat="48.27021" lon="2.69604">
        <ele>61</ele>
        <time>2022-11-23T08:01:19.462Z</time>
      </trkpt>
      <trkpt lat="48.27028" lon="2.696">
        <ele>61</ele>
        <time>2022-11-23T08:01:23.908Z</time>
      </trkpt>
      <trkpt lat="48.27031" lon="2.69599">
        <ele>61</ele>
        <time>2022-11-23T08:01:28.459Z</time>
      </trkpt>
      <trkpt lat="48.27038" lon="2.69595">
        <ele>62</ele>
        <time>2022-11-23T08:01:32.922Z</time>
      </trkpt>
      <trkpt lat="48.27044" lon="2.6959">
        <ele>62</ele>
        <time>2022-11-23T08:01:37.201Z</time>
      </trkpt>
      <trkpt lat="48.27049" lon="2.69586">
        <ele>62</ele>
        <time>2022-11-23T08:01:41.485Z</time>
      </trkpt>
      <trkpt lat="48.27056" lon="2.69582">
        <ele>62</ele>
        <time>2022-11-23T08:01:46.259Z</time>
      </trkpt>
      <trkpt lat="48.27062" lon="2.69581">
        <ele>62</ele>
        <time>2022-11-23T08:01:50.461Z</time>
      </trkpt>
      <trkpt lat="48.2707" lon="2.69577">
        <ele>61</ele>
        <time>2022-11-23T08:01:54.961Z</time>
      </trkpt>
      <trkpt lat="48.27075" lon="2.69576">
        <ele>61</ele>
        <time>2022-11-23T08:01:59.184Z</time>
      </trkpt>
      <trkpt lat="48.27083" lon="2.69574">
        <ele>61</ele>
        <time>2022-11-23T08:02:04.167Z</time>
      </trkpt>
      <trkpt lat="48.27086" lon="2.69569">
        <ele>62</ele>
        <time>2022-11-23T08:02:08.449Z</time>
      </trkpt>
      <trkpt lat="48.27089" lon="2.69563">
        <ele>62</ele>
        <time>2022-11-23T08:02:13.427Z</time>
      </trkpt>
      <trkpt lat="48.27094" lon="2.69561">
        <ele>62</ele>
        <time>2022-11-23T08:02:17.503Z</time>
      </trkpt>
      <trkpt lat="48.27101" lon="2.69557">
        <ele>62</ele>
        <time>2022-11-23T08:02:21.945Z</time>
      </trkpt>
      <trkpt lat="48.27107" lon="2.69551">
        <ele>62</ele>
        <time>2022-11-23T08:02:26.245Z</time>
      </trkpt>
      <trkpt lat="48.27111" lon="2.69545">
        <ele>62</ele>
        <time>2022-11-23T08:02:30.470Z</time>
      </trkpt>
      <trkpt lat="48.27116" lon="2.69543">
        <ele>62</ele>
        <time>2022-11-23T08:02:34.482Z</time>
      </trkpt>
      <trkpt lat="48.27123" lon="2.69537">
        <ele>61</ele>
        <time>2022-11-23T08:02:38.946Z</time>
      </trkpt>
      <trkpt lat="48.27129" lon="2.69533">
        <ele>60</ele>
        <time>2022-11-23T08:02:43.506Z</time>
      </trkpt>
      <trkpt lat="48.27135" lon="2.69529">
        <ele>60</ele>
        <time>2022-11-23T08:02:48.129Z</time>
      </trkpt>
      <trkpt lat="48.27141" lon="2.69526">
        <ele>60</ele>
        <time>2022-11-23T08:02:52.124Z</time>
      </trkpt>
      <trkpt lat="48.27147" lon="2.69521">
        <ele>60</ele>
        <time>2022-11-23T08:02:56.508Z</time>
      </trkpt>
      <trkpt lat="48.27153" lon="2.69517">
        <ele>60</ele>
        <time>2022-11-23T08:03:00.746Z</time>
      </trkpt>
      <trkpt lat="48.27158" lon="2.69514">
        <ele>61</ele>
        <time>2022-11-23T08:03:05.221Z</time>
      </trkpt>
      <trkpt lat="48.27163" lon="2.69509">
        <ele>61</ele>
        <time>2022-11-23T08:03:09.426Z</time>
      </trkpt>
      <trkpt lat="48.27169" lon="2.69505">
        <ele>61</ele>
        <time>2022-11-23T08:03:14.308Z</time>
      </trkpt>
      <trkpt lat="48.27173" lon="2.69502">
        <ele>61</ele>
        <time>2022-11-23T08:03:18.427Z</time>
      </trkpt>
      <trkpt lat="48.27178" lon="2.69498">
        <ele>61</ele>
        <time>2022-11-23T08:03:22.523Z</time>
      </trkpt>
      <trkpt lat="48.27184" lon="2.69493">
        <ele>62</ele>
        <time>2022-11-23T08:03:26.739Z</time>
      </trkpt>
      <trkpt lat="48.27189" lon="2.69486">
        <ele>62</ele>
        <time>2022-11-23T08:03:31.067Z</time>
      </trkpt>
      <trkpt lat="48.27193" lon="2.69481">
        <ele>63</ele>
        <time>2022-11-23T08:03:35.298Z</time>
      </trkpt>
      <trkpt lat="48.27199" lon="2.69475">
        <ele>63</ele>
        <time>2022-11-23T08:03:39.500Z</time>
      </trkpt>
      <trkpt lat="48.27205" lon="2.69468">
        <ele>63</ele>
        <time>2022-11-23T08:03:44.202Z</time>
      </trkpt>
      <trkpt lat="48.27209" lon="2.69464">
        <ele>61</ele>
        <time>2022-11-23T08:03:48.439Z</time>
      </trkpt>
      <trkpt lat="48.27215" lon="2.69462">
        <ele>61</ele>
        <time>2022-11-23T08:03:53.087Z</time>
      </trkpt>
      <trkpt lat="48.27219" lon="2.69456">
        <ele>61</ele>
        <time>2022-11-23T08:03:57.346Z</time>
      </trkpt>
      <trkpt lat="48.27224" lon="2.69453">
        <ele>61</ele>
        <time>2022-11-23T08:04:01.486Z</time>
      </trkpt>
      <trkpt lat="48.27229" lon="2.69451">
        <ele>61</ele>
        <time>2022-11-23T08:04:05.494Z</time>
      </trkpt>
      <trkpt lat="48.27234" lon="2.6945">
        <ele>61</ele>
        <time>2022-11-23T08:04:09.587Z</time>
      </trkpt>
      <trkpt lat="48.2724" lon="2.69446">
        <ele>60</ele>
        <time>2022-11-23T08:04:14.497Z</time>
      </trkpt>
      <trkpt lat="48.27246" lon="2.69449">
        <ele>60</ele>
        <time>2022-11-23T08:04:19.362Z</time>
      </trkpt>
      <trkpt lat="48.2725" lon="2.69462">
        <ele>60</ele>
        <time>2022-11-23T08:04:24.181Z</time>
      </trkpt>
      <trkpt lat="48.27254" lon="2.69469">
        <ele>60</ele>
        <time>2022-11-23T08:04:28.582Z</time>
      </trkpt>
      <trkpt lat="48.27256" lon="2.69475">
        <ele>60</ele>
        <time>2022-11-23T08:04:33.467Z</time>
      </trkpt>
      <trkpt lat="48.27259" lon="2.69477">
        <ele>60</ele>
        <time>2022-11-23T08:04:37.722Z</time>
      </trkpt>
      <trkpt lat="48.27262" lon="2.69486">
        <ele>60</ele>
        <time>2022-11-23T08:04:42.261Z</time>
      </trkpt>
      <trkpt lat="48.27265" lon="2.69493">
        <ele>59</ele>
        <time>2022-11-23T08:04:46.460Z</time>
      </trkpt>
      <trkpt lat="48.27267" lon="2.69493">
        <ele>59</ele>
        <time>2022-11-23T08:04:51.467Z</time>
      </trkpt>
      <trkpt lat="48.27266" lon="2.69495">
        <ele>59</ele>
        <time>2022-11-23T08:04:55.920Z</time>
      </trkpt>
      <trkpt lat="48.2727" lon="2.69504">
        <ele>59</ele>
        <time>2022-11-23T08:05:00.365Z</time>
      </trkpt>
      <trkpt lat="48.27275" lon="2.6951">
        <ele>59</ele>
        <time>2022-11-23T08:05:04.477Z</time>
      </trkpt>
      <trkpt lat="48.27282" lon="2.69518">
        <ele>58</ele>
        <time>2022-11-23T08:05:09.160Z</time>
      </trkpt>
      <trkpt lat="48.2729" lon="2.69527">
        <ele>58</ele>
        <time>2022-11-23T08:05:14.281Z</time>
      </trkpt>
      <trkpt lat="48.27295" lon="2.69535">
        <ele>60</ele>
        <time>2022-11-23T08:05:19.121Z</time>
      </trkpt>
      <trkpt lat="48.273" lon="2.69543">
        <ele>62</ele>
        <time>2022-11-23T08:05:23.465Z</time>
      </trkpt>
      <trkpt lat="48.27308" lon="2.69543">
        <ele>62</ele>
        <time>2022-11-23T08:05:27.865Z</time>
      </trkpt>
      <trkpt lat="48.27314" lon="2.69538">
        <ele>60</ele>
        <time>2022-11-23T08:05:32.225Z</time>
      </trkpt>
      <trkpt lat="48.27321" lon="2.69534">
        <ele>63</ele>
        <time>2022-11-23T08:05:36.444Z</time>
      </trkpt>
      <trkpt lat="48.27328" lon="2.69528">
        <ele>63</ele>
        <time>2022-11-23T08:05:40.686Z</time>
      </trkpt>
      <trkpt lat="48.27334" lon="2.69526">
        <ele>63</ele>
        <time>2022-11-23T08:05:45.040Z</time>
      </trkpt>
      <trkpt lat="48.27341" lon="2.69523">
        <ele>63</ele>
        <time>2022-11-23T08:05:49.461Z</time>
      </trkpt>
      <trkpt lat="48.27348" lon="2.69518">
        <ele>65</ele>
        <time>2022-11-23T08:05:53.474Z</time>
      </trkpt>
      <trkpt lat="48.27355" lon="2.69514">
        <ele>62</ele>
        <time>2022-11-23T08:05:58.085Z</time>
      </trkpt>
      <trkpt lat="48.27368" lon="2.69511">
        <ele>62</ele>
        <time>2022-11-23T08:06:56.487Z</time>
      </trkpt>
      <trkpt lat="48.2737" lon="2.69507">
        <ele>62</ele>
        <time>2022-11-23T08:07:01.126Z</time>
      </trkpt>
      <trkpt lat="48.27376" lon="2.69504">
        <ele>62</ele>
        <time>2022-11-23T08:07:05.241Z</time>
      </trkpt>
      <trkpt lat="48.27382" lon="2.69502">
        <ele>62</ele>
        <time>2022-11-23T08:07:09.465Z</time>
      </trkpt>
      <trkpt lat="48.27389" lon="2.69499">
        <ele>62</ele>
        <time>2022-11-23T08:07:14.324Z</time>
      </trkpt>
      <trkpt lat="48.27395" lon="2.69497">
        <ele>62</ele>
        <time>2022-11-23T08:07:18.464Z</time>
      </trkpt>
      <trkpt lat="48.27402" lon="2.69494">
        <ele>62</ele>
        <time>2022-11-23T08:07:23.125Z</time>
      </trkpt>
      <trkpt lat="48.27407" lon="2.69492">
        <ele>62</ele>
        <time>2022-11-23T08:07:27.325Z</time>
      </trkpt>
      <trkpt lat="48.27414" lon="2.69489">
        <ele>62</ele>
        <time>2022-11-23T08:07:32.227Z</time>
      </trkpt>
      <trkpt lat="48.2742" lon="2.69486">
        <ele>62</ele>
        <time>2022-11-23T08:07:36.420Z</time>
      </trkpt>
      <trkpt lat="48.27425" lon="2.69483">
        <ele>63</ele>
        <time>2022-11-23T08:07:40.704Z</time>
      </trkpt>
      <trkpt lat="48.27431" lon="2.6948">
        <ele>61</ele>
        <time>2022-11-23T08:07:45.303Z</time>
      </trkpt>
      <trkpt lat="48.27436" lon="2.69478">
        <ele>61</ele>
        <time>2022-11-23T08:07:49.471Z</time>
      </trkpt>
      <trkpt lat="48.27439" lon="2.6948">
        <ele>61</ele>
        <time>2022-11-23T08:07:53.725Z</time>
      </trkpt>
      <trkpt lat="48.27445" lon="2.69475">
        <ele>61</ele>
        <time>2022-11-23T08:07:57.923Z</time>
      </trkpt>
      <trkpt lat="48.27451" lon="2.6947">
        <ele>61</ele>
        <time>2022-11-23T08:08:02.220Z</time>
      </trkpt>
      <trkpt lat="48.27458" lon="2.69467">
        <ele>61</ele>
        <time>2022-11-23T08:08:06.383Z</time>
      </trkpt>
      <trkpt lat="48.27466" lon="2.69463">
        <ele>61</ele>
        <time>2022-11-23T08:08:10.502Z</time>
      </trkpt>
      <trkpt lat="48.27474" lon="2.69462">
        <ele>61</ele>
        <time>2022-11-23T08:08:15.205Z</time>
      </trkpt>
      <trkpt lat="48.27482" lon="2.69457">
        <ele>61</ele>
        <time>2022-11-23T08:08:20.099Z</time>
      </trkpt>
      <trkpt lat="48.27488" lon="2.69454">
        <ele>61</ele>
        <time>2022-11-23T08:08:24.506Z</time>
      </trkpt>
      <trkpt lat="48.27493" lon="2.6945">
        <ele>61</ele>
        <time>2022-11-23T08:08:29.470Z</time>
      </trkpt>
      <trkpt lat="48.27499" lon="2.69449">
        <ele>61</ele>
        <time>2022-11-23T08:08:33.476Z</time>
      </trkpt>
      <trkpt lat="48.27505" lon="2.69447">
        <ele>61</ele>
        <time>2022-11-23T08:08:37.766Z</time>
      </trkpt>
      <trkpt lat="48.27511" lon="2.69445">
        <ele>61</ele>
        <time>2022-11-23T08:08:41.964Z</time>
      </trkpt>
      <trkpt lat="48.27517" lon="2.69443">
        <ele>63</ele>
        <time>2022-11-23T08:08:46.347Z</time>
      </trkpt>
      <trkpt lat="48.27522" lon="2.6944">
        <ele>63</ele>
        <time>2022-11-23T08:08:50.439Z</time>
      </trkpt>
      <trkpt lat="48.27528" lon="2.69437">
        <ele>63</ele>
        <time>2022-11-23T08:08:54.723Z</time>
      </trkpt>
      <trkpt lat="48.27535" lon="2.69435">
        <ele>63</ele>
        <time>2022-11-23T08:08:59Z</time>
      </trkpt>
      <trkpt lat="48.2754" lon="2.69433">
        <ele>63</ele>
        <time>2022-11-23T08:09:03.224Z</time>
      </trkpt>
      <trkpt lat="48.27547" lon="2.69431">
        <ele>64</ele>
        <time>2022-11-23T08:09:07.427Z</time>
      </trkpt>
      <trkpt lat="48.27553" lon="2.6943">
        <ele>62</ele>
        <time>2022-11-23T08:09:11.442Z</time>
      </trkpt>
      <trkpt lat="48.27559" lon="2.69429">
        <ele>62</ele>
        <time>2022-11-23T08:09:16.322Z</time>
      </trkpt>
      <trkpt lat="48.27565" lon="2.69428">
        <ele>62</ele>
        <time>2022-11-23T08:09:20.421Z</time>
      </trkpt>
      <trkpt lat="48.27571" lon="2.69426">
        <ele>63</ele>
        <time>2022-11-23T08:09:24.507Z</time>
      </trkpt>
      <trkpt lat="48.27578" lon="2.69424">
        <ele>63</ele>
        <time>2022-11-23T08:09:28.942Z</time>
      </trkpt>
      <trkpt lat="48.27584" lon="2.69422">
        <ele>63</ele>
        <time>2022-11-23T08:09:33.209Z</time>
      </trkpt>
      <trkpt lat="48.2759" lon="2.69421">
        <ele>63</ele>
        <time>2022-11-23T08:09:37.248Z</time>
      </trkpt>
      <trkpt lat="48.27596" lon="2.69419">
        <ele>63</ele>
        <time>2022-11-23T08:09:41.325Z</time>
      </trkpt>
      <trkpt lat="48.27602" lon="2.69418">
        <ele>62</ele>
        <time>2022-11-23T08:09:45.381Z</time>
      </trkpt>
      <trkpt lat="48.27608" lon="2.69416">
        <ele>62</ele>
        <time>2022-11-23T08:09:49.939Z</time>
      </trkpt>
      <trkpt lat="48.27614" lon="2.69415">
        <ele>62</ele>
        <time>2022-11-23T08:09:54.067Z</time>
      </trkpt>
      <trkpt lat="48.2762" lon="2.69414">
        <ele>62</ele>
        <time>2022-11-23T08:09:58.155Z</time>
      </trkpt>
      <trkpt lat="48.27625" lon="2.69414">
        <ele>61</ele>
        <time>2022-11-23T08:10:02.475Z</time>
      </trkpt>
      <trkpt lat="48.27632" lon="2.69413">
        <ele>61</ele>
        <time>2022-11-23T08:10:07.108Z</time>
      </trkpt>
      <trkpt lat="48.2764" lon="2.69411">
        <ele>61</ele>
        <time>2022-11-23T08:10:11.908Z</time>
      </trkpt>
      <trkpt lat="48.27646" lon="2.6941">
        <ele>61</ele>
        <time>2022-11-23T08:10:16.389Z</time>
      </trkpt>
      <trkpt lat="48.27653" lon="2.69408">
        <ele>61</ele>
        <time>2022-11-23T08:10:20.463Z</time>
      </trkpt>
      <trkpt lat="48.27657" lon="2.69407">
        <ele>59</ele>
        <time>2022-11-23T08:10:25.323Z</time>
      </trkpt>
      <trkpt lat="48.27664" lon="2.69406">
        <ele>59</ele>
        <time>2022-11-23T08:10:29.700Z</time>
      </trkpt>
      <trkpt lat="48.27672" lon="2.69404">
        <ele>59</ele>
        <time>2022-11-23T08:10:34.472Z</time>
      </trkpt>
      <trkpt lat="48.27678" lon="2.69401">
        <ele>57</ele>
        <time>2022-11-23T08:10:38.807Z</time>
      </trkpt>
      <trkpt lat="48.27683" lon="2.694">
        <ele>56</ele>
        <time>2022-11-23T08:10:42.981Z</time>
      </trkpt>
      <trkpt lat="48.27688" lon="2.69398">
        <ele>56</ele>
        <time>2022-11-23T08:10:47.300Z</time>
      </trkpt>
      <trkpt lat="48.27693" lon="2.69397">
        <ele>56</ele>
        <time>2022-11-23T08:10:51.421Z</time>
      </trkpt>
      <trkpt lat="48.277" lon="2.69393">
        <ele>56</ele>
        <time>2022-11-23T08:10:55.746Z</time>
      </trkpt>
      <trkpt lat="48.27707" lon="2.6939">
        <ele>56</ele>
        <time>2022-11-23T08:11:00.149Z</time>
      </trkpt>
      <trkpt lat="48.27714" lon="2.69389">
        <ele>56</ele>
        <time>2022-11-23T08:11:04.465Z</time>
      </trkpt>
      <trkpt lat="48.2772" lon="2.69387">
        <ele>56</ele>
        <time>2022-11-23T08:11:09.458Z</time>
      </trkpt>
      <trkpt lat="48.27727" lon="2.69384">
        <ele>56</ele>
        <time>2022-11-23T08:11:13.806Z</time>
      </trkpt>
      <trkpt lat="48.27734" lon="2.69382">
        <ele>56</ele>
        <time>2022-11-23T08:11:18.420Z</time>
      </trkpt>
      <trkpt lat="48.2774" lon="2.6938">
        <ele>58</ele>
        <time>2022-11-23T08:11:22.460Z</time>
      </trkpt>
      <trkpt lat="48.27745" lon="2.69378">
        <ele>58</ele>
        <time>2022-11-23T08:11:26.481Z</time>
      </trkpt>
      <trkpt lat="48.27751" lon="2.69375">
        <ele>58</ele>
        <time>2022-11-23T08:11:31.379Z</time>
      </trkpt>
      <trkpt lat="48.27756" lon="2.69373">
        <ele>57</ele>
        <time>2022-11-23T08:11:35.465Z</time>
      </trkpt>
      <trkpt lat="48.27764" lon="2.69371">
        <ele>58</ele>
        <time>2022-11-23T08:11:40.198Z</time>
      </trkpt>
      <trkpt lat="48.27771" lon="2.69369">
        <ele>58</ele>
        <time>2022-11-23T08:11:44.781Z</time>
      </trkpt>
      <trkpt lat="48.27777" lon="2.69366">
        <ele>58</ele>
        <time>2022-11-23T08:11:49.065Z</time>
      </trkpt>
      <trkpt lat="48.27782" lon="2.69364">
        <ele>58</ele>
        <time>2022-11-23T08:11:53.490Z</time>
      </trkpt>
      <trkpt lat="48.27789" lon="2.69362">
        <ele>58</ele>
        <time>2022-11-23T08:11:58.180Z</time>
      </trkpt>
      <trkpt lat="48.27795" lon="2.6936">
        <ele>58</ele>
        <time>2022-11-23T08:12:02.306Z</time>
      </trkpt>
      <trkpt lat="48.27799" lon="2.69358">
        <ele>58</ele>
        <time>2022-11-23T08:12:06.464Z</time>
      </trkpt>
      <trkpt lat="48.27806" lon="2.69356">
        <ele>58</ele>
        <time>2022-11-23T08:12:10.705Z</time>
      </trkpt>
      <trkpt lat="48.27814" lon="2.69352">
        <ele>58</ele>
        <time>2022-11-23T08:12:15.323Z</time>
      </trkpt>
      <trkpt lat="48.27821" lon="2.69349">
        <ele>59</ele>
        <time>2022-11-23T08:12:19.489Z</time>
      </trkpt>
      <trkpt lat="48.27829" lon="2.69347">
        <ele>58</ele>
        <time>2022-11-23T08:12:23.902Z</time>
      </trkpt>
      <trkpt lat="48.27835" lon="2.69346">
        <ele>58</ele>
        <time>2022-11-23T08:12:28.467Z</time>
      </trkpt>
      <trkpt lat="48.27842" lon="2.69345">
        <ele>58</ele>
        <time>2022-11-23T08:12:33.105Z</time>
      </trkpt>
      <trkpt lat="48.27848" lon="2.69343">
        <ele>60</ele>
        <time>2022-11-23T08:12:37.487Z</time>
      </trkpt>
      <trkpt lat="48.27854" lon="2.69341">
        <ele>60</ele>
        <time>2022-11-23T08:12:42.246Z</time>
      </trkpt>
      <trkpt lat="48.2786" lon="2.6934">
        <ele>60</ele>
        <time>2022-11-23T08:12:46.468Z</time>
      </trkpt>
      <trkpt lat="48.27866" lon="2.69338">
        <ele>60</ele>
        <time>2022-11-23T08:12:50.484Z</time>
      </trkpt>
      <trkpt lat="48.27872" lon="2.69337">
        <ele>60</ele>
        <time>2022-11-23T08:12:54.506Z</time>
      </trkpt>
      <trkpt lat="48.27879" lon="2.69336">
        <ele>60</ele>
        <time>2022-11-23T08:12:59.460Z</time>
      </trkpt>
      <trkpt lat="48.27885" lon="2.69335">
        <ele>60</ele>
        <time>2022-11-23T08:13:03.468Z</time>
      </trkpt>
      <trkpt lat="48.27891" lon="2.69334">
        <ele>60</ele>
        <time>2022-11-23T08:13:07.862Z</time>
      </trkpt>
      <trkpt lat="48.27897" lon="2.69332">
        <ele>60</ele>
        <time>2022-11-23T08:13:12.044Z</time>
      </trkpt>
      <trkpt lat="48.27903" lon="2.6933">
        <ele>60</ele>
        <time>2022-11-23T08:13:16.185Z</time>
      </trkpt>
      <trkpt lat="48.27908" lon="2.69329">
        <ele>59</ele>
        <time>2022-11-23T08:13:20.286Z</time>
      </trkpt>
      <trkpt lat="48.27915" lon="2.69328">
        <ele>59</ele>
        <time>2022-11-23T08:13:24.511Z</time>
      </trkpt>
      <trkpt lat="48.27921" lon="2.69327">
        <ele>59</ele>
        <time>2022-11-23T08:13:28.518Z</time>
      </trkpt>
      <trkpt lat="48.27928" lon="2.69327">
        <ele>59</ele>
        <time>2022-11-23T08:13:33.088Z</time>
      </trkpt>
      <trkpt lat="48.27934" lon="2.69326">
        <ele>58</ele>
        <time>2022-11-23T08:13:37.223Z</time>
      </trkpt>
      <trkpt lat="48.2794" lon="2.69326">
        <ele>58</ele>
        <time>2022-11-23T08:13:41.461Z</time>
      </trkpt>
      <trkpt lat="48.27946" lon="2.69326">
        <ele>58</ele>
        <time>2022-11-23T08:13:45.468Z</time>
      </trkpt>
      <trkpt lat="48.27952" lon="2.69326">
        <ele>58</ele>
        <time>2022-11-23T08:13:49.579Z</time>
      </trkpt>
      <trkpt lat="48.27958" lon="2.69325">
        <ele>58</ele>
        <time>2022-11-23T08:13:53.865Z</time>
      </trkpt>
      <trkpt lat="48.27964" lon="2.69326">
        <ele>58</ele>
        <time>2022-11-23T08:13:58.120Z</time>
      </trkpt>
      <trkpt lat="48.27969" lon="2.69326">
        <ele>58</ele>
        <time>2022-11-23T08:14:02.342Z</time>
      </trkpt>
      <trkpt lat="48.27976" lon="2.69326">
        <ele>58</ele>
        <time>2022-11-23T08:14:06.429Z</time>
      </trkpt>
      <trkpt lat="48.27982" lon="2.69325">
        <ele>58</ele>
        <time>2022-11-23T08:14:10.491Z</time>
      </trkpt>
      <trkpt lat="48.27989" lon="2.69325">
        <ele>59</ele>
        <time>2022-11-23T08:14:14.865Z</time>
      </trkpt>
      <trkpt lat="48.27995" lon="2.69324">
        <ele>59</ele>
        <time>2022-11-23T08:14:19.149Z</time>
      </trkpt>
      <trkpt lat="48.28001" lon="2.69323">
        <ele>59</ele>
        <time>2022-11-23T08:14:23.343Z</time>
      </trkpt>
      <trkpt lat="48.28008" lon="2.69322">
        <ele>59</ele>
        <time>2022-11-23T08:14:27.626Z</time>
      </trkpt>
      <trkpt lat="48.28014" lon="2.69321">
        <ele>59</ele>
        <time>2022-11-23T08:14:31.999Z</time>
      </trkpt>
      <trkpt lat="48.2802" lon="2.6932">
        <ele>61</ele>
        <time>2022-11-23T08:14:36.246Z</time>
      </trkpt>
      <trkpt lat="48.28026" lon="2.69319">
        <ele>60</ele>
        <time>2022-11-23T08:14:40.667Z</time>
      </trkpt>
      <trkpt lat="48.28032" lon="2.69318">
        <ele>60</ele>
        <time>2022-11-23T08:14:44.881Z</time>
      </trkpt>
      <trkpt lat="48.28039" lon="2.69317">
        <ele>60</ele>
        <time>2022-11-23T08:14:49.488Z</time>
      </trkpt>
      <trkpt lat="48.28045" lon="2.69317">
        <ele>61</ele>
        <time>2022-11-23T08:14:54.027Z</time>
      </trkpt>
      <trkpt lat="48.2805" lon="2.69318">
        <ele>61</ele>
        <time>2022-11-23T08:14:58.381Z</time>
      </trkpt>
      <trkpt lat="48.28057" lon="2.69315">
        <ele>61</ele>
        <time>2022-11-23T08:15:03.105Z</time>
      </trkpt>
      <trkpt lat="48.28063" lon="2.69314">
        <ele>61</ele>
        <time>2022-11-23T08:15:07.447Z</time>
      </trkpt>
      <trkpt lat="48.28068" lon="2.69313">
        <ele>61</ele>
        <time>2022-11-23T08:15:11.782Z</time>
      </trkpt>
      <trkpt lat="48.28074" lon="2.69312">
        <ele>60</ele>
        <time>2022-11-23T08:15:16.066Z</time>
      </trkpt>
      <trkpt lat="48.28081" lon="2.69312">
        <ele>60</ele>
        <time>2022-11-23T08:15:20.387Z</time>
      </trkpt>
      <trkpt lat="48.28085" lon="2.6931">
        <ele>60</ele>
        <time>2022-11-23T08:15:24.680Z</time>
      </trkpt>
      <trkpt lat="48.28091" lon="2.69308">
        <ele>60</ele>
        <time>2022-11-23T08:15:29.024Z</time>
      </trkpt>
      <trkpt lat="48.28097" lon="2.69308">
        <ele>60</ele>
        <time>2022-11-23T08:15:33.332Z</time>
      </trkpt>
      <trkpt lat="48.28103" lon="2.69307">
        <ele>62</ele>
        <time>2022-11-23T08:15:37.660Z</time>
      </trkpt>
      <trkpt lat="48.28109" lon="2.69305">
        <ele>62</ele>
        <time>2022-11-23T08:15:42.063Z</time>
      </trkpt>
      <trkpt lat="48.28115" lon="2.69303">
        <ele>62</ele>
        <time>2022-11-23T08:15:46.367Z</time>
      </trkpt>
      <trkpt lat="48.28122" lon="2.69302">
        <ele>62</ele>
        <time>2022-11-23T08:15:50.641Z</time>
      </trkpt>
      <trkpt lat="48.28128" lon="2.69301">
        <ele>65</ele>
        <time>2022-11-23T08:15:54.984Z</time>
      </trkpt>
      <trkpt lat="48.28134" lon="2.69299">
        <ele>65</ele>
        <time>2022-11-23T08:15:59.268Z</time>
      </trkpt>
      <trkpt lat="48.2814" lon="2.69299">
        <ele>65</ele>
        <time>2022-11-23T08:16:03.561Z</time>
      </trkpt>
      <trkpt lat="48.28145" lon="2.69296">
        <ele>65</ele>
        <time>2022-11-23T08:16:07.882Z</time>
      </trkpt>
      <trkpt lat="48.28152" lon="2.69292">
        <ele>65</ele>
        <time>2022-11-23T08:16:12.168Z</time>
      </trkpt>
      <trkpt lat="48.28156" lon="2.69295">
        <ele>66</ele>
        <time>2022-11-23T08:16:16.467Z</time>
      </trkpt>
      <trkpt lat="48.28163" lon="2.69292">
        <ele>66</ele>
        <time>2022-11-23T08:16:20.804Z</time>
      </trkpt>
      <trkpt lat="48.28171" lon="2.69291">
        <ele>64</ele>
        <time>2022-11-23T08:16:25.065Z</time>
      </trkpt>
      <trkpt lat="48.28178" lon="2.69289">
        <ele>64</ele>
        <time>2022-11-23T08:16:29.349Z</time>
      </trkpt>
      <trkpt lat="48.28184" lon="2.69287">
        <ele>65</ele>
        <time>2022-11-23T08:16:33.682Z</time>
      </trkpt>
      <trkpt lat="48.28191" lon="2.69285">
        <ele>65</ele>
        <time>2022-11-23T08:16:38.042Z</time>
      </trkpt>
      <trkpt lat="48.28195" lon="2.69282">
        <ele>65</ele>
        <time>2022-11-23T08:16:42.365Z</time>
      </trkpt>
      <trkpt lat="48.28202" lon="2.6928">
        <ele>65</ele>
        <time>2022-11-23T08:16:46.501Z</time>
      </trkpt>
      <trkpt lat="48.28208" lon="2.69279">
        <ele>68</ele>
        <time>2022-11-23T08:16:50.970Z</time>
      </trkpt>
      <trkpt lat="48.28215" lon="2.69277">
        <ele>68</ele>
        <time>2022-11-23T08:16:55.308Z</time>
      </trkpt>
      <trkpt lat="48.2822" lon="2.69275">
        <ele>68</ele>
        <time>2022-11-23T08:16:59.601Z</time>
      </trkpt>
      <trkpt lat="48.28225" lon="2.69273">
        <ele>68</ele>
        <time>2022-11-23T08:17:03.902Z</time>
      </trkpt>
      <trkpt lat="48.28231" lon="2.69271">
        <ele>68</ele>
        <time>2022-11-23T08:17:08.204Z</time>
      </trkpt>
      <trkpt lat="48.28236" lon="2.69268">
        <ele>69</ele>
        <time>2022-11-23T08:17:12.500Z</time>
      </trkpt>
      <trkpt lat="48.28242" lon="2.69266">
        <ele>69</ele>
        <time>2022-11-23T08:17:17.016Z</time>
      </trkpt>
      <trkpt lat="48.28248" lon="2.69265">
        <ele>69</ele>
        <time>2022-11-23T08:17:21.248Z</time>
      </trkpt>
      <trkpt lat="48.28254" lon="2.69263">
        <ele>66</ele>
        <time>2022-11-23T08:17:25.492Z</time>
      </trkpt>
      <trkpt lat="48.28261" lon="2.6926">
        <ele>66</ele>
        <time>2022-11-23T08:17:29.847Z</time>
      </trkpt>
      <trkpt lat="48.28267" lon="2.69259">
        <ele>63</ele>
        <time>2022-11-23T08:17:34.110Z</time>
      </trkpt>
      <trkpt lat="48.28272" lon="2.69256">
        <ele>63</ele>
        <time>2022-11-23T08:17:38.489Z</time>
      </trkpt>
      <trkpt lat="48.28278" lon="2.69253">
        <ele>63</ele>
        <time>2022-11-23T08:17:42.791Z</time>
      </trkpt>
      <trkpt lat="48.28284" lon="2.69251">
        <ele>63</ele>
        <time>2022-11-23T08:17:47.108Z</time>
      </trkpt>
      <trkpt lat="48.2829" lon="2.69249">
        <ele>63</ele>
        <time>2022-11-23T08:17:51.426Z</time>
      </trkpt>
      <trkpt lat="48.28296" lon="2.69248">
        <ele>60</ele>
        <time>2022-11-23T08:17:55.769Z</time>
      </trkpt>
      <trkpt lat="48.28303" lon="2.69247">
        <ele>60</ele>
        <time>2022-11-23T08:18:00.026Z</time>
      </trkpt>
      <trkpt lat="48.28309" lon="2.69246">
        <ele>60</ele>
        <time>2022-11-23T08:18:04.349Z</time>
      </trkpt>
      <trkpt lat="48.28315" lon="2.69244">
        <ele>60</ele>
        <time>2022-11-23T08:18:08.537Z</time>
      </trkpt>
      <trkpt lat="48.28322" lon="2.69242">
        <ele>60</ele>
        <time>2022-11-23T08:18:12.905Z</time>
      </trkpt>
      <trkpt lat="48.28327" lon="2.69241">
        <ele>60</ele>
        <time>2022-11-23T08:18:17.210Z</time>
      </trkpt>
      <trkpt lat="48.28332" lon="2.69239">
        <ele>60</ele>
        <time>2022-11-23T08:18:21.500Z</time>
      </trkpt>
      <trkpt lat="48.28338" lon="2.69237">
        <ele>60</ele>
        <time>2022-11-23T08:18:25.802Z</time>
      </trkpt>
      <trkpt lat="48.28345" lon="2.69235">
        <ele>60</ele>
        <time>2022-11-23T08:18:30.065Z</time>
      </trkpt>
      <trkpt lat="48.2835" lon="2.69233">
        <ele>62</ele>
        <time>2022-11-23T08:18:34.306Z</time>
      </trkpt>
      <trkpt lat="48.28356" lon="2.69232">
        <ele>62</ele>
        <time>2022-11-23T08:18:38.627Z</time>
      </trkpt>
      <trkpt lat="48.28362" lon="2.69231">
        <ele>62</ele>
        <time>2022-11-23T08:18:43.480Z</time>
      </trkpt>
      <trkpt lat="48.28367" lon="2.6923">
        <ele>62</ele>
        <time>2022-11-23T08:18:47.619Z</time>
      </trkpt>
      <trkpt lat="48.28373" lon="2.69229">
        <ele>62</ele>
        <time>2022-11-23T08:18:52.262Z</time>
      </trkpt>
      <trkpt lat="48.28377" lon="2.69229">
        <ele>62</ele>
        <time>2022-11-23T08:18:56.487Z</time>
      </trkpt>
      <trkpt lat="48.28383" lon="2.69229">
        <ele>62</ele>
        <time>2022-11-23T08:19:01.260Z</time>
      </trkpt>
      <trkpt lat="48.28387" lon="2.6923">
        <ele>62</ele>
        <time>2022-11-23T08:19:05.489Z</time>
      </trkpt>
      <trkpt lat="48.28393" lon="2.69229">
        <ele>62</ele>
        <time>2022-11-23T08:19:10.328Z</time>
      </trkpt>
      <trkpt lat="48.28402" lon="2.69227">
        <ele>62</ele>
        <time>2022-11-23T08:19:14.661Z</time>
      </trkpt>
      <trkpt lat="48.28409" lon="2.69225">
        <ele>60</ele>
        <time>2022-11-23T08:19:19.008Z</time>
      </trkpt>
      <trkpt lat="48.28415" lon="2.69225">
        <ele>60</ele>
        <time>2022-11-23T08:19:23.298Z</time>
      </trkpt>
      <trkpt lat="48.28422" lon="2.69223">
        <ele>60</ele>
        <time>2022-11-23T08:19:28.181Z</time>
      </trkpt>
      <trkpt lat="48.28429" lon="2.69223">
        <ele>60</ele>
        <time>2022-11-23T08:19:32.963Z</time>
      </trkpt>
      <trkpt lat="48.28436" lon="2.69222">
        <ele>58</ele>
        <time>2022-11-23T08:19:37.285Z</time>
      </trkpt>
      <trkpt lat="48.28441" lon="2.69221">
        <ele>58</ele>
        <time>2022-11-23T08:19:41.481Z</time>
      </trkpt>
      <trkpt lat="48.28447" lon="2.69221">
        <ele>58</ele>
        <time>2022-11-23T08:19:45.843Z</time>
      </trkpt>
      <trkpt lat="48.28454" lon="2.6922">
        <ele>58</ele>
        <time>2022-11-23T08:19:50.186Z</time>
      </trkpt>
      <trkpt lat="48.28461" lon="2.6922">
        <ele>61</ele>
        <time>2022-11-23T08:19:54.486Z</time>
      </trkpt>
      <trkpt lat="48.28468" lon="2.69221">
        <ele>61</ele>
        <time>2022-11-23T08:19:59.477Z</time>
      </trkpt>
      <trkpt lat="48.28475" lon="2.69219">
        <ele>61</ele>
        <time>2022-11-23T08:20:03.581Z</time>
      </trkpt>
      <trkpt lat="48.28482" lon="2.69217">
        <ele>61</ele>
        <time>2022-11-23T08:20:07.946Z</time>
      </trkpt>
      <trkpt lat="48.28488" lon="2.69217">
        <ele>64</ele>
        <time>2022-11-23T08:20:12.302Z</time>
      </trkpt>
      <trkpt lat="48.28494" lon="2.69216">
        <ele>64</ele>
        <time>2022-11-23T08:20:16.649Z</time>
      </trkpt>
      <trkpt lat="48.285" lon="2.69215">
        <ele>64</ele>
        <time>2022-11-23T08:20:21.061Z</time>
      </trkpt>
      <trkpt lat="48.28507" lon="2.69214">
        <ele>64</ele>
        <time>2022-11-23T08:20:25.445Z</time>
      </trkpt>
      <trkpt lat="48.28512" lon="2.69214">
        <ele>64</ele>
        <time>2022-11-23T08:20:29.700Z</time>
      </trkpt>
      <trkpt lat="48.28518" lon="2.69214">
        <ele>62</ele>
        <time>2022-11-23T08:20:34.068Z</time>
      </trkpt>
      <trkpt lat="48.28521" lon="2.69215">
        <ele>62</ele>
        <time>2022-11-23T08:20:38.446Z</time>
      </trkpt>
      <trkpt lat="48.28527" lon="2.69216">
        <ele>62</ele>
        <time>2022-11-23T08:20:43.166Z</time>
      </trkpt>
      <trkpt lat="48.28535" lon="2.69214">
        <ele>62</ele>
        <time>2022-11-23T08:20:47.492Z</time>
      </trkpt>
      <trkpt lat="48.28542" lon="2.69211">
        <ele>64</ele>
        <time>2022-11-23T08:20:51.826Z</time>
      </trkpt>
      <trkpt lat="48.28549" lon="2.69209">
        <ele>64</ele>
        <time>2022-11-23T08:20:56.170Z</time>
      </trkpt>
      <trkpt lat="48.28556" lon="2.69209">
        <ele>64</ele>
        <time>2022-11-23T08:21:00.442Z</time>
      </trkpt>
      <trkpt lat="48.28563" lon="2.69208">
        <ele>60</ele>
        <time>2022-11-23T08:21:04.745Z</time>
      </trkpt>
      <trkpt lat="48.28569" lon="2.69209">
        <ele>64</ele>
        <time>2022-11-23T08:21:09.188Z</time>
      </trkpt>
      <trkpt lat="48.28576" lon="2.69209">
        <ele>65</ele>
        <time>2022-11-23T08:21:13.603Z</time>
      </trkpt>
      <trkpt lat="48.28582" lon="2.6921">
        <ele>65</ele>
        <time>2022-11-23T08:21:18.427Z</time>
      </trkpt>
      <trkpt lat="48.28588" lon="2.69208">
        <ele>65</ele>
        <time>2022-11-23T08:21:22.740Z</time>
      </trkpt>
      <trkpt lat="48.28596" lon="2.69207">
        <ele>63</ele>
        <time>2022-11-23T08:21:27.025Z</time>
      </trkpt>
      <trkpt lat="48.28603" lon="2.69208">
        <ele>62</ele>
        <time>2022-11-23T08:21:31.368Z</time>
      </trkpt>
      <trkpt lat="48.2861" lon="2.69207">
        <ele>62</ele>
        <time>2022-11-23T08:21:35.820Z</time>
      </trkpt>
      <trkpt lat="48.28616" lon="2.69207">
        <ele>62</ele>
        <time>2022-11-23T08:21:40.182Z</time>
      </trkpt>
      <trkpt lat="48.28622" lon="2.69208">
        <ele>62</ele>
        <time>2022-11-23T08:21:44.505Z</time>
      </trkpt>
      <trkpt lat="48.28628" lon="2.69209">
        <ele>63</ele>
        <time>2022-11-23T08:21:48.868Z</time>
      </trkpt>
      <trkpt lat="48.28634" lon="2.69209">
        <ele>63</ele>
        <time>2022-11-23T08:21:53.262Z</time>
      </trkpt>
      <trkpt lat="48.28639" lon="2.6921">
        <ele>63</ele>
        <time>2022-11-23T08:21:57.542Z</time>
      </trkpt>
      <trkpt lat="48.28647" lon="2.69213">
        <ele>63</ele>
        <time>2022-11-23T08:22:01.867Z</time>
      </trkpt>
      <trkpt lat="48.28652" lon="2.69214">
        <ele>63</ele>
        <time>2022-11-23T08:22:06.314Z</time>
      </trkpt>
      <trkpt lat="48.28658" lon="2.69215">
        <ele>65</ele>
        <time>2022-11-23T08:22:10.621Z</time>
      </trkpt>
      <trkpt lat="48.28664" lon="2.69217">
        <ele>65</ele>
        <time>2022-11-23T08:22:14.944Z</time>
      </trkpt>
      <trkpt lat="48.28669" lon="2.69219">
        <ele>65</ele>
        <time>2022-11-23T08:22:19.386Z</time>
      </trkpt>
      <trkpt lat="48.28674" lon="2.69219">
        <ele>65</ele>
        <time>2022-11-23T08:22:23.851Z</time>
      </trkpt>
      <trkpt lat="48.28679" lon="2.69221">
        <ele>65</ele>
        <time>2022-11-23T08:22:28.105Z</time>
      </trkpt>
      <trkpt lat="48.28686" lon="2.69223">
        <ele>66</ele>
        <time>2022-11-23T08:22:32.465Z</time>
      </trkpt>
      <trkpt lat="48.28693" lon="2.69225">
        <ele>66</ele>
        <time>2022-11-23T08:22:36.847Z</time>
      </trkpt>
      <trkpt lat="48.28699" lon="2.69226">
        <ele>66</ele>
        <time>2022-11-23T08:22:41.169Z</time>
      </trkpt>
      <trkpt lat="48.28705" lon="2.69228">
        <ele>66</ele>
        <time>2022-11-23T08:22:45.519Z</time>
      </trkpt>
      <trkpt lat="48.28711" lon="2.69228">
        <ele>64</ele>
        <time>2022-11-23T08:22:50.345Z</time>
      </trkpt>
      <trkpt lat="48.28717" lon="2.6923">
        <ele>64</ele>
        <time>2022-11-23T08:22:55.308Z</time>
      </trkpt>
      <trkpt lat="48.28723" lon="2.6923">
        <ele>64</ele>
        <time>2022-11-23T08:22:59.600Z</time>
      </trkpt>
      <trkpt lat="48.2873" lon="2.69231">
        <ele>64</ele>
        <time>2022-11-23T08:23:03.945Z</time>
      </trkpt>
      <trkpt lat="48.28736" lon="2.69232">
        <ele>64</ele>
        <time>2022-11-23T08:23:08.265Z</time>
      </trkpt>
      <trkpt lat="48.28742" lon="2.69233">
        <ele>60</ele>
        <time>2022-11-23T08:23:12.687Z</time>
      </trkpt>
      <trkpt lat="48.28748" lon="2.69235">
        <ele>60</ele>
        <time>2022-11-23T08:23:17.042Z</time>
      </trkpt>
      <trkpt lat="48.28754" lon="2.69236">
        <ele>60</ele>
        <time>2022-11-23T08:23:21.402Z</time>
      </trkpt>
      <trkpt lat="48.28761" lon="2.69236">
        <ele>62</ele>
        <time>2022-11-23T08:23:25.825Z</time>
      </trkpt>
      <trkpt lat="48.28768" lon="2.69237">
        <ele>61</ele>
        <time>2022-11-23T08:23:30.066Z</time>
      </trkpt>
      <trkpt lat="48.28773" lon="2.69238">
        <ele>61</ele>
        <time>2022-11-23T08:23:34.430Z</time>
      </trkpt>
      <trkpt lat="48.28781" lon="2.69238">
        <ele>61</ele>
        <time>2022-11-23T08:23:39.289Z</time>
      </trkpt>
      <trkpt lat="48.28789" lon="2.69238">
        <ele>61</ele>
        <time>2022-11-23T08:23:44.179Z</time>
      </trkpt>
      <trkpt lat="48.28796" lon="2.69239">
        <ele>62</ele>
        <time>2022-11-23T08:23:48.489Z</time>
      </trkpt>
      <trkpt lat="48.28802" lon="2.6924">
        <ele>62</ele>
        <time>2022-11-23T08:23:52.845Z</time>
      </trkpt>
      <trkpt lat="48.28808" lon="2.6924">
        <ele>62</ele>
        <time>2022-11-23T08:23:57.122Z</time>
      </trkpt>
      <trkpt lat="48.28814" lon="2.69239">
        <ele>62</ele>
        <time>2022-11-23T08:24:01.419Z</time>
      </trkpt>
      <trkpt lat="48.28821" lon="2.69239">
        <ele>61</ele>
        <time>2022-11-23T08:24:05.660Z</time>
      </trkpt>
      <trkpt lat="48.28828" lon="2.6924">
        <ele>61</ele>
        <time>2022-11-23T08:24:10.422Z</time>
      </trkpt>
      <trkpt lat="48.28835" lon="2.69238">
        <ele>61</ele>
        <time>2022-11-23T08:24:15.143Z</time>
      </trkpt>
      <trkpt lat="48.28842" lon="2.69238">
        <ele>61</ele>
        <time>2022-11-23T08:24:19.470Z</time>
      </trkpt>
      <trkpt lat="48.28846" lon="2.69237">
        <ele>61</ele>
        <time>2022-11-23T08:24:24.185Z</time>
      </trkpt>
      <trkpt lat="48.28849" lon="2.69236">
        <ele>57</ele>
        <time>2022-11-23T08:24:29.126Z</time>
      </trkpt>
      <trkpt lat="48.28858" lon="2.69235">
        <ele>57</ele>
        <time>2022-11-23T08:24:33.512Z</time>
      </trkpt>
      <trkpt lat="48.28869" lon="2.69237">
        <ele>58</ele>
        <time>2022-11-23T08:24:38.327Z</time>
      </trkpt>
      <trkpt lat="48.28875" lon="2.69235">
        <ele>56</ele>
        <time>2022-11-23T08:24:42.507Z</time>
      </trkpt>
      <trkpt lat="48.28881" lon="2.69234">
        <ele>56</ele>
        <time>2022-11-23T08:24:47.266Z</time>
      </trkpt>
      <trkpt lat="48.28885" lon="2.69232">
        <ele>56</ele>
        <time>2022-11-23T08:24:51.477Z</time>
      </trkpt>
      <trkpt lat="48.28891" lon="2.69232">
        <ele>56</ele>
        <time>2022-11-23T08:24:55.885Z</time>
      </trkpt>
      <trkpt lat="48.28898" lon="2.69232">
        <ele>56</ele>
        <time>2022-11-23T08:25:01.013Z</time>
      </trkpt>
      <trkpt lat="48.28903" lon="2.69231">
        <ele>56</ele>
        <time>2022-11-23T08:25:05.344Z</time>
      </trkpt>
      <trkpt lat="48.28908" lon="2.6923">
        <ele>56</ele>
        <time>2022-11-23T08:25:09.487Z</time>
      </trkpt>
      <trkpt lat="48.28914" lon="2.69231">
        <ele>56</ele>
        <time>2022-11-23T08:25:13.484Z</time>
      </trkpt>
      <trkpt lat="48.2892" lon="2.69231">
        <ele>56</ele>
        <time>2022-11-23T08:25:18.461Z</time>
      </trkpt>
      <trkpt lat="48.28927" lon="2.69231">
        <ele>56</ele>
        <time>2022-11-23T08:25:23.004Z</time>
      </trkpt>
      <trkpt lat="48.28932" lon="2.69233">
        <ele>55</ele>
        <time>2022-11-23T08:25:27.285Z</time>
      </trkpt>
      <trkpt lat="48.28939" lon="2.69234">
        <ele>55</ele>
        <time>2022-11-23T08:25:31.476Z</time>
      </trkpt>
      <trkpt lat="48.28947" lon="2.69236">
        <ele>55</ele>
        <time>2022-11-23T08:25:36.120Z</time>
      </trkpt>
      <trkpt lat="48.28953" lon="2.69236">
        <ele>55</ele>
        <time>2022-11-23T08:25:40.348Z</time>
      </trkpt>
      <trkpt lat="48.28958" lon="2.69236">
        <ele>58</ele>
        <time>2022-11-23T08:25:45.286Z</time>
      </trkpt>
      <trkpt lat="48.28966" lon="2.69236">
        <ele>61</ele>
        <time>2022-11-23T08:25:49.470Z</time>
      </trkpt>
      <trkpt lat="48.28974" lon="2.69238">
        <ele>61</ele>
        <time>2022-11-23T08:25:54Z</time>
      </trkpt>
      <trkpt lat="48.2898" lon="2.69241">
        <ele>61</ele>
        <time>2022-11-23T08:25:58.467Z</time>
      </trkpt>
      <trkpt lat="48.28985" lon="2.69246">
        <ele>61</ele>
        <time>2022-11-23T08:26:03.025Z</time>
      </trkpt>
      <trkpt lat="48.28991" lon="2.69248">
        <ele>61</ele>
        <time>2022-11-23T08:26:07.466Z</time>
      </trkpt>
      <trkpt lat="48.28996" lon="2.69249">
        <ele>61</ele>
        <time>2022-11-23T08:26:11.472Z</time>
      </trkpt>
      <trkpt lat="48.29005" lon="2.69252">
        <ele>61</ele>
        <time>2022-11-23T08:26:15.869Z</time>
      </trkpt>
      <trkpt lat="48.29012" lon="2.69255">
        <ele>61</ele>
        <time>2022-11-23T08:26:20.207Z</time>
      </trkpt>
      <trkpt lat="48.2902" lon="2.6926">
        <ele>58</ele>
        <time>2022-11-23T08:26:24.829Z</time>
      </trkpt>
      <trkpt lat="48.29024" lon="2.69265">
        <ele>61</ele>
        <time>2022-11-23T08:26:29.344Z</time>
      </trkpt>
      <trkpt lat="48.29026" lon="2.6927">
        <ele>61</ele>
        <time>2022-11-23T08:26:33.468Z</time>
      </trkpt>
      <trkpt lat="48.2903" lon="2.69275">
        <ele>61</ele>
        <time>2022-11-23T08:26:38.466Z</time>
      </trkpt>
      <trkpt lat="48.29035" lon="2.69276">
        <ele>61</ele>
        <time>2022-11-23T08:26:42.466Z</time>
      </trkpt>
      <trkpt lat="48.29036" lon="2.69276">
        <ele>61</ele>
        <time>2022-11-23T08:26:46.462Z</time>
      </trkpt>
      <trkpt lat="48.2904" lon="2.69279">
        <ele>61</ele>
        <time>2022-11-23T08:26:51.472Z</time>
      </trkpt>
      <trkpt lat="48.2905" lon="2.69287">
        <ele>56</ele>
        <time>2022-11-23T08:26:56.445Z</time>
      </trkpt>
      <trkpt lat="48.29057" lon="2.69293">
        <ele>57</ele>
        <time>2022-11-23T08:27:01.108Z</time>
      </trkpt>
      <trkpt lat="48.29063" lon="2.693">
        <ele>57</ele>
        <time>2022-11-23T08:27:05.388Z</time>
      </trkpt>
      <trkpt lat="48.29069" lon="2.69305">
        <ele>57</ele>
        <time>2022-11-23T08:27:09.470Z</time>
      </trkpt>
      <trkpt lat="48.29074" lon="2.69308">
        <ele>56</ele>
        <time>2022-11-23T08:27:13.471Z</time>
      </trkpt>
      <trkpt lat="48.29081" lon="2.69315">
        <ele>56</ele>
        <time>2022-11-23T08:27:18.252Z</time>
      </trkpt>
      <trkpt lat="48.29088" lon="2.69319">
        <ele>56</ele>
        <time>2022-11-23T08:27:22.427Z</time>
      </trkpt>
      <trkpt lat="48.29093" lon="2.69323">
        <ele>57</ele>
        <time>2022-11-23T08:27:27.081Z</time>
      </trkpt>
      <trkpt lat="48.291" lon="2.6933">
        <ele>59</ele>
        <time>2022-11-23T08:27:31.475Z</time>
      </trkpt>
      <trkpt lat="48.29105" lon="2.69338">
        <ele>59</ele>
        <time>2022-11-23T08:27:35.727Z</time>
      </trkpt>
      <trkpt lat="48.29109" lon="2.69344">
        <ele>59</ele>
        <time>2022-11-23T08:27:40.066Z</time>
      </trkpt>
      <trkpt lat="48.29113" lon="2.69349">
        <ele>60</ele>
        <time>2022-11-23T08:27:44.146Z</time>
      </trkpt>
      <trkpt lat="48.29117" lon="2.69354">
        <ele>60</ele>
        <time>2022-11-23T08:27:48.166Z</time>
      </trkpt>
      <trkpt lat="48.29122" lon="2.6936">
        <ele>60</ele>
        <time>2022-11-23T08:27:52.366Z</time>
      </trkpt>
      <trkpt lat="48.29126" lon="2.69367">
        <ele>60</ele>
        <time>2022-11-23T08:27:56.474Z</time>
      </trkpt>
      <trkpt lat="48.29131" lon="2.69375">
        <ele>60</ele>
        <time>2022-11-23T08:28:01.470Z</time>
      </trkpt>
      <trkpt lat="48.29136" lon="2.69381">
        <ele>60</ele>
        <time>2022-11-23T08:28:06.187Z</time>
      </trkpt>
      <trkpt lat="48.2914" lon="2.69388">
        <ele>60</ele>
        <time>2022-11-23T08:28:10.265Z</time>
      </trkpt>
      <trkpt lat="48.29145" lon="2.69395">
        <ele>60</ele>
        <time>2022-11-23T08:28:14.483Z</time>
      </trkpt>
      <trkpt lat="48.2915" lon="2.69401">
        <ele>60</ele>
        <time>2022-11-23T08:28:19.350Z</time>
      </trkpt>
      <trkpt lat="48.29156" lon="2.69408">
        <ele>59</ele>
        <time>2022-11-23T08:28:24.468Z</time>
      </trkpt>
      <trkpt lat="48.2916" lon="2.69414">
        <ele>59</ele>
        <time>2022-11-23T08:28:29.047Z</time>
      </trkpt>
      <trkpt lat="48.29163" lon="2.6942">
        <ele>59</ele>
        <time>2022-11-23T08:28:33.471Z</time>
      </trkpt>
      <trkpt lat="48.29169" lon="2.69428">
        <ele>59</ele>
        <time>2022-11-23T08:28:38.428Z</time>
      </trkpt>
      <trkpt lat="48.29172" lon="2.69435">
        <ele>60</ele>
        <time>2022-11-23T08:28:42.472Z</time>
      </trkpt>
      <trkpt lat="48.29178" lon="2.69441">
        <ele>60</ele>
        <time>2022-11-23T08:28:47.160Z</time>
      </trkpt>
      <trkpt lat="48.29184" lon="2.69445">
        <ele>60</ele>
        <time>2022-11-23T08:28:52.044Z</time>
      </trkpt>
      <trkpt lat="48.29186" lon="2.69448">
        <ele>60</ele>
        <time>2022-11-23T08:28:56.472Z</time>
      </trkpt>
      <trkpt lat="48.29191" lon="2.69455">
        <ele>60</ele>
        <time>2022-11-23T08:29:01.324Z</time>
      </trkpt>
      <trkpt lat="48.29199" lon="2.69456">
        <ele>60</ele>
        <time>2022-11-23T08:29:06.059Z</time>
      </trkpt>
      <trkpt lat="48.29205" lon="2.6946">
        <ele>61</ele>
        <time>2022-11-23T08:29:10.324Z</time>
      </trkpt>
      <trkpt lat="48.2921" lon="2.69463">
        <ele>60</ele>
        <time>2022-11-23T08:29:14.828Z</time>
      </trkpt>
      <trkpt lat="48.29215" lon="2.69463">
        <ele>60</ele>
        <time>2022-11-23T08:29:19.002Z</time>
      </trkpt>
      <trkpt lat="48.29219" lon="2.69463">
        <ele>60</ele>
        <time>2022-11-23T08:29:23.460Z</time>
      </trkpt>
      <trkpt lat="48.29223" lon="2.69467">
        <ele>60</ele>
        <time>2022-11-23T08:29:28.250Z</time>
      </trkpt>
      <trkpt lat="48.29231" lon="2.69468">
        <ele>60</ele>
        <time>2022-11-23T08:29:32.467Z</time>
      </trkpt>
      <trkpt lat="48.29239" lon="2.69471">
        <ele>60</ele>
        <time>2022-11-23T08:29:37.483Z</time>
      </trkpt>
      <trkpt lat="48.29246" lon="2.69471">
        <ele>60</ele>
        <time>2022-11-23T08:29:42.470Z</time>
      </trkpt>
      <trkpt lat="48.29252" lon="2.69472">
        <ele>60</ele>
        <time>2022-11-23T08:29:47.242Z</time>
      </trkpt>
      <trkpt lat="48.29258" lon="2.69473">
        <ele>60</ele>
        <time>2022-11-23T08:29:51.364Z</time>
      </trkpt>
      <trkpt lat="48.29264" lon="2.69474">
        <ele>60</ele>
        <time>2022-11-23T08:29:55.494Z</time>
      </trkpt>
      <trkpt lat="48.2927" lon="2.69475">
        <ele>60</ele>
        <time>2022-11-23T08:30:00.382Z</time>
      </trkpt>
      <trkpt lat="48.29278" lon="2.69477">
        <ele>60</ele>
        <time>2022-11-23T08:30:05.064Z</time>
      </trkpt>
      <trkpt lat="48.29286" lon="2.69479">
        <ele>60</ele>
        <time>2022-11-23T08:30:09.204Z</time>
      </trkpt>
      <trkpt lat="48.29292" lon="2.69479">
        <ele>59</ele>
        <time>2022-11-23T08:30:13.515Z</time>
      </trkpt>
      <trkpt lat="48.29299" lon="2.6948">
        <ele>59</ele>
        <time>2022-11-23T08:30:18.324Z</time>
      </trkpt>
      <trkpt lat="48.29306" lon="2.6948">
        <ele>59</ele>
        <time>2022-11-23T08:30:23.144Z</time>
      </trkpt>
      <trkpt lat="48.2932" lon="2.69478">
        <ele>58</ele>
        <time>2022-11-23T08:31:50.464Z</time>
      </trkpt>
      <trkpt lat="48.29321" lon="2.69471">
        <ele>58</ele>
        <time>2022-11-23T08:31:54.629Z</time>
      </trkpt>
      <trkpt lat="48.29324" lon="2.69468">
        <ele>58</ele>
        <time>2022-11-23T08:31:59.474Z</time>
      </trkpt>
      <trkpt lat="48.29324" lon="2.69467">
        <ele>58</ele>
        <time>2022-11-23T08:32:03.923Z</time>
      </trkpt>
      <trkpt lat="48.29325" lon="2.6946">
        <ele>58</ele>
        <time>2022-11-23T08:32:08.470Z</time>
      </trkpt>
      <trkpt lat="48.29326" lon="2.69454">
        <ele>57</ele>
        <time>2022-11-23T08:32:29.782Z</time>
      </trkpt>
      <trkpt lat="48.29332" lon="2.69457">
        <ele>57</ele>
        <time>2022-11-23T08:32:33.785Z</time>
      </trkpt>
      <trkpt lat="48.29339" lon="2.6946">
        <ele>58</ele>
        <time>2022-11-23T08:32:38.279Z</time>
      </trkpt>
      <trkpt lat="48.29346" lon="2.69461">
        <ele>58</ele>
        <time>2022-11-23T08:32:43.347Z</time>
      </trkpt>
      <trkpt lat="48.29352" lon="2.69464">
        <ele>58</ele>
        <time>2022-11-23T08:32:47.489Z</time>
      </trkpt>
      <trkpt lat="48.29359" lon="2.69464">
        <ele>58</ele>
        <time>2022-11-23T08:32:51.859Z</time>
      </trkpt>
      <trkpt lat="48.29364" lon="2.69462">
        <ele>58</ele>
        <time>2022-11-23T08:32:56.470Z</time>
      </trkpt>
      <trkpt lat="48.29368" lon="2.69461">
        <ele>58</ele>
        <time>2022-11-23T08:33:00.828Z</time>
      </trkpt>
      <trkpt lat="48.29376" lon="2.69464">
        <ele>57</ele>
        <time>2022-11-23T08:33:04.901Z</time>
      </trkpt>
      <trkpt lat="48.29381" lon="2.69468">
        <ele>57</ele>
        <time>2022-11-23T08:33:09.368Z</time>
      </trkpt>
      <trkpt lat="48.29388" lon="2.6947">
        <ele>57</ele>
        <time>2022-11-23T08:33:13.404Z</time>
      </trkpt>
      <trkpt lat="48.29394" lon="2.69471">
        <ele>57</ele>
        <time>2022-11-23T08:33:18.227Z</time>
      </trkpt>
      <trkpt lat="48.294" lon="2.69472">
        <ele>57</ele>
        <time>2022-11-23T08:33:22.760Z</time>
      </trkpt>
      <trkpt lat="48.29405" lon="2.69472">
        <ele>58</ele>
        <time>2022-11-23T08:33:27.185Z</time>
      </trkpt>
      <trkpt lat="48.29413" lon="2.69472">
        <ele>58</ele>
        <time>2022-11-23T08:33:32.204Z</time>
      </trkpt>
      <trkpt lat="48.29417" lon="2.69473">
        <ele>58</ele>
        <time>2022-11-23T08:33:36.341Z</time>
      </trkpt>
      <trkpt lat="48.29423" lon="2.69473">
        <ele>58</ele>
        <time>2022-11-23T08:33:41.266Z</time>
      </trkpt>
      <trkpt lat="48.29429" lon="2.69475">
        <ele>58</ele>
        <time>2022-11-23T08:33:45.494Z</time>
      </trkpt>
      <trkpt lat="48.29435" lon="2.69476">
        <ele>59</ele>
        <time>2022-11-23T08:33:49.725Z</time>
      </trkpt>
      <trkpt lat="48.2944" lon="2.69477">
        <ele>59</ele>
        <time>2022-11-23T08:33:54.069Z</time>
      </trkpt>
      <trkpt lat="48.29447" lon="2.69477">
        <ele>59</ele>
        <time>2022-11-23T08:33:58.481Z</time>
      </trkpt>
      <trkpt lat="48.29454" lon="2.69477">
        <ele>59</ele>
        <time>2022-11-23T08:34:03.264Z</time>
      </trkpt>
      <trkpt lat="48.2946" lon="2.69476">
        <ele>59</ele>
        <time>2022-11-23T08:34:08.259Z</time>
      </trkpt>
      <trkpt lat="48.29467" lon="2.69476">
        <ele>59</ele>
        <time>2022-11-23T08:34:13.265Z</time>
      </trkpt>
      <trkpt lat="48.29472" lon="2.69475">
        <ele>59</ele>
        <time>2022-11-23T08:34:18.147Z</time>
      </trkpt>
      <trkpt lat="48.29478" lon="2.69475">
        <ele>59</ele>
        <time>2022-11-23T08:34:22.508Z</time>
      </trkpt>
      <trkpt lat="48.29484" lon="2.69476">
        <ele>59</ele>
        <time>2022-11-23T08:34:26.988Z</time>
      </trkpt>
      <trkpt lat="48.2949" lon="2.69474">
        <ele>57</ele>
        <time>2022-11-23T08:34:31.150Z</time>
      </trkpt>
      <trkpt lat="48.29496" lon="2.69474">
        <ele>57</ele>
        <time>2022-11-23T08:34:35.485Z</time>
      </trkpt>
      <trkpt lat="48.29502" lon="2.69474">
        <ele>57</ele>
        <time>2022-11-23T08:34:39.741Z</time>
      </trkpt>
      <trkpt lat="48.29508" lon="2.69474">
        <ele>57</ele>
        <time>2022-11-23T08:34:44.423Z</time>
      </trkpt>
      <trkpt lat="48.29514" lon="2.69475">
        <ele>59</ele>
        <time>2022-11-23T08:34:49.144Z</time>
      </trkpt>
      <trkpt lat="48.2952" lon="2.69474">
        <ele>59</ele>
        <time>2022-11-23T08:34:53.507Z</time>
      </trkpt>
      <trkpt lat="48.29527" lon="2.69475">
        <ele>59</ele>
        <time>2022-11-23T08:34:58.014Z</time>
      </trkpt>
      <trkpt lat="48.29534" lon="2.69476">
        <ele>59</ele>
        <time>2022-11-23T08:35:02.446Z</time>
      </trkpt>
      <trkpt lat="48.29538" lon="2.69476">
        <ele>59</ele>
        <time>2022-11-23T08:35:06.526Z</time>
      </trkpt>
      <trkpt lat="48.29543" lon="2.69476">
        <ele>60</ele>
        <time>2022-11-23T08:35:10.804Z</time>
      </trkpt>
      <trkpt lat="48.29547" lon="2.69474">
        <ele>60</ele>
        <time>2022-11-23T08:35:15.461Z</time>
      </trkpt>
      <trkpt lat="48.29548" lon="2.69476">
        <ele>60</ele>
        <time>2022-11-23T08:35:19.467Z</time>
      </trkpt>
      <trkpt lat="48.29548" lon="2.69477">
        <ele>60</ele>
        <time>2022-11-23T08:35:24.405Z</time>
      </trkpt>
      <trkpt lat="48.29553" lon="2.69477">
        <ele>60</ele>
        <time>2022-11-23T08:35:28.493Z</time>
      </trkpt>
      <trkpt lat="48.2956" lon="2.69473">
        <ele>60</ele>
        <time>2022-11-23T08:35:33.167Z</time>
      </trkpt>
      <trkpt lat="48.29566" lon="2.69472">
        <ele>60</ele>
        <time>2022-11-23T08:35:37.243Z</time>
      </trkpt>
      <trkpt lat="48.29573" lon="2.69469">
        <ele>59</ele>
        <time>2022-11-23T08:35:41.391Z</time>
      </trkpt>
      <trkpt lat="48.29577" lon="2.69468">
        <ele>59</ele>
        <time>2022-11-23T08:35:45.400Z</time>
      </trkpt>
      <trkpt lat="48.29584" lon="2.6947">
        <ele>59</ele>
        <time>2022-11-23T08:35:49.744Z</time>
      </trkpt>
      <trkpt lat="48.2959" lon="2.6947">
        <ele>59</ele>
        <time>2022-11-23T08:35:54.346Z</time>
      </trkpt>
      <trkpt lat="48.29595" lon="2.69471">
        <ele>59</ele>
        <time>2022-11-23T08:35:58.766Z</time>
      </trkpt>
      <trkpt lat="48.29601" lon="2.69471">
        <ele>58</ele>
        <time>2022-11-23T08:36:03.470Z</time>
      </trkpt>
      <trkpt lat="48.29604" lon="2.69474">
        <ele>58</ele>
        <time>2022-11-23T08:36:08.244Z</time>
      </trkpt>
      <trkpt lat="48.29609" lon="2.69476">
        <ele>58</ele>
        <time>2022-11-23T08:36:12.304Z</time>
      </trkpt>
      <trkpt lat="48.29619" lon="2.69474">
        <ele>58</ele>
        <time>2022-11-23T08:36:17.222Z</time>
      </trkpt>
      <trkpt lat="48.29626" lon="2.69475">
        <ele>57</ele>
        <time>2022-11-23T08:36:22.223Z</time>
      </trkpt>
      <trkpt lat="48.29631" lon="2.69471">
        <ele>57</ele>
        <time>2022-11-23T08:36:26.347Z</time>
      </trkpt>
      <trkpt lat="48.29638" lon="2.69468">
        <ele>57</ele>
        <time>2022-11-23T08:36:30.983Z</time>
      </trkpt>
      <trkpt lat="48.29644" lon="2.69466">
        <ele>57</ele>
        <time>2022-11-23T08:36:35.444Z</time>
      </trkpt>
      <trkpt lat="48.29651" lon="2.69467">
        <ele>57</ele>
        <time>2022-11-23T08:36:40.470Z</time>
      </trkpt>
      <trkpt lat="48.29657" lon="2.69468">
        <ele>56</ele>
        <time>2022-11-23T08:36:45.084Z</time>
      </trkpt>
      <trkpt lat="48.29662" lon="2.69468">
        <ele>56</ele>
        <time>2022-11-23T08:36:49.359Z</time>
      </trkpt>
      <trkpt lat="48.29665" lon="2.6947">
        <ele>56</ele>
        <time>2022-11-23T08:36:53.469Z</time>
      </trkpt>
      <trkpt lat="48.29667" lon="2.6947">
        <ele>56</ele>
        <time>2022-11-23T08:36:57.788Z</time>
      </trkpt>
      <trkpt lat="48.29674" lon="2.69468">
        <ele>56</ele>
        <time>2022-11-23T08:37:02.109Z</time>
      </trkpt>
      <trkpt lat="48.29682" lon="2.69467">
        <ele>57</ele>
        <time>2022-11-23T08:37:06.563Z</time>
      </trkpt>
      <trkpt lat="48.29689" lon="2.69468">
        <ele>57</ele>
        <time>2022-11-23T08:37:11.042Z</time>
      </trkpt>
      <trkpt lat="48.29695" lon="2.69468">
        <ele>57</ele>
        <time>2022-11-23T08:37:15.472Z</time>
      </trkpt>
      <trkpt lat="48.29702" lon="2.69467">
        <ele>57</ele>
        <time>2022-11-23T08:37:20.106Z</time>
      </trkpt>
      <trkpt lat="48.29708" lon="2.69466">
        <ele>57</ele>
        <time>2022-11-23T08:37:24.462Z</time>
      </trkpt>
      <trkpt lat="48.29715" lon="2.69464">
        <ele>60</ele>
        <time>2022-11-23T08:37:28.925Z</time>
      </trkpt>
      <trkpt lat="48.29721" lon="2.69462">
        <ele>60</ele>
        <time>2022-11-23T08:37:33.200Z</time>
      </trkpt>
      <trkpt lat="48.29727" lon="2.69461">
        <ele>60</ele>
        <time>2022-11-23T08:37:37.477Z</time>
      </trkpt>
      <trkpt lat="48.29733" lon="2.69461">
        <ele>60</ele>
        <time>2022-11-23T08:37:41.929Z</time>
      </trkpt>
      <trkpt lat="48.29739" lon="2.69461">
        <ele>59</ele>
        <time>2022-11-23T08:37:46.306Z</time>
      </trkpt>
      <trkpt lat="48.29746" lon="2.6946">
        <ele>59</ele>
        <time>2022-11-23T08:37:51.162Z</time>
      </trkpt>
      <trkpt lat="48.29752" lon="2.6946">
        <ele>59</ele>
        <time>2022-11-23T08:37:55.473Z</time>
      </trkpt>
      <trkpt lat="48.29759" lon="2.69459">
        <ele>59</ele>
        <time>2022-11-23T08:37:59.907Z</time>
      </trkpt>
      <trkpt lat="48.29764" lon="2.69458">
        <ele>59</ele>
        <time>2022-11-23T08:38:04.346Z</time>
      </trkpt>
      <trkpt lat="48.29771" lon="2.69458">
        <ele>59</ele>
        <time>2022-11-23T08:38:09.147Z</time>
      </trkpt>
      <trkpt lat="48.29776" lon="2.69457">
        <ele>59</ele>
        <time>2022-11-23T08:38:13.466Z</time>
      </trkpt>
      <trkpt lat="48.29784" lon="2.69456">
        <ele>59</ele>
        <time>2022-11-23T08:38:18.453Z</time>
      </trkpt>
      <trkpt lat="48.2979" lon="2.69455">
        <ele>59</ele>
        <time>2022-11-23T08:38:22.941Z</time>
      </trkpt>
      <trkpt lat="48.29796" lon="2.69456">
        <ele>59</ele>
        <time>2022-11-23T08:38:27.424Z</time>
      </trkpt>
      <trkpt lat="48.29803" lon="2.69457">
        <ele>59</ele>
        <time>2022-11-23T08:38:32.267Z</time>
      </trkpt>
      <trkpt lat="48.29809" lon="2.6946">
        <ele>59</ele>
        <time>2022-11-23T08:38:36.649Z</time>
      </trkpt>
      <trkpt lat="48.29815" lon="2.69462">
        <ele>59</ele>
        <time>2022-11-23T08:38:40.910Z</time>
      </trkpt>
      <trkpt lat="48.29821" lon="2.69464">
        <ele>59</ele>
        <time>2022-11-23T08:38:45.480Z</time>
      </trkpt>
      <trkpt lat="48.29827" lon="2.69465">
        <ele>59</ele>
        <time>2022-11-23T08:38:50.385Z</time>
      </trkpt>
      <trkpt lat="48.29833" lon="2.69467">
        <ele>59</ele>
        <time>2022-11-23T08:38:55.187Z</time>
      </trkpt>
      <trkpt lat="48.29837" lon="2.69469">
        <ele>59</ele>
        <time>2022-11-23T08:38:59.248Z</time>
      </trkpt>
      <trkpt lat="48.29843" lon="2.69472">
        <ele>59</ele>
        <time>2022-11-23T08:39:03.448Z</time>
      </trkpt>
      <trkpt lat="48.2985" lon="2.69476">
        <ele>60</ele>
        <time>2022-11-23T08:39:07.985Z</time>
      </trkpt>
      <trkpt lat="48.29856" lon="2.69475">
        <ele>60</ele>
        <time>2022-11-23T08:39:12.368Z</time>
      </trkpt>
      <trkpt lat="48.29859" lon="2.69474">
        <ele>60</ele>
        <time>2022-11-23T08:39:16.983Z</time>
      </trkpt>
      <trkpt lat="48.29862" lon="2.69471">
        <ele>60</ele>
        <time>2022-11-23T08:39:21.482Z</time>
      </trkpt>
      <trkpt lat="48.29867" lon="2.69471">
        <ele>60</ele>
        <time>2022-11-23T08:39:25.861Z</time>
      </trkpt>
      <trkpt lat="48.29871" lon="2.69465">
        <ele>60</ele>
        <time>2022-11-23T08:39:30.502Z</time>
      </trkpt>
      <trkpt lat="48.29874" lon="2.69461">
        <ele>60</ele>
        <time>2022-11-23T08:39:34.967Z</time>
      </trkpt>
      <trkpt lat="48.29877" lon="2.69454">
        <ele>62</ele>
        <time>2022-11-23T08:39:39.480Z</time>
      </trkpt>
      <trkpt lat="48.2988" lon="2.6945">
        <ele>62</ele>
        <time>2022-11-23T08:39:44.403Z</time>
      </trkpt>
      <trkpt lat="48.29886" lon="2.69447">
        <ele>62</ele>
        <time>2022-11-23T08:39:49.341Z</time>
      </trkpt>
      <trkpt lat="48.29892" lon="2.69444">
        <ele>62</ele>
        <time>2022-11-23T08:39:54.504Z</time>
      </trkpt>
      <trkpt lat="48.29897" lon="2.69443">
        <ele>62</ele>
        <time>2022-11-23T08:39:59.008Z</time>
      </trkpt>
      <trkpt lat="48.29901" lon="2.69438">
        <ele>62</ele>
        <time>2022-11-23T08:40:03.468Z</time>
      </trkpt>
      <trkpt lat="48.29908" lon="2.69433">
        <ele>59</ele>
        <time>2022-11-23T08:40:08.447Z</time>
      </trkpt>
      <trkpt lat="48.29914" lon="2.69431">
        <ele>59</ele>
        <time>2022-11-23T08:40:13.062Z</time>
      </trkpt>
      <trkpt lat="48.2992" lon="2.69429">
        <ele>61</ele>
        <time>2022-11-23T08:40:17.305Z</time>
      </trkpt>
      <trkpt lat="48.29926" lon="2.69425">
        <ele>61</ele>
        <time>2022-11-23T08:40:22.510Z</time>
      </trkpt>
      <trkpt lat="48.29932" lon="2.69424">
        <ele>59</ele>
        <time>2022-11-23T08:40:27.446Z</time>
      </trkpt>
      <trkpt lat="48.29936" lon="2.69423">
        <ele>59</ele>
        <time>2022-11-23T08:40:31.501Z</time>
      </trkpt>
      <trkpt lat="48.29941" lon="2.69423">
        <ele>59</ele>
        <time>2022-11-23T08:40:35.828Z</time>
      </trkpt>
      <trkpt lat="48.29946" lon="2.69419">
        <ele>59</ele>
        <time>2022-11-23T08:40:40.170Z</time>
      </trkpt>
      <trkpt lat="48.29952" lon="2.69415">
        <ele>59</ele>
        <time>2022-11-23T08:40:44.400Z</time>
      </trkpt>
      <trkpt lat="48.29959" lon="2.6941">
        <ele>59</ele>
        <time>2022-11-23T08:40:49.497Z</time>
      </trkpt>
      <trkpt lat="48.29962" lon="2.69409">
        <ele>59</ele>
        <time>2022-11-23T08:40:54.488Z</time>
      </trkpt>
      <trkpt lat="48.29966" lon="2.69413">
        <ele>59</ele>
        <time>2022-11-23T08:40:58.496Z</time>
      </trkpt>
      <trkpt lat="48.29975" lon="2.69406">
        <ele>59</ele>
        <time>2022-11-23T08:41:41.149Z</time>
      </trkpt>
      <trkpt lat="48.29973" lon="2.69402">
        <ele>59</ele>
        <time>2022-11-23T08:41:46.240Z</time>
      </trkpt>
      <trkpt lat="48.29976" lon="2.69399">
        <ele>59</ele>
        <time>2022-11-23T08:41:50.442Z</time>
      </trkpt>
      <trkpt lat="48.29978" lon="2.69398">
        <ele>59</ele>
        <time>2022-11-23T08:41:55.523Z</time>
      </trkpt>
      <trkpt lat="48.29981" lon="2.69393">
        <ele>59</ele>
        <time>2022-11-23T08:41:59.744Z</time>
      </trkpt>
      <trkpt lat="48.29991" lon="2.6938">
        <ele>59</ele>
        <time>2022-11-23T08:42:04.206Z</time>
      </trkpt>
      <trkpt lat="48.29995" lon="2.69372">
        <ele>58</ele>
        <time>2022-11-23T08:42:08.209Z</time>
      </trkpt>
      <trkpt lat="48.29998" lon="2.69365">
        <ele>58</ele>
        <time>2022-11-23T08:42:12.281Z</time>
      </trkpt>
      <trkpt lat="48.30003" lon="2.69359">
        <ele>58</ele>
        <time>2022-11-23T08:42:16.333Z</time>
      </trkpt>
      <trkpt lat="48.30009" lon="2.69353">
        <ele>58</ele>
        <time>2022-11-23T08:42:20.844Z</time>
      </trkpt>
      <trkpt lat="48.30013" lon="2.69348">
        <ele>58</ele>
        <time>2022-11-23T08:42:24.886Z</time>
      </trkpt>
      <trkpt lat="48.30017" lon="2.69341">
        <ele>56</ele>
        <time>2022-11-23T08:42:29.306Z</time>
      </trkpt>
      <trkpt lat="48.30022" lon="2.69333">
        <ele>56</ele>
        <time>2022-11-23T08:42:33.424Z</time>
      </trkpt>
      <trkpt lat="48.30026" lon="2.69327">
        <ele>56</ele>
        <time>2022-11-23T08:42:37.425Z</time>
      </trkpt>
      <trkpt lat="48.3003" lon="2.69321">
        <ele>56</ele>
        <time>2022-11-23T08:42:41.921Z</time>
      </trkpt>
      <trkpt lat="48.30035" lon="2.69317">
        <ele>56</ele>
        <time>2022-11-23T08:42:45.923Z</time>
      </trkpt>
      <trkpt lat="48.30039" lon="2.6931">
        <ele>56</ele>
        <time>2022-11-23T08:42:49.942Z</time>
      </trkpt>
      <trkpt lat="48.30045" lon="2.69305">
        <ele>57</ele>
        <time>2022-11-23T08:42:53.960Z</time>
      </trkpt>
      <trkpt lat="48.30049" lon="2.69298">
        <ele>57</ele>
        <time>2022-11-23T08:42:58.483Z</time>
      </trkpt>
      <trkpt lat="48.30052" lon="2.69292">
        <ele>57</ele>
        <time>2022-11-23T08:43:02.508Z</time>
      </trkpt>
      <trkpt lat="48.30055" lon="2.69285">
        <ele>58</ele>
        <time>2022-11-23T08:43:07.109Z</time>
      </trkpt>
      <trkpt lat="48.30059" lon="2.69278">
        <ele>58</ele>
        <time>2022-11-23T08:43:11.510Z</time>
      </trkpt>
      <trkpt lat="48.30065" lon="2.69268">
        <ele>58</ele>
        <time>2022-11-23T08:43:15.707Z</time>
      </trkpt>
      <trkpt lat="48.30071" lon="2.69263">
        <ele>61</ele>
        <time>2022-11-23T08:43:20.209Z</time>
      </trkpt>
      <trkpt lat="48.30077" lon="2.69257">
        <ele>61</ele>
        <time>2022-11-23T08:43:24.502Z</time>
      </trkpt>
      <trkpt lat="48.30082" lon="2.6925">
        <ele>61</ele>
        <time>2022-11-23T08:43:28.746Z</time>
      </trkpt>
      <trkpt lat="48.30085" lon="2.69242">
        <ele>61</ele>
        <time>2022-11-23T08:43:32.784Z</time>
      </trkpt>
      <trkpt lat="48.3009" lon="2.69238">
        <ele>61</ele>
        <time>2022-11-23T08:43:37.127Z</time>
      </trkpt>
      <trkpt lat="48.30095" lon="2.69234">
        <ele>60</ele>
        <time>2022-11-23T08:43:42.187Z</time>
      </trkpt>
      <trkpt lat="48.30097" lon="2.6923">
        <ele>60</ele>
        <time>2022-11-23T08:43:46.495Z</time>
      </trkpt>
      <trkpt lat="48.30103" lon="2.69223">
        <ele>63</ele>
        <time>2022-11-23T08:43:50.842Z</time>
      </trkpt>
      <trkpt lat="48.30108" lon="2.69212">
        <ele>63</ele>
        <time>2022-11-23T08:43:54.883Z</time>
      </trkpt>
      <trkpt lat="48.30112" lon="2.69206">
        <ele>63</ele>
        <time>2022-11-23T08:43:59.182Z</time>
      </trkpt>
      <trkpt lat="48.30116" lon="2.69198">
        <ele>63</ele>
        <time>2022-11-23T08:44:03.505Z</time>
      </trkpt>
      <trkpt lat="48.30121" lon="2.69192">
        <ele>63</ele>
        <time>2022-11-23T08:44:08.229Z</time>
      </trkpt>
      <trkpt lat="48.30125" lon="2.69186">
        <ele>67</ele>
        <time>2022-11-23T08:44:12.447Z</time>
      </trkpt>
      <trkpt lat="48.3013" lon="2.69181">
        <ele>67</ele>
        <time>2022-11-23T08:44:16.499Z</time>
      </trkpt>
      <trkpt lat="48.30135" lon="2.69173">
        <ele>67</ele>
        <time>2022-11-23T08:44:20.864Z</time>
      </trkpt>
      <trkpt lat="48.3014" lon="2.69167">
        <ele>67</ele>
        <time>2022-11-23T08:44:25.265Z</time>
      </trkpt>
      <trkpt lat="48.30143" lon="2.69164">
        <ele>67</ele>
        <time>2022-11-23T08:44:29.486Z</time>
      </trkpt>
      <trkpt lat="48.30147" lon="2.69159">
        <ele>67</ele>
        <time>2022-11-23T08:44:34.224Z</time>
      </trkpt>
      <trkpt lat="48.30152" lon="2.69157">
        <ele>67</ele>
        <time>2022-11-23T08:44:38.243Z</time>
      </trkpt>
      <trkpt lat="48.30156" lon="2.69152">
        <ele>67</ele>
        <time>2022-11-23T08:44:43.141Z</time>
      </trkpt>
      <trkpt lat="48.30161" lon="2.69148">
        <ele>67</ele>
        <time>2022-11-23T08:44:47.300Z</time>
      </trkpt>
      <trkpt lat="48.30165" lon="2.69145">
        <ele>67</ele>
        <time>2022-11-23T08:44:52.189Z</time>
      </trkpt>
      <trkpt lat="48.3017" lon="2.69141">
        <ele>67</ele>
        <time>2022-11-23T08:44:57.066Z</time>
      </trkpt>
      <trkpt lat="48.30176" lon="2.69139">
        <ele>67</ele>
        <time>2022-11-23T08:45:01.386Z</time>
      </trkpt>
      <trkpt lat="48.30183" lon="2.69133">
        <ele>66</ele>
        <time>2022-11-23T08:45:05.724Z</time>
      </trkpt>
      <trkpt lat="48.30187" lon="2.69129">
        <ele>66</ele>
        <time>2022-11-23T08:45:10.516Z</time>
      </trkpt>
      <trkpt lat="48.30194" lon="2.69127">
        <ele>66</ele>
        <time>2022-11-23T08:45:15.517Z</time>
      </trkpt>
      <trkpt lat="48.30201" lon="2.69125">
        <ele>66</ele>
        <time>2022-11-23T08:45:19.924Z</time>
      </trkpt>
      <trkpt lat="48.30207" lon="2.69124">
        <ele>65</ele>
        <time>2022-11-23T08:45:24.105Z</time>
      </trkpt>
      <trkpt lat="48.30214" lon="2.69121">
        <ele>62</ele>
        <time>2022-11-23T08:45:28.363Z</time>
      </trkpt>
      <trkpt lat="48.3022" lon="2.69121">
        <ele>62</ele>
        <time>2022-11-23T08:45:32.511Z</time>
      </trkpt>
      <trkpt lat="48.30226" lon="2.6912">
        <ele>62</ele>
        <time>2022-11-23T08:45:36.941Z</time>
      </trkpt>
      <trkpt lat="48.30231" lon="2.69118">
        <ele>62</ele>
        <time>2022-11-23T08:45:41.180Z</time>
      </trkpt>
      <trkpt lat="48.30237" lon="2.69117">
        <ele>60</ele>
        <time>2022-11-23T08:45:45.870Z</time>
      </trkpt>
      <trkpt lat="48.30245" lon="2.69115">
        <ele>60</ele>
        <time>2022-11-23T08:45:51.031Z</time>
      </trkpt>
      <trkpt lat="48.30251" lon="2.69114">
        <ele>60</ele>
        <time>2022-11-23T08:45:55.032Z</time>
      </trkpt>
      <trkpt lat="48.30257" lon="2.69111">
        <ele>60</ele>
        <time>2022-11-23T08:45:59.387Z</time>
      </trkpt>
      <trkpt lat="48.30261" lon="2.69109">
        <ele>60</ele>
        <time>2022-11-23T08:46:03.809Z</time>
      </trkpt>
      <trkpt lat="48.30266" lon="2.69108">
        <ele>61</ele>
        <time>2022-11-23T08:46:08.047Z</time>
      </trkpt>
      <trkpt lat="48.30271" lon="2.69105">
        <ele>61</ele>
        <time>2022-11-23T08:46:12.648Z</time>
      </trkpt>
      <trkpt lat="48.30278" lon="2.69104">
        <ele>61</ele>
        <time>2022-11-23T08:46:17.328Z</time>
      </trkpt>
      <trkpt lat="48.30287" lon="2.69105">
        <ele>61</ele>
        <time>2022-11-23T08:46:21.525Z</time>
      </trkpt>
      <trkpt lat="48.30294" lon="2.69107">
        <ele>64</ele>
        <time>2022-11-23T08:46:25.784Z</time>
      </trkpt>
      <trkpt lat="48.303" lon="2.69108">
        <ele>64</ele>
        <time>2022-11-23T08:46:30.025Z</time>
      </trkpt>
      <trkpt lat="48.30304" lon="2.69109">
        <ele>64</ele>
        <time>2022-11-23T08:46:34.286Z</time>
      </trkpt>
      <trkpt lat="48.3031" lon="2.69108">
        <ele>64</ele>
        <time>2022-11-23T08:46:38.505Z</time>
      </trkpt>
      <trkpt lat="48.30317" lon="2.69107">
        <ele>64</ele>
        <time>2022-11-23T08:46:42.944Z</time>
      </trkpt>
      <trkpt lat="48.30325" lon="2.69107">
        <ele>65</ele>
        <time>2022-11-23T08:46:47.303Z</time>
      </trkpt>
      <trkpt lat="48.30331" lon="2.69106">
        <ele>65</ele>
        <time>2022-11-23T08:46:51.581Z</time>
      </trkpt>
      <trkpt lat="48.30339" lon="2.69104">
        <ele>65</ele>
        <time>2022-11-23T08:46:56.008Z</time>
      </trkpt>
      <trkpt lat="48.30346" lon="2.69102">
        <ele>65</ele>
        <time>2022-11-23T08:47:00.408Z</time>
      </trkpt>
      <trkpt lat="48.30352" lon="2.69101">
        <ele>64</ele>
        <time>2022-11-23T08:47:04.513Z</time>
      </trkpt>
      <trkpt lat="48.30358" lon="2.69099">
        <ele>64</ele>
        <time>2022-11-23T08:47:08.823Z</time>
      </trkpt>
      <trkpt lat="48.30363" lon="2.69095">
        <ele>64</ele>
        <time>2022-11-23T08:47:13.048Z</time>
      </trkpt>
      <trkpt lat="48.30368" lon="2.69091">
        <ele>64</ele>
        <time>2022-11-23T08:47:17.285Z</time>
      </trkpt>
      <trkpt lat="48.30374" lon="2.69086">
        <ele>64</ele>
        <time>2022-11-23T08:47:21.566Z</time>
      </trkpt>
      <trkpt lat="48.30379" lon="2.69082">
        <ele>66</ele>
        <time>2022-11-23T08:47:25.724Z</time>
      </trkpt>
      <trkpt lat="48.30385" lon="2.6908">
        <ele>66</ele>
        <time>2022-11-23T08:47:30.162Z</time>
      </trkpt>
      <trkpt lat="48.30391" lon="2.6908">
        <ele>66</ele>
        <time>2022-11-23T08:47:34.512Z</time>
      </trkpt>
      <trkpt lat="48.30398" lon="2.6908">
        <ele>66</ele>
        <time>2022-11-23T08:47:38.983Z</time>
      </trkpt>
      <trkpt lat="48.30404" lon="2.69081">
        <ele>67</ele>
        <time>2022-11-23T08:47:43.309Z</time>
      </trkpt>
      <trkpt lat="48.30411" lon="2.69081">
        <ele>67</ele>
        <time>2022-11-23T08:47:47.504Z</time>
      </trkpt>
      <trkpt lat="48.30418" lon="2.69081">
        <ele>67</ele>
        <time>2022-11-23T08:47:52.221Z</time>
      </trkpt>
      <trkpt lat="48.30424" lon="2.69084">
        <ele>67</ele>
        <time>2022-11-23T08:47:56.525Z</time>
      </trkpt>
      <trkpt lat="48.3043" lon="2.69085">
        <ele>67</ele>
        <time>2022-11-23T08:48:00.517Z</time>
      </trkpt>
      <trkpt lat="48.30435" lon="2.69084">
        <ele>65</ele>
        <time>2022-11-23T08:48:05.227Z</time>
      </trkpt>
      <trkpt lat="48.3044" lon="2.69085">
        <ele>65</ele>
        <time>2022-11-23T08:48:09.703Z</time>
      </trkpt>
      <trkpt lat="48.30446" lon="2.69088">
        <ele>65</ele>
        <time>2022-11-23T08:48:14.017Z</time>
      </trkpt>
      <trkpt lat="48.30452" lon="2.6909">
        <ele>65</ele>
        <time>2022-11-23T08:48:18.351Z</time>
      </trkpt>
      <trkpt lat="48.30458" lon="2.69091">
        <ele>65</ele>
        <time>2022-11-23T08:48:22.515Z</time>
      </trkpt>
      <trkpt lat="48.30464" lon="2.69093">
        <ele>64</ele>
        <time>2022-11-23T08:48:26.883Z</time>
      </trkpt>
      <trkpt lat="48.30469" lon="2.69095">
        <ele>64</ele>
        <time>2022-11-23T08:48:31.146Z</time>
      </trkpt>
      <trkpt lat="48.30476" lon="2.69095">
        <ele>64</ele>
        <time>2022-11-23T08:48:35.331Z</time>
      </trkpt>
      <trkpt lat="48.30482" lon="2.69094">
        <ele>64</ele>
        <time>2022-11-23T08:48:39.583Z</time>
      </trkpt>
      <trkpt lat="48.30488" lon="2.69093">
        <ele>65</ele>
        <time>2022-11-23T08:48:43.927Z</time>
      </trkpt>
      <trkpt lat="48.30494" lon="2.69094">
        <ele>65</ele>
        <time>2022-11-23T08:48:48.281Z</time>
      </trkpt>
      <trkpt lat="48.30501" lon="2.69098">
        <ele>66</ele>
        <time>2022-11-23T08:48:52.503Z</time>
      </trkpt>
      <trkpt lat="48.30507" lon="2.69099">
        <ele>66</ele>
        <time>2022-11-23T08:48:56.890Z</time>
      </trkpt>
      <trkpt lat="48.30513" lon="2.69099">
        <ele>66</ele>
        <time>2022-11-23T08:49:01.384Z</time>
      </trkpt>
      <trkpt lat="48.30518" lon="2.69099">
        <ele>66</ele>
        <time>2022-11-23T08:49:06.188Z</time>
      </trkpt>
      <trkpt lat="48.30524" lon="2.69098">
        <ele>66</ele>
        <time>2022-11-23T08:49:10.498Z</time>
      </trkpt>
      <trkpt lat="48.30531" lon="2.69104">
        <ele>66</ele>
        <time>2022-11-23T08:49:15.521Z</time>
      </trkpt>
      <trkpt lat="48.30542" lon="2.69115">
        <ele>63</ele>
        <time>2022-11-23T08:49:29.520Z</time>
      </trkpt>
      <trkpt lat="48.30543" lon="2.69116">
        <ele>63</ele>
        <time>2022-11-23T08:49:34.477Z</time>
      </trkpt>
      <trkpt lat="48.30544" lon="2.69116">
        <ele>63</ele>
        <time>2022-11-23T08:49:38.509Z</time>
      </trkpt>
      <trkpt lat="48.30545" lon="2.69117">
        <ele>63</ele>
        <time>2022-11-23T08:49:43.517Z</time>
      </trkpt>
      <trkpt lat="48.30545" lon="2.69116">
        <ele>63</ele>
        <time>2022-11-23T08:49:47.516Z</time>
      </trkpt>
      <trkpt lat="48.30549" lon="2.69118">
        <ele>63</ele>
        <time>2022-11-23T08:49:57.519Z</time>
      </trkpt>
      <trkpt lat="48.30549" lon="2.69118">
        <ele>63</ele>
        <time>2022-11-23T08:50:02.531Z</time>
      </trkpt>
      <trkpt lat="48.30549" lon="2.69118">
        <ele>63</ele>
        <time>2022-11-23T08:50:07.521Z</time>
      </trkpt>
      <trkpt lat="48.30552" lon="2.69119">
        <ele>63</ele>
        <time>2022-11-23T08:50:12.202Z</time>
      </trkpt>
      <trkpt lat="48.30557" lon="2.69116">
        <ele>63</ele>
        <time>2022-11-23T08:50:16.266Z</time>
      </trkpt>
      <trkpt lat="48.30566" lon="2.69115">
        <ele>63</ele>
        <time>2022-11-23T08:50:25.149Z</time>
      </trkpt>
      <trkpt lat="48.30569" lon="2.69113">
        <ele>63</ele>
        <time>2022-11-23T08:50:29.516Z</time>
      </trkpt>
      <trkpt lat="48.30569" lon="2.69113">
        <ele>61</ele>
        <time>2022-11-23T08:50:34.527Z</time>
      </trkpt>
      <trkpt lat="48.3057" lon="2.69113">
        <ele>61</ele>
        <time>2022-11-23T08:50:39.470Z</time>
      </trkpt>
      <trkpt lat="48.30572" lon="2.69112">
        <ele>61</ele>
        <time>2022-11-23T08:50:44.474Z</time>
      </trkpt>
      <trkpt lat="48.30576" lon="2.69114">
        <ele>61</ele>
        <time>2022-11-23T08:50:59.486Z</time>
      </trkpt>
      <trkpt lat="48.30577" lon="2.69114">
        <ele>61</ele>
        <time>2022-11-23T08:51:04.472Z</time>
      </trkpt>
      <trkpt lat="48.30578" lon="2.69114">
        <ele>61</ele>
        <time>2022-11-23T08:51:09.478Z</time>
      </trkpt>
      <trkpt lat="48.30581" lon="2.69115">
        <ele>61</ele>
        <time>2022-11-23T08:51:13.497Z</time>
      </trkpt>
      <trkpt lat="48.30585" lon="2.69115">
        <ele>61</ele>
        <time>2022-11-23T08:51:17.883Z</time>
      </trkpt>
      <trkpt lat="48.30589" lon="2.69116">
        <ele>61</ele>
        <time>2022-11-23T08:51:22.042Z</time>
      </trkpt>
      <trkpt lat="48.30594" lon="2.69119">
        <ele>61</ele>
        <time>2022-11-23T08:51:26.284Z</time>
      </trkpt>
      <trkpt lat="48.30601" lon="2.69119">
        <ele>61</ele>
        <time>2022-11-23T08:51:31.143Z</time>
      </trkpt>
      <trkpt lat="48.30607" lon="2.69119">
        <ele>61</ele>
        <time>2022-11-23T08:51:35.487Z</time>
      </trkpt>
      <trkpt lat="48.30613" lon="2.69119">
        <ele>61</ele>
        <time>2022-11-23T08:51:39.497Z</time>
      </trkpt>
      <trkpt lat="48.30618" lon="2.6912">
        <ele>61</ele>
        <time>2022-11-23T08:51:43.928Z</time>
      </trkpt>
      <trkpt lat="48.30624" lon="2.69118">
        <ele>61</ele>
        <time>2022-11-23T08:51:48.502Z</time>
      </trkpt>
      <trkpt lat="48.30629" lon="2.69118">
        <ele>62</ele>
        <time>2022-11-23T08:51:52.665Z</time>
      </trkpt>
      <trkpt lat="48.30635" lon="2.69118">
        <ele>62</ele>
        <time>2022-11-23T08:51:57.301Z</time>
      </trkpt>
      <trkpt lat="48.30641" lon="2.69119">
        <ele>62</ele>
        <time>2022-11-23T08:52:01.471Z</time>
      </trkpt>
      <trkpt lat="48.30647" lon="2.69123">
        <ele>62</ele>
        <time>2022-11-23T08:52:05.729Z</time>
      </trkpt>
      <trkpt lat="48.30655" lon="2.69126">
        <ele>61</ele>
        <time>2022-11-23T08:52:10.166Z</time>
      </trkpt>
      <trkpt lat="48.30662" lon="2.69129">
        <ele>61</ele>
        <time>2022-11-23T08:52:14.305Z</time>
      </trkpt>
      <trkpt lat="48.30668" lon="2.69132">
        <ele>61</ele>
        <time>2022-11-23T08:52:18.463Z</time>
      </trkpt>
      <trkpt lat="48.30675" lon="2.69134">
        <ele>61</ele>
        <time>2022-11-23T08:52:23.141Z</time>
      </trkpt>
      <trkpt lat="48.30681" lon="2.69136">
        <ele>61</ele>
        <time>2022-11-23T08:52:27.359Z</time>
      </trkpt>
      <trkpt lat="48.30688" lon="2.69138">
        <ele>60</ele>
        <time>2022-11-23T08:52:32.029Z</time>
      </trkpt>
      <trkpt lat="48.30695" lon="2.6914">
        <ele>60</ele>
        <time>2022-11-23T08:52:36.228Z</time>
      </trkpt>
      <trkpt lat="48.30701" lon="2.69142">
        <ele>60</ele>
        <time>2022-11-23T08:52:40.428Z</time>
      </trkpt>
      <trkpt lat="48.30707" lon="2.69144">
        <ele>60</ele>
        <time>2022-11-23T08:52:44.628Z</time>
      </trkpt>
      <trkpt lat="48.30713" lon="2.69147">
        <ele>61</ele>
        <time>2022-11-23T08:52:49.308Z</time>
      </trkpt>
      <trkpt lat="48.30718" lon="2.69149">
        <ele>61</ele>
        <time>2022-11-23T08:52:53.492Z</time>
      </trkpt>
      <trkpt lat="48.30724" lon="2.69151">
        <ele>61</ele>
        <time>2022-11-23T08:52:58.126Z</time>
      </trkpt>
      <trkpt lat="48.30729" lon="2.69154">
        <ele>61</ele>
        <time>2022-11-23T08:53:02.287Z</time>
      </trkpt>
      <trkpt lat="48.30734" lon="2.69155">
        <ele>61</ele>
        <time>2022-11-23T08:53:06.326Z</time>
      </trkpt>
      <trkpt lat="48.3074" lon="2.69158">
        <ele>62</ele>
        <time>2022-11-23T08:53:10.425Z</time>
      </trkpt>
      <trkpt lat="48.30745" lon="2.69162">
        <ele>62</ele>
        <time>2022-11-23T08:53:14.762Z</time>
      </trkpt>
      <trkpt lat="48.30751" lon="2.69165">
        <ele>62</ele>
        <time>2022-11-23T08:53:18.851Z</time>
      </trkpt>
      <trkpt lat="48.30757" lon="2.69169">
        <ele>62</ele>
        <time>2022-11-23T08:53:23.067Z</time>
      </trkpt>
      <trkpt lat="48.30763" lon="2.69174">
        <ele>62</ele>
        <time>2022-11-23T08:53:27.449Z</time>
      </trkpt>
      <trkpt lat="48.30769" lon="2.69176">
        <ele>64</ele>
        <time>2022-11-23T08:53:32.247Z</time>
      </trkpt>
      <trkpt lat="48.30774" lon="2.69179">
        <ele>64</ele>
        <time>2022-11-23T08:53:36.509Z</time>
      </trkpt>
      <trkpt lat="48.3078" lon="2.69182">
        <ele>63</ele>
        <time>2022-11-23T08:53:40.922Z</time>
      </trkpt>
      <trkpt lat="48.30787" lon="2.69186">
        <ele>63</ele>
        <time>2022-11-23T08:53:45.181Z</time>
      </trkpt>
      <trkpt lat="48.30793" lon="2.6919">
        <ele>63</ele>
        <time>2022-11-23T08:53:49.428Z</time>
      </trkpt>
      <trkpt lat="48.30799" lon="2.69193">
        <ele>63</ele>
        <time>2022-11-23T08:53:53.527Z</time>
      </trkpt>
      <trkpt lat="48.30806" lon="2.69197">
        <ele>63</ele>
        <time>2022-11-23T08:53:58.489Z</time>
      </trkpt>
      <trkpt lat="48.30812" lon="2.692">
        <ele>63</ele>
        <time>2022-11-23T08:54:02.504Z</time>
      </trkpt>
      <trkpt lat="48.30818" lon="2.69203">
        <ele>63</ele>
        <time>2022-11-23T08:54:07.462Z</time>
      </trkpt>
      <trkpt lat="48.30824" lon="2.69206">
        <ele>64</ele>
        <time>2022-11-23T08:54:11.517Z</time>
      </trkpt>
      <trkpt lat="48.3083" lon="2.69207">
        <ele>64</ele>
        <time>2022-11-23T08:54:16.067Z</time>
      </trkpt>
      <trkpt lat="48.30836" lon="2.6921">
        <ele>64</ele>
        <time>2022-11-23T08:54:20.463Z</time>
      </trkpt>
      <trkpt lat="48.30841" lon="2.69212">
        <ele>64</ele>
        <time>2022-11-23T08:54:25.303Z</time>
      </trkpt>
      <trkpt lat="48.30848" lon="2.69212">
        <ele>64</ele>
        <time>2022-11-23T08:54:30.291Z</time>
      </trkpt>
      <trkpt lat="48.30854" lon="2.69213">
        <ele>64</ele>
        <time>2022-11-23T08:54:34.486Z</time>
      </trkpt>
      <trkpt lat="48.3086" lon="2.69214">
        <ele>64</ele>
        <time>2022-11-23T08:54:39.346Z</time>
      </trkpt>
      <trkpt lat="48.30867" lon="2.69215">
        <ele>64</ele>
        <time>2022-11-23T08:54:43.665Z</time>
      </trkpt>
      <trkpt lat="48.30874" lon="2.69216">
        <ele>64</ele>
        <time>2022-11-23T08:54:47.962Z</time>
      </trkpt>
      <trkpt lat="48.30881" lon="2.69217">
        <ele>64</ele>
        <time>2022-11-23T08:54:52.519Z</time>
      </trkpt>
      <trkpt lat="48.30887" lon="2.69217">
        <ele>64</ele>
        <time>2022-11-23T08:54:57.188Z</time>
      </trkpt>
      <trkpt lat="48.30891" lon="2.6922">
        <ele>64</ele>
        <time>2022-11-23T08:55:01.584Z</time>
      </trkpt>
      <trkpt lat="48.30897" lon="2.69223">
        <ele>64</ele>
        <time>2022-11-23T08:55:05.884Z</time>
      </trkpt>
      <trkpt lat="48.30902" lon="2.69226">
        <ele>64</ele>
        <time>2022-11-23T08:55:10.260Z</time>
      </trkpt>
      <trkpt lat="48.30908" lon="2.69229">
        <ele>64</ele>
        <time>2022-11-23T08:55:14.509Z</time>
      </trkpt>
      <trkpt lat="48.30913" lon="2.69232">
        <ele>64</ele>
        <time>2022-11-23T08:55:18.826Z</time>
      </trkpt>
      <trkpt lat="48.30919" lon="2.69235">
        <ele>64</ele>
        <time>2022-11-23T08:55:22.982Z</time>
      </trkpt>
      <trkpt lat="48.30925" lon="2.69238">
        <ele>63</ele>
        <time>2022-11-23T08:55:27.167Z</time>
      </trkpt>
      <trkpt lat="48.3093" lon="2.6924">
        <ele>63</ele>
        <time>2022-11-23T08:55:31.268Z</time>
      </trkpt>
      <trkpt lat="48.30936" lon="2.69241">
        <ele>64</ele>
        <time>2022-11-23T08:55:35.766Z</time>
      </trkpt>
      <trkpt lat="48.3094" lon="2.69243">
        <ele>64</ele>
        <time>2022-11-23T08:55:39.882Z</time>
      </trkpt>
      <trkpt lat="48.30947" lon="2.69243">
        <ele>64</ele>
        <time>2022-11-23T08:55:44.320Z</time>
      </trkpt>
      <trkpt lat="48.30954" lon="2.69247">
        <ele>64</ele>
        <time>2022-11-23T08:55:48.768Z</time>
      </trkpt>
      <trkpt lat="48.3096" lon="2.6925">
        <ele>65</ele>
        <time>2022-11-23T08:55:52.787Z</time>
      </trkpt>
      <trkpt lat="48.30965" lon="2.69254">
        <ele>65</ele>
        <time>2022-11-23T08:55:57.446Z</time>
      </trkpt>
      <trkpt lat="48.30972" lon="2.69258">
        <ele>65</ele>
        <time>2022-11-23T08:56:01.839Z</time>
      </trkpt>
      <trkpt lat="48.30978" lon="2.69261">
        <ele>65</ele>
        <time>2022-11-23T08:56:06.508Z</time>
      </trkpt>
      <trkpt lat="48.30986" lon="2.69266">
        <ele>64</ele>
        <time>2022-11-23T08:56:11.527Z</time>
      </trkpt>
      <trkpt lat="48.30992" lon="2.69269">
        <ele>64</ele>
        <time>2022-11-23T08:56:16.511Z</time>
      </trkpt>
      <trkpt lat="48.30999" lon="2.69275">
        <ele>64</ele>
        <time>2022-11-23T08:56:21.518Z</time>
      </trkpt>
      <trkpt lat="48.31006" lon="2.69279">
        <ele>64</ele>
        <time>2022-11-23T08:56:26.084Z</time>
      </trkpt>
      <trkpt lat="48.31011" lon="2.69281">
        <ele>64</ele>
        <time>2022-11-23T08:56:30.341Z</time>
      </trkpt>
      <trkpt lat="48.31017" lon="2.69285">
        <ele>63</ele>
        <time>2022-11-23T08:56:34.400Z</time>
      </trkpt>
      <trkpt lat="48.31024" lon="2.69288">
        <ele>63</ele>
        <time>2022-11-23T08:56:38.921Z</time>
      </trkpt>
      <trkpt lat="48.3103" lon="2.69292">
        <ele>63</ele>
        <time>2022-11-23T08:56:43.517Z</time>
      </trkpt>
      <trkpt lat="48.31035" lon="2.69296">
        <ele>63</ele>
        <time>2022-11-23T08:56:47.886Z</time>
      </trkpt>
      <trkpt lat="48.3104" lon="2.69298">
        <ele>63</ele>
        <time>2022-11-23T08:56:52.019Z</time>
      </trkpt>
      <trkpt lat="48.31046" lon="2.69301">
        <ele>63</ele>
        <time>2022-11-23T08:56:56.523Z</time>
      </trkpt>
      <trkpt lat="48.31052" lon="2.69305">
        <ele>63</ele>
        <time>2022-11-23T08:57:00.508Z</time>
      </trkpt>
      <trkpt lat="48.31059" lon="2.69308">
        <ele>63</ele>
        <time>2022-11-23T08:57:04.846Z</time>
      </trkpt>
      <trkpt lat="48.31064" lon="2.69311">
        <ele>63</ele>
        <time>2022-11-23T08:57:09.060Z</time>
      </trkpt>
      <trkpt lat="48.3107" lon="2.69315">
        <ele>62</ele>
        <time>2022-11-23T08:57:13.086Z</time>
      </trkpt>
      <trkpt lat="48.31075" lon="2.6932">
        <ele>63</ele>
        <time>2022-11-23T08:57:17.183Z</time>
      </trkpt>
      <trkpt lat="48.31081" lon="2.69326">
        <ele>63</ele>
        <time>2022-11-23T08:57:22.259Z</time>
      </trkpt>
      <trkpt lat="48.31088" lon="2.69328">
        <ele>63</ele>
        <time>2022-11-23T08:57:27.327Z</time>
      </trkpt>
      <trkpt lat="48.31095" lon="2.69331">
        <ele>63</ele>
        <time>2022-11-23T08:57:31.761Z</time>
      </trkpt>
      <trkpt lat="48.31099" lon="2.69333">
        <ele>62</ele>
        <time>2022-11-23T08:57:36.019Z</time>
      </trkpt>
      <trkpt lat="48.31103" lon="2.69337">
        <ele>62</ele>
        <time>2022-11-23T08:57:40.261Z</time>
      </trkpt>
      <trkpt lat="48.31108" lon="2.6934">
        <ele>62</ele>
        <time>2022-11-23T08:57:44.501Z</time>
      </trkpt>
      <trkpt lat="48.31113" lon="2.69342">
        <ele>62</ele>
        <time>2022-11-23T08:57:48.507Z</time>
      </trkpt>
      <trkpt lat="48.31119" lon="2.69345">
        <ele>62</ele>
        <time>2022-11-23T08:57:53.403Z</time>
      </trkpt>
      <trkpt lat="48.31123" lon="2.69347">
        <ele>62</ele>
        <time>2022-11-23T08:57:57.530Z</time>
      </trkpt>
      <trkpt lat="48.31129" lon="2.69349">
        <ele>63</ele>
        <time>2022-11-23T08:58:01.884Z</time>
      </trkpt>
      <trkpt lat="48.31135" lon="2.69351">
        <ele>63</ele>
        <time>2022-11-23T08:58:06.160Z</time>
      </trkpt>
      <trkpt lat="48.31139" lon="2.69353">
        <ele>63</ele>
        <time>2022-11-23T08:58:10.266Z</time>
      </trkpt>
      <trkpt lat="48.31144" lon="2.69354">
        <ele>63</ele>
        <time>2022-11-23T08:58:14.464Z</time>
      </trkpt>
      <trkpt lat="48.31151" lon="2.69356">
        <ele>63</ele>
        <time>2022-11-23T08:58:19.270Z</time>
      </trkpt>
      <trkpt lat="48.31157" lon="2.6936">
        <ele>61</ele>
        <time>2022-11-23T08:58:23.642Z</time>
      </trkpt>
      <trkpt lat="48.31164" lon="2.69362">
        <ele>61</ele>
        <time>2022-11-23T08:58:28.031Z</time>
      </trkpt>
      <trkpt lat="48.3117" lon="2.69364">
        <ele>61</ele>
        <time>2022-11-23T08:58:32.510Z</time>
      </trkpt>
      <trkpt lat="48.31176" lon="2.69365">
        <ele>61</ele>
        <time>2022-11-23T08:58:36.513Z</time>
      </trkpt>
      <trkpt lat="48.31182" lon="2.69367">
        <ele>59</ele>
        <time>2022-11-23T08:58:41.102Z</time>
      </trkpt>
      <trkpt lat="48.31189" lon="2.69369">
        <ele>59</ele>
        <time>2022-11-23T08:58:45.361Z</time>
      </trkpt>
      <trkpt lat="48.31195" lon="2.69372">
        <ele>59</ele>
        <time>2022-11-23T08:58:49.547Z</time>
      </trkpt>
      <trkpt lat="48.31201" lon="2.69375">
        <ele>60</ele>
        <time>2022-11-23T08:58:53.684Z</time>
      </trkpt>
      <trkpt lat="48.31208" lon="2.69378">
        <ele>60</ele>
        <time>2022-11-23T08:58:57.921Z</time>
      </trkpt>
      <trkpt lat="48.31214" lon="2.6938">
        <ele>58</ele>
        <time>2022-11-23T08:59:02.142Z</time>
      </trkpt>
      <trkpt lat="48.3122" lon="2.69383">
        <ele>58</ele>
        <time>2022-11-23T08:59:06.507Z</time>
      </trkpt>
      <trkpt lat="48.31227" lon="2.69388">
        <ele>58</ele>
        <time>2022-11-23T08:59:11.408Z</time>
      </trkpt>
      <trkpt lat="48.31233" lon="2.69394">
        <ele>58</ele>
        <time>2022-11-23T08:59:15.705Z</time>
      </trkpt>
      <trkpt lat="48.31239" lon="2.69396">
        <ele>57</ele>
        <time>2022-11-23T08:59:20.422Z</time>
      </trkpt>
      <trkpt lat="48.31244" lon="2.69399">
        <ele>57</ele>
        <time>2022-11-23T08:59:24.729Z</time>
      </trkpt>
      <trkpt lat="48.31249" lon="2.69401">
        <ele>57</ele>
        <time>2022-11-23T08:59:29.049Z</time>
      </trkpt>
      <trkpt lat="48.31256" lon="2.69404">
        <ele>57</ele>
        <time>2022-11-23T08:59:33.346Z</time>
      </trkpt>
      <trkpt lat="48.31263" lon="2.69406">
        <ele>57</ele>
        <time>2022-11-23T08:59:37.700Z</time>
      </trkpt>
      <trkpt lat="48.31269" lon="2.69409">
        <ele>58</ele>
        <time>2022-11-23T08:59:42.069Z</time>
      </trkpt>
      <trkpt lat="48.31273" lon="2.69411">
        <ele>58</ele>
        <time>2022-11-23T08:59:46.526Z</time>
      </trkpt>
      <trkpt lat="48.31281" lon="2.69416">
        <ele>58</ele>
        <time>2022-11-23T08:59:51.424Z</time>
      </trkpt>
      <trkpt lat="48.31288" lon="2.6942">
        <ele>58</ele>
        <time>2022-11-23T08:59:56.303Z</time>
      </trkpt>
      <trkpt lat="48.31294" lon="2.69428">
        <ele>58</ele>
        <time>2022-11-23T09:00:00.519Z</time>
      </trkpt>
      <trkpt lat="48.313" lon="2.69434">
        <ele>59</ele>
        <time>2022-11-23T09:00:05.323Z</time>
      </trkpt>
      <trkpt lat="48.31306" lon="2.69439">
        <ele>59</ele>
        <time>2022-11-23T09:00:09.343Z</time>
      </trkpt>
      <trkpt lat="48.3131" lon="2.69443">
        <ele>59</ele>
        <time>2022-11-23T09:00:13.504Z</time>
      </trkpt>
      <trkpt lat="48.31316" lon="2.69449">
        <ele>59</ele>
        <time>2022-11-23T09:00:17.701Z</time>
      </trkpt>
      <trkpt lat="48.3132" lon="2.69455">
        <ele>59</ele>
        <time>2022-11-23T09:00:22.246Z</time>
      </trkpt>
      <trkpt lat="48.31325" lon="2.69459">
        <ele>59</ele>
        <time>2022-11-23T09:00:26.482Z</time>
      </trkpt>
      <trkpt lat="48.3133" lon="2.69465">
        <ele>59</ele>
        <time>2022-11-23T09:00:31.488Z</time>
      </trkpt>
      <trkpt lat="48.31335" lon="2.6947">
        <ele>59</ele>
        <time>2022-11-23T09:00:36.108Z</time>
      </trkpt>
      <trkpt lat="48.31339" lon="2.69478">
        <ele>59</ele>
        <time>2022-11-23T09:00:40.145Z</time>
      </trkpt>
      <trkpt lat="48.31344" lon="2.69485">
        <ele>59</ele>
        <time>2022-11-23T09:00:44.208Z</time>
      </trkpt>
      <trkpt lat="48.31349" lon="2.6949">
        <ele>60</ele>
        <time>2022-11-23T09:00:48.404Z</time>
      </trkpt>
      <trkpt lat="48.31354" lon="2.69495">
        <ele>60</ele>
        <time>2022-11-23T09:00:52.509Z</time>
      </trkpt>
      <trkpt lat="48.3136" lon="2.69499">
        <ele>60</ele>
        <time>2022-11-23T09:00:57.020Z</time>
      </trkpt>
      <trkpt lat="48.31366" lon="2.69503">
        <ele>60</ele>
        <time>2022-11-23T09:01:01.328Z</time>
      </trkpt>
      <trkpt lat="48.31371" lon="2.69507">
        <ele>60</ele>
        <time>2022-11-23T09:01:05.660Z</time>
      </trkpt>
      <trkpt lat="48.31375" lon="2.6951">
        <ele>57</ele>
        <time>2022-11-23T09:01:10.025Z</time>
      </trkpt>
      <trkpt lat="48.3138" lon="2.69515">
        <ele>58</ele>
        <time>2022-11-23T09:01:14.230Z</time>
      </trkpt>
      <trkpt lat="48.31385" lon="2.69519">
        <ele>58</ele>
        <time>2022-11-23T09:01:18.684Z</time>
      </trkpt>
      <trkpt lat="48.31391" lon="2.69524">
        <ele>58</ele>
        <time>2022-11-23T09:01:23.164Z</time>
      </trkpt>
      <trkpt lat="48.31396" lon="2.69529">
        <ele>58</ele>
        <time>2022-11-23T09:01:27.512Z</time>
      </trkpt>
      <trkpt lat="48.31401" lon="2.69537">
        <ele>58</ele>
        <time>2022-11-23T09:01:32.516Z</time>
      </trkpt>
      <trkpt lat="48.31404" lon="2.69544">
        <ele>57</ele>
        <time>2022-11-23T09:01:36.761Z</time>
      </trkpt>
      <trkpt lat="48.31409" lon="2.69551">
        <ele>57</ele>
        <time>2022-11-23T09:01:41.210Z</time>
      </trkpt>
      <trkpt lat="48.31414" lon="2.69555">
        <ele>57</ele>
        <time>2022-11-23T09:01:45.284Z</time>
      </trkpt>
      <trkpt lat="48.31418" lon="2.69562">
        <ele>57</ele>
        <time>2022-11-23T09:01:49.690Z</time>
      </trkpt>
      <trkpt lat="48.31423" lon="2.69569">
        <ele>57</ele>
        <time>2022-11-23T09:01:53.966Z</time>
      </trkpt>
      <trkpt lat="48.31427" lon="2.69576">
        <ele>60</ele>
        <time>2022-11-23T09:01:58.406Z</time>
      </trkpt>
      <trkpt lat="48.31432" lon="2.69584">
        <ele>58</ele>
        <time>2022-11-23T09:02:03.243Z</time>
      </trkpt>
      <trkpt lat="48.31435" lon="2.69592">
        <ele>58</ele>
        <time>2022-11-23T09:02:07.567Z</time>
      </trkpt>
      <trkpt lat="48.3144" lon="2.69599">
        <ele>59</ele>
        <time>2022-11-23T09:02:12.404Z</time>
      </trkpt>
      <trkpt lat="48.31444" lon="2.69606">
        <ele>59</ele>
        <time>2022-11-23T09:02:16.783Z</time>
      </trkpt>
      <trkpt lat="48.31448" lon="2.69614">
        <ele>59</ele>
        <time>2022-11-23T09:02:21.086Z</time>
      </trkpt>
      <trkpt lat="48.31452" lon="2.69622">
        <ele>59</ele>
        <time>2022-11-23T09:02:25.304Z</time>
      </trkpt>
      <trkpt lat="48.31455" lon="2.69629">
        <ele>61</ele>
        <time>2022-11-23T09:02:29.508Z</time>
      </trkpt>
      <trkpt lat="48.31459" lon="2.69636">
        <ele>59</ele>
        <time>2022-11-23T09:02:34.049Z</time>
      </trkpt>
      <trkpt lat="48.31463" lon="2.69642">
        <ele>59</ele>
        <time>2022-11-23T09:02:38.325Z</time>
      </trkpt>
      <trkpt lat="48.31467" lon="2.6965">
        <ele>59</ele>
        <time>2022-11-23T09:02:42.510Z</time>
      </trkpt>
      <trkpt lat="48.31472" lon="2.69655">
        <ele>61</ele>
        <time>2022-11-23T09:02:47.510Z</time>
      </trkpt>
      <trkpt lat="48.31475" lon="2.69658">
        <ele>61</ele>
        <time>2022-11-23T09:02:52.020Z</time>
      </trkpt>
      <trkpt lat="48.31476" lon="2.6966">
        <ele>61</ele>
        <time>2022-11-23T09:02:56.505Z</time>
      </trkpt>
      <trkpt lat="48.31481" lon="2.69655">
        <ele>61</ele>
        <time>2022-11-23T09:03:01.186Z</time>
      </trkpt>
      <trkpt lat="48.31486" lon="2.69651">
        <ele>59</ele>
        <time>2022-11-23T09:03:05.461Z</time>
      </trkpt>
      <trkpt lat="48.3149" lon="2.69643">
        <ele>58</ele>
        <time>2022-11-23T09:03:09.892Z</time>
      </trkpt>
      <trkpt lat="48.31494" lon="2.69635">
        <ele>58</ele>
        <time>2022-11-23T09:03:14.204Z</time>
      </trkpt>
      <trkpt lat="48.31498" lon="2.69629">
        <ele>58</ele>
        <time>2022-11-23T09:03:18.513Z</time>
      </trkpt>
      <trkpt lat="48.315" lon="2.69621">
        <ele>57</ele>
        <time>2022-11-23T09:03:22.967Z</time>
      </trkpt>
      <trkpt lat="48.31502" lon="2.69614">
        <ele>57</ele>
        <time>2022-11-23T09:03:27.446Z</time>
      </trkpt>
      <trkpt lat="48.31506" lon="2.69607">
        <ele>57</ele>
        <time>2022-11-23T09:03:31.811Z</time>
      </trkpt>
      <trkpt lat="48.31509" lon="2.69598">
        <ele>57</ele>
        <time>2022-11-23T09:03:36.520Z</time>
      </trkpt>
      <trkpt lat="48.31512" lon="2.69591">
        <ele>57</ele>
        <time>2022-11-23T09:03:40.950Z</time>
      </trkpt>
      <trkpt lat="48.31515" lon="2.69585">
        <ele>56</ele>
        <time>2022-11-23T09:03:45.288Z</time>
      </trkpt>
      <trkpt lat="48.31518" lon="2.69577">
        <ele>56</ele>
        <time>2022-11-23T09:03:49.663Z</time>
      </trkpt>
      <trkpt lat="48.31521" lon="2.69569">
        <ele>56</ele>
        <time>2022-11-23T09:03:53.989Z</time>
      </trkpt>
      <trkpt lat="48.31525" lon="2.6956">
        <ele>56</ele>
        <time>2022-11-23T09:03:58.327Z</time>
      </trkpt>
      <trkpt lat="48.31528" lon="2.69551">
        <ele>56</ele>
        <time>2022-11-23T09:04:03.382Z</time>
      </trkpt>
      <trkpt lat="48.31531" lon="2.69543">
        <ele>56</ele>
        <time>2022-11-23T09:04:07.809Z</time>
      </trkpt>
      <trkpt lat="48.31535" lon="2.69534">
        <ele>56</ele>
        <time>2022-11-23T09:04:12.183Z</time>
      </trkpt>
      <trkpt lat="48.31538" lon="2.69526">
        <ele>56</ele>
        <time>2022-11-23T09:04:17.143Z</time>
      </trkpt>
      <trkpt lat="48.3154" lon="2.69518">
        <ele>56</ele>
        <time>2022-11-23T09:04:21.290Z</time>
      </trkpt>
      <trkpt lat="48.31544" lon="2.69512">
        <ele>56</ele>
        <time>2022-11-23T09:04:25.527Z</time>
      </trkpt>
      <trkpt lat="48.31546" lon="2.69503">
        <ele>56</ele>
        <time>2022-11-23T09:04:29.825Z</time>
      </trkpt>
      <trkpt lat="48.3155" lon="2.69495">
        <ele>56</ele>
        <time>2022-11-23T09:04:34.185Z</time>
      </trkpt>
      <trkpt lat="48.31552" lon="2.69488">
        <ele>56</ele>
        <time>2022-11-23T09:04:38.684Z</time>
      </trkpt>
      <trkpt lat="48.31556" lon="2.6948">
        <ele>57</ele>
        <time>2022-11-23T09:04:42.882Z</time>
      </trkpt>
      <trkpt lat="48.31559" lon="2.69472">
        <ele>57</ele>
        <time>2022-11-23T09:04:47.023Z</time>
      </trkpt>
      <trkpt lat="48.31561" lon="2.69465">
        <ele>57</ele>
        <time>2022-11-23T09:04:51.248Z</time>
      </trkpt>
      <trkpt lat="48.31565" lon="2.69455">
        <ele>58</ele>
        <time>2022-11-23T09:04:55.535Z</time>
      </trkpt>
      <trkpt lat="48.31569" lon="2.69447">
        <ele>58</ele>
        <time>2022-11-23T09:05:00.121Z</time>
      </trkpt>
      <trkpt lat="48.31573" lon="2.69439">
        <ele>58</ele>
        <time>2022-11-23T09:05:05.149Z</time>
      </trkpt>
      <trkpt lat="48.31578" lon="2.69431">
        <ele>58</ele>
        <time>2022-11-23T09:05:09.464Z</time>
      </trkpt>
      <trkpt lat="48.31581" lon="2.69424">
        <ele>58</ele>
        <time>2022-11-23T09:05:13.910Z</time>
      </trkpt>
      <trkpt lat="48.31585" lon="2.69416">
        <ele>58</ele>
        <time>2022-11-23T09:05:18.528Z</time>
      </trkpt>
      <trkpt lat="48.31589" lon="2.69408">
        <ele>58</ele>
        <time>2022-11-23T09:05:23.088Z</time>
      </trkpt>
      <trkpt lat="48.31593" lon="2.69399">
        <ele>57</ele>
        <time>2022-11-23T09:05:27.349Z</time>
      </trkpt>
      <trkpt lat="48.31596" lon="2.69392">
        <ele>57</ele>
        <time>2022-11-23T09:05:31.805Z</time>
      </trkpt>
      <trkpt lat="48.31598" lon="2.69385">
        <ele>56</ele>
        <time>2022-11-23T09:05:36.330Z</time>
      </trkpt>
      <trkpt lat="48.31598" lon="2.69379">
        <ele>56</ele>
        <time>2022-11-23T09:05:40.526Z</time>
      </trkpt>
      <trkpt lat="48.31601" lon="2.69372">
        <ele>56</ele>
        <time>2022-11-23T09:05:45.472Z</time>
      </trkpt>
      <trkpt lat="48.31601" lon="2.69374">
        <ele>56</ele>
        <time>2022-11-23T09:05:50.476Z</time>
      </trkpt>
      <trkpt lat="48.31606" lon="2.69373">
        <ele>56</ele>
        <time>2022-11-23T09:05:55.074Z</time>
      </trkpt>
      <trkpt lat="48.3161" lon="2.6937">
        <ele>56</ele>
        <time>2022-11-23T09:05:59.471Z</time>
      </trkpt>
      <trkpt lat="48.31609" lon="2.69367">
        <ele>56</ele>
        <time>2022-11-23T09:06:04.160Z</time>
      </trkpt>
      <trkpt lat="48.31612" lon="2.69359">
        <ele>56</ele>
        <time>2022-11-23T09:06:08.641Z</time>
      </trkpt>
      <trkpt lat="48.31617" lon="2.69352">
        <ele>56</ele>
        <time>2022-11-23T09:06:12.803Z</time>
      </trkpt>
      <trkpt lat="48.31621" lon="2.69341">
        <ele>57</ele>
        <time>2022-11-23T09:06:17.286Z</time>
      </trkpt>
      <trkpt lat="48.31626" lon="2.69325">
        <ele>56</ele>
        <time>2022-11-23T09:06:34.481Z</time>
      </trkpt>
      <trkpt lat="48.31625" lon="2.69323">
        <ele>57</ele>
        <time>2022-11-23T09:06:39.239Z</time>
      </trkpt>
      <trkpt lat="48.31629" lon="2.69316">
        <ele>57</ele>
        <time>2022-11-23T09:06:43.326Z</time>
      </trkpt>
      <trkpt lat="48.31634" lon="2.69306">
        <ele>57</ele>
        <time>2022-11-23T09:06:48.383Z</time>
      </trkpt>
      <trkpt lat="48.31638" lon="2.69298">
        <ele>57</ele>
        <time>2022-11-23T09:06:53.344Z</time>
      </trkpt>
      <trkpt lat="48.31641" lon="2.6929">
        <ele>57</ele>
        <time>2022-11-23T09:06:57.460Z</time>
      </trkpt>
      <trkpt lat="48.31642" lon="2.69284">
        <ele>57</ele>
        <time>2022-11-23T09:07:02.481Z</time>
      </trkpt>
      <trkpt lat="48.31642" lon="2.69281">
        <ele>57</ele>
        <time>2022-11-23T09:07:07.163Z</time>
      </trkpt>
      <trkpt lat="48.31647" lon="2.69274">
        <ele>57</ele>
        <time>2022-11-23T09:07:11.218Z</time>
      </trkpt>
      <trkpt lat="48.3165" lon="2.69267">
        <ele>57</ele>
        <time>2022-11-23T09:07:15.490Z</time>
      </trkpt>
      <trkpt lat="48.31656" lon="2.69262">
        <ele>59</ele>
        <time>2022-11-23T09:07:19.921Z</time>
      </trkpt>
      <trkpt lat="48.31661" lon="2.69257">
        <ele>59</ele>
        <time>2022-11-23T09:07:24Z</time>
      </trkpt>
      <trkpt lat="48.31665" lon="2.6925">
        <ele>59</ele>
        <time>2022-11-23T09:07:28.475Z</time>
      </trkpt>
      <trkpt lat="48.31666" lon="2.69245">
        <ele>59</ele>
        <time>2022-11-23T09:07:43.489Z</time>
      </trkpt>
      <trkpt lat="48.31665" lon="2.69242">
        <ele>59</ele>
        <time>2022-11-23T09:07:48.503Z</time>
      </trkpt>
      <trkpt lat="48.31663" lon="2.69239">
        <ele>59</ele>
        <time>2022-11-23T09:07:53.464Z</time>
      </trkpt>
      <trkpt lat="48.31663" lon="2.69239">
        <ele>59</ele>
        <time>2022-11-23T09:07:58.391Z</time>
      </trkpt>
      <trkpt lat="48.31654" lon="2.69229">
        <ele>60</ele>
        <time>2022-11-23T09:08:03.421Z</time>
      </trkpt>
      <trkpt lat="48.31649" lon="2.69227">
        <ele>60</ele>
        <time>2022-11-23T09:08:07.427Z</time>
      </trkpt>
      <trkpt lat="48.31644" lon="2.69224">
        <ele>60</ele>
        <time>2022-11-23T09:08:11.483Z</time>
      </trkpt>
      <trkpt lat="48.31639" lon="2.69218">
        <ele>60</ele>
        <time>2022-11-23T09:08:16.001Z</time>
      </trkpt>
      <trkpt lat="48.31633" lon="2.69215">
        <ele>60</ele>
        <time>2022-11-23T09:08:20.492Z</time>
      </trkpt>
      <trkpt lat="48.31632" lon="2.69219">
        <ele>60</ele>
        <time>2022-11-23T09:08:38.474Z</time>
      </trkpt>
      <trkpt lat="48.31626" lon="2.69205">
        <ele>61</ele>
        <time>2022-11-23T09:08:43.490Z</time>
      </trkpt>
      <trkpt lat="48.31626" lon="2.69194">
        <ele>61</ele>
        <time>2022-11-23T09:08:47.720Z</time>
      </trkpt>
      <trkpt lat="48.31629" lon="2.69186">
        <ele>61</ele>
        <time>2022-11-23T09:08:51.955Z</time>
      </trkpt>
      <trkpt lat="48.31631" lon="2.69178">
        <ele>62</ele>
        <time>2022-11-23T09:08:56.158Z</time>
      </trkpt>
      <trkpt lat="48.31633" lon="2.69171">
        <ele>62</ele>
        <time>2022-11-23T09:09:00.476Z</time>
      </trkpt>
      <trkpt lat="48.31637" lon="2.69164">
        <ele>62</ele>
        <time>2022-11-23T09:09:05.085Z</time>
      </trkpt>
      <trkpt lat="48.31634" lon="2.69157">
        <ele>62</ele>
        <time>2022-11-23T09:09:09.306Z</time>
      </trkpt>
      <trkpt lat="48.31627" lon="2.69149">
        <ele>63</ele>
        <time>2022-11-23T09:09:13.479Z</time>
      </trkpt>
      <trkpt lat="48.31623" lon="2.69144">
        <ele>63</ele>
        <time>2022-11-23T09:09:17.496Z</time>
      </trkpt>
      <trkpt lat="48.31617" lon="2.69138">
        <ele>63</ele>
        <time>2022-11-23T09:09:22.066Z</time>
      </trkpt>
      <trkpt lat="48.31612" lon="2.69135">
        <ele>63</ele>
        <time>2022-11-23T09:09:26.177Z</time>
      </trkpt>
      <trkpt lat="48.31607" lon="2.69129">
        <ele>63</ele>
        <time>2022-11-23T09:09:30.317Z</time>
      </trkpt>
      <trkpt lat="48.31596" lon="2.69109">
        <ele>63</ele>
        <time>2022-11-23T09:10:03.465Z</time>
      </trkpt>
      <trkpt lat="48.31586" lon="2.69104">
        <ele>63</ele>
        <time>2022-11-23T09:10:07.707Z</time>
      </trkpt>
      <trkpt lat="48.31581" lon="2.69101">
        <ele>63</ele>
        <time>2022-11-23T09:10:11.867Z</time>
      </trkpt>
      <trkpt lat="48.31577" lon="2.69097">
        <ele>63</ele>
        <time>2022-11-23T09:10:16.042Z</time>
      </trkpt>
      <trkpt lat="48.31574" lon="2.6909">
        <ele>63</ele>
        <time>2022-11-23T09:10:20.262Z</time>
      </trkpt>
      <trkpt lat="48.3157" lon="2.69082">
        <ele>63</ele>
        <time>2022-11-23T09:11:30.506Z</time>
      </trkpt>
      <trkpt lat="48.31568" lon="2.69071">
        <ele>62</ele>
        <time>2022-11-23T09:11:34.781Z</time>
      </trkpt>
      <trkpt lat="48.31572" lon="2.69067">
        <ele>63</ele>
        <time>2022-11-23T09:11:39.222Z</time>
      </trkpt>
      <trkpt lat="48.31577" lon="2.69065">
        <ele>63</ele>
        <time>2022-11-23T09:11:43.276Z</time>
      </trkpt>
      <trkpt lat="48.31585" lon="2.69063">
        <ele>63</ele>
        <time>2022-11-23T09:11:48.345Z</time>
      </trkpt>
      <trkpt lat="48.31591" lon="2.69059">
        <ele>63</ele>
        <time>2022-11-23T09:11:52.822Z</time>
      </trkpt>
      <trkpt lat="48.31595" lon="2.69056">
        <ele>63</ele>
        <time>2022-11-23T09:11:56.946Z</time>
      </trkpt>
      <trkpt lat="48.316" lon="2.69054">
        <ele>64</ele>
        <time>2022-11-23T09:12:01.485Z</time>
      </trkpt>
      <trkpt lat="48.31604" lon="2.6906">
        <ele>64</ele>
        <time>2022-11-23T09:12:06.450Z</time>
      </trkpt>
      <trkpt lat="48.31609" lon="2.69066">
        <ele>64</ele>
        <time>2022-11-23T09:12:10.478Z</time>
      </trkpt>
      <trkpt lat="48.31615" lon="2.6907">
        <ele>63</ele>
        <time>2022-11-23T09:12:15Z</time>
      </trkpt>
      <trkpt lat="48.31619" lon="2.69076">
        <ele>63</ele>
        <time>2022-11-23T09:12:19.426Z</time>
      </trkpt>
      <trkpt lat="48.31626" lon="2.69081">
        <ele>63</ele>
        <time>2022-11-23T09:12:24.344Z</time>
      </trkpt>
      <trkpt lat="48.31631" lon="2.69087">
        <ele>63</ele>
        <time>2022-11-23T09:12:29.484Z</time>
      </trkpt>
      <trkpt lat="48.31635" lon="2.69093">
        <ele>63</ele>
        <time>2022-11-23T09:12:34.250Z</time>
      </trkpt>
      <trkpt lat="48.31639" lon="2.69099">
        <ele>63</ele>
        <time>2022-11-23T09:12:38.308Z</time>
      </trkpt>
      <trkpt lat="48.31643" lon="2.69106">
        <ele>63</ele>
        <time>2022-11-23T09:12:43.366Z</time>
      </trkpt>
      <trkpt lat="48.31646" lon="2.69112">
        <ele>63</ele>
        <time>2022-11-23T09:12:47.762Z</time>
      </trkpt>
      <trkpt lat="48.31655" lon="2.69116">
        <ele>63</ele>
        <time>2022-11-23T09:12:52.266Z</time>
      </trkpt>
      <trkpt lat="48.31661" lon="2.6912">
        <ele>63</ele>
        <time>2022-11-23T09:12:56.651Z</time>
      </trkpt>
      <trkpt lat="48.31666" lon="2.69125">
        <ele>63</ele>
        <time>2022-11-23T09:13:01.066Z</time>
      </trkpt>
      <trkpt lat="48.31671" lon="2.6913">
        <ele>63</ele>
        <time>2022-11-23T09:13:05.486Z</time>
      </trkpt>
      <trkpt lat="48.31676" lon="2.69135">
        <ele>63</ele>
        <time>2022-11-23T09:13:10.087Z</time>
      </trkpt>
      <trkpt lat="48.31683" lon="2.6914">
        <ele>64</ele>
        <time>2022-11-23T09:13:14.350Z</time>
      </trkpt>
      <trkpt lat="48.31687" lon="2.69136">
        <ele>64</ele>
        <time>2022-11-23T09:13:18.751Z</time>
      </trkpt>
      <trkpt lat="48.3169" lon="2.69129">
        <ele>64</ele>
        <time>2022-11-23T09:13:22.757Z</time>
      </trkpt>
      <trkpt lat="48.31693" lon="2.69123">
        <ele>65</ele>
        <time>2022-11-23T09:13:27.373Z</time>
      </trkpt>
      <trkpt lat="48.31695" lon="2.69117">
        <ele>65</ele>
        <time>2022-11-23T09:13:31.516Z</time>
      </trkpt>
      <trkpt lat="48.31698" lon="2.69112">
        <ele>65</ele>
        <time>2022-11-23T09:13:36.147Z</time>
      </trkpt>
      <trkpt lat="48.31701" lon="2.69116">
        <ele>65</ele>
        <time>2022-11-23T09:13:40.482Z</time>
      </trkpt>
      <trkpt lat="48.31708" lon="2.6912">
        <ele>65</ele>
        <time>2022-11-23T09:13:45.423Z</time>
      </trkpt>
      <trkpt lat="48.31713" lon="2.69126">
        <ele>65</ele>
        <time>2022-11-23T09:13:49.787Z</time>
      </trkpt>
      <trkpt lat="48.31719" lon="2.69131">
        <ele>65</ele>
        <time>2022-11-23T09:13:54.087Z</time>
      </trkpt>
      <trkpt lat="48.31725" lon="2.69135">
        <ele>65</ele>
        <time>2022-11-23T09:13:58.410Z</time>
      </trkpt>
      <trkpt lat="48.3173" lon="2.69141">
        <ele>65</ele>
        <time>2022-11-23T09:14:03.267Z</time>
      </trkpt>
      <trkpt lat="48.31733" lon="2.6915">
        <ele>65</ele>
        <time>2022-11-23T09:14:07.509Z</time>
      </trkpt>
      <trkpt lat="48.31741" lon="2.69152">
        <ele>66</ele>
        <time>2022-11-23T09:14:12.410Z</time>
      </trkpt>
      <trkpt lat="48.31747" lon="2.69158">
        <ele>65</ele>
        <time>2022-11-23T09:14:17.368Z</time>
      </trkpt>
      <trkpt lat="48.31754" lon="2.6916">
        <ele>65</ele>
        <time>2022-11-23T09:14:21.505Z</time>
      </trkpt>
      <trkpt lat="48.31759" lon="2.69164">
        <ele>65</ele>
        <time>2022-11-23T09:14:25.510Z</time>
      </trkpt>
      <trkpt lat="48.31764" lon="2.69168">
        <ele>67</ele>
        <time>2022-11-23T09:14:29.789Z</time>
      </trkpt>
      <trkpt lat="48.3177" lon="2.69172">
        <ele>67</ele>
        <time>2022-11-23T09:14:34.229Z</time>
      </trkpt>
      <trkpt lat="48.31775" lon="2.69176">
        <ele>67</ele>
        <time>2022-11-23T09:14:38.530Z</time>
      </trkpt>
      <trkpt lat="48.31781" lon="2.69181">
        <ele>65</ele>
        <time>2022-11-23T09:14:42.850Z</time>
      </trkpt>
      <trkpt lat="48.31787" lon="2.69186">
        <ele>65</ele>
        <time>2022-11-23T09:14:47.149Z</time>
      </trkpt>
      <trkpt lat="48.31793" lon="2.69191">
        <ele>66</ele>
        <time>2022-11-23T09:14:51.450Z</time>
      </trkpt>
      <trkpt lat="48.31797" lon="2.69196">
        <ele>66</ele>
        <time>2022-11-23T09:14:55.525Z</time>
      </trkpt>
      <trkpt lat="48.31803" lon="2.69202">
        <ele>66</ele>
        <time>2022-11-23T09:15:00.108Z</time>
      </trkpt>
      <trkpt lat="48.31806" lon="2.69208">
        <ele>66</ele>
        <time>2022-11-23T09:15:04.372Z</time>
      </trkpt>
      <trkpt lat="48.31813" lon="2.69213">
        <ele>65</ele>
        <time>2022-11-23T09:15:09.305Z</time>
      </trkpt>
      <trkpt lat="48.31818" lon="2.69218">
        <ele>65</ele>
        <time>2022-11-23T09:15:13.514Z</time>
      </trkpt>
      <trkpt lat="48.31823" lon="2.69224">
        <ele>65</ele>
        <time>2022-11-23T09:15:18.024Z</time>
      </trkpt>
      <trkpt lat="48.31828" lon="2.6923">
        <ele>65</ele>
        <time>2022-11-23T09:15:22.347Z</time>
      </trkpt>
      <trkpt lat="48.31833" lon="2.69236">
        <ele>65</ele>
        <time>2022-11-23T09:15:27.248Z</time>
      </trkpt>
      <trkpt lat="48.31838" lon="2.69241">
        <ele>65</ele>
        <time>2022-11-23T09:15:31.689Z</time>
      </trkpt>
      <trkpt lat="48.31843" lon="2.69247">
        <ele>65</ele>
        <time>2022-11-23T09:15:35.971Z</time>
      </trkpt>
      <trkpt lat="48.31848" lon="2.69252">
        <ele>66</ele>
        <time>2022-11-23T09:15:40.412Z</time>
      </trkpt>
      <trkpt lat="48.31854" lon="2.69258">
        <ele>66</ele>
        <time>2022-11-23T09:15:45.421Z</time>
      </trkpt>
      <trkpt lat="48.31859" lon="2.69263">
        <ele>66</ele>
        <time>2022-11-23T09:15:49.884Z</time>
      </trkpt>
      <trkpt lat="48.31864" lon="2.69266">
        <ele>65</ele>
        <time>2022-11-23T09:15:54.265Z</time>
      </trkpt>
      <trkpt lat="48.31869" lon="2.69272">
        <ele>65</ele>
        <time>2022-11-23T09:15:58.751Z</time>
      </trkpt>
      <trkpt lat="48.31875" lon="2.69278">
        <ele>65</ele>
        <time>2022-11-23T09:16:03.144Z</time>
      </trkpt>
      <trkpt lat="48.3188" lon="2.69281">
        <ele>66</ele>
        <time>2022-11-23T09:16:07.345Z</time>
      </trkpt>
      <trkpt lat="48.31886" lon="2.69285">
        <ele>66</ele>
        <time>2022-11-23T09:16:11.543Z</time>
      </trkpt>
      <trkpt lat="48.31892" lon="2.6929">
        <ele>66</ele>
        <time>2022-11-23T09:16:16.246Z</time>
      </trkpt>
      <trkpt lat="48.31897" lon="2.69295">
        <ele>65</ele>
        <time>2022-11-23T09:16:20.506Z</time>
      </trkpt>
      <trkpt lat="48.31902" lon="2.69301">
        <ele>65</ele>
        <time>2022-11-23T09:16:24.772Z</time>
      </trkpt>
      <trkpt lat="48.31907" lon="2.69306">
        <ele>67</ele>
        <time>2022-11-23T09:16:29.092Z</time>
      </trkpt>
      <trkpt lat="48.31913" lon="2.69311">
        <ele>67</ele>
        <time>2022-11-23T09:16:33.499Z</time>
      </trkpt>
      <trkpt lat="48.31918" lon="2.69316">
        <ele>67</ele>
        <time>2022-11-23T09:16:37.904Z</time>
      </trkpt>
      <trkpt lat="48.31922" lon="2.69322">
        <ele>66</ele>
        <time>2022-11-23T09:16:42.244Z</time>
      </trkpt>
      <trkpt lat="48.31927" lon="2.69327">
        <ele>66</ele>
        <time>2022-11-23T09:16:47.185Z</time>
      </trkpt>
      <trkpt lat="48.31932" lon="2.69333">
        <ele>67</ele>
        <time>2022-11-23T09:16:51.512Z</time>
      </trkpt>
      <trkpt lat="48.31937" lon="2.69338">
        <ele>67</ele>
        <time>2022-11-23T09:16:56.006Z</time>
      </trkpt>
      <trkpt lat="48.31941" lon="2.69344">
        <ele>67</ele>
        <time>2022-11-23T09:17:00.425Z</time>
      </trkpt>
      <trkpt lat="48.31946" lon="2.69349">
        <ele>66</ele>
        <time>2022-11-23T09:17:04.886Z</time>
      </trkpt>
      <trkpt lat="48.31949" lon="2.69357">
        <ele>66</ele>
        <time>2022-11-23T09:17:09.272Z</time>
      </trkpt>
      <trkpt lat="48.3195" lon="2.69362">
        <ele>66</ele>
        <time>2022-11-23T09:17:13.510Z</time>
      </trkpt>
      <trkpt lat="48.31955" lon="2.6937">
        <ele>66</ele>
        <time>2022-11-23T09:17:18.497Z</time>
      </trkpt>
      <trkpt lat="48.31959" lon="2.69378">
        <ele>67</ele>
        <time>2022-11-23T09:17:22.903Z</time>
      </trkpt>
      <trkpt lat="48.31962" lon="2.69387">
        <ele>67</ele>
        <time>2022-11-23T09:17:27.208Z</time>
      </trkpt>
      <trkpt lat="48.31965" lon="2.69395">
        <ele>67</ele>
        <time>2022-11-23T09:17:31.430Z</time>
      </trkpt>
      <trkpt lat="48.31967" lon="2.69404">
        <ele>67</ele>
        <time>2022-11-23T09:17:35.672Z</time>
      </trkpt>
      <trkpt lat="48.3197" lon="2.69412">
        <ele>67</ele>
        <time>2022-11-23T09:17:40.063Z</time>
      </trkpt>
      <trkpt lat="48.31971" lon="2.6942">
        <ele>67</ele>
        <time>2022-11-23T09:17:44.402Z</time>
      </trkpt>
      <trkpt lat="48.3197" lon="2.69429">
        <ele>67</ele>
        <time>2022-11-23T09:17:49.484Z</time>
      </trkpt>
      <trkpt lat="48.31969" lon="2.6943">
        <ele>67</ele>
        <time>2022-11-23T09:17:54.481Z</time>
      </trkpt>
      <trkpt lat="48.31967" lon="2.69429">
        <ele>67</ele>
        <time>2022-11-23T09:17:58.504Z</time>
      </trkpt>
      <trkpt lat="48.3196" lon="2.69429">
        <ele>67</ele>
        <time>2022-11-23T09:18:02.925Z</time>
      </trkpt>
      <trkpt lat="48.31954" lon="2.69425">
        <ele>66</ele>
        <time>2022-11-23T09:18:07.348Z</time>
      </trkpt>
      <trkpt lat="48.31949" lon="2.69421">
        <ele>66</ele>
        <time>2022-11-23T09:18:11.469Z</time>
      </trkpt>
      <trkpt lat="48.31944" lon="2.6942">
        <ele>66</ele>
        <time>2022-11-23T09:18:15.477Z</time>
      </trkpt>
      <trkpt lat="48.31943" lon="2.69421">
        <ele>66</ele>
        <time>2022-11-23T09:18:19.484Z</time>
      </trkpt>
      <trkpt lat="48.31937" lon="2.69414">
        <ele>66</ele>
        <time>2022-11-23T09:18:24.246Z</time>
      </trkpt>
      <trkpt lat="48.31931" lon="2.69409">
        <ele>66</ele>
        <time>2022-11-23T09:18:28.480Z</time>
      </trkpt>
      <trkpt lat="48.31925" lon="2.69404">
        <ele>65</ele>
        <time>2022-11-23T09:18:33.346Z</time>
      </trkpt>
      <trkpt lat="48.3192" lon="2.69399">
        <ele>66</ele>
        <time>2022-11-23T09:18:38.070Z</time>
      </trkpt>
      <trkpt lat="48.31918" lon="2.69396">
        <ele>66</ele>
        <time>2022-11-23T09:19:00.202Z</time>
      </trkpt>
      <trkpt lat="48.31909" lon="2.69388">
        <ele>66</ele>
        <time>2022-11-23T09:19:05.474Z</time>
      </trkpt>
      <trkpt lat="48.31902" lon="2.69382">
        <ele>66</ele>
        <time>2022-11-23T09:19:10.064Z</time>
      </trkpt>
      <trkpt lat="48.31897" lon="2.69379">
        <ele>66</ele>
        <time>2022-11-23T09:19:14.495Z</time>
      </trkpt>
      <trkpt lat="48.31896" lon="2.69378">
        <ele>66</ele>
        <time>2022-11-23T09:19:18.926Z</time>
      </trkpt>
      <trkpt lat="48.31891" lon="2.69376">
        <ele>66</ele>
        <time>2022-11-23T09:19:23.370Z</time>
      </trkpt>
      <trkpt lat="48.31888" lon="2.6938">
        <ele>66</ele>
        <time>2022-11-23T09:19:28.482Z</time>
      </trkpt>
      <trkpt lat="48.31885" lon="2.69386">
        <ele>66</ele>
        <time>2022-11-23T09:19:33.187Z</time>
      </trkpt>
      <trkpt lat="48.31882" lon="2.69391">
        <ele>66</ele>
        <time>2022-11-23T09:19:37.509Z</time>
      </trkpt>
      <trkpt lat="48.31882" lon="2.69389">
        <ele>66</ele>
        <time>2022-11-23T09:19:41.947Z</time>
      </trkpt>
      <trkpt lat="48.31882" lon="2.69389">
        <ele>66</ele>
        <time>2022-11-23T09:19:47.525Z</time>
      </trkpt>
      <trkpt lat="48.31882" lon="2.69391">
        <ele>66</ele>
        <time>2022-11-23T09:19:52.008Z</time>
      </trkpt>
      <trkpt lat="48.31883" lon="2.69394">
        <ele>66</ele>
        <time>2022-11-23T09:19:57.149Z</time>
      </trkpt>
      <trkpt lat="48.31886" lon="2.69403">
        <ele>66</ele>
        <time>2022-11-23T09:20:01.531Z</time>
      </trkpt>
      <trkpt lat="48.31889" lon="2.69409">
        <ele>66</ele>
        <time>2022-11-23T09:20:06.265Z</time>
      </trkpt>
      <trkpt lat="48.31893" lon="2.69412">
        <ele>66</ele>
        <time>2022-11-23T09:20:10.497Z</time>
      </trkpt>
      <trkpt lat="48.31897" lon="2.6942">
        <ele>66</ele>
        <time>2022-11-23T09:20:15.105Z</time>
      </trkpt>
      <trkpt lat="48.31899" lon="2.69422">
        <ele>66</ele>
        <time>2022-11-23T09:20:19.505Z</time>
      </trkpt>
      <trkpt lat="48.31897" lon="2.69424">
        <ele>66</ele>
        <time>2022-11-23T09:23:29.519Z</time>
      </trkpt>
      <trkpt lat="48.31897" lon="2.69425">
        <ele>66</ele>
        <time>2022-11-23T09:23:34.497Z</time>
      </trkpt>
      <trkpt lat="48.31898" lon="2.69433">
        <ele>64</ele>
        <time>2022-11-23T09:23:38.500Z</time>
      </trkpt>
      <trkpt lat="48.31899" lon="2.69439">
        <ele>64</ele>
        <time>2022-11-23T09:23:43.489Z</time>
      </trkpt>
      <trkpt lat="48.31902" lon="2.6945">
        <ele>64</ele>
        <time>2022-11-23T09:23:48.510Z</time>
      </trkpt>
      <trkpt lat="48.31905" lon="2.69458">
        <ele>65</ele>
        <time>2022-11-23T09:23:53.332Z</time>
      </trkpt>
      <trkpt lat="48.31908" lon="2.69464">
        <ele>64</ele>
        <time>2022-11-23T09:23:58.204Z</time>
      </trkpt>
      <trkpt lat="48.31907" lon="2.69467">
        <ele>64</ele>
        <time>2022-11-23T09:24:02.478Z</time>
      </trkpt>
      <trkpt lat="48.31909" lon="2.69474">
        <ele>64</ele>
        <time>2022-11-23T09:24:07.508Z</time>
      </trkpt>
      <trkpt lat="48.31912" lon="2.69484">
        <ele>64</ele>
        <time>2022-11-23T09:24:12.032Z</time>
      </trkpt>
      <trkpt lat="48.31915" lon="2.69487">
        <ele>64</ele>
        <time>2022-11-23T09:24:16.174Z</time>
      </trkpt>
      <trkpt lat="48.31916" lon="2.69495">
        <ele>64</ele>
        <time>2022-11-23T09:24:20.223Z</time>
      </trkpt>
      <trkpt lat="48.31918" lon="2.69503">
        <ele>64</ele>
        <time>2022-11-23T09:24:24.367Z</time>
      </trkpt>
      <trkpt lat="48.31921" lon="2.69514">
        <ele>63</ele>
        <time>2022-11-23T09:24:29.313Z</time>
      </trkpt>
      <trkpt lat="48.31922" lon="2.69526">
        <ele>63</ele>
        <time>2022-11-23T09:24:34.290Z</time>
      </trkpt>
      <trkpt lat="48.31923" lon="2.69535">
        <ele>63</ele>
        <time>2022-11-23T09:24:38.488Z</time>
      </trkpt>
      <trkpt lat="48.31924" lon="2.69546">
        <ele>62</ele>
        <time>2022-11-23T09:24:43.466Z</time>
      </trkpt>
      <trkpt lat="48.31925" lon="2.69555">
        <ele>62</ele>
        <time>2022-11-23T09:24:47.490Z</time>
      </trkpt>
      <trkpt lat="48.31928" lon="2.69565">
        <ele>62</ele>
        <time>2022-11-23T09:24:52.499Z</time>
      </trkpt>
      <trkpt lat="48.31935" lon="2.69571">
        <ele>61</ele>
        <time>2022-11-23T09:24:57.328Z</time>
      </trkpt>
      <trkpt lat="48.31939" lon="2.69578">
        <ele>61</ele>
        <time>2022-11-23T09:25:01.484Z</time>
      </trkpt>
      <trkpt lat="48.31943" lon="2.69586">
        <ele>61</ele>
        <time>2022-11-23T09:25:05.897Z</time>
      </trkpt>
      <trkpt lat="48.31946" lon="2.69592">
        <ele>61</ele>
        <time>2022-11-23T09:25:10.061Z</time>
      </trkpt>
      <trkpt lat="48.31949" lon="2.69601">
        <ele>60</ele>
        <time>2022-11-23T09:25:14.529Z</time>
      </trkpt>
      <trkpt lat="48.31952" lon="2.6961">
        <ele>60</ele>
        <time>2022-11-23T09:25:19.306Z</time>
      </trkpt>
      <trkpt lat="48.31955" lon="2.69618">
        <ele>60</ele>
        <time>2022-11-23T09:25:23.500Z</time>
      </trkpt>
      <trkpt lat="48.31958" lon="2.69627">
        <ele>60</ele>
        <time>2022-11-23T09:25:28.006Z</time>
      </trkpt>
      <trkpt lat="48.31962" lon="2.69636">
        <ele>60</ele>
        <time>2022-11-23T09:25:32.488Z</time>
      </trkpt>
      <trkpt lat="48.31965" lon="2.69643">
        <ele>60</ele>
        <time>2022-11-23T09:25:36.710Z</time>
      </trkpt>
      <trkpt lat="48.31969" lon="2.69651">
        <ele>60</ele>
        <time>2022-11-23T09:25:41.492Z</time>
      </trkpt>
      <trkpt lat="48.31972" lon="2.69658">
        <ele>60</ele>
        <time>2022-11-23T09:25:45.528Z</time>
      </trkpt>
      <trkpt lat="48.31973" lon="2.69666">
        <ele>60</ele>
        <time>2022-11-23T09:25:50.448Z</time>
      </trkpt>
      <trkpt lat="48.31975" lon="2.69672">
        <ele>60</ele>
        <time>2022-11-23T09:25:54.518Z</time>
      </trkpt>
      <trkpt lat="48.31979" lon="2.69681">
        <ele>60</ele>
        <time>2022-11-23T09:25:59.021Z</time>
      </trkpt>
      <trkpt lat="48.31982" lon="2.69689">
        <ele>60</ele>
        <time>2022-11-23T09:26:03.272Z</time>
      </trkpt>
      <trkpt lat="48.31984" lon="2.69696">
        <ele>60</ele>
        <time>2022-11-23T09:26:07.487Z</time>
      </trkpt>
      <trkpt lat="48.31986" lon="2.69702">
        <ele>61</ele>
        <time>2022-11-23T09:26:11.496Z</time>
      </trkpt>
      <trkpt lat="48.31986" lon="2.69701">
        <ele>61</ele>
        <time>2022-11-23T09:26:30.510Z</time>
      </trkpt>
      <trkpt lat="48.3199" lon="2.69714">
        <ele>60</ele>
        <time>2022-11-23T09:26:35.509Z</time>
      </trkpt>
      <trkpt lat="48.31993" lon="2.69724">
        <ele>60</ele>
        <time>2022-11-23T09:26:40.088Z</time>
      </trkpt>
      <trkpt lat="48.31996" lon="2.69732">
        <ele>60</ele>
        <time>2022-11-23T09:26:44.269Z</time>
      </trkpt>
      <trkpt lat="48.31999" lon="2.6974">
        <ele>60</ele>
        <time>2022-11-23T09:26:48.513Z</time>
      </trkpt>
      <trkpt lat="48.31997" lon="2.69744">
        <ele>60</ele>
        <time>2022-11-23T09:27:46.510Z</time>
      </trkpt>
      <trkpt lat="48.31997" lon="2.69743">
        <ele>60</ele>
        <time>2022-11-23T09:27:51.526Z</time>
      </trkpt>
      <trkpt lat="48.31996" lon="2.69742">
        <ele>60</ele>
        <time>2022-11-23T09:27:56.468Z</time>
      </trkpt>
      <trkpt lat="48.31991" lon="2.69741">
        <ele>60</ele>
        <time>2022-11-23T09:28:01.384Z</time>
      </trkpt>
      <trkpt lat="48.31986" lon="2.69749">
        <ele>60</ele>
        <time>2022-11-23T09:28:05.530Z</time>
      </trkpt>
      <trkpt lat="48.31986" lon="2.69752">
        <ele>60</ele>
        <time>2022-11-23T09:28:09.626Z</time>
      </trkpt>
      <trkpt lat="48.3199" lon="2.69746">
        <ele>60</ele>
        <time>2022-11-23T09:28:13.762Z</time>
      </trkpt>
      <trkpt lat="48.31995" lon="2.69743">
        <ele>60</ele>
        <time>2022-11-23T09:28:18.267Z</time>
      </trkpt>
      <trkpt lat="48.32" lon="2.69746">
        <ele>60</ele>
        <time>2022-11-23T09:28:22.445Z</time>
      </trkpt>
      <trkpt lat="48.32004" lon="2.69755">
        <ele>60</ele>
        <time>2022-11-23T09:28:26.872Z</time>
      </trkpt>
      <trkpt lat="48.32006" lon="2.69764">
        <ele>60</ele>
        <time>2022-11-23T09:28:31.331Z</time>
      </trkpt>
      <trkpt lat="48.32008" lon="2.69771">
        <ele>59</ele>
        <time>2022-11-23T09:28:35.490Z</time>
      </trkpt>
      <trkpt lat="48.32012" lon="2.69779">
        <ele>59</ele>
        <time>2022-11-23T09:28:39.684Z</time>
      </trkpt>
      <trkpt lat="48.32014" lon="2.69788">
        <ele>60</ele>
        <time>2022-11-23T09:28:44.022Z</time>
      </trkpt>
      <trkpt lat="48.32017" lon="2.69796">
        <ele>59</ele>
        <time>2022-11-23T09:28:48.292Z</time>
      </trkpt>
      <trkpt lat="48.32019" lon="2.69804">
        <ele>59</ele>
        <time>2022-11-23T09:28:52.490Z</time>
      </trkpt>
      <trkpt lat="48.3202" lon="2.69811">
        <ele>59</ele>
        <time>2022-11-23T09:28:56.450Z</time>
      </trkpt>
      <trkpt lat="48.32023" lon="2.69819">
        <ele>58</ele>
        <time>2022-11-23T09:29:01.186Z</time>
      </trkpt>
      <trkpt lat="48.32025" lon="2.69828">
        <ele>58</ele>
        <time>2022-11-23T09:29:05.489Z</time>
      </trkpt>
      <trkpt lat="48.32027" lon="2.69835">
        <ele>58</ele>
        <time>2022-11-23T09:29:09.496Z</time>
      </trkpt>
      <trkpt lat="48.32029" lon="2.69843">
        <ele>58</ele>
        <time>2022-11-23T09:29:14.290Z</time>
      </trkpt>
      <trkpt lat="48.32032" lon="2.69852">
        <ele>59</ele>
        <time>2022-11-23T09:29:18.362Z</time>
      </trkpt>
      <trkpt lat="48.32034" lon="2.6986">
        <ele>59</ele>
        <time>2022-11-23T09:29:22.407Z</time>
      </trkpt>
      <trkpt lat="48.32037" lon="2.6987">
        <ele>59</ele>
        <time>2022-11-23T09:29:27.183Z</time>
      </trkpt>
      <trkpt lat="48.3204" lon="2.69878">
        <ele>59</ele>
        <time>2022-11-23T09:29:31.371Z</time>
      </trkpt>
      <trkpt lat="48.32041" lon="2.69887">
        <ele>59</ele>
        <time>2022-11-23T09:29:35.524Z</time>
      </trkpt>
      <trkpt lat="48.32043" lon="2.69896">
        <ele>61</ele>
        <time>2022-11-23T09:29:39.912Z</time>
      </trkpt>
      <trkpt lat="48.32044" lon="2.69905">
        <ele>62</ele>
        <time>2022-11-23T09:29:44.384Z</time>
      </trkpt>
      <trkpt lat="48.32044" lon="2.69915">
        <ele>62</ele>
        <time>2022-11-23T09:29:49.313Z</time>
      </trkpt>
      <trkpt lat="48.32043" lon="2.69923">
        <ele>62</ele>
        <time>2022-11-23T09:29:53.530Z</time>
      </trkpt>
      <trkpt lat="48.32043" lon="2.69931">
        <ele>63</ele>
        <time>2022-11-23T09:29:58.546Z</time>
      </trkpt>
      <trkpt lat="48.32042" lon="2.6994">
        <ele>63</ele>
        <time>2022-11-23T09:30:02.533Z</time>
      </trkpt>
      <trkpt lat="48.32041" lon="2.69948">
        <ele>60</ele>
        <time>2022-11-23T09:30:07.546Z</time>
      </trkpt>
      <trkpt lat="48.32039" lon="2.69945">
        <ele>60</ele>
        <time>2022-11-23T09:30:12.473Z</time>
      </trkpt>
      <trkpt lat="48.32037" lon="2.69946">
        <ele>60</ele>
        <time>2022-11-23T09:30:17.479Z</time>
      </trkpt>
      <trkpt lat="48.32042" lon="2.69949">
        <ele>60</ele>
        <time>2022-11-23T09:30:21.481Z</time>
      </trkpt>
      <trkpt lat="48.32045" lon="2.69956">
        <ele>63</ele>
        <time>2022-11-23T09:30:26.142Z</time>
      </trkpt>
      <trkpt lat="48.32045" lon="2.69966">
        <ele>65</ele>
        <time>2022-11-23T09:30:30.210Z</time>
      </trkpt>
      <trkpt lat="48.32041" lon="2.69984">
        <ele>62</ele>
        <time>2022-11-23T09:30:35.188Z</time>
      </trkpt>
      <trkpt lat="48.3204" lon="2.69995">
        <ele>62</ele>
        <time>2022-11-23T09:30:40.169Z</time>
      </trkpt>
      <trkpt lat="48.32041" lon="2.70003">
        <ele>62</ele>
        <time>2022-11-23T09:30:44.486Z</time>
      </trkpt>
      <trkpt lat="48.32042" lon="2.70013">
        <ele>67</ele>
        <time>2022-11-23T09:30:49.068Z</time>
      </trkpt>
      <trkpt lat="48.32043" lon="2.70023">
        <ele>67</ele>
        <time>2022-11-23T09:30:53.482Z</time>
      </trkpt>
      <trkpt lat="48.32044" lon="2.70032">
        <ele>67</ele>
        <time>2022-11-23T09:30:58.024Z</time>
      </trkpt>
      <trkpt lat="48.32045" lon="2.7004">
        <ele>67</ele>
        <time>2022-11-23T09:31:02.490Z</time>
      </trkpt>
      <trkpt lat="48.32047" lon="2.70049">
        <ele>67</ele>
        <time>2022-11-23T09:31:06.506Z</time>
      </trkpt>
      <trkpt lat="48.32047" lon="2.70058">
        <ele>67</ele>
        <time>2022-11-23T09:31:10.870Z</time>
      </trkpt>
      <trkpt lat="48.32049" lon="2.70066">
        <ele>67</ele>
        <time>2022-11-23T09:31:15.322Z</time>
      </trkpt>
      <trkpt lat="48.32053" lon="2.70077">
        <ele>65</ele>
        <time>2022-11-23T09:31:20.263Z</time>
      </trkpt>
      <trkpt lat="48.32054" lon="2.70087">
        <ele>65</ele>
        <time>2022-11-23T09:31:24.480Z</time>
      </trkpt>
      <trkpt lat="48.32055" lon="2.70099">
        <ele>65</ele>
        <time>2022-11-23T09:31:29.448Z</time>
      </trkpt>
      <trkpt lat="48.32058" lon="2.7011">
        <ele>65</ele>
        <time>2022-11-23T09:31:34.309Z</time>
      </trkpt>
      <trkpt lat="48.32061" lon="2.7012">
        <ele>65</ele>
        <time>2022-11-23T09:31:39.149Z</time>
      </trkpt>
      <trkpt lat="48.32063" lon="2.70129">
        <ele>64</ele>
        <time>2022-11-23T09:31:43.486Z</time>
      </trkpt>
      <trkpt lat="48.32064" lon="2.70138">
        <ele>64</ele>
        <time>2022-11-23T09:31:47.728Z</time>
      </trkpt>
      <trkpt lat="48.32065" lon="2.70146">
        <ele>64</ele>
        <time>2022-11-23T09:31:52.289Z</time>
      </trkpt>
      <trkpt lat="48.32067" lon="2.70155">
        <ele>62</ele>
        <time>2022-11-23T09:31:56.470Z</time>
      </trkpt>
      <trkpt lat="48.32068" lon="2.70164">
        <ele>62</ele>
        <time>2022-11-23T09:32:00.504Z</time>
      </trkpt>
      <trkpt lat="48.32071" lon="2.70172">
        <ele>67</ele>
        <time>2022-11-23T09:32:05.047Z</time>
      </trkpt>
      <trkpt lat="48.32072" lon="2.70181">
        <ele>67</ele>
        <time>2022-11-23T09:32:09.503Z</time>
      </trkpt>
      <trkpt lat="48.32073" lon="2.70189">
        <ele>67</ele>
        <time>2022-11-23T09:32:13.703Z</time>
      </trkpt>
      <trkpt lat="48.32075" lon="2.70195">
        <ele>67</ele>
        <time>2022-11-23T09:32:18.049Z</time>
      </trkpt>
      <trkpt lat="48.32077" lon="2.70203">
        <ele>67</ele>
        <time>2022-11-23T09:32:22.389Z</time>
      </trkpt>
      <trkpt lat="48.32079" lon="2.70212">
        <ele>66</ele>
        <time>2022-11-23T09:32:26.571Z</time>
      </trkpt>
      <trkpt lat="48.32081" lon="2.7022">
        <ele>66</ele>
        <time>2022-11-23T09:32:30.702Z</time>
      </trkpt>
      <trkpt lat="48.32083" lon="2.70229">
        <ele>66</ele>
        <time>2022-11-23T09:32:35.029Z</time>
      </trkpt>
      <trkpt lat="48.32085" lon="2.70238">
        <ele>66</ele>
        <time>2022-11-23T09:32:39.486Z</time>
      </trkpt>
      <trkpt lat="48.32087" lon="2.70246">
        <ele>66</ele>
        <time>2022-11-23T09:32:43.922Z</time>
      </trkpt>
      <trkpt lat="48.32089" lon="2.70254">
        <ele>66</ele>
        <time>2022-11-23T09:32:48.428Z</time>
      </trkpt>
      <trkpt lat="48.3209" lon="2.70262">
        <ele>66</ele>
        <time>2022-11-23T09:32:52.847Z</time>
      </trkpt>
      <trkpt lat="48.32093" lon="2.70271">
        <ele>66</ele>
        <time>2022-11-23T09:32:57.234Z</time>
      </trkpt>
      <trkpt lat="48.32094" lon="2.70279">
        <ele>66</ele>
        <time>2022-11-23T09:33:01.689Z</time>
      </trkpt>
      <trkpt lat="48.32096" lon="2.70289">
        <ele>66</ele>
        <time>2022-11-23T09:33:06.085Z</time>
      </trkpt>
      <trkpt lat="48.32097" lon="2.70296">
        <ele>69</ele>
        <time>2022-11-23T09:33:10.449Z</time>
      </trkpt>
      <trkpt lat="48.32099" lon="2.70305">
        <ele>69</ele>
        <time>2022-11-23T09:33:14.515Z</time>
      </trkpt>
      <trkpt lat="48.32101" lon="2.70314">
        <ele>69</ele>
        <time>2022-11-23T09:33:19.134Z</time>
      </trkpt>
      <trkpt lat="48.32103" lon="2.70324">
        <ele>69</ele>
        <time>2022-11-23T09:33:23.530Z</time>
      </trkpt>
      <trkpt lat="48.32105" lon="2.70332">
        <ele>69</ele>
        <time>2022-11-23T09:33:28.488Z</time>
      </trkpt>
      <trkpt lat="48.32107" lon="2.70341">
        <ele>69</ele>
        <time>2022-11-23T09:33:33.304Z</time>
      </trkpt>
      <trkpt lat="48.32108" lon="2.70349">
        <ele>68</ele>
        <time>2022-11-23T09:33:37.532Z</time>
      </trkpt>
      <trkpt lat="48.3211" lon="2.70358">
        <ele>68</ele>
        <time>2022-11-23T09:33:41.925Z</time>
      </trkpt>
      <trkpt lat="48.32112" lon="2.70367">
        <ele>68</ele>
        <time>2022-11-23T09:33:46.470Z</time>
      </trkpt>
      <trkpt lat="48.32113" lon="2.70375">
        <ele>68</ele>
        <time>2022-11-23T09:33:50.585Z</time>
      </trkpt>
      <trkpt lat="48.32115" lon="2.70385">
        <ele>68</ele>
        <time>2022-11-23T09:33:55.449Z</time>
      </trkpt>
      <trkpt lat="48.32117" lon="2.70393">
        <ele>68</ele>
        <time>2022-11-23T09:33:59.672Z</time>
      </trkpt>
      <trkpt lat="48.32119" lon="2.70402">
        <ele>68</ele>
        <time>2022-11-23T09:34:04.049Z</time>
      </trkpt>
      <trkpt lat="48.3212" lon="2.70411">
        <ele>68</ele>
        <time>2022-11-23T09:34:08.285Z</time>
      </trkpt>
      <trkpt lat="48.32122" lon="2.7042">
        <ele>68</ele>
        <time>2022-11-23T09:34:12.632Z</time>
      </trkpt>
      <trkpt lat="48.32123" lon="2.70429">
        <ele>68</ele>
        <time>2022-11-23T09:34:16.892Z</time>
      </trkpt>
      <trkpt lat="48.32125" lon="2.70437">
        <ele>70</ele>
        <time>2022-11-23T09:34:21.028Z</time>
      </trkpt>
      <trkpt lat="48.32127" lon="2.70446">
        <ele>70</ele>
        <time>2022-11-23T09:34:25.205Z</time>
      </trkpt>
      <trkpt lat="48.32129" lon="2.70454">
        <ele>70</ele>
        <time>2022-11-23T09:34:29.443Z</time>
      </trkpt>
      <trkpt lat="48.32131" lon="2.70463">
        <ele>68</ele>
        <time>2022-11-23T09:34:33.829Z</time>
      </trkpt>
      <trkpt lat="48.32133" lon="2.70471">
        <ele>68</ele>
        <time>2022-11-23T09:34:38.207Z</time>
      </trkpt>
      <trkpt lat="48.32135" lon="2.7048">
        <ele>68</ele>
        <time>2022-11-23T09:34:42.603Z</time>
      </trkpt>
      <trkpt lat="48.32137" lon="2.70489">
        <ele>67</ele>
        <time>2022-11-23T09:34:47.386Z</time>
      </trkpt>
      <trkpt lat="48.3214" lon="2.70497">
        <ele>67</ele>
        <time>2022-11-23T09:34:51.485Z</time>
      </trkpt>
      <trkpt lat="48.32142" lon="2.70506">
        <ele>67</ele>
        <time>2022-11-23T09:34:56.327Z</time>
      </trkpt>
      <trkpt lat="48.32144" lon="2.70517">
        <ele>66</ele>
        <time>2022-11-23T09:35:01.285Z</time>
      </trkpt>
      <trkpt lat="48.32147" lon="2.70526">
        <ele>66</ele>
        <time>2022-11-23T09:35:05.497Z</time>
      </trkpt>
      <trkpt lat="48.32149" lon="2.70535">
        <ele>66</ele>
        <time>2022-11-23T09:35:09.926Z</time>
      </trkpt>
      <trkpt lat="48.32151" lon="2.70544">
        <ele>65</ele>
        <time>2022-11-23T09:35:13.924Z</time>
      </trkpt>
      <trkpt lat="48.32152" lon="2.70553">
        <ele>65</ele>
        <time>2022-11-23T09:35:18.507Z</time>
      </trkpt>
      <trkpt lat="48.32154" lon="2.70563">
        <ele>69</ele>
        <time>2022-11-23T09:35:23.124Z</time>
      </trkpt>
      <trkpt lat="48.32156" lon="2.70572">
        <ele>68</ele>
        <time>2022-11-23T09:35:27.330Z</time>
      </trkpt>
      <trkpt lat="48.32159" lon="2.70582">
        <ele>68</ele>
        <time>2022-11-23T09:35:31.925Z</time>
      </trkpt>
      <trkpt lat="48.32161" lon="2.70591">
        <ele>68</ele>
        <time>2022-11-23T09:35:36.349Z</time>
      </trkpt>
      <trkpt lat="48.32163" lon="2.70602">
        <ele>67</ele>
        <time>2022-11-23T09:35:41.263Z</time>
      </trkpt>
      <trkpt lat="48.32165" lon="2.7061">
        <ele>67</ele>
        <time>2022-11-23T09:35:45.309Z</time>
      </trkpt>
      <trkpt lat="48.32166" lon="2.70619">
        <ele>67</ele>
        <time>2022-11-23T09:35:49.786Z</time>
      </trkpt>
      <trkpt lat="48.32167" lon="2.70628">
        <ele>66</ele>
        <time>2022-11-23T09:35:54.449Z</time>
      </trkpt>
      <trkpt lat="48.32168" lon="2.70637">
        <ele>66</ele>
        <time>2022-11-23T09:35:58.506Z</time>
      </trkpt>
      <trkpt lat="48.32171" lon="2.70647">
        <ele>66</ele>
        <time>2022-11-23T09:36:03.478Z</time>
      </trkpt>
      <trkpt lat="48.32173" lon="2.70657">
        <ele>64</ele>
        <time>2022-11-23T09:36:08.026Z</time>
      </trkpt>
      <trkpt lat="48.32174" lon="2.70666">
        <ele>64</ele>
        <time>2022-11-23T09:36:12.389Z</time>
      </trkpt>
      <trkpt lat="48.32175" lon="2.70674">
        <ele>64</ele>
        <time>2022-11-23T09:36:16.729Z</time>
      </trkpt>
      <trkpt lat="48.32179" lon="2.70682">
        <ele>63</ele>
        <time>2022-11-23T09:36:20.946Z</time>
      </trkpt>
      <trkpt lat="48.32182" lon="2.7069">
        <ele>66</ele>
        <time>2022-11-23T09:36:25.112Z</time>
      </trkpt>
      <trkpt lat="48.32183" lon="2.70699">
        <ele>66</ele>
        <time>2022-11-23T09:36:29.247Z</time>
      </trkpt>
      <trkpt lat="48.32185" lon="2.70708">
        <ele>66</ele>
        <time>2022-11-23T09:36:33.527Z</time>
      </trkpt>
      <trkpt lat="48.32187" lon="2.70716">
        <ele>66</ele>
        <time>2022-11-23T09:36:37.824Z</time>
      </trkpt>
      <trkpt lat="48.3219" lon="2.70725">
        <ele>66</ele>
        <time>2022-11-23T09:36:42.527Z</time>
      </trkpt>
      <trkpt lat="48.32193" lon="2.70735">
        <ele>66</ele>
        <time>2022-11-23T09:36:47.051Z</time>
      </trkpt>
      <trkpt lat="48.32195" lon="2.70745">
        <ele>66</ele>
        <time>2022-11-23T09:36:51.540Z</time>
      </trkpt>
      <trkpt lat="48.32198" lon="2.70755">
        <ele>66</ele>
        <time>2022-11-23T09:36:56.448Z</time>
      </trkpt>
      <trkpt lat="48.32199" lon="2.70762">
        <ele>66</ele>
        <time>2022-11-23T09:37:00.524Z</time>
      </trkpt>
      <trkpt lat="48.32202" lon="2.70772">
        <ele>66</ele>
        <time>2022-11-23T09:37:05.122Z</time>
      </trkpt>
      <trkpt lat="48.32204" lon="2.7078">
        <ele>66</ele>
        <time>2022-11-23T09:37:09.228Z</time>
      </trkpt>
      <trkpt lat="48.32206" lon="2.70789">
        <ele>66</ele>
        <time>2022-11-23T09:37:13.448Z</time>
      </trkpt>
      <trkpt lat="48.32207" lon="2.70797">
        <ele>65</ele>
        <time>2022-11-23T09:37:17.768Z</time>
      </trkpt>
      <trkpt lat="48.3221" lon="2.70805">
        <ele>68</ele>
        <time>2022-11-23T09:37:22.027Z</time>
      </trkpt>
      <trkpt lat="48.32212" lon="2.70812">
        <ele>68</ele>
        <time>2022-11-23T09:37:26.187Z</time>
      </trkpt>
      <trkpt lat="48.32216" lon="2.70821">
        <ele>68</ele>
        <time>2022-11-23T09:37:30.430Z</time>
      </trkpt>
      <trkpt lat="48.32219" lon="2.70831">
        <ele>68</ele>
        <time>2022-11-23T09:37:35.169Z</time>
      </trkpt>
      <trkpt lat="48.32222" lon="2.7084">
        <ele>68</ele>
        <time>2022-11-23T09:37:39.528Z</time>
      </trkpt>
      <trkpt lat="48.32224" lon="2.70847">
        <ele>66</ele>
        <time>2022-11-23T09:37:43.533Z</time>
      </trkpt>
      <trkpt lat="48.32228" lon="2.70855">
        <ele>66</ele>
        <time>2022-11-23T09:37:47.543Z</time>
      </trkpt>
      <trkpt lat="48.32231" lon="2.70864">
        <ele>66</ele>
        <time>2022-11-23T09:37:51.972Z</time>
      </trkpt>
      <trkpt lat="48.32233" lon="2.70873">
        <ele>66</ele>
        <time>2022-11-23T09:37:56.105Z</time>
      </trkpt>
      <trkpt lat="48.32235" lon="2.70882">
        <ele>65</ele>
        <time>2022-11-23T09:38:00.228Z</time>
      </trkpt>
      <trkpt lat="48.32237" lon="2.7089">
        <ele>67</ele>
        <time>2022-11-23T09:38:04.289Z</time>
      </trkpt>
      <trkpt lat="48.3224" lon="2.70901">
        <ele>67</ele>
        <time>2022-11-23T09:38:09.289Z</time>
      </trkpt>
      <trkpt lat="48.32242" lon="2.7091">
        <ele>66</ele>
        <time>2022-11-23T09:38:13.311Z</time>
      </trkpt>
      <trkpt lat="48.32245" lon="2.70918">
        <ele>66</ele>
        <time>2022-11-23T09:38:17.412Z</time>
      </trkpt>
      <trkpt lat="48.32247" lon="2.70929">
        <ele>66</ele>
        <time>2022-11-23T09:38:22.508Z</time>
      </trkpt>
      <trkpt lat="48.3225" lon="2.70937">
        <ele>66</ele>
        <time>2022-11-23T09:38:26.538Z</time>
      </trkpt>
      <trkpt lat="48.32252" lon="2.70945">
        <ele>66</ele>
        <time>2022-11-23T09:38:30.530Z</time>
      </trkpt>
      <trkpt lat="48.32255" lon="2.70956">
        <ele>66</ele>
        <time>2022-11-23T09:38:35.293Z</time>
      </trkpt>
      <trkpt lat="48.32257" lon="2.70965">
        <ele>65</ele>
        <time>2022-11-23T09:38:39.532Z</time>
      </trkpt>
      <trkpt lat="48.32259" lon="2.70974">
        <ele>65</ele>
        <time>2022-11-23T09:38:43.525Z</time>
      </trkpt>
      <trkpt lat="48.32262" lon="2.70982">
        <ele>65</ele>
        <time>2022-11-23T09:38:47.533Z</time>
      </trkpt>
      <trkpt lat="48.32263" lon="2.7099">
        <ele>64</ele>
        <time>2022-11-23T09:38:52.026Z</time>
      </trkpt>
      <trkpt lat="48.32266" lon="2.70993">
        <ele>65</ele>
        <time>2022-11-23T09:38:56.521Z</time>
      </trkpt>
      <trkpt lat="48.32264" lon="2.70995">
        <ele>65</ele>
        <time>2022-11-23T09:39:01.071Z</time>
      </trkpt>
      <trkpt lat="48.32264" lon="2.70996">
        <ele>64</ele>
        <time>2022-11-23T09:39:05.164Z</time>
      </trkpt>
      <trkpt lat="48.32268" lon="2.71001">
        <ele>65</ele>
        <time>2022-11-23T09:39:09.387Z</time>
      </trkpt>
      <trkpt lat="48.32271" lon="2.71012">
        <ele>65</ele>
        <time>2022-11-23T09:39:13.508Z</time>
      </trkpt>
      <trkpt lat="48.32275" lon="2.71022">
        <ele>64</ele>
        <time>2022-11-23T09:39:17.968Z</time>
      </trkpt>
      <trkpt lat="48.32278" lon="2.7103">
        <ele>64</ele>
        <time>2022-11-23T09:39:22.525Z</time>
      </trkpt>
      <trkpt lat="48.32283" lon="2.71039">
        <ele>64</ele>
        <time>2022-11-23T09:39:27.522Z</time>
      </trkpt>
      <trkpt lat="48.32286" lon="2.71047">
        <ele>63</ele>
        <time>2022-11-23T09:39:32.011Z</time>
      </trkpt>
      <trkpt lat="48.32289" lon="2.71055">
        <ele>63</ele>
        <time>2022-11-23T09:39:36.232Z</time>
      </trkpt>
      <trkpt lat="48.32294" lon="2.71064">
        <ele>63</ele>
        <time>2022-11-23T09:39:41.519Z</time>
      </trkpt>
      <trkpt lat="48.32296" lon="2.71072">
        <ele>62</ele>
        <time>2022-11-23T09:39:45.786Z</time>
      </trkpt>
      <trkpt lat="48.32299" lon="2.71079">
        <ele>62</ele>
        <time>2022-11-23T09:39:50.171Z</time>
      </trkpt>
      <trkpt lat="48.32302" lon="2.71089">
        <ele>62</ele>
        <time>2022-11-23T09:39:54.366Z</time>
      </trkpt>
      <trkpt lat="48.32305" lon="2.71097">
        <ele>62</ele>
        <time>2022-11-23T09:39:58.672Z</time>
      </trkpt>
      <trkpt lat="48.32309" lon="2.71105">
        <ele>61</ele>
        <time>2022-11-23T09:40:02.890Z</time>
      </trkpt>
      <trkpt lat="48.32312" lon="2.71113">
        <ele>61</ele>
        <time>2022-11-23T09:40:07.243Z</time>
      </trkpt>
      <trkpt lat="48.32315" lon="2.7112">
        <ele>61</ele>
        <time>2022-11-23T09:40:11.548Z</time>
      </trkpt>
      <trkpt lat="48.32318" lon="2.71129">
        <ele>60</ele>
        <time>2022-11-23T09:40:15.848Z</time>
      </trkpt>
      <trkpt lat="48.3232" lon="2.71136">
        <ele>61</ele>
        <time>2022-11-23T09:40:20.152Z</time>
      </trkpt>
      <trkpt lat="48.32324" lon="2.71144">
        <ele>61</ele>
        <time>2022-11-23T09:40:24.470Z</time>
      </trkpt>
      <trkpt lat="48.32326" lon="2.71152">
        <ele>61</ele>
        <time>2022-11-23T09:40:28.531Z</time>
      </trkpt>
      <trkpt lat="48.32331" lon="2.7116">
        <ele>61</ele>
        <time>2022-11-23T09:40:33.049Z</time>
      </trkpt>
      <trkpt lat="48.32333" lon="2.71168">
        <ele>61</ele>
        <time>2022-11-23T09:40:37.390Z</time>
      </trkpt>
      <trkpt lat="48.32337" lon="2.71178">
        <ele>61</ele>
        <time>2022-11-23T09:40:42.522Z</time>
      </trkpt>
      <trkpt lat="48.32348" lon="2.71195">
        <ele>60</ele>
        <time>2022-11-23T09:41:01.488Z</time>
      </trkpt>
      <trkpt lat="48.3235" lon="2.71194">
        <ele>60</ele>
        <time>2022-11-23T09:41:06.447Z</time>
      </trkpt>
      <trkpt lat="48.32355" lon="2.71186">
        <ele>60</ele>
        <time>2022-11-23T09:41:11.272Z</time>
      </trkpt>
      <trkpt lat="48.3236" lon="2.7118">
        <ele>61</ele>
        <time>2022-11-23T09:41:15.645Z</time>
      </trkpt>
      <trkpt lat="48.32364" lon="2.71173">
        <ele>61</ele>
        <time>2022-11-23T09:41:20.088Z</time>
      </trkpt>
      <trkpt lat="48.32369" lon="2.71168">
        <ele>61</ele>
        <time>2022-11-23T09:41:24.610Z</time>
      </trkpt>
      <trkpt lat="48.32373" lon="2.71163">
        <ele>61</ele>
        <time>2022-11-23T09:41:29.065Z</time>
      </trkpt>
      <trkpt lat="48.32378" lon="2.71158">
        <ele>61</ele>
        <time>2022-11-23T09:41:33.527Z</time>
      </trkpt>
      <trkpt lat="48.3238" lon="2.71155">
        <ele>61</ele>
        <time>2022-11-23T09:41:37.521Z</time>
      </trkpt>
      <trkpt lat="48.32385" lon="2.71148">
        <ele>62</ele>
        <time>2022-11-23T09:41:54.542Z</time>
      </trkpt>
      <trkpt lat="48.32385" lon="2.71146">
        <ele>62</ele>
        <time>2022-11-23T09:41:59.517Z</time>
      </trkpt>
      <trkpt lat="48.32386" lon="2.71144">
        <ele>62</ele>
        <time>2022-11-23T09:42:03.529Z</time>
      </trkpt>
      <trkpt lat="48.32392" lon="2.71137">
        <ele>62</ele>
        <time>2022-11-23T09:42:08.125Z</time>
      </trkpt>
      <trkpt lat="48.32397" lon="2.71134">
        <ele>62</ele>
        <time>2022-11-23T09:42:12.625Z</time>
      </trkpt>
      <trkpt lat="48.32401" lon="2.71129">
        <ele>62</ele>
        <time>2022-11-23T09:42:17.225Z</time>
      </trkpt>
      <trkpt lat="48.32405" lon="2.71123">
        <ele>64</ele>
        <time>2022-11-23T09:42:22.287Z</time>
      </trkpt>
      <trkpt lat="48.32409" lon="2.71118">
        <ele>64</ele>
        <time>2022-11-23T09:42:26.962Z</time>
      </trkpt>
      <trkpt lat="48.32414" lon="2.71116">
        <ele>64</ele>
        <time>2022-11-23T09:42:31.471Z</time>
      </trkpt>
      <trkpt lat="48.32418" lon="2.71113">
        <ele>64</ele>
        <time>2022-11-23T09:42:35.522Z</time>
      </trkpt>
      <trkpt lat="48.32421" lon="2.711">
        <ele>64</ele>
        <time>2022-11-23T09:42:40.546Z</time>
      </trkpt>
      <trkpt lat="48.32425" lon="2.71096">
        <ele>65</ele>
        <time>2022-11-23T09:42:45.010Z</time>
      </trkpt>
      <trkpt lat="48.3243" lon="2.71093">
        <ele>65</ele>
        <time>2022-11-23T09:42:49.148Z</time>
      </trkpt>
      <trkpt lat="48.32436" lon="2.71087">
        <ele>66</ele>
        <time>2022-11-23T09:42:53.449Z</time>
      </trkpt>
      <trkpt lat="48.3244" lon="2.71083">
        <ele>66</ele>
        <time>2022-11-23T09:42:57.520Z</time>
      </trkpt>
      <trkpt lat="48.32444" lon="2.71078">
        <ele>66</ele>
        <time>2022-11-23T09:43:01.792Z</time>
      </trkpt>
      <trkpt lat="48.32449" lon="2.71074">
        <ele>66</ele>
        <time>2022-11-23T09:43:06.289Z</time>
      </trkpt>
      <trkpt lat="48.32453" lon="2.71069">
        <ele>67</ele>
        <time>2022-11-23T09:43:10.770Z</time>
      </trkpt>
      <trkpt lat="48.32457" lon="2.71063">
        <ele>67</ele>
        <time>2022-11-23T09:43:15.149Z</time>
      </trkpt>
      <trkpt lat="48.32461" lon="2.71057">
        <ele>68</ele>
        <time>2022-11-23T09:43:19.650Z</time>
      </trkpt>
      <trkpt lat="48.32466" lon="2.71051">
        <ele>68</ele>
        <time>2022-11-23T09:43:24.066Z</time>
      </trkpt>
      <trkpt lat="48.32471" lon="2.71046">
        <ele>68</ele>
        <time>2022-11-23T09:43:28.284Z</time>
      </trkpt>
      <trkpt lat="48.32476" lon="2.71043">
        <ele>68</ele>
        <time>2022-11-23T09:43:33.087Z</time>
      </trkpt>
      <trkpt lat="48.32481" lon="2.71032">
        <ele>69</ele>
        <time>2022-11-23T09:43:37.517Z</time>
      </trkpt>
      <trkpt lat="48.32486" lon="2.71027">
        <ele>69</ele>
        <time>2022-11-23T09:43:42.383Z</time>
      </trkpt>
      <trkpt lat="48.32491" lon="2.71023">
        <ele>69</ele>
        <time>2022-11-23T09:43:46.585Z</time>
      </trkpt>
      <trkpt lat="48.32495" lon="2.71017">
        <ele>69</ele>
        <time>2022-11-23T09:43:50.788Z</time>
      </trkpt>
      <trkpt lat="48.32499" lon="2.71011">
        <ele>70</ele>
        <time>2022-11-23T09:43:55.534Z</time>
      </trkpt>
      <trkpt lat="48.32504" lon="2.71005">
        <ele>70</ele>
        <time>2022-11-23T09:44:00.187Z</time>
      </trkpt>
      <trkpt lat="48.32508" lon="2.71">
        <ele>70</ele>
        <time>2022-11-23T09:44:04.512Z</time>
      </trkpt>
      <trkpt lat="48.32513" lon="2.70994">
        <ele>70</ele>
        <time>2022-11-23T09:44:09.386Z</time>
      </trkpt>
      <trkpt lat="48.32517" lon="2.70988">
        <ele>70</ele>
        <time>2022-11-23T09:44:13.764Z</time>
      </trkpt>
      <trkpt lat="48.32522" lon="2.70982">
        <ele>71</ele>
        <time>2022-11-23T09:44:18.254Z</time>
      </trkpt>
      <trkpt lat="48.32529" lon="2.70973">
        <ele>71</ele>
        <time>2022-11-23T09:44:31.527Z</time>
      </trkpt>
      <trkpt lat="48.32533" lon="2.70971">
        <ele>71</ele>
        <time>2022-11-23T09:44:36.514Z</time>
      </trkpt>
      <trkpt lat="48.32534" lon="2.7097">
        <ele>71</ele>
        <time>2022-11-23T09:44:41.519Z</time>
      </trkpt>
      <trkpt lat="48.32539" lon="2.70964">
        <ele>71</ele>
        <time>2022-11-23T09:44:46.150Z</time>
      </trkpt>
      <trkpt lat="48.32543" lon="2.7096">
        <ele>70</ele>
        <time>2022-11-23T09:44:50.798Z</time>
      </trkpt>
      <trkpt lat="48.32547" lon="2.70955">
        <ele>70</ele>
        <time>2022-11-23T09:44:54.945Z</time>
      </trkpt>
      <trkpt lat="48.32552" lon="2.70949">
        <ele>70</ele>
        <time>2022-11-23T09:44:59.429Z</time>
      </trkpt>
      <trkpt lat="48.32556" lon="2.70944">
        <ele>70</ele>
        <time>2022-11-23T09:45:03.524Z</time>
      </trkpt>
      <trkpt lat="48.3256" lon="2.70938">
        <ele>70</ele>
        <time>2022-11-23T09:45:07.792Z</time>
      </trkpt>
      <trkpt lat="48.32565" lon="2.70932">
        <ele>70</ele>
        <time>2022-11-23T09:45:12.047Z</time>
      </trkpt>
      <trkpt lat="48.32569" lon="2.70927">
        <ele>70</ele>
        <time>2022-11-23T09:45:16.446Z</time>
      </trkpt>
      <trkpt lat="48.32574" lon="2.70921">
        <ele>69</ele>
        <time>2022-11-23T09:45:20.824Z</time>
      </trkpt>
      <trkpt lat="48.32579" lon="2.70915">
        <ele>69</ele>
        <time>2022-11-23T09:45:25.314Z</time>
      </trkpt>
      <trkpt lat="48.32584" lon="2.7091">
        <ele>69</ele>
        <time>2022-11-23T09:45:29.689Z</time>
      </trkpt>
      <trkpt lat="48.32589" lon="2.70905">
        <ele>69</ele>
        <time>2022-11-23T09:45:34.108Z</time>
      </trkpt>
      <trkpt lat="48.32594" lon="2.70899">
        <ele>69</ele>
        <time>2022-11-23T09:45:38.530Z</time>
      </trkpt>
      <trkpt lat="48.32599" lon="2.70894">
        <ele>67</ele>
        <time>2022-11-23T09:45:43.084Z</time>
      </trkpt>
      <trkpt lat="48.32604" lon="2.7089">
        <ele>67</ele>
        <time>2022-11-23T09:45:47.430Z</time>
      </trkpt>
      <trkpt lat="48.32609" lon="2.70884">
        <ele>67</ele>
        <time>2022-11-23T09:45:52.346Z</time>
      </trkpt>
      <trkpt lat="48.32615" lon="2.7088">
        <ele>67</ele>
        <time>2022-11-23T09:45:56.863Z</time>
      </trkpt>
      <trkpt lat="48.3262" lon="2.70875">
        <ele>67</ele>
        <time>2022-11-23T09:46:01.224Z</time>
      </trkpt>
      <trkpt lat="48.32625" lon="2.7087">
        <ele>68</ele>
        <time>2022-11-23T09:46:05.710Z</time>
      </trkpt>
      <trkpt lat="48.32631" lon="2.70865">
        <ele>67</ele>
        <time>2022-11-23T09:46:10.176Z</time>
      </trkpt>
      <trkpt lat="48.32635" lon="2.70861">
        <ele>67</ele>
        <time>2022-11-23T09:46:14.515Z</time>
      </trkpt>
      <trkpt lat="48.32642" lon="2.70856">
        <ele>67</ele>
        <time>2022-11-23T09:46:19.510Z</time>
      </trkpt>
      <trkpt lat="48.32647" lon="2.70852">
        <ele>67</ele>
        <time>2022-11-23T09:46:23.983Z</time>
      </trkpt>
      <trkpt lat="48.32652" lon="2.70847">
        <ele>67</ele>
        <time>2022-11-23T09:46:28.356Z</time>
      </trkpt>
      <trkpt lat="48.32657" lon="2.70843">
        <ele>67</ele>
        <time>2022-11-23T09:46:32.823Z</time>
      </trkpt>
      <trkpt lat="48.32663" lon="2.70839">
        <ele>67</ele>
        <time>2022-11-23T09:46:37.290Z</time>
      </trkpt>
      <trkpt lat="48.32668" lon="2.70835">
        <ele>67</ele>
        <time>2022-11-23T09:46:41.709Z</time>
      </trkpt>
      <trkpt lat="48.32673" lon="2.7083">
        <ele>67</ele>
        <time>2022-11-23T09:46:46.171Z</time>
      </trkpt>
      <trkpt lat="48.32679" lon="2.70826">
        <ele>67</ele>
        <time>2022-11-23T09:46:50.525Z</time>
      </trkpt>
      <trkpt lat="48.32684" lon="2.70823">
        <ele>66</ele>
        <time>2022-11-23T09:46:54.870Z</time>
      </trkpt>
      <trkpt lat="48.32689" lon="2.70818">
        <ele>66</ele>
        <time>2022-11-23T09:46:59.211Z</time>
      </trkpt>
      <trkpt lat="48.32695" lon="2.70814">
        <ele>66</ele>
        <time>2022-11-23T09:47:03.668Z</time>
      </trkpt>
      <trkpt lat="48.32701" lon="2.7081">
        <ele>66</ele>
        <time>2022-11-23T09:47:08.068Z</time>
      </trkpt>
      <trkpt lat="48.32706" lon="2.70806">
        <ele>66</ele>
        <time>2022-11-23T09:47:12.427Z</time>
      </trkpt>
      <trkpt lat="48.32712" lon="2.70803">
        <ele>65</ele>
        <time>2022-11-23T09:47:17.423Z</time>
      </trkpt>
      <trkpt lat="48.32717" lon="2.708">
        <ele>65</ele>
        <time>2022-11-23T09:47:21.982Z</time>
      </trkpt>
      <trkpt lat="48.32721" lon="2.70797">
        <ele>65</ele>
        <time>2022-11-23T09:47:26.088Z</time>
      </trkpt>
      <trkpt lat="48.32724" lon="2.70796">
        <ele>65</ele>
        <time>2022-11-23T09:47:30.228Z</time>
      </trkpt>
      <trkpt lat="48.32728" lon="2.70792">
        <ele>65</ele>
        <time>2022-11-23T09:47:34.532Z</time>
      </trkpt>
      <trkpt lat="48.32733" lon="2.7079">
        <ele>65</ele>
        <time>2022-11-23T09:47:38.711Z</time>
      </trkpt>
      <trkpt lat="48.32738" lon="2.70787">
        <ele>65</ele>
        <time>2022-11-23T09:47:42.822Z</time>
      </trkpt>
      <trkpt lat="48.32743" lon="2.70785">
        <ele>65</ele>
        <time>2022-11-23T09:47:46.926Z</time>
      </trkpt>
      <trkpt lat="48.32748" lon="2.70781">
        <ele>65</ele>
        <time>2022-11-23T09:47:51.109Z</time>
      </trkpt>
      <trkpt lat="48.32753" lon="2.70776">
        <ele>65</ele>
        <time>2022-11-23T09:47:55.534Z</time>
      </trkpt>
      <trkpt lat="48.32758" lon="2.70771">
        <ele>65</ele>
        <time>2022-11-23T09:47:59.931Z</time>
      </trkpt>
      <trkpt lat="48.32764" lon="2.70767">
        <ele>64</ele>
        <time>2022-11-23T09:48:04.432Z</time>
      </trkpt>
      <trkpt lat="48.3277" lon="2.70764">
        <ele>64</ele>
        <time>2022-11-23T09:48:08.771Z</time>
      </trkpt>
      <trkpt lat="48.32775" lon="2.7076">
        <ele>65</ele>
        <time>2022-11-23T09:48:13.093Z</time>
      </trkpt>
      <trkpt lat="48.3278" lon="2.70757">
        <ele>65</ele>
        <time>2022-11-23T09:48:17.444Z</time>
      </trkpt>
      <trkpt lat="48.32785" lon="2.70753">
        <ele>65</ele>
        <time>2022-11-23T09:48:21.526Z</time>
      </trkpt>
      <trkpt lat="48.32789" lon="2.70749">
        <ele>65</ele>
        <time>2022-11-23T09:48:25.906Z</time>
      </trkpt>
      <trkpt lat="48.32795" lon="2.70745">
        <ele>64</ele>
        <time>2022-11-23T09:48:30.407Z</time>
      </trkpt>
      <trkpt lat="48.32801" lon="2.70742">
        <ele>64</ele>
        <time>2022-11-23T09:48:34.988Z</time>
      </trkpt>
      <trkpt lat="48.32806" lon="2.70739">
        <ele>64</ele>
        <time>2022-11-23T09:48:39.444Z</time>
      </trkpt>
      <trkpt lat="48.32812" lon="2.70739">
        <ele>64</ele>
        <time>2022-11-23T09:48:43.988Z</time>
      </trkpt>
      <trkpt lat="48.32816" lon="2.70744">
        <ele>64</ele>
        <time>2022-11-23T09:48:48.509Z</time>
      </trkpt>
      <trkpt lat="48.3282" lon="2.70749">
        <ele>66</ele>
        <time>2022-11-23T09:48:52.517Z</time>
      </trkpt>
      <trkpt lat="48.32823" lon="2.70757">
        <ele>66</ele>
        <time>2022-11-23T09:48:56.524Z</time>
      </trkpt>
      <trkpt lat="48.32825" lon="2.70764">
        <ele>65</ele>
        <time>2022-11-23T09:49:00.524Z</time>
      </trkpt>
      <trkpt lat="48.32829" lon="2.70774">
        <ele>65</ele>
        <time>2022-11-23T09:49:05.033Z</time>
      </trkpt>
      <trkpt lat="48.32832" lon="2.70779">
        <ele>65</ele>
        <time>2022-11-23T09:49:09.449Z</time>
      </trkpt>
      <trkpt lat="48.32834" lon="2.70786">
        <ele>65</ele>
        <time>2022-11-23T09:49:13.530Z</time>
      </trkpt>
      <trkpt lat="48.32838" lon="2.70792">
        <ele>65</ele>
        <time>2022-11-23T09:49:17.785Z</time>
      </trkpt>
      <trkpt lat="48.32841" lon="2.70801">
        <ele>65</ele>
        <time>2022-11-23T09:49:22.288Z</time>
      </trkpt>
      <trkpt lat="48.32845" lon="2.70807">
        <ele>65</ele>
        <time>2022-11-23T09:49:26.553Z</time>
      </trkpt>
      <trkpt lat="48.32849" lon="2.70813">
        <ele>67</ele>
        <time>2022-11-23T09:49:30.804Z</time>
      </trkpt>
      <trkpt lat="48.32852" lon="2.70822">
        <ele>66</ele>
        <time>2022-11-23T09:49:35.252Z</time>
      </trkpt>
      <trkpt lat="48.32854" lon="2.7083">
        <ele>66</ele>
        <time>2022-11-23T09:49:40.486Z</time>
      </trkpt>
      <trkpt lat="48.32858" lon="2.70834">
        <ele>66</ele>
        <time>2022-11-23T09:49:44.530Z</time>
      </trkpt>
      <trkpt lat="48.32862" lon="2.70841">
        <ele>66</ele>
        <time>2022-11-23T09:49:48.911Z</time>
      </trkpt>
      <trkpt lat="48.32865" lon="2.70849">
        <ele>65</ele>
        <time>2022-11-23T09:49:53.168Z</time>
      </trkpt>
      <trkpt lat="48.32869" lon="2.70857">
        <ele>65</ele>
        <time>2022-11-23T09:49:57.306Z</time>
      </trkpt>
      <trkpt lat="48.32872" lon="2.70864">
        <ele>65</ele>
        <time>2022-11-23T09:50:01.432Z</time>
      </trkpt>
      <trkpt lat="48.32876" lon="2.70872">
        <ele>66</ele>
        <time>2022-11-23T09:50:05.928Z</time>
      </trkpt>
      <trkpt lat="48.3288" lon="2.70879">
        <ele>65</ele>
        <time>2022-11-23T09:50:10.520Z</time>
      </trkpt>
      <trkpt lat="48.32883" lon="2.70887">
        <ele>65</ele>
        <time>2022-11-23T09:50:14.927Z</time>
      </trkpt>
      <trkpt lat="48.32885" lon="2.70895">
        <ele>65</ele>
        <time>2022-11-23T09:50:19.172Z</time>
      </trkpt>
      <trkpt lat="48.32888" lon="2.70901">
        <ele>65</ele>
        <time>2022-11-23T09:50:23.407Z</time>
      </trkpt>
      <trkpt lat="48.32891" lon="2.70908">
        <ele>64</ele>
        <time>2022-11-23T09:50:27.534Z</time>
      </trkpt>
      <trkpt lat="48.32895" lon="2.70917">
        <ele>64</ele>
        <time>2022-11-23T09:50:32.109Z</time>
      </trkpt>
      <trkpt lat="48.32897" lon="2.70924">
        <ele>64</ele>
        <time>2022-11-23T09:50:36.263Z</time>
      </trkpt>
      <trkpt lat="48.32901" lon="2.70931">
        <ele>63</ele>
        <time>2022-11-23T09:50:40.411Z</time>
      </trkpt>
      <trkpt lat="48.32904" lon="2.7094">
        <ele>64</ele>
        <time>2022-11-23T09:50:44.625Z</time>
      </trkpt>
      <trkpt lat="48.32907" lon="2.70948">
        <ele>64</ele>
        <time>2022-11-23T09:50:49.392Z</time>
      </trkpt>
      <trkpt lat="48.32911" lon="2.70956">
        <ele>64</ele>
        <time>2022-11-23T09:50:53.583Z</time>
      </trkpt>
      <trkpt lat="48.32914" lon="2.70964">
        <ele>63</ele>
        <time>2022-11-23T09:50:57.929Z</time>
      </trkpt>
      <trkpt lat="48.32917" lon="2.70971">
        <ele>63</ele>
        <time>2022-11-23T09:51:02.233Z</time>
      </trkpt>
      <trkpt lat="48.3292" lon="2.70978">
        <ele>63</ele>
        <time>2022-11-23T09:51:06.565Z</time>
      </trkpt>
      <trkpt lat="48.32923" lon="2.70985">
        <ele>63</ele>
        <time>2022-11-23T09:51:10.991Z</time>
      </trkpt>
      <trkpt lat="48.32924" lon="2.70993">
        <ele>62</ele>
        <time>2022-11-23T09:51:15.148Z</time>
      </trkpt>
      <trkpt lat="48.32926" lon="2.71">
        <ele>62</ele>
        <time>2022-11-23T09:51:19.483Z</time>
      </trkpt>
      <trkpt lat="48.32929" lon="2.71007">
        <ele>62</ele>
        <time>2022-11-23T09:51:23.864Z</time>
      </trkpt>
      <trkpt lat="48.32933" lon="2.71013">
        <ele>62</ele>
        <time>2022-11-23T09:51:28.172Z</time>
      </trkpt>
      <trkpt lat="48.32935" lon="2.71021">
        <ele>62</ele>
        <time>2022-11-23T09:51:32.388Z</time>
      </trkpt>
      <trkpt lat="48.32939" lon="2.71029">
        <ele>62</ele>
        <time>2022-11-23T09:51:36.612Z</time>
      </trkpt>
      <trkpt lat="48.32941" lon="2.71036">
        <ele>62</ele>
        <time>2022-11-23T09:51:41.207Z</time>
      </trkpt>
      <trkpt lat="48.32944" lon="2.71044">
        <ele>62</ele>
        <time>2022-11-23T09:51:45.444Z</time>
      </trkpt>
      <trkpt lat="48.32947" lon="2.71053">
        <ele>62</ele>
        <time>2022-11-23T09:51:49.928Z</time>
      </trkpt>
      <trkpt lat="48.3295" lon="2.71061">
        <ele>62</ele>
        <time>2022-11-23T09:51:54.591Z</time>
      </trkpt>
      <trkpt lat="48.32953" lon="2.71068">
        <ele>62</ele>
        <time>2022-11-23T09:51:58.822Z</time>
      </trkpt>
      <trkpt lat="48.32956" lon="2.71075">
        <ele>61</ele>
        <time>2022-11-23T09:52:03.126Z</time>
      </trkpt>
      <trkpt lat="48.32959" lon="2.71083">
        <ele>62</ele>
        <time>2022-11-23T09:52:07.350Z</time>
      </trkpt>
      <trkpt lat="48.32961" lon="2.71091">
        <ele>62</ele>
        <time>2022-11-23T09:52:11.405Z</time>
      </trkpt>
      <trkpt lat="48.32964" lon="2.71098">
        <ele>61</ele>
        <time>2022-11-23T09:52:15.689Z</time>
      </trkpt>
      <trkpt lat="48.32967" lon="2.71106">
        <ele>61</ele>
        <time>2022-11-23T09:52:20.003Z</time>
      </trkpt>
      <trkpt lat="48.32969" lon="2.71114">
        <ele>61</ele>
        <time>2022-11-23T09:52:24.370Z</time>
      </trkpt>
      <trkpt lat="48.32971" lon="2.71121">
        <ele>61</ele>
        <time>2022-11-23T09:52:28.533Z</time>
      </trkpt>
      <trkpt lat="48.32975" lon="2.71128">
        <ele>59</ele>
        <time>2022-11-23T09:52:32.854Z</time>
      </trkpt>
      <trkpt lat="48.32977" lon="2.71135">
        <ele>59</ele>
        <time>2022-11-23T09:52:37.068Z</time>
      </trkpt>
      <trkpt lat="48.3298" lon="2.71141">
        <ele>59</ele>
        <time>2022-11-23T09:52:41.307Z</time>
      </trkpt>
      <trkpt lat="48.32983" lon="2.71149">
        <ele>59</ele>
        <time>2022-11-23T09:52:45.555Z</time>
      </trkpt>
      <trkpt lat="48.32986" lon="2.71156">
        <ele>58</ele>
        <time>2022-11-23T09:52:50.344Z</time>
      </trkpt>
      <trkpt lat="48.32989" lon="2.71163">
        <ele>59</ele>
        <time>2022-11-23T09:52:54.611Z</time>
      </trkpt>
      <trkpt lat="48.32993" lon="2.7117">
        <ele>59</ele>
        <time>2022-11-23T09:52:59.010Z</time>
      </trkpt>
      <trkpt lat="48.32996" lon="2.71178">
        <ele>59</ele>
        <time>2022-11-23T09:53:03.558Z</time>
      </trkpt>
      <trkpt lat="48.32999" lon="2.71186">
        <ele>59</ele>
        <time>2022-11-23T09:53:08.028Z</time>
      </trkpt>
      <trkpt lat="48.33001" lon="2.71194">
        <ele>59</ele>
        <time>2022-11-23T09:53:12.346Z</time>
      </trkpt>
      <trkpt lat="48.33005" lon="2.71201">
        <ele>59</ele>
        <time>2022-11-23T09:53:16.548Z</time>
      </trkpt>
      <trkpt lat="48.33008" lon="2.71208">
        <ele>59</ele>
        <time>2022-11-23T09:53:20.774Z</time>
      </trkpt>
      <trkpt lat="48.33011" lon="2.71215">
        <ele>60</ele>
        <time>2022-11-23T09:53:25.426Z</time>
      </trkpt>
      <trkpt lat="48.33014" lon="2.71223">
        <ele>60</ele>
        <time>2022-11-23T09:53:29.528Z</time>
      </trkpt>
      <trkpt lat="48.33018" lon="2.7123">
        <ele>61</ele>
        <time>2022-11-23T09:53:33.888Z</time>
      </trkpt>
      <trkpt lat="48.33021" lon="2.71238">
        <ele>61</ele>
        <time>2022-11-23T09:53:38.210Z</time>
      </trkpt>
      <trkpt lat="48.33023" lon="2.71245">
        <ele>61</ele>
        <time>2022-11-23T09:53:42.505Z</time>
      </trkpt>
      <trkpt lat="48.33025" lon="2.71254">
        <ele>61</ele>
        <time>2022-11-23T09:53:47.495Z</time>
      </trkpt>
      <trkpt lat="48.33032" lon="2.71261">
        <ele>61</ele>
        <time>2022-11-23T09:53:51.866Z</time>
      </trkpt>
      <trkpt lat="48.33035" lon="2.7127">
        <ele>60</ele>
        <time>2022-11-23T09:53:56.522Z</time>
      </trkpt>
      <trkpt lat="48.33037" lon="2.71277">
        <ele>60</ele>
        <time>2022-11-23T09:54:01.090Z</time>
      </trkpt>
      <trkpt lat="48.33036" lon="2.71282">
        <ele>60</ele>
        <time>2022-11-23T09:54:05.468Z</time>
      </trkpt>
      <trkpt lat="48.33044" lon="2.71289">
        <ele>61</ele>
        <time>2022-11-23T09:54:09.890Z</time>
      </trkpt>
      <trkpt lat="48.33048" lon="2.71295">
        <ele>61</ele>
        <time>2022-11-23T09:54:14.106Z</time>
      </trkpt>
      <trkpt lat="48.33052" lon="2.713">
        <ele>61</ele>
        <time>2022-11-23T09:54:18.525Z</time>
      </trkpt>
      <trkpt lat="48.33056" lon="2.71307">
        <ele>61</ele>
        <time>2022-11-23T09:54:23.347Z</time>
      </trkpt>
      <trkpt lat="48.33062" lon="2.71314">
        <ele>61</ele>
        <time>2022-11-23T09:54:28.264Z</time>
      </trkpt>
      <trkpt lat="48.33066" lon="2.7132">
        <ele>61</ele>
        <time>2022-11-23T09:54:32.488Z</time>
      </trkpt>
      <trkpt lat="48.33072" lon="2.71325">
        <ele>61</ele>
        <time>2022-11-23T09:54:36.520Z</time>
      </trkpt>
      <trkpt lat="48.33077" lon="2.71332">
        <ele>61</ele>
        <time>2022-11-23T09:54:41.249Z</time>
      </trkpt>
      <trkpt lat="48.33081" lon="2.71338">
        <ele>61</ele>
        <time>2022-11-23T09:54:45.498Z</time>
      </trkpt>
      <trkpt lat="48.33085" lon="2.71344">
        <ele>61</ele>
        <time>2022-11-23T09:54:49.521Z</time>
      </trkpt>
      <trkpt lat="48.33088" lon="2.71352">
        <ele>62</ele>
        <time>2022-11-23T09:54:53.891Z</time>
      </trkpt>
      <trkpt lat="48.33091" lon="2.71359">
        <ele>62</ele>
        <time>2022-11-23T09:54:58.208Z</time>
      </trkpt>
      <trkpt lat="48.33095" lon="2.71363">
        <ele>62</ele>
        <time>2022-11-23T09:55:02.246Z</time>
      </trkpt>
      <trkpt lat="48.33099" lon="2.71369">
        <ele>62</ele>
        <time>2022-11-23T09:55:06.496Z</time>
      </trkpt>
      <trkpt lat="48.33103" lon="2.71374">
        <ele>62</ele>
        <time>2022-11-23T09:55:10.492Z</time>
      </trkpt>
      <trkpt lat="48.33107" lon="2.71382">
        <ele>64</ele>
        <time>2022-11-23T09:55:15.387Z</time>
      </trkpt>
      <trkpt lat="48.33111" lon="2.71387">
        <ele>64</ele>
        <time>2022-11-23T09:55:19.509Z</time>
      </trkpt>
      <trkpt lat="48.33115" lon="2.71391">
        <ele>64</ele>
        <time>2022-11-23T09:55:23.651Z</time>
      </trkpt>
      <trkpt lat="48.33119" lon="2.71398">
        <ele>64</ele>
        <time>2022-11-23T09:55:27.808Z</time>
      </trkpt>
      <trkpt lat="48.33123" lon="2.71404">
        <ele>65</ele>
        <time>2022-11-23T09:55:32.287Z</time>
      </trkpt>
      <trkpt lat="48.33126" lon="2.71411">
        <ele>64</ele>
        <time>2022-11-23T09:55:36.683Z</time>
      </trkpt>
      <trkpt lat="48.33131" lon="2.71415">
        <ele>64</ele>
        <time>2022-11-23T09:55:40.741Z</time>
      </trkpt>
      <trkpt lat="48.33135" lon="2.71419">
        <ele>64</ele>
        <time>2022-11-23T09:55:44.847Z</time>
      </trkpt>
      <trkpt lat="48.33139" lon="2.71425">
        <ele>64</ele>
        <time>2022-11-23T09:55:49.247Z</time>
      </trkpt>
      <trkpt lat="48.33143" lon="2.71432">
        <ele>64</ele>
        <time>2022-11-23T09:55:53.713Z</time>
      </trkpt>
      <trkpt lat="48.33147" lon="2.71437">
        <ele>64</ele>
        <time>2022-11-23T09:55:57.731Z</time>
      </trkpt>
      <trkpt lat="48.33152" lon="2.71443">
        <ele>64</ele>
        <time>2022-11-23T09:56:02.026Z</time>
      </trkpt>
      <trkpt lat="48.33155" lon="2.7145">
        <ele>63</ele>
        <time>2022-11-23T09:56:06.373Z</time>
      </trkpt>
      <trkpt lat="48.3316" lon="2.71456">
        <ele>63</ele>
        <time>2022-11-23T09:56:10.775Z</time>
      </trkpt>
      <trkpt lat="48.33163" lon="2.71462">
        <ele>63</ele>
        <time>2022-11-23T09:56:15.251Z</time>
      </trkpt>
      <trkpt lat="48.33167" lon="2.71467">
        <ele>63</ele>
        <time>2022-11-23T09:56:19.528Z</time>
      </trkpt>
      <trkpt lat="48.33171" lon="2.71471">
        <ele>63</ele>
        <time>2022-11-23T09:56:24.062Z</time>
      </trkpt>
      <trkpt lat="48.33175" lon="2.71478">
        <ele>63</ele>
        <time>2022-11-23T09:56:28.509Z</time>
      </trkpt>
      <trkpt lat="48.33177" lon="2.71486">
        <ele>63</ele>
        <time>2022-11-23T09:56:32.527Z</time>
      </trkpt>
      <trkpt lat="48.33181" lon="2.71495">
        <ele>65</ele>
        <time>2022-11-23T09:56:37.070Z</time>
      </trkpt>
      <trkpt lat="48.33184" lon="2.71503">
        <ele>65</ele>
        <time>2022-11-23T09:56:41.521Z</time>
      </trkpt>
      <trkpt lat="48.33187" lon="2.71511">
        <ele>65</ele>
        <time>2022-11-23T09:56:45.905Z</time>
      </trkpt>
      <trkpt lat="48.33191" lon="2.71518">
        <ele>67</ele>
        <time>2022-11-23T09:56:50.403Z</time>
      </trkpt>
      <trkpt lat="48.33193" lon="2.71525">
        <ele>67</ele>
        <time>2022-11-23T09:56:55.008Z</time>
      </trkpt>
      <trkpt lat="48.33195" lon="2.71532">
        <ele>67</ele>
        <time>2022-11-23T09:56:59.510Z</time>
      </trkpt>
      <trkpt lat="48.33199" lon="2.71539">
        <ele>67</ele>
        <time>2022-11-23T09:57:03.945Z</time>
      </trkpt>
      <trkpt lat="48.33202" lon="2.71545">
        <ele>67</ele>
        <time>2022-11-23T09:57:08.106Z</time>
      </trkpt>
      <trkpt lat="48.33204" lon="2.71551">
        <ele>67</ele>
        <time>2022-11-23T09:57:12.488Z</time>
      </trkpt>
      <trkpt lat="48.33206" lon="2.71557">
        <ele>67</ele>
        <time>2022-11-23T09:57:16.485Z</time>
      </trkpt>
      <trkpt lat="48.33209" lon="2.71564">
        <ele>69</ele>
        <time>2022-11-23T09:57:21.329Z</time>
      </trkpt>
      <trkpt lat="48.33213" lon="2.71574">
        <ele>69</ele>
        <time>2022-11-23T09:57:25.586Z</time>
      </trkpt>
      <trkpt lat="48.33216" lon="2.71584">
        <ele>69</ele>
        <time>2022-11-23T09:57:30.046Z</time>
      </trkpt>
      <trkpt lat="48.33218" lon="2.71591">
        <ele>69</ele>
        <time>2022-11-23T09:57:34.292Z</time>
      </trkpt>
      <trkpt lat="48.33222" lon="2.71599">
        <ele>69</ele>
        <time>2022-11-23T09:57:38.793Z</time>
      </trkpt>
      <trkpt lat="48.33225" lon="2.71607">
        <ele>69</ele>
        <time>2022-11-23T09:57:43.525Z</time>
      </trkpt>
      <trkpt lat="48.33228" lon="2.71615">
        <ele>69</ele>
        <time>2022-11-23T09:57:47.942Z</time>
      </trkpt>
      <trkpt lat="48.33231" lon="2.71624">
        <ele>69</ele>
        <time>2022-11-23T09:57:52.412Z</time>
      </trkpt>
      <trkpt lat="48.33234" lon="2.71632">
        <ele>69</ele>
        <time>2022-11-23T09:57:57.288Z</time>
      </trkpt>
      <trkpt lat="48.33236" lon="2.7164">
        <ele>66</ele>
        <time>2022-11-23T09:58:01.533Z</time>
      </trkpt>
      <trkpt lat="48.33239" lon="2.71648">
        <ele>66</ele>
        <time>2022-11-23T09:58:05.533Z</time>
      </trkpt>
      <trkpt lat="48.33243" lon="2.71656">
        <ele>66</ele>
        <time>2022-11-23T09:58:10.087Z</time>
      </trkpt>
      <trkpt lat="48.33246" lon="2.71664">
        <ele>66</ele>
        <time>2022-11-23T09:58:14.507Z</time>
      </trkpt>
      <trkpt lat="48.33249" lon="2.71671">
        <ele>66</ele>
        <time>2022-11-23T09:58:19.004Z</time>
      </trkpt>
      <trkpt lat="48.33254" lon="2.71674">
        <ele>66</ele>
        <time>2022-11-23T09:58:23.550Z</time>
      </trkpt>
      <trkpt lat="48.33258" lon="2.71682">
        <ele>66</ele>
        <time>2022-11-23T09:58:28.085Z</time>
      </trkpt>
      <trkpt lat="48.3326" lon="2.7169">
        <ele>66</ele>
        <time>2022-11-23T09:58:32.626Z</time>
      </trkpt>
      <trkpt lat="48.33263" lon="2.71698">
        <ele>66</ele>
        <time>2022-11-23T09:58:37.371Z</time>
      </trkpt>
      <trkpt lat="48.33265" lon="2.71706">
        <ele>65</ele>
        <time>2022-11-23T09:58:41.954Z</time>
      </trkpt>
      <trkpt lat="48.33268" lon="2.71714">
        <ele>67</ele>
        <time>2022-11-23T09:58:46.066Z</time>
      </trkpt>
      <trkpt lat="48.3327" lon="2.71722">
        <ele>67</ele>
        <time>2022-11-23T09:58:50.266Z</time>
      </trkpt>
      <trkpt lat="48.33274" lon="2.71731">
        <ele>67</ele>
        <time>2022-11-23T09:58:55.414Z</time>
      </trkpt>
      <trkpt lat="48.33277" lon="2.71737">
        <ele>68</ele>
        <time>2022-11-23T09:58:59.519Z</time>
      </trkpt>
      <trkpt lat="48.33281" lon="2.71741">
        <ele>68</ele>
        <time>2022-11-23T09:59:03.542Z</time>
      </trkpt>
      <trkpt lat="48.33287" lon="2.71743">
        <ele>68</ele>
        <time>2022-11-23T09:59:07.913Z</time>
      </trkpt>
      <trkpt lat="48.33293" lon="2.71741">
        <ele>67</ele>
        <time>2022-11-23T09:59:12.429Z</time>
      </trkpt>
      <trkpt lat="48.33298" lon="2.71737">
        <ele>67</ele>
        <time>2022-11-23T09:59:16.526Z</time>
      </trkpt>
      <trkpt lat="48.33304" lon="2.71733">
        <ele>65</ele>
        <time>2022-11-23T09:59:21.014Z</time>
      </trkpt>
      <trkpt lat="48.33308" lon="2.71729">
        <ele>65</ele>
        <time>2022-11-23T09:59:25.189Z</time>
      </trkpt>
      <trkpt lat="48.33314" lon="2.71724">
        <ele>65</ele>
        <time>2022-11-23T09:59:29.518Z</time>
      </trkpt>
      <trkpt lat="48.33319" lon="2.7172">
        <ele>65</ele>
        <time>2022-11-23T09:59:33.534Z</time>
      </trkpt>
      <trkpt lat="48.33323" lon="2.71717">
        <ele>65</ele>
        <time>2022-11-23T09:59:37.522Z</time>
      </trkpt>
      <trkpt lat="48.33328" lon="2.71713">
        <ele>65</ele>
        <time>2022-11-23T09:59:41.966Z</time>
      </trkpt>
      <trkpt lat="48.33333" lon="2.71709">
        <ele>65</ele>
        <time>2022-11-23T09:59:46.470Z</time>
      </trkpt>
      <trkpt lat="48.33337" lon="2.71705">
        <ele>64</ele>
        <time>2022-11-23T09:59:50.529Z</time>
      </trkpt>
      <trkpt lat="48.33343" lon="2.71701">
        <ele>64</ele>
        <time>2022-11-23T09:59:54.532Z</time>
      </trkpt>
      <trkpt lat="48.33348" lon="2.71697">
        <ele>66</ele>
        <time>2022-11-23T09:59:59.070Z</time>
      </trkpt>
      <trkpt lat="48.33353" lon="2.71693">
        <ele>66</ele>
        <time>2022-11-23T10:00:03.507Z</time>
      </trkpt>
      <trkpt lat="48.33358" lon="2.71691">
        <ele>66</ele>
        <time>2022-11-23T10:00:08.031Z</time>
      </trkpt>
      <trkpt lat="48.33363" lon="2.71687">
        <ele>66</ele>
        <time>2022-11-23T10:00:12.129Z</time>
      </trkpt>
      <trkpt lat="48.33368" lon="2.71682">
        <ele>66</ele>
        <time>2022-11-23T10:00:16.327Z</time>
      </trkpt>
      <trkpt lat="48.33373" lon="2.7168">
        <ele>67</ele>
        <time>2022-11-23T10:00:20.522Z</time>
      </trkpt>
      <trkpt lat="48.33373" lon="2.7168">
        <ele>67</ele>
        <time>2022-11-23T10:00:25.522Z</time>
      </trkpt>
      <trkpt lat="48.33375" lon="2.71676">
        <ele>68</ele>
        <time>2022-11-23T10:00:29.944Z</time>
      </trkpt>
      <trkpt lat="48.33382" lon="2.71673">
        <ele>68</ele>
        <time>2022-11-23T10:00:34.560Z</time>
      </trkpt>
      <trkpt lat="48.33388" lon="2.71667">
        <ele>68</ele>
        <time>2022-11-23T10:00:39.532Z</time>
      </trkpt>
      <trkpt lat="48.33393" lon="2.71662">
        <ele>68</ele>
        <time>2022-11-23T10:00:44.230Z</time>
      </trkpt>
      <trkpt lat="48.334" lon="2.71658">
        <ele>68</ele>
        <time>2022-11-23T10:00:49.166Z</time>
      </trkpt>
      <trkpt lat="48.33405" lon="2.71654">
        <ele>68</ele>
        <time>2022-11-23T10:00:53.528Z</time>
      </trkpt>
      <trkpt lat="48.33409" lon="2.7165">
        <ele>69</ele>
        <time>2022-11-23T10:00:58.134Z</time>
      </trkpt>
      <trkpt lat="48.33415" lon="2.71646">
        <ele>69</ele>
        <time>2022-11-23T10:01:02.523Z</time>
      </trkpt>
      <trkpt lat="48.3342" lon="2.71642">
        <ele>69</ele>
        <time>2022-11-23T10:01:06.529Z</time>
      </trkpt>
      <trkpt lat="48.33425" lon="2.71637">
        <ele>69</ele>
        <time>2022-11-23T10:01:10.884Z</time>
      </trkpt>
      <trkpt lat="48.3343" lon="2.71633">
        <ele>69</ele>
        <time>2022-11-23T10:01:15.228Z</time>
      </trkpt>
      <trkpt lat="48.33436" lon="2.71628">
        <ele>69</ele>
        <time>2022-11-23T10:01:19.533Z</time>
      </trkpt>
      <trkpt lat="48.33441" lon="2.71625">
        <ele>69</ele>
        <time>2022-11-23T10:01:24.026Z</time>
      </trkpt>
      <trkpt lat="48.33446" lon="2.71621">
        <ele>69</ele>
        <time>2022-11-23T10:01:28.493Z</time>
      </trkpt>
      <trkpt lat="48.33452" lon="2.71616">
        <ele>69</ele>
        <time>2022-11-23T10:01:33.537Z</time>
      </trkpt>
      <trkpt lat="48.33458" lon="2.71611">
        <ele>69</ele>
        <time>2022-11-23T10:01:38.545Z</time>
      </trkpt>
      <trkpt lat="48.33464" lon="2.71606">
        <ele>70</ele>
        <time>2022-11-23T10:01:43.530Z</time>
      </trkpt>
      <trkpt lat="48.33469" lon="2.71602">
        <ele>70</ele>
        <time>2022-11-23T10:01:48.007Z</time>
      </trkpt>
      <trkpt lat="48.33475" lon="2.71598">
        <ele>70</ele>
        <time>2022-11-23T10:01:52.292Z</time>
      </trkpt>
      <trkpt lat="48.33481" lon="2.71594">
        <ele>71</ele>
        <time>2022-11-23T10:01:57.088Z</time>
      </trkpt>
      <trkpt lat="48.33486" lon="2.71589">
        <ele>72</ele>
        <time>2022-11-23T10:02:01.527Z</time>
      </trkpt>
      <trkpt lat="48.33492" lon="2.71584">
        <ele>72</ele>
        <time>2022-11-23T10:02:05.973Z</time>
      </trkpt>
      <trkpt lat="48.33497" lon="2.71582">
        <ele>72</ele>
        <time>2022-11-23T10:02:10.308Z</time>
      </trkpt>
      <trkpt lat="48.33502" lon="2.71578">
        <ele>72</ele>
        <time>2022-11-23T10:02:14.327Z</time>
      </trkpt>
      <trkpt lat="48.33507" lon="2.71574">
        <ele>72</ele>
        <time>2022-11-23T10:02:18.390Z</time>
      </trkpt>
      <trkpt lat="48.33514" lon="2.71572">
        <ele>72</ele>
        <time>2022-11-23T10:02:23.406Z</time>
      </trkpt>
      <trkpt lat="48.33518" lon="2.71569">
        <ele>72</ele>
        <time>2022-11-23T10:02:27.489Z</time>
      </trkpt>
      <trkpt lat="48.33523" lon="2.71564">
        <ele>72</ele>
        <time>2022-11-23T10:02:31.550Z</time>
      </trkpt>
      <trkpt lat="48.33529" lon="2.71561">
        <ele>72</ele>
        <time>2022-11-23T10:02:35.537Z</time>
      </trkpt>
      <trkpt lat="48.33535" lon="2.71557">
        <ele>72</ele>
        <time>2022-11-23T10:02:40.533Z</time>
      </trkpt>
      <trkpt lat="48.33541" lon="2.71554">
        <ele>72</ele>
        <time>2022-11-23T10:02:45.329Z</time>
      </trkpt>
      <trkpt lat="48.33545" lon="2.71551">
        <ele>72</ele>
        <time>2022-11-23T10:02:49.528Z</time>
      </trkpt>
      <trkpt lat="48.3355" lon="2.71547">
        <ele>72</ele>
        <time>2022-11-23T10:02:53.533Z</time>
      </trkpt>
      <trkpt lat="48.33556" lon="2.71545">
        <ele>72</ele>
        <time>2022-11-23T10:02:58.274Z</time>
      </trkpt>
      <trkpt lat="48.33562" lon="2.71542">
        <ele>72</ele>
        <time>2022-11-23T10:03:02.533Z</time>
      </trkpt>
      <trkpt lat="48.33568" lon="2.71538">
        <ele>72</ele>
        <time>2022-11-23T10:03:06.786Z</time>
      </trkpt>
      <trkpt lat="48.33573" lon="2.71534">
        <ele>73</ele>
        <time>2022-11-23T10:03:11.453Z</time>
      </trkpt>
      <trkpt lat="48.33579" lon="2.71531">
        <ele>73</ele>
        <time>2022-11-23T10:03:15.530Z</time>
      </trkpt>
      <trkpt lat="48.33585" lon="2.71527">
        <ele>73</ele>
        <time>2022-11-23T10:03:20.123Z</time>
      </trkpt>
      <trkpt lat="48.3359" lon="2.71523">
        <ele>73</ele>
        <time>2022-11-23T10:03:24.350Z</time>
      </trkpt>
      <trkpt lat="48.33596" lon="2.7152">
        <ele>73</ele>
        <time>2022-11-23T10:03:28.403Z</time>
      </trkpt>
      <trkpt lat="48.33601" lon="2.71517">
        <ele>74</ele>
        <time>2022-11-23T10:03:32.532Z</time>
      </trkpt>
      <trkpt lat="48.33607" lon="2.71512">
        <ele>74</ele>
        <time>2022-11-23T10:03:36.773Z</time>
      </trkpt>
      <trkpt lat="48.33612" lon="2.71509">
        <ele>74</ele>
        <time>2022-11-23T10:03:41.132Z</time>
      </trkpt>
      <trkpt lat="48.33617" lon="2.71506">
        <ele>74</ele>
        <time>2022-11-23T10:03:45.450Z</time>
      </trkpt>
      <trkpt lat="48.33623" lon="2.71503">
        <ele>74</ele>
        <time>2022-11-23T10:03:49.723Z</time>
      </trkpt>
      <trkpt lat="48.33628" lon="2.71501">
        <ele>75</ele>
        <time>2022-11-23T10:03:54.051Z</time>
      </trkpt>
      <trkpt lat="48.33634" lon="2.71499">
        <ele>75</ele>
        <time>2022-11-23T10:03:58.205Z</time>
      </trkpt>
      <trkpt lat="48.33641" lon="2.71496">
        <ele>75</ele>
        <time>2022-11-23T10:04:02.525Z</time>
      </trkpt>
      <trkpt lat="48.33646" lon="2.71493">
        <ele>75</ele>
        <time>2022-11-23T10:04:06.518Z</time>
      </trkpt>
      <trkpt lat="48.33651" lon="2.71488">
        <ele>75</ele>
        <time>2022-11-23T10:04:11.150Z</time>
      </trkpt>
      <trkpt lat="48.33651" lon="2.71487">
        <ele>75</ele>
        <time>2022-11-23T10:04:15.344Z</time>
      </trkpt>
      <trkpt lat="48.33656" lon="2.71486">
        <ele>75</ele>
        <time>2022-11-23T10:04:19.506Z</time>
      </trkpt>
      <trkpt lat="48.3366" lon="2.71489">
        <ele>76</ele>
        <time>2022-11-23T10:04:23.704Z</time>
      </trkpt>
      <trkpt lat="48.33665" lon="2.71487">
        <ele>76</ele>
        <time>2022-11-23T10:04:28.190Z</time>
      </trkpt>
      <trkpt lat="48.33671" lon="2.71484">
        <ele>75</ele>
        <time>2022-11-23T10:04:32.520Z</time>
      </trkpt>
      <trkpt lat="48.33676" lon="2.71478">
        <ele>75</ele>
        <time>2022-11-23T10:04:37.123Z</time>
      </trkpt>
      <trkpt lat="48.33681" lon="2.71474">
        <ele>77</ele>
        <time>2022-11-23T10:04:41.510Z</time>
      </trkpt>
      <trkpt lat="48.33687" lon="2.71472">
        <ele>77</ele>
        <time>2022-11-23T10:04:45.843Z</time>
      </trkpt>
      <trkpt lat="48.33692" lon="2.71472">
        <ele>77</ele>
        <time>2022-11-23T10:04:50.289Z</time>
      </trkpt>
      <trkpt lat="48.33697" lon="2.71469">
        <ele>77</ele>
        <time>2022-11-23T10:04:54.515Z</time>
      </trkpt>
      <trkpt lat="48.33697" lon="2.71466">
        <ele>77</ele>
        <time>2022-11-23T10:04:59.527Z</time>
      </trkpt>
      <trkpt lat="48.33697" lon="2.71466">
        <ele>77</ele>
        <time>2022-11-23T10:05:04.392Z</time>
      </trkpt>
      <trkpt lat="48.33703" lon="2.71464">
        <ele>77</ele>
        <time>2022-11-23T10:05:08.757Z</time>
      </trkpt>
      <trkpt lat="48.33708" lon="2.71461">
        <ele>77</ele>
        <time>2022-11-23T10:05:12.783Z</time>
      </trkpt>
      <trkpt lat="48.33716" lon="2.71463">
        <ele>78</ele>
        <time>2022-11-23T10:05:17.046Z</time>
      </trkpt>
      <trkpt lat="48.33722" lon="2.71464">
        <ele>78</ele>
        <time>2022-11-23T10:05:21.528Z</time>
      </trkpt>
      <trkpt lat="48.33728" lon="2.71464">
        <ele>78</ele>
        <time>2022-11-23T10:05:26.003Z</time>
      </trkpt>
      <trkpt lat="48.33734" lon="2.71465">
        <ele>78</ele>
        <time>2022-11-23T10:05:30.243Z</time>
      </trkpt>
      <trkpt lat="48.3374" lon="2.71465">
        <ele>79</ele>
        <time>2022-11-23T10:05:34.496Z</time>
      </trkpt>
      <trkpt lat="48.33746" lon="2.71465">
        <ele>79</ele>
        <time>2022-11-23T10:05:38.551Z</time>
      </trkpt>
      <trkpt lat="48.3375" lon="2.71462">
        <ele>79</ele>
        <time>2022-11-23T10:05:42.825Z</time>
      </trkpt>
      <trkpt lat="48.3375" lon="2.71465">
        <ele>79</ele>
        <time>2022-11-23T10:05:47.131Z</time>
      </trkpt>
      <trkpt lat="48.3375" lon="2.71469">
        <ele>79</ele>
        <time>2022-11-23T10:05:51.134Z</time>
      </trkpt>
      <trkpt lat="48.33758" lon="2.71469">
        <ele>79</ele>
        <time>2022-11-23T10:05:55.405Z</time>
      </trkpt>
      <trkpt lat="48.3377" lon="2.71469">
        <ele>79</ele>
        <time>2022-11-23T10:06:00.266Z</time>
      </trkpt>
      <trkpt lat="48.33781" lon="2.71464">
        <ele>79</ele>
        <time>2022-11-23T10:06:05.248Z</time>
      </trkpt>
      <trkpt lat="48.33787" lon="2.71461">
        <ele>79</ele>
        <time>2022-11-23T10:06:09.613Z</time>
      </trkpt>
      <trkpt lat="48.33791" lon="2.71465">
        <ele>79</ele>
        <time>2022-11-23T10:06:13.948Z</time>
      </trkpt>
      <trkpt lat="48.33796" lon="2.71465">
        <ele>80</ele>
        <time>2022-11-23T10:06:18.467Z</time>
      </trkpt>
      <trkpt lat="48.33804" lon="2.71461">
        <ele>80</ele>
        <time>2022-11-23T10:06:22.811Z</time>
      </trkpt>
      <trkpt lat="48.33808" lon="2.71463">
        <ele>80</ele>
        <time>2022-11-23T10:06:27.302Z</time>
      </trkpt>
      <trkpt lat="48.33814" lon="2.71464">
        <ele>80</ele>
        <time>2022-11-23T10:06:31.518Z</time>
      </trkpt>
      <trkpt lat="48.3382" lon="2.71459">
        <ele>82</ele>
        <time>2022-11-23T10:06:36.008Z</time>
      </trkpt>
      <trkpt lat="48.33824" lon="2.71456">
        <ele>82</ele>
        <time>2022-11-23T10:06:40.531Z</time>
      </trkpt>
      <trkpt lat="48.3383" lon="2.71455">
        <ele>82</ele>
        <time>2022-11-23T10:06:44.945Z</time>
      </trkpt>
      <trkpt lat="48.33836" lon="2.71455">
        <ele>82</ele>
        <time>2022-11-23T10:06:49.409Z</time>
      </trkpt>
      <trkpt lat="48.33843" lon="2.71455">
        <ele>82</ele>
        <time>2022-11-23T10:06:53.802Z</time>
      </trkpt>
      <trkpt lat="48.33849" lon="2.71453">
        <ele>82</ele>
        <time>2022-11-23T10:06:57.825Z</time>
      </trkpt>
      <trkpt lat="48.33856" lon="2.7145">
        <ele>82</ele>
        <time>2022-11-23T10:07:02.047Z</time>
      </trkpt>
      <trkpt lat="48.33862" lon="2.71447">
        <ele>82</ele>
        <time>2022-11-23T10:07:06.490Z</time>
      </trkpt>
      <trkpt lat="48.33869" lon="2.71447">
        <ele>82</ele>
        <time>2022-11-23T10:07:10.883Z</time>
      </trkpt>
      <trkpt lat="48.33875" lon="2.71447">
        <ele>82</ele>
        <time>2022-11-23T10:07:15.068Z</time>
      </trkpt>
      <trkpt lat="48.33879" lon="2.71445">
        <ele>82</ele>
        <time>2022-11-23T10:07:19.183Z</time>
      </trkpt>
      <trkpt lat="48.33886" lon="2.71445">
        <ele>82</ele>
        <time>2022-11-23T10:07:23.388Z</time>
      </trkpt>
      <trkpt lat="48.33893" lon="2.71446">
        <ele>82</ele>
        <time>2022-11-23T10:07:28.144Z</time>
      </trkpt>
      <trkpt lat="48.339" lon="2.71443">
        <ele>82</ele>
        <time>2022-11-23T10:07:32.513Z</time>
      </trkpt>
      <trkpt lat="48.33905" lon="2.71442">
        <ele>82</ele>
        <time>2022-11-23T10:07:36.526Z</time>
      </trkpt>
      <trkpt lat="48.33912" lon="2.71441">
        <ele>82</ele>
        <time>2022-11-23T10:07:40.745Z</time>
      </trkpt>
      <trkpt lat="48.33918" lon="2.7144">
        <ele>82</ele>
        <time>2022-11-23T10:07:44.847Z</time>
      </trkpt>
      <trkpt lat="48.33925" lon="2.7144">
        <ele>82</ele>
        <time>2022-11-23T10:07:49.081Z</time>
      </trkpt>
      <trkpt lat="48.3393" lon="2.71438">
        <ele>82</ele>
        <time>2022-11-23T10:07:53.348Z</time>
      </trkpt>
      <trkpt lat="48.33937" lon="2.71437">
        <ele>82</ele>
        <time>2022-11-23T10:07:57.745Z</time>
      </trkpt>
      <trkpt lat="48.33942" lon="2.71435">
        <ele>82</ele>
        <time>2022-11-23T10:08:02.228Z</time>
      </trkpt>
      <trkpt lat="48.33952" lon="2.71423">
        <ele>82</ele>
        <time>2022-11-23T10:08:20.505Z</time>
      </trkpt>
      <trkpt lat="48.33952" lon="2.71419">
        <ele>82</ele>
        <time>2022-11-23T10:08:25.069Z</time>
      </trkpt>
      <trkpt lat="48.33958" lon="2.71415">
        <ele>80</ele>
        <time>2022-11-23T10:08:29.368Z</time>
      </trkpt>
      <trkpt lat="48.33964" lon="2.71407">
        <ele>80</ele>
        <time>2022-11-23T10:08:34.354Z</time>
      </trkpt>
      <trkpt lat="48.33967" lon="2.71402">
        <ele>81</ele>
        <time>2022-11-23T10:08:38.707Z</time>
      </trkpt>
      <trkpt lat="48.33971" lon="2.71396">
        <ele>81</ele>
        <time>2022-11-23T10:08:42.947Z</time>
      </trkpt>
      <trkpt lat="48.33976" lon="2.71389">
        <ele>81</ele>
        <time>2022-11-23T10:08:47.110Z</time>
      </trkpt>
      <trkpt lat="48.33981" lon="2.71382">
        <ele>81</ele>
        <time>2022-11-23T10:08:51.518Z</time>
      </trkpt>
      <trkpt lat="48.33985" lon="2.71376">
        <ele>81</ele>
        <time>2022-11-23T10:08:55.808Z</time>
      </trkpt>
      <trkpt lat="48.33989" lon="2.7137">
        <ele>81</ele>
        <time>2022-11-23T10:09:00.094Z</time>
      </trkpt>
      <trkpt lat="48.33993" lon="2.71363">
        <ele>81</ele>
        <time>2022-11-23T10:09:04.500Z</time>
      </trkpt>
      <trkpt lat="48.33996" lon="2.71355">
        <ele>81</ele>
        <time>2022-11-23T10:09:09.208Z</time>
      </trkpt>
      <trkpt lat="48.34" lon="2.71348">
        <ele>81</ele>
        <time>2022-11-23T10:09:13.692Z</time>
      </trkpt>
      <trkpt lat="48.34004" lon="2.71343">
        <ele>81</ele>
        <time>2022-11-23T10:09:18.142Z</time>
      </trkpt>
      <trkpt lat="48.34006" lon="2.71334">
        <ele>81</ele>
        <time>2022-11-23T10:09:22.431Z</time>
      </trkpt>
      <trkpt lat="48.34009" lon="2.71327">
        <ele>81</ele>
        <time>2022-11-23T10:09:27.325Z</time>
      </trkpt>
      <trkpt lat="48.34015" lon="2.7132">
        <ele>81</ele>
        <time>2022-11-23T10:09:31.628Z</time>
      </trkpt>
      <trkpt lat="48.34019" lon="2.71312">
        <ele>81</ele>
        <time>2022-11-23T10:09:36.369Z</time>
      </trkpt>
      <trkpt lat="48.34023" lon="2.71302">
        <ele>81</ele>
        <time>2022-11-23T10:09:41.519Z</time>
      </trkpt>
      <trkpt lat="48.34027" lon="2.71297">
        <ele>81</ele>
        <time>2022-11-23T10:09:45.852Z</time>
      </trkpt>
      <trkpt lat="48.3403" lon="2.71288">
        <ele>80</ele>
        <time>2022-11-23T10:09:50.246Z</time>
      </trkpt>
      <trkpt lat="48.34032" lon="2.71279">
        <ele>80</ele>
        <time>2022-11-23T10:09:54.505Z</time>
      </trkpt>
      <trkpt lat="48.34034" lon="2.71269">
        <ele>80</ele>
        <time>2022-11-23T10:09:59.468Z</time>
      </trkpt>
      <trkpt lat="48.34036" lon="2.71262">
        <ele>79</ele>
        <time>2022-11-23T10:10:03.786Z</time>
      </trkpt>
      <trkpt lat="48.34038" lon="2.71255">
        <ele>79</ele>
        <time>2022-11-23T10:10:08.529Z</time>
      </trkpt>
      <trkpt lat="48.34041" lon="2.71247">
        <ele>79</ele>
        <time>2022-11-23T10:10:12.537Z</time>
      </trkpt>
      <trkpt lat="48.34044" lon="2.71236">
        <ele>78</ele>
        <time>2022-11-23T10:10:17.531Z</time>
      </trkpt>
      <trkpt lat="48.34047" lon="2.71227">
        <ele>78</ele>
        <time>2022-11-23T10:10:22.183Z</time>
      </trkpt>
      <trkpt lat="48.34049" lon="2.71219">
        <ele>78</ele>
        <time>2022-11-23T10:10:26.309Z</time>
      </trkpt>
      <trkpt lat="48.34052" lon="2.7121">
        <ele>78</ele>
        <time>2022-11-23T10:10:30.530Z</time>
      </trkpt>
      <trkpt lat="48.34054" lon="2.71201">
        <ele>78</ele>
        <time>2022-11-23T10:10:35.225Z</time>
      </trkpt>
      <trkpt lat="48.34057" lon="2.71192">
        <ele>78</ele>
        <time>2022-11-23T10:10:39.489Z</time>
      </trkpt>
      <trkpt lat="48.3406" lon="2.71185">
        <ele>78</ele>
        <time>2022-11-23T10:10:44.252Z</time>
      </trkpt>
      <trkpt lat="48.34062" lon="2.71177">
        <ele>78</ele>
        <time>2022-11-23T10:10:48.307Z</time>
      </trkpt>
      <trkpt lat="48.34062" lon="2.71165">
        <ele>78</ele>
        <time>2022-11-23T10:10:53.308Z</time>
      </trkpt>
      <trkpt lat="48.34062" lon="2.71156">
        <ele>78</ele>
        <time>2022-11-23T10:10:57.372Z</time>
      </trkpt>
      <trkpt lat="48.34062" lon="2.71146">
        <ele>78</ele>
        <time>2022-11-23T10:11:01.746Z</time>
      </trkpt>
      <trkpt lat="48.34061" lon="2.71138">
        <ele>78</ele>
        <time>2022-11-23T10:11:05.772Z</time>
      </trkpt>
      <trkpt lat="48.3406" lon="2.71131">
        <ele>78</ele>
        <time>2022-11-23T10:11:10.149Z</time>
      </trkpt>
      <trkpt lat="48.34061" lon="2.71123">
        <ele>78</ele>
        <time>2022-11-23T10:11:14.232Z</time>
      </trkpt>
      <trkpt lat="48.34063" lon="2.71113">
        <ele>78</ele>
        <time>2022-11-23T10:11:18.666Z</time>
      </trkpt>
      <trkpt lat="48.34064" lon="2.71104">
        <ele>78</ele>
        <time>2022-11-23T10:11:23.520Z</time>
      </trkpt>
      <trkpt lat="48.34063" lon="2.71094">
        <ele>77</ele>
        <time>2022-11-23T10:11:28.383Z</time>
      </trkpt>
      <trkpt lat="48.34062" lon="2.71084">
        <ele>77</ele>
        <time>2022-11-23T10:11:32.832Z</time>
      </trkpt>
      <trkpt lat="48.34061" lon="2.71075">
        <ele>77</ele>
        <time>2022-11-23T10:11:37.127Z</time>
      </trkpt>
      <trkpt lat="48.3406" lon="2.71069">
        <ele>77</ele>
        <time>2022-11-23T10:11:41.529Z</time>
      </trkpt>
      <trkpt lat="48.34059" lon="2.71063">
        <ele>77</ele>
        <time>2022-11-23T10:11:45.526Z</time>
      </trkpt>
      <trkpt lat="48.34059" lon="2.71052">
        <ele>77</ele>
        <time>2022-11-23T10:11:50.537Z</time>
      </trkpt>
      <trkpt lat="48.34059" lon="2.71042">
        <ele>77</ele>
        <time>2022-11-23T10:11:54.587Z</time>
      </trkpt>
      <trkpt lat="48.34059" lon="2.71032">
        <ele>77</ele>
        <time>2022-11-23T10:11:58.666Z</time>
      </trkpt>
      <trkpt lat="48.34059" lon="2.71022">
        <ele>77</ele>
        <time>2022-11-23T10:12:03.008Z</time>
      </trkpt>
      <trkpt lat="48.34059" lon="2.71013">
        <ele>77</ele>
        <time>2022-11-23T10:12:07.383Z</time>
      </trkpt>
      <trkpt lat="48.34059" lon="2.71004">
        <ele>77</ele>
        <time>2022-11-23T10:12:11.514Z</time>
      </trkpt>
      <trkpt lat="48.34059" lon="2.70994">
        <ele>77</ele>
        <time>2022-11-23T10:12:15.844Z</time>
      </trkpt>
      <trkpt lat="48.3406" lon="2.70985">
        <ele>77</ele>
        <time>2022-11-23T10:12:20.386Z</time>
      </trkpt>
      <trkpt lat="48.34058" lon="2.70977">
        <ele>77</ele>
        <time>2022-11-23T10:12:24.517Z</time>
      </trkpt>
      <trkpt lat="48.34057" lon="2.7097">
        <ele>77</ele>
        <time>2022-11-23T10:12:28.543Z</time>
      </trkpt>
      <trkpt lat="48.34058" lon="2.70961">
        <ele>77</ele>
        <time>2022-11-23T10:12:33.102Z</time>
      </trkpt>
      <trkpt lat="48.34058" lon="2.70953">
        <ele>77</ele>
        <time>2022-11-23T10:12:37.528Z</time>
      </trkpt>
      <trkpt lat="48.34058" lon="2.70944">
        <ele>77</ele>
        <time>2022-11-23T10:12:42.365Z</time>
      </trkpt>
      <trkpt lat="48.34057" lon="2.70937">
        <ele>77</ele>
        <time>2022-11-23T10:12:46.808Z</time>
      </trkpt>
      <trkpt lat="48.34057" lon="2.70929">
        <ele>76</ele>
        <time>2022-11-23T10:12:51.171Z</time>
      </trkpt>
      <trkpt lat="48.34056" lon="2.7092">
        <ele>76</ele>
        <time>2022-11-23T10:12:55.646Z</time>
      </trkpt>
      <trkpt lat="48.34055" lon="2.70909">
        <ele>76</ele>
        <time>2022-11-23T10:13:00.132Z</time>
      </trkpt>
      <trkpt lat="48.34056" lon="2.709">
        <ele>76</ele>
        <time>2022-11-23T10:13:04.410Z</time>
      </trkpt>
      <trkpt lat="48.34058" lon="2.70889">
        <ele>76</ele>
        <time>2022-11-23T10:13:08.843Z</time>
      </trkpt>
      <trkpt lat="48.34061" lon="2.70881">
        <ele>76</ele>
        <time>2022-11-23T10:13:12.888Z</time>
      </trkpt>
      <trkpt lat="48.3406" lon="2.70872">
        <ele>76</ele>
        <time>2022-11-23T10:13:17.528Z</time>
      </trkpt>
      <trkpt lat="48.34058" lon="2.70869">
        <ele>76</ele>
        <time>2022-11-23T10:13:21.885Z</time>
      </trkpt>
      <trkpt lat="48.34059" lon="2.70863">
        <ele>76</ele>
        <time>2022-11-23T10:13:26.229Z</time>
      </trkpt>
      <trkpt lat="48.34059" lon="2.70857">
        <ele>76</ele>
        <time>2022-11-23T10:13:30.244Z</time>
      </trkpt>
      <trkpt lat="48.34059" lon="2.7085">
        <ele>76</ele>
        <time>2022-11-23T10:13:34.313Z</time>
      </trkpt>
      <trkpt lat="48.34059" lon="2.70846">
        <ele>76</ele>
        <time>2022-11-23T10:13:38.429Z</time>
      </trkpt>
      <trkpt lat="48.34059" lon="2.70846">
        <ele>76</ele>
        <time>2022-11-23T10:13:42.531Z</time>
      </trkpt>
      <trkpt lat="48.34058" lon="2.70844">
        <ele>76</ele>
        <time>2022-11-23T10:13:47.046Z</time>
      </trkpt>
      <trkpt lat="48.34059" lon="2.70835">
        <ele>76</ele>
        <time>2022-11-23T10:13:51.534Z</time>
      </trkpt>
      <trkpt lat="48.34059" lon="2.70831">
        <ele>76</ele>
        <time>2022-11-23T10:13:56.510Z</time>
      </trkpt>
      <trkpt lat="48.34059" lon="2.70822">
        <ele>76</ele>
        <time>2022-11-23T10:14:20.533Z</time>
      </trkpt>
      <trkpt lat="48.3406" lon="2.70821">
        <ele>76</ele>
        <time>2022-11-23T10:14:25.502Z</time>
      </trkpt>
      <trkpt lat="48.3406" lon="2.7082">
        <ele>76</ele>
        <time>2022-11-23T10:14:30.497Z</time>
      </trkpt>
      <trkpt lat="48.34062" lon="2.70818">
        <ele>76</ele>
        <time>2022-11-23T10:14:34.504Z</time>
      </trkpt>
      <trkpt lat="48.34064" lon="2.70814">
        <ele>76</ele>
        <time>2022-11-23T10:14:39.493Z</time>
      </trkpt>
      <trkpt lat="48.34062" lon="2.70812">
        <ele>76</ele>
        <time>2022-11-23T10:15:01.939Z</time>
      </trkpt>
      <trkpt lat="48.34061" lon="2.70815">
        <ele>76</ele>
        <time>2022-11-23T10:15:06.328Z</time>
      </trkpt>
      <trkpt lat="48.34061" lon="2.70816">
        <ele>76</ele>
        <time>2022-11-23T10:15:10.528Z</time>
      </trkpt>
      <trkpt lat="48.34062" lon="2.70824">
        <ele>76</ele>
        <time>2022-11-23T10:15:14.666Z</time>
      </trkpt>
      <trkpt lat="48.34062" lon="2.70835">
        <ele>76</ele>
        <time>2022-11-23T10:15:18.713Z</time>
      </trkpt>
      <trkpt lat="48.34065" lon="2.70845">
        <ele>76</ele>
        <time>2022-11-23T10:15:23.510Z</time>
      </trkpt>
      <trkpt lat="48.34069" lon="2.70853">
        <ele>76</ele>
        <time>2022-11-23T10:15:27.666Z</time>
      </trkpt>
      <trkpt lat="48.34071" lon="2.70859">
        <ele>76</ele>
        <time>2022-11-23T10:15:31.707Z</time>
      </trkpt>
      <trkpt lat="48.34072" lon="2.70868">
        <ele>76</ele>
        <time>2022-11-23T10:15:36.111Z</time>
      </trkpt>
      <trkpt lat="48.34071" lon="2.70881">
        <ele>76</ele>
        <time>2022-11-23T10:16:16.492Z</time>
      </trkpt>
      <trkpt lat="48.3407" lon="2.70884">
        <ele>76</ele>
        <time>2022-11-23T10:16:20.515Z</time>
      </trkpt>
      <trkpt lat="48.34065" lon="2.70886">
        <ele>76</ele>
        <time>2022-11-23T10:16:25.499Z</time>
      </trkpt>
      <trkpt lat="48.34062" lon="2.70891">
        <ele>76</ele>
        <time>2022-11-23T10:16:30.518Z</time>
      </trkpt>
      <trkpt lat="48.34075" lon="2.70902">
        <ele>76</ele>
        <time>2022-11-23T10:16:35.484Z</time>
      </trkpt>
      <trkpt lat="48.34092" lon="2.70791">
        <ele>75</ele>
        <time>2022-11-23T10:16:59.491Z</time>
      </trkpt>
      <trkpt lat="48.3409" lon="2.70827">
        <ele>76</ele>
        <time>2022-11-23T10:17:04.507Z</time>
      </trkpt>
      <trkpt lat="48.34091" lon="2.70855">
        <ele>76</ele>
        <time>2022-11-23T10:17:08.516Z</time>
      </trkpt>
      <trkpt lat="48.34091" lon="2.70893">
        <ele>76</ele>
        <time>2022-11-23T10:17:13.496Z</time>
      </trkpt>
      <trkpt lat="48.34077" lon="2.70909">
        <ele>76</ele>
        <time>2022-11-23T10:17:30.325Z</time>
      </trkpt>
      <trkpt lat="48.34129" lon="2.71049">
        <ele>78</ele>
        <time>2022-11-23T10:17:39.493Z</time>
      </trkpt>
      <trkpt lat="48.34143" lon="2.71102">
        <ele>79</ele>
        <time>2022-11-23T10:17:44.536Z</time>
      </trkpt>
      <trkpt lat="48.34148" lon="2.71121">
        <ele>79</ele>
        <time>2022-11-23T10:17:49.494Z</time>
      </trkpt>
      <trkpt lat="48.3415" lon="2.71129">
        <ele>78</ele>
        <time>2022-11-23T10:17:54.520Z</time>
      </trkpt>
      <trkpt lat="48.3415" lon="2.7112">
        <ele>79</ele>
        <time>2022-11-23T10:17:58.530Z</time>
      </trkpt>
      <trkpt lat="48.34151" lon="2.71113">
        <ele>79</ele>
        <time>2022-11-23T10:18:03.506Z</time>
      </trkpt>
      <trkpt lat="48.34151" lon="2.71108">
        <ele>79</ele>
        <time>2022-11-23T10:18:08.513Z</time>
      </trkpt>
      <trkpt lat="48.34151" lon="2.71097">
        <ele>79</ele>
        <time>2022-11-23T10:18:17.514Z</time>
      </trkpt>
      <trkpt lat="48.3415" lon="2.71093">
        <ele>79</ele>
        <time>2022-11-23T10:18:22.036Z</time>
      </trkpt>
      <trkpt lat="48.3415" lon="2.71085">
        <ele>79</ele>
        <time>2022-11-23T10:18:26.100Z</time>
      </trkpt>
      <trkpt lat="48.3415" lon="2.71063">
        <ele>78</ele>
        <time>2022-11-23T10:18:30.416Z</time>
      </trkpt>
      <trkpt lat="48.34111" lon="2.70939">
        <ele>76</ele>
        <time>2022-11-23T10:18:34.758Z</time>
      </trkpt>
      <trkpt lat="48.34088" lon="2.70866">
        <ele>76</ele>
        <time>2022-11-23T10:18:39.083Z</time>
      </trkpt>
      <trkpt lat="48.34075" lon="2.70843">
        <ele>76</ele>
        <time>2022-11-23T10:18:43.539Z</time>
      </trkpt>
      <trkpt lat="48.3407" lon="2.7083">
        <ele>76</ele>
        <time>2022-11-23T10:18:47.532Z</time>
      </trkpt>
      <trkpt lat="48.3406" lon="2.7082">
        <ele>76</ele>
        <time>2022-11-23T10:33:26.535Z</time>
      </trkpt>
      <trkpt lat="48.34059" lon="2.7082">
        <ele>76</ele>
        <time>2022-11-23T10:33:31.537Z</time>
      </trkpt>
      <trkpt lat="48.34058" lon="2.70821">
        <ele>76</ele>
        <time>2022-11-23T10:33:35.541Z</time>
      </trkpt>
      <trkpt lat="48.34058" lon="2.70821">
        <ele>76</ele>
        <time>2022-11-23T10:33:40.535Z</time>
      </trkpt>
      <trkpt lat="48.34058" lon="2.70821">
        <ele>76</ele>
        <time>2022-11-23T10:33:44.552Z</time>
      </trkpt>
      <trkpt lat="48.34058" lon="2.70822">
        <ele>76</ele>
        <time>2022-11-23T10:33:49.546Z</time>
      </trkpt>
      <trkpt lat="48.34058" lon="2.70827">
        <ele>76</ele>
        <time>2022-11-23T10:33:53.542Z</time>
      </trkpt>
      <trkpt lat="48.34058" lon="2.70832">
        <ele>76</ele>
        <time>2022-11-23T10:33:58.216Z</time>
      </trkpt>
      <trkpt lat="48.34059" lon="2.70837">
        <ele>76</ele>
        <time>2022-11-23T10:34:02.513Z</time>
      </trkpt>
      <trkpt lat="48.34061" lon="2.70838">
        <ele>76</ele>
        <time>2022-11-23T10:34:12.507Z</time>
      </trkpt>
      <trkpt lat="48.34062" lon="2.70838">
        <ele>76</ele>
        <time>2022-11-23T10:34:17.514Z</time>
      </trkpt>
      <trkpt lat="48.34062" lon="2.70839">
        <ele>76</ele>
        <time>2022-11-23T10:34:21.820Z</time>
      </trkpt>
      <trkpt lat="48.34067" lon="2.70841">
        <ele>76</ele>
        <time>2022-11-23T10:34:26.337Z</time>
      </trkpt>
      <trkpt lat="48.34072" lon="2.70837">
        <ele>76</ele>
        <time>2022-11-23T10:34:30.546Z</time>
      </trkpt>
      <trkpt lat="48.34077" lon="2.70835">
        <ele>76</ele>
        <time>2022-11-23T10:34:34.858Z</time>
      </trkpt>
      <trkpt lat="48.34084" lon="2.70834">
        <ele>76</ele>
        <time>2022-11-23T10:34:39.361Z</time>
      </trkpt>
      <trkpt lat="48.34089" lon="2.70832">
        <ele>76</ele>
        <time>2022-11-23T10:34:43.640Z</time>
      </trkpt>
      <trkpt lat="48.34095" lon="2.7083">
        <ele>76</ele>
        <time>2022-11-23T10:34:47.998Z</time>
      </trkpt>
      <trkpt lat="48.341" lon="2.70828">
        <ele>75</ele>
        <time>2022-11-23T10:34:52.334Z</time>
      </trkpt>
      <trkpt lat="48.34106" lon="2.70826">
        <ele>75</ele>
        <time>2022-11-23T10:34:56.829Z</time>
      </trkpt>
      <trkpt lat="48.34111" lon="2.70825">
        <ele>75</ele>
        <time>2022-11-23T10:35:01.264Z</time>
      </trkpt>
      <trkpt lat="48.34116" lon="2.70824">
        <ele>75</ele>
        <time>2022-11-23T10:35:05.549Z</time>
      </trkpt>
      <trkpt lat="48.34121" lon="2.70822">
        <ele>75</ele>
        <time>2022-11-23T10:35:09.939Z</time>
      </trkpt>
      <trkpt lat="48.34127" lon="2.7082">
        <ele>74</ele>
        <time>2022-11-23T10:35:14.531Z</time>
      </trkpt>
      <trkpt lat="48.34133" lon="2.70817">
        <ele>74</ele>
        <time>2022-11-23T10:35:19.345Z</time>
      </trkpt>
      <trkpt lat="48.34138" lon="2.70814">
        <ele>74</ele>
        <time>2022-11-23T10:35:23.522Z</time>
      </trkpt>
      <trkpt lat="48.34143" lon="2.70814">
        <ele>74</ele>
        <time>2022-11-23T10:35:27.526Z</time>
      </trkpt>
      <trkpt lat="48.34149" lon="2.70813">
        <ele>74</ele>
        <time>2022-11-23T10:35:32.181Z</time>
      </trkpt>
      <trkpt lat="48.34155" lon="2.70811">
        <ele>74</ele>
        <time>2022-11-23T10:35:36.723Z</time>
      </trkpt>
      <trkpt lat="48.34159" lon="2.70809">
        <ele>74</ele>
        <time>2022-11-23T10:35:41.555Z</time>
      </trkpt>
      <trkpt lat="48.34162" lon="2.70807">
        <ele>74</ele>
        <time>2022-11-23T10:35:45.719Z</time>
      </trkpt>
      <trkpt lat="48.34167" lon="2.70804">
        <ele>74</ele>
        <time>2022-11-23T10:35:50.143Z</time>
      </trkpt>
      <trkpt lat="48.34173" lon="2.70801">
        <ele>74</ele>
        <time>2022-11-23T10:35:54.640Z</time>
      </trkpt>
      <trkpt lat="48.34178" lon="2.70799">
        <ele>74</ele>
        <time>2022-11-23T10:35:58.782Z</time>
      </trkpt>
      <trkpt lat="48.34183" lon="2.70798">
        <ele>75</ele>
        <time>2022-11-23T10:36:03.218Z</time>
      </trkpt>
      <trkpt lat="48.34188" lon="2.70796">
        <ele>75</ele>
        <time>2022-11-23T10:36:07.550Z</time>
      </trkpt>
      <trkpt lat="48.34193" lon="2.70792">
        <ele>75</ele>
        <time>2022-11-23T10:36:11.580Z</time>
      </trkpt>
      <trkpt lat="48.34199" lon="2.70792">
        <ele>75</ele>
        <time>2022-11-23T10:36:15.997Z</time>
      </trkpt>
      <trkpt lat="48.34205" lon="2.7079">
        <ele>76</ele>
        <time>2022-11-23T10:36:20.315Z</time>
      </trkpt>
      <trkpt lat="48.34211" lon="2.70789">
        <ele>77</ele>
        <time>2022-11-23T10:36:24.762Z</time>
      </trkpt>
      <trkpt lat="48.34217" lon="2.70787">
        <ele>77</ele>
        <time>2022-11-23T10:36:29.528Z</time>
      </trkpt>
      <trkpt lat="48.34222" lon="2.70786">
        <ele>77</ele>
        <time>2022-11-23T10:36:33.897Z</time>
      </trkpt>
      <trkpt lat="48.34227" lon="2.70788">
        <ele>77</ele>
        <time>2022-11-23T10:36:38.515Z</time>
      </trkpt>
      <trkpt lat="48.34231" lon="2.70793">
        <ele>77</ele>
        <time>2022-11-23T10:36:42.692Z</time>
      </trkpt>
      <trkpt lat="48.34233" lon="2.708">
        <ele>77</ele>
        <time>2022-11-23T10:36:46.844Z</time>
      </trkpt>
      <trkpt lat="48.34234" lon="2.70806">
        <ele>77</ele>
        <time>2022-11-23T10:36:50.939Z</time>
      </trkpt>
      <trkpt lat="48.34236" lon="2.70813">
        <ele>76</ele>
        <time>2022-11-23T10:36:54.963Z</time>
      </trkpt>
      <trkpt lat="48.34236" lon="2.7082">
        <ele>77</ele>
        <time>2022-11-23T10:36:59.366Z</time>
      </trkpt>
      <trkpt lat="48.34238" lon="2.70829">
        <ele>76</ele>
        <time>2022-11-23T10:37:03.899Z</time>
      </trkpt>
      <trkpt lat="48.3424" lon="2.70836">
        <ele>76</ele>
        <time>2022-11-23T10:37:08.518Z</time>
      </trkpt>
      <trkpt lat="48.34242" lon="2.70843">
        <ele>76</ele>
        <time>2022-11-23T10:37:12.530Z</time>
      </trkpt>
      <trkpt lat="48.34243" lon="2.7085">
        <ele>77</ele>
        <time>2022-11-23T10:37:17.086Z</time>
      </trkpt>
      <trkpt lat="48.34244" lon="2.70858">
        <ele>77</ele>
        <time>2022-11-23T10:37:21.539Z</time>
      </trkpt>
      <trkpt lat="48.34244" lon="2.70868">
        <ele>77</ele>
        <time>2022-11-23T10:37:26.418Z</time>
      </trkpt>
      <trkpt lat="48.34245" lon="2.70876">
        <ele>78</ele>
        <time>2022-11-23T10:37:30.521Z</time>
      </trkpt>
      <trkpt lat="48.34246" lon="2.70884">
        <ele>78</ele>
        <time>2022-11-23T10:37:34.529Z</time>
      </trkpt>
      <trkpt lat="48.34246" lon="2.70891">
        <ele>78</ele>
        <time>2022-11-23T10:37:38.544Z</time>
      </trkpt>
      <trkpt lat="48.34246" lon="2.709">
        <ele>78</ele>
        <time>2022-11-23T10:37:43.299Z</time>
      </trkpt>
      <trkpt lat="48.34246" lon="2.70908">
        <ele>78</ele>
        <time>2022-11-23T10:37:47.306Z</time>
      </trkpt>
      <trkpt lat="48.34247" lon="2.70916">
        <ele>78</ele>
        <time>2022-11-23T10:37:51.461Z</time>
      </trkpt>
      <trkpt lat="48.34247" lon="2.70924">
        <ele>78</ele>
        <time>2022-11-23T10:37:55.458Z</time>
      </trkpt>
      <trkpt lat="48.34248" lon="2.70931">
        <ele>79</ele>
        <time>2022-11-23T10:37:59.526Z</time>
      </trkpt>
      <trkpt lat="48.3425" lon="2.70939">
        <ele>79</ele>
        <time>2022-11-23T10:38:03.563Z</time>
      </trkpt>
      <trkpt lat="48.34251" lon="2.70944">
        <ele>79</ele>
        <time>2022-11-23T10:38:07.550Z</time>
      </trkpt>
      <trkpt lat="48.34253" lon="2.70951">
        <ele>79</ele>
        <time>2022-11-23T10:38:11.859Z</time>
      </trkpt>
      <trkpt lat="48.34254" lon="2.70958">
        <ele>79</ele>
        <time>2022-11-23T10:38:15.955Z</time>
      </trkpt>
      <trkpt lat="48.34253" lon="2.70966">
        <ele>79</ele>
        <time>2022-11-23T10:38:19.961Z</time>
      </trkpt>
      <trkpt lat="48.34255" lon="2.70975">
        <ele>79</ele>
        <time>2022-11-23T10:38:24.485Z</time>
      </trkpt>
      <trkpt lat="48.34256" lon="2.70984">
        <ele>79</ele>
        <time>2022-11-23T10:38:28.976Z</time>
      </trkpt>
      <trkpt lat="48.34257" lon="2.70991">
        <ele>79</ele>
        <time>2022-11-23T10:38:33.343Z</time>
      </trkpt>
      <trkpt lat="48.34257" lon="2.70998">
        <ele>79</ele>
        <time>2022-11-23T10:38:37.478Z</time>
      </trkpt>
      <trkpt lat="48.34258" lon="2.71007">
        <ele>79</ele>
        <time>2022-11-23T10:38:42.060Z</time>
      </trkpt>
      <trkpt lat="48.34259" lon="2.71016">
        <ele>79</ele>
        <time>2022-11-23T10:38:46.537Z</time>
      </trkpt>
      <trkpt lat="48.34259" lon="2.71024">
        <ele>79</ele>
        <time>2022-11-23T10:38:50.532Z</time>
      </trkpt>
      <trkpt lat="48.34258" lon="2.71034">
        <ele>79</ele>
        <time>2022-11-23T10:38:55.175Z</time>
      </trkpt>
      <trkpt lat="48.34259" lon="2.71043">
        <ele>80</ele>
        <time>2022-11-23T10:38:59.535Z</time>
      </trkpt>
      <trkpt lat="48.34259" lon="2.71051">
        <ele>80</ele>
        <time>2022-11-23T10:39:03.528Z</time>
      </trkpt>
      <trkpt lat="48.34259" lon="2.7106">
        <ele>80</ele>
        <time>2022-11-23T10:39:08.039Z</time>
      </trkpt>
      <trkpt lat="48.34259" lon="2.71069">
        <ele>80</ele>
        <time>2022-11-23T10:39:12.513Z</time>
      </trkpt>
      <trkpt lat="48.3426" lon="2.71076">
        <ele>80</ele>
        <time>2022-11-23T10:39:16.941Z</time>
      </trkpt>
      <trkpt lat="48.34261" lon="2.71085">
        <ele>80</ele>
        <time>2022-11-23T10:39:21.504Z</time>
      </trkpt>
      <trkpt lat="48.34261" lon="2.71093">
        <ele>80</ele>
        <time>2022-11-23T10:39:25.515Z</time>
      </trkpt>
      <trkpt lat="48.34261" lon="2.71102">
        <ele>80</ele>
        <time>2022-11-23T10:39:30.140Z</time>
      </trkpt>
      <trkpt lat="48.34261" lon="2.71112">
        <ele>80</ele>
        <time>2022-11-23T10:39:34.498Z</time>
      </trkpt>
      <trkpt lat="48.34261" lon="2.71122">
        <ele>80</ele>
        <time>2022-11-23T10:39:39.382Z</time>
      </trkpt>
      <trkpt lat="48.34261" lon="2.7113">
        <ele>79</ele>
        <time>2022-11-23T10:39:43.515Z</time>
      </trkpt>
      <trkpt lat="48.3426" lon="2.71138">
        <ele>79</ele>
        <time>2022-11-23T10:39:48.175Z</time>
      </trkpt>
      <trkpt lat="48.34261" lon="2.71148">
        <ele>79</ele>
        <time>2022-11-23T10:39:52.515Z</time>
      </trkpt>
      <trkpt lat="48.34261" lon="2.71155">
        <ele>79</ele>
        <time>2022-11-23T10:39:56.524Z</time>
      </trkpt>
      <trkpt lat="48.34261" lon="2.71164">
        <ele>79</ele>
        <time>2022-11-23T10:40:00.738Z</time>
      </trkpt>
      <trkpt lat="48.34262" lon="2.71174">
        <ele>79</ele>
        <time>2022-11-23T10:40:05.036Z</time>
      </trkpt>
      <trkpt lat="48.34262" lon="2.71181">
        <ele>79</ele>
        <time>2022-11-23T10:40:09.275Z</time>
      </trkpt>
      <trkpt lat="48.34262" lon="2.7119">
        <ele>79</ele>
        <time>2022-11-23T10:40:13.420Z</time>
      </trkpt>
      <trkpt lat="48.34263" lon="2.71198">
        <ele>79</ele>
        <time>2022-11-23T10:40:17.637Z</time>
      </trkpt>
      <trkpt lat="48.34263" lon="2.71208">
        <ele>79</ele>
        <time>2022-11-23T10:40:22.453Z</time>
      </trkpt>
      <trkpt lat="48.34263" lon="2.71217">
        <ele>79</ele>
        <time>2022-11-23T10:40:26.507Z</time>
      </trkpt>
      <trkpt lat="48.34263" lon="2.71226">
        <ele>79</ele>
        <time>2022-11-23T10:40:30.837Z</time>
      </trkpt>
      <trkpt lat="48.34263" lon="2.71235">
        <ele>79</ele>
        <time>2022-11-23T10:40:35.013Z</time>
      </trkpt>
      <trkpt lat="48.34264" lon="2.71243">
        <ele>80</ele>
        <time>2022-11-23T10:40:39.260Z</time>
      </trkpt>
      <trkpt lat="48.34264" lon="2.71252">
        <ele>80</ele>
        <time>2022-11-23T10:40:43.535Z</time>
      </trkpt>
      <trkpt lat="48.34264" lon="2.71259">
        <ele>80</ele>
        <time>2022-11-23T10:40:48.320Z</time>
      </trkpt>
      <trkpt lat="48.34265" lon="2.71268">
        <ele>82</ele>
        <time>2022-11-23T10:40:52.535Z</time>
      </trkpt>
      <trkpt lat="48.34264" lon="2.71277">
        <ele>82</ele>
        <time>2022-11-23T10:40:56.743Z</time>
      </trkpt>
      <trkpt lat="48.34265" lon="2.71286">
        <ele>82</ele>
        <time>2022-11-23T10:41:00.900Z</time>
      </trkpt>
      <trkpt lat="48.34266" lon="2.71294">
        <ele>83</ele>
        <time>2022-11-23T10:41:05.422Z</time>
      </trkpt>
      <trkpt lat="48.34264" lon="2.71303">
        <ele>83</ele>
        <time>2022-11-23T10:41:09.997Z</time>
      </trkpt>
      <trkpt lat="48.34265" lon="2.71313">
        <ele>83</ele>
        <time>2022-11-23T10:41:14.162Z</time>
      </trkpt>
      <trkpt lat="48.34265" lon="2.71322">
        <ele>83</ele>
        <time>2022-11-23T10:41:18.529Z</time>
      </trkpt>
      <trkpt lat="48.34266" lon="2.7133">
        <ele>83</ele>
        <time>2022-11-23T10:41:22.541Z</time>
      </trkpt>
      <trkpt lat="48.34265" lon="2.71338">
        <ele>83</ele>
        <time>2022-11-23T10:41:26.902Z</time>
      </trkpt>
      <trkpt lat="48.34266" lon="2.71347">
        <ele>83</ele>
        <time>2022-11-23T10:41:31.257Z</time>
      </trkpt>
      <trkpt lat="48.34263" lon="2.7135">
        <ele>83</ele>
        <time>2022-11-23T10:41:35.316Z</time>
      </trkpt>
      <trkpt lat="48.34258" lon="2.71348">
        <ele>83</ele>
        <time>2022-11-23T10:41:39.514Z</time>
      </trkpt>
      <trkpt lat="48.34251" lon="2.71348">
        <ele>83</ele>
        <time>2022-11-23T10:41:43.960Z</time>
      </trkpt>
      <trkpt lat="48.34245" lon="2.71348">
        <ele>83</ele>
        <time>2022-11-23T10:41:48.155Z</time>
      </trkpt>
      <trkpt lat="48.34241" lon="2.71348">
        <ele>83</ele>
        <time>2022-11-23T10:41:52.278Z</time>
      </trkpt>
      <trkpt lat="48.34236" lon="2.71346">
        <ele>83</ele>
        <time>2022-11-23T10:41:56.533Z</time>
      </trkpt>
      <trkpt lat="48.34231" lon="2.71344">
        <ele>83</ele>
        <time>2022-11-23T10:42:01.041Z</time>
      </trkpt>
      <trkpt lat="48.34228" lon="2.71341">
        <ele>83</ele>
        <time>2022-11-23T10:42:05.162Z</time>
      </trkpt>
      <trkpt lat="48.34226" lon="2.71341">
        <ele>83</ele>
        <time>2022-11-23T10:42:09.261Z</time>
      </trkpt>
      <trkpt lat="48.34223" lon="2.71337">
        <ele>83</ele>
        <time>2022-11-23T10:42:13.454Z</time>
      </trkpt>
      <trkpt lat="48.34219" lon="2.71339">
        <ele>83</ele>
        <time>2022-11-23T10:42:17.531Z</time>
      </trkpt>
      <trkpt lat="48.34217" lon="2.71347">
        <ele>83</ele>
        <time>2022-11-23T10:42:22.434Z</time>
      </trkpt>
      <trkpt lat="48.34218" lon="2.7136">
        <ele>83</ele>
        <time>2022-11-23T10:42:27.218Z</time>
      </trkpt>
      <trkpt lat="48.34218" lon="2.71366">
        <ele>83</ele>
        <time>2022-11-23T10:42:31.512Z</time>
      </trkpt>
      <trkpt lat="48.3422" lon="2.71376">
        <ele>83</ele>
        <time>2022-11-23T10:42:36.116Z</time>
      </trkpt>
      <trkpt lat="48.3422" lon="2.71384">
        <ele>83</ele>
        <time>2022-11-23T10:42:40.504Z</time>
      </trkpt>
      <trkpt lat="48.34218" lon="2.71392">
        <ele>83</ele>
        <time>2022-11-23T10:42:44.936Z</time>
      </trkpt>
      <trkpt lat="48.34219" lon="2.71402">
        <ele>83</ele>
        <time>2022-11-23T10:42:49.216Z</time>
      </trkpt>
      <trkpt lat="48.34221" lon="2.71411">
        <ele>82</ele>
        <time>2022-11-23T10:42:53.521Z</time>
      </trkpt>
      <trkpt lat="48.34223" lon="2.7142">
        <ele>82</ele>
        <time>2022-11-23T10:42:57.916Z</time>
      </trkpt>
      <trkpt lat="48.34224" lon="2.71428">
        <ele>82</ele>
        <time>2022-11-23T10:43:02.396Z</time>
      </trkpt>
      <trkpt lat="48.34224" lon="2.71436">
        <ele>81</ele>
        <time>2022-11-23T10:43:07.192Z</time>
      </trkpt>
      <trkpt lat="48.34224" lon="2.71443">
        <ele>81</ele>
        <time>2022-11-23T10:43:11.504Z</time>
      </trkpt>
      <trkpt lat="48.34224" lon="2.71443">
        <ele>81</ele>
        <time>2022-11-23T10:43:15.522Z</time>
      </trkpt>
      <trkpt lat="48.34224" lon="2.71446">
        <ele>81</ele>
        <time>2022-11-23T10:43:19.531Z</time>
      </trkpt>
      <trkpt lat="48.34225" lon="2.71454">
        <ele>81</ele>
        <time>2022-11-23T10:43:24.216Z</time>
      </trkpt>
      <trkpt lat="48.34225" lon="2.71466">
        <ele>81</ele>
        <time>2022-11-23T10:43:29.181Z</time>
      </trkpt>
      <trkpt lat="48.34226" lon="2.71474">
        <ele>81</ele>
        <time>2022-11-23T10:43:33.373Z</time>
      </trkpt>
      <trkpt lat="48.34227" lon="2.71483">
        <ele>81</ele>
        <time>2022-11-23T10:43:37.821Z</time>
      </trkpt>
      <trkpt lat="48.34227" lon="2.71491">
        <ele>82</ele>
        <time>2022-11-23T10:43:42.298Z</time>
      </trkpt>
      <trkpt lat="48.34228" lon="2.71498">
        <ele>82</ele>
        <time>2022-11-23T10:43:46.529Z</time>
      </trkpt>
      <trkpt lat="48.34229" lon="2.71506">
        <ele>82</ele>
        <time>2022-11-23T10:43:51.117Z</time>
      </trkpt>
      <trkpt lat="48.3423" lon="2.71514">
        <ele>82</ele>
        <time>2022-11-23T10:43:55.178Z</time>
      </trkpt>
      <trkpt lat="48.34231" lon="2.71519">
        <ele>82</ele>
        <time>2022-11-23T10:43:59.316Z</time>
      </trkpt>
      <trkpt lat="48.34231" lon="2.71523">
        <ele>82</ele>
        <time>2022-11-23T10:44:03.543Z</time>
      </trkpt>
      <trkpt lat="48.34233" lon="2.7153">
        <ele>82</ele>
        <time>2022-11-23T10:44:08.092Z</time>
      </trkpt>
      <trkpt lat="48.34231" lon="2.71537">
        <ele>82</ele>
        <time>2022-11-23T10:44:12.201Z</time>
      </trkpt>
      <trkpt lat="48.34229" lon="2.71544">
        <ele>82</ele>
        <time>2022-11-23T10:44:16.525Z</time>
      </trkpt>
      <trkpt lat="48.3423" lon="2.71552">
        <ele>82</ele>
        <time>2022-11-23T10:44:20.781Z</time>
      </trkpt>
      <trkpt lat="48.34232" lon="2.71563">
        <ele>82</ele>
        <time>2022-11-23T10:44:25.278Z</time>
      </trkpt>
      <trkpt lat="48.34232" lon="2.71572">
        <ele>83</ele>
        <time>2022-11-23T10:44:29.433Z</time>
      </trkpt>
      <trkpt lat="48.34232" lon="2.71581">
        <ele>83</ele>
        <time>2022-11-23T10:44:33.999Z</time>
      </trkpt>
      <trkpt lat="48.34233" lon="2.71589">
        <ele>83</ele>
        <time>2022-11-23T10:44:38.398Z</time>
      </trkpt>
      <trkpt lat="48.34236" lon="2.7159">
        <ele>83</ele>
        <time>2022-11-23T10:44:42.528Z</time>
      </trkpt>
      <trkpt lat="48.34243" lon="2.71589">
        <ele>83</ele>
        <time>2022-11-23T10:44:47.094Z</time>
      </trkpt>
      <trkpt lat="48.3425" lon="2.71587">
        <ele>83</ele>
        <time>2022-11-23T10:44:51.382Z</time>
      </trkpt>
      <trkpt lat="48.34256" lon="2.71584">
        <ele>83</ele>
        <time>2022-11-23T10:44:55.541Z</time>
      </trkpt>
      <trkpt lat="48.34263" lon="2.71582">
        <ele>83</ele>
        <time>2022-11-23T10:45:00.559Z</time>
      </trkpt>
      <trkpt lat="48.34267" lon="2.7158">
        <ele>84</ele>
        <time>2022-11-23T10:45:04.542Z</time>
      </trkpt>
      <trkpt lat="48.34273" lon="2.71578">
        <ele>84</ele>
        <time>2022-11-23T10:45:09.520Z</time>
      </trkpt>
      <trkpt lat="48.34278" lon="2.71577">
        <ele>84</ele>
        <time>2022-11-23T10:45:14.140Z</time>
      </trkpt>
      <trkpt lat="48.34284" lon="2.71576">
        <ele>84</ele>
        <time>2022-11-23T10:45:18.531Z</time>
      </trkpt>
      <trkpt lat="48.3429" lon="2.71576">
        <ele>84</ele>
        <time>2022-11-23T10:45:23.535Z</time>
      </trkpt>
      <trkpt lat="48.34296" lon="2.71574">
        <ele>86</ele>
        <time>2022-11-23T10:45:28.282Z</time>
      </trkpt>
      <trkpt lat="48.34301" lon="2.71577">
        <ele>86</ele>
        <time>2022-11-23T10:45:32.532Z</time>
      </trkpt>
      <trkpt lat="48.34305" lon="2.71585">
        <ele>86</ele>
        <time>2022-11-23T10:45:37.457Z</time>
      </trkpt>
      <trkpt lat="48.34308" lon="2.71592">
        <ele>86</ele>
        <time>2022-11-23T10:45:41.828Z</time>
      </trkpt>
      <trkpt lat="48.3431" lon="2.71598">
        <ele>86</ele>
        <time>2022-11-23T10:45:45.981Z</time>
      </trkpt>
      <trkpt lat="48.34312" lon="2.71605">
        <ele>86</ele>
        <time>2022-11-23T10:45:50.102Z</time>
      </trkpt>
      <trkpt lat="48.34313" lon="2.71613">
        <ele>86</ele>
        <time>2022-11-23T10:45:54.499Z</time>
      </trkpt>
      <trkpt lat="48.34317" lon="2.71617">
        <ele>86</ele>
        <time>2022-11-23T10:45:59.321Z</time>
      </trkpt>
      <trkpt lat="48.34321" lon="2.71622">
        <ele>88</ele>
        <time>2022-11-23T10:46:03.533Z</time>
      </trkpt>
      <trkpt lat="48.34321" lon="2.71633">
        <ele>87</ele>
        <time>2022-11-23T10:46:07.537Z</time>
      </trkpt>
      <trkpt lat="48.34323" lon="2.71643">
        <ele>87</ele>
        <time>2022-11-23T10:46:12.535Z</time>
      </trkpt>
      <trkpt lat="48.34322" lon="2.71654">
        <ele>87</ele>
        <time>2022-11-23T10:46:17.018Z</time>
      </trkpt>
      <trkpt lat="48.34326" lon="2.71664">
        <ele>87</ele>
        <time>2022-11-23T10:46:21.476Z</time>
      </trkpt>
      <trkpt lat="48.34327" lon="2.71673">
        <ele>87</ele>
        <time>2022-11-23T10:46:25.945Z</time>
      </trkpt>
      <trkpt lat="48.34331" lon="2.71689">
        <ele>89</ele>
        <time>2022-11-23T10:46:34.542Z</time>
      </trkpt>
      <trkpt lat="48.34331" lon="2.71691">
        <ele>89</ele>
        <time>2022-11-23T10:46:39.234Z</time>
      </trkpt>
      <trkpt lat="48.34333" lon="2.71691">
        <ele>89</ele>
        <time>2022-11-23T10:46:43.542Z</time>
      </trkpt>
      <trkpt lat="48.34331" lon="2.71694">
        <ele>89</ele>
        <time>2022-11-23T10:46:48.214Z</time>
      </trkpt>
      <trkpt lat="48.34325" lon="2.71699">
        <ele>89</ele>
        <time>2022-11-23T10:46:52.552Z</time>
      </trkpt>
      <trkpt lat="48.34321" lon="2.71704">
        <ele>89</ele>
        <time>2022-11-23T10:46:57.116Z</time>
      </trkpt>
      <trkpt lat="48.34317" lon="2.71708">
        <ele>89</ele>
        <time>2022-11-23T10:47:01.501Z</time>
      </trkpt>
      <trkpt lat="48.34313" lon="2.71711">
        <ele>89</ele>
        <time>2022-11-23T10:47:06.194Z</time>
      </trkpt>
      <trkpt lat="48.34307" lon="2.71712">
        <ele>89</ele>
        <time>2022-11-23T10:47:10.501Z</time>
      </trkpt>
      <trkpt lat="48.34303" lon="2.71712">
        <ele>89</ele>
        <time>2022-11-23T10:47:14.863Z</time>
      </trkpt>
      <trkpt lat="48.343" lon="2.7171">
        <ele>89</ele>
        <time>2022-11-23T10:47:19.291Z</time>
      </trkpt>
      <trkpt lat="48.34293" lon="2.71713">
        <ele>89</ele>
        <time>2022-11-23T10:47:23.506Z</time>
      </trkpt>
      <trkpt lat="48.3429" lon="2.71715">
        <ele>89</ele>
        <time>2022-11-23T10:47:27.501Z</time>
      </trkpt>
      <trkpt lat="48.34284" lon="2.71719">
        <ele>89</ele>
        <time>2022-11-23T10:47:32.217Z</time>
      </trkpt>
      <trkpt lat="48.34279" lon="2.7172">
        <ele>89</ele>
        <time>2022-11-23T10:47:36.542Z</time>
      </trkpt>
      <trkpt lat="48.34273" lon="2.71729">
        <ele>89</ele>
        <time>2022-11-23T10:47:40.919Z</time>
      </trkpt>
      <trkpt lat="48.3427" lon="2.71735">
        <ele>89</ele>
        <time>2022-11-23T10:47:45.022Z</time>
      </trkpt>
      <trkpt lat="48.34261" lon="2.71747">
        <ele>89</ele>
        <time>2022-11-23T10:47:58.495Z</time>
      </trkpt>
      <trkpt lat="48.34261" lon="2.71747">
        <ele>89</ele>
        <time>2022-11-23T10:48:02.488Z</time>
      </trkpt>
      <trkpt lat="48.34253" lon="2.71753">
        <ele>89</ele>
        <time>2022-11-23T10:48:06.498Z</time>
      </trkpt>
      <trkpt lat="48.34247" lon="2.7176">
        <ele>89</ele>
        <time>2022-11-23T10:48:11.195Z</time>
      </trkpt>
      <trkpt lat="48.34246" lon="2.71768">
        <ele>90</ele>
        <time>2022-11-23T10:48:15.276Z</time>
      </trkpt>
      <trkpt lat="48.34243" lon="2.71774">
        <ele>90</ele>
        <time>2022-11-23T10:48:19.512Z</time>
      </trkpt>
      <trkpt lat="48.34239" lon="2.71777">
        <ele>90</ele>
        <time>2022-11-23T10:48:23.498Z</time>
      </trkpt>
      <trkpt lat="48.34236" lon="2.71775">
        <ele>90</ele>
        <time>2022-11-23T10:48:28.501Z</time>
      </trkpt>
      <trkpt lat="48.34231" lon="2.71775">
        <ele>90</ele>
        <time>2022-11-23T10:48:33.024Z</time>
      </trkpt>
      <trkpt lat="48.34227" lon="2.71777">
        <ele>90</ele>
        <time>2022-11-23T10:48:37.437Z</time>
      </trkpt>
      <trkpt lat="48.34222" lon="2.71784">
        <ele>90</ele>
        <time>2022-11-23T10:48:42.242Z</time>
      </trkpt>
      <trkpt lat="48.34217" lon="2.71787">
        <ele>90</ele>
        <time>2022-11-23T10:48:47.324Z</time>
      </trkpt>
      <trkpt lat="48.34212" lon="2.71791">
        <ele>90</ele>
        <time>2022-11-23T10:48:52.263Z</time>
      </trkpt>
      <trkpt lat="48.34207" lon="2.71793">
        <ele>90</ele>
        <time>2022-11-23T10:48:56.481Z</time>
      </trkpt>
      <trkpt lat="48.34201" lon="2.71795">
        <ele>90</ele>
        <time>2022-11-23T10:49:01.172Z</time>
      </trkpt>
      <trkpt lat="48.34195" lon="2.71797">
        <ele>90</ele>
        <time>2022-11-23T10:49:05.494Z</time>
      </trkpt>
      <trkpt lat="48.3419" lon="2.71799">
        <ele>90</ele>
        <time>2022-11-23T10:49:10.274Z</time>
      </trkpt>
      <trkpt lat="48.34183" lon="2.718">
        <ele>90</ele>
        <time>2022-11-23T10:49:14.512Z</time>
      </trkpt>
      <trkpt lat="48.34177" lon="2.71803">
        <ele>89</ele>
        <time>2022-11-23T10:49:18.821Z</time>
      </trkpt>
      <trkpt lat="48.34171" lon="2.71805">
        <ele>89</ele>
        <time>2022-11-23T10:49:23.199Z</time>
      </trkpt>
      <trkpt lat="48.34165" lon="2.71806">
        <ele>89</ele>
        <time>2022-11-23T10:49:27.397Z</time>
      </trkpt>
      <trkpt lat="48.34161" lon="2.71807">
        <ele>89</ele>
        <time>2022-11-23T10:49:31.504Z</time>
      </trkpt>
      <trkpt lat="48.34155" lon="2.7181">
        <ele>89</ele>
        <time>2022-11-23T10:49:35.715Z</time>
      </trkpt>
      <trkpt lat="48.3415" lon="2.71814">
        <ele>87</ele>
        <time>2022-11-23T10:49:40.153Z</time>
      </trkpt>
      <trkpt lat="48.34148" lon="2.71816">
        <ele>87</ele>
        <time>2022-11-23T10:49:44.422Z</time>
      </trkpt>
      <trkpt lat="48.34145" lon="2.71817">
        <ele>87</ele>
        <time>2022-11-23T10:49:48.517Z</time>
      </trkpt>
      <trkpt lat="48.3414" lon="2.71819">
        <ele>87</ele>
        <time>2022-11-23T10:49:52.531Z</time>
      </trkpt>
      <trkpt lat="48.34135" lon="2.71821">
        <ele>87</ele>
        <time>2022-11-23T10:49:56.897Z</time>
      </trkpt>
      <trkpt lat="48.34128" lon="2.7182">
        <ele>87</ele>
        <time>2022-11-23T10:50:01.145Z</time>
      </trkpt>
      <trkpt lat="48.34121" lon="2.71825">
        <ele>86</ele>
        <time>2022-11-23T10:50:05.576Z</time>
      </trkpt>
      <trkpt lat="48.34114" lon="2.71829">
        <ele>86</ele>
        <time>2022-11-23T10:50:10.554Z</time>
      </trkpt>
      <trkpt lat="48.34108" lon="2.71835">
        <ele>86</ele>
        <time>2022-11-23T10:50:15.502Z</time>
      </trkpt>
      <trkpt lat="48.34102" lon="2.71837">
        <ele>86</ele>
        <time>2022-11-23T10:50:19.778Z</time>
      </trkpt>
      <trkpt lat="48.34091" lon="2.71844">
        <ele>85</ele>
        <time>2022-11-23T10:50:33.860Z</time>
      </trkpt>
      <trkpt lat="48.34091" lon="2.71843">
        <ele>85</ele>
        <time>2022-11-23T10:50:38.523Z</time>
      </trkpt>
      <trkpt lat="48.3409" lon="2.71843">
        <ele>85</ele>
        <time>2022-11-23T10:50:42.529Z</time>
      </trkpt>
      <trkpt lat="48.3409" lon="2.71843">
        <ele>85</ele>
        <time>2022-11-23T10:50:46.528Z</time>
      </trkpt>
      <trkpt lat="48.34088" lon="2.71842">
        <ele>85</ele>
        <time>2022-11-23T10:50:51.493Z</time>
      </trkpt>
      <trkpt lat="48.34082" lon="2.71841">
        <ele>85</ele>
        <time>2022-11-23T10:52:19.512Z</time>
      </trkpt>
      <trkpt lat="48.34082" lon="2.71844">
        <ele>85</ele>
        <time>2022-11-23T10:52:24.507Z</time>
      </trkpt>
      <trkpt lat="48.34082" lon="2.71836">
        <ele>85</ele>
        <time>2022-11-23T10:52:28.536Z</time>
      </trkpt>
      <trkpt lat="48.34084" lon="2.71831">
        <ele>85</ele>
        <time>2022-11-23T10:52:32.546Z</time>
      </trkpt>
      <trkpt lat="48.34083" lon="2.71831">
        <ele>85</ele>
        <time>2022-11-23T10:52:36.524Z</time>
      </trkpt>
      <trkpt lat="48.34092" lon="2.7183">
        <ele>85</ele>
        <time>2022-11-23T12:06:02.443Z</time>
      </trkpt>
      <trkpt lat="48.34095" lon="2.71819">
        <ele>84</ele>
        <time>2022-11-23T12:06:06.416Z</time>
      </trkpt>
      <trkpt lat="48.34096" lon="2.71818">
        <ele>84</ele>
        <time>2022-11-23T12:06:11.414Z</time>
      </trkpt>
      <trkpt lat="48.34098" lon="2.71811">
        <ele>85</ele>
        <time>2022-11-23T12:06:15.423Z</time>
      </trkpt>
      <trkpt lat="48.34099" lon="2.71807">
        <ele>85</ele>
        <time>2022-11-23T12:06:19.450Z</time>
      </trkpt>
      <trkpt lat="48.34103" lon="2.71805">
        <ele>85</ele>
        <time>2022-11-23T12:06:46.436Z</time>
      </trkpt>
      <trkpt lat="48.34102" lon="2.71807">
        <ele>85</ele>
        <time>2022-11-23T12:06:51.435Z</time>
      </trkpt>
      <trkpt lat="48.34099" lon="2.71809">
        <ele>85</ele>
        <time>2022-11-23T12:06:56.440Z</time>
      </trkpt>
      <trkpt lat="48.34098" lon="2.71811">
        <ele>85</ele>
        <time>2022-11-23T12:07:01.415Z</time>
      </trkpt>
      <trkpt lat="48.34098" lon="2.71816">
        <ele>85</ele>
        <time>2022-11-23T12:07:05.424Z</time>
      </trkpt>
      <trkpt lat="48.34097" lon="2.71818">
        <ele>84</ele>
        <time>2022-11-23T12:08:06.433Z</time>
      </trkpt>
      <trkpt lat="48.34097" lon="2.71818">
        <ele>84</ele>
        <time>2022-11-23T12:08:11.421Z</time>
      </trkpt>
      <trkpt lat="48.34096" lon="2.7182">
        <ele>85</ele>
        <time>2022-11-23T12:08:15.446Z</time>
      </trkpt>
      <trkpt lat="48.34094" lon="2.71826">
        <ele>85</ele>
        <time>2022-11-23T12:08:20.437Z</time>
      </trkpt>
      <trkpt lat="48.34093" lon="2.71835">
        <ele>85</ele>
        <time>2022-11-23T12:08:24.440Z</time>
      </trkpt>
      <trkpt lat="48.3409" lon="2.71845">
        <ele>85</ele>
        <time>2022-11-23T12:08:29.451Z</time>
      </trkpt>
      <trkpt lat="48.34084" lon="2.71854">
        <ele>86</ele>
        <time>2022-11-23T12:08:34.432Z</time>
      </trkpt>
      <trkpt lat="48.34082" lon="2.71855">
        <ele>86</ele>
        <time>2022-11-23T12:08:39.018Z</time>
      </trkpt>
      <trkpt lat="48.34082" lon="2.71855">
        <ele>86</ele>
        <time>2022-11-23T12:08:43.447Z</time>
      </trkpt>
      <trkpt lat="48.34077" lon="2.71856">
        <ele>86</ele>
        <time>2022-11-23T12:08:47.915Z</time>
      </trkpt>
      <trkpt lat="48.34075" lon="2.71857">
        <ele>86</ele>
        <time>2022-11-23T12:08:52.444Z</time>
      </trkpt>
      <trkpt lat="48.34073" lon="2.71855">
        <ele>86</ele>
        <time>2022-11-23T12:08:57.304Z</time>
      </trkpt>
      <trkpt lat="48.3407" lon="2.71859">
        <ele>86</ele>
        <time>2022-11-23T12:09:01.442Z</time>
      </trkpt>
      <trkpt lat="48.34068" lon="2.71862">
        <ele>85</ele>
        <time>2022-11-23T12:09:05.455Z</time>
      </trkpt>
      <trkpt lat="48.34065" lon="2.7187">
        <ele>85</ele>
        <time>2022-11-23T12:09:45.464Z</time>
      </trkpt>
      <trkpt lat="48.3406" lon="2.71872">
        <ele>85</ele>
        <time>2022-11-23T12:09:50.454Z</time>
      </trkpt>
      <trkpt lat="48.34053" lon="2.71875">
        <ele>86</ele>
        <time>2022-11-23T12:09:55.424Z</time>
      </trkpt>
      <trkpt lat="48.34047" lon="2.71881">
        <ele>86</ele>
        <time>2022-11-23T12:10:00.440Z</time>
      </trkpt>
      <trkpt lat="48.34045" lon="2.71886">
        <ele>86</ele>
        <time>2022-11-23T12:10:04.452Z</time>
      </trkpt>
      <trkpt lat="48.34038" lon="2.7189">
        <ele>84</ele>
        <time>2022-11-23T12:10:09.416Z</time>
      </trkpt>
      <trkpt lat="48.34032" lon="2.71895">
        <ele>84</ele>
        <time>2022-11-23T12:10:13.461Z</time>
      </trkpt>
      <trkpt lat="48.34031" lon="2.71904">
        <ele>84</ele>
        <time>2022-11-23T12:10:18.456Z</time>
      </trkpt>
      <trkpt lat="48.34029" lon="2.71913">
        <ele>84</ele>
        <time>2022-11-23T12:10:23Z</time>
      </trkpt>
      <trkpt lat="48.34027" lon="2.71921">
        <ele>84</ele>
        <time>2022-11-23T12:10:27.439Z</time>
      </trkpt>
      <trkpt lat="48.34025" lon="2.71931">
        <ele>84</ele>
        <time>2022-11-23T12:10:32.448Z</time>
      </trkpt>
      <trkpt lat="48.34023" lon="2.71936">
        <ele>84</ele>
        <time>2022-11-23T12:10:36.916Z</time>
      </trkpt>
      <trkpt lat="48.34019" lon="2.71938">
        <ele>84</ele>
        <time>2022-11-23T12:10:41.207Z</time>
      </trkpt>
      <trkpt lat="48.34013" lon="2.71938">
        <ele>84</ele>
        <time>2022-11-23T12:10:46.295Z</time>
      </trkpt>
      <trkpt lat="48.34009" lon="2.71939">
        <ele>84</ele>
        <time>2022-11-23T12:10:50.448Z</time>
      </trkpt>
      <trkpt lat="48.34009" lon="2.71941">
        <ele>84</ele>
        <time>2022-11-23T12:10:54.902Z</time>
      </trkpt>
      <trkpt lat="48.34003" lon="2.71944">
        <ele>84</ele>
        <time>2022-11-23T12:10:59.446Z</time>
      </trkpt>
      <trkpt lat="48.33996" lon="2.71945">
        <ele>84</ele>
        <time>2022-11-23T12:11:03.464Z</time>
      </trkpt>
      <trkpt lat="48.33985" lon="2.71937">
        <ele>84</ele>
        <time>2022-11-23T12:11:07.423Z</time>
      </trkpt>
      <trkpt lat="48.33977" lon="2.71938">
        <ele>84</ele>
        <time>2022-11-23T12:11:11.901Z</time>
      </trkpt>
      <trkpt lat="48.3397" lon="2.7194">
        <ele>84</ele>
        <time>2022-11-23T12:11:16.448Z</time>
      </trkpt>
      <trkpt lat="48.33965" lon="2.71942">
        <ele>84</ele>
        <time>2022-11-23T12:11:20.444Z</time>
      </trkpt>
      <trkpt lat="48.33959" lon="2.71942">
        <ele>84</ele>
        <time>2022-11-23T12:11:24.435Z</time>
      </trkpt>
      <trkpt lat="48.33953" lon="2.71942">
        <ele>83</ele>
        <time>2022-11-23T12:11:28.804Z</time>
      </trkpt>
      <trkpt lat="48.33948" lon="2.71943">
        <ele>83</ele>
        <time>2022-11-23T12:11:33.435Z</time>
      </trkpt>
      <trkpt lat="48.33943" lon="2.71949">
        <ele>83</ele>
        <time>2022-11-23T12:11:37.810Z</time>
      </trkpt>
      <trkpt lat="48.33934" lon="2.71949">
        <ele>83</ele>
        <time>2022-11-23T12:11:42.222Z</time>
      </trkpt>
      <trkpt lat="48.33927" lon="2.71952">
        <ele>83</ele>
        <time>2022-11-23T12:11:46.386Z</time>
      </trkpt>
      <trkpt lat="48.33922" lon="2.71955">
        <ele>83</ele>
        <time>2022-11-23T12:11:50.457Z</time>
      </trkpt>
      <trkpt lat="48.33915" lon="2.71958">
        <ele>82</ele>
        <time>2022-11-23T12:11:54.837Z</time>
      </trkpt>
      <trkpt lat="48.33908" lon="2.71961">
        <ele>82</ele>
        <time>2022-11-23T12:11:59.338Z</time>
      </trkpt>
      <trkpt lat="48.33902" lon="2.71961">
        <ele>82</ele>
        <time>2022-11-23T12:12:03.380Z</time>
      </trkpt>
      <trkpt lat="48.33896" lon="2.71967">
        <ele>82</ele>
        <time>2022-11-23T12:12:08.164Z</time>
      </trkpt>
      <trkpt lat="48.3389" lon="2.71969">
        <ele>82</ele>
        <time>2022-11-23T12:12:12.450Z</time>
      </trkpt>
      <trkpt lat="48.33885" lon="2.7197">
        <ele>82</ele>
        <time>2022-11-23T12:12:16.723Z</time>
      </trkpt>
      <trkpt lat="48.33878" lon="2.71972">
        <ele>82</ele>
        <time>2022-11-23T12:12:21.025Z</time>
      </trkpt>
      <trkpt lat="48.33872" lon="2.71975">
        <ele>82</ele>
        <time>2022-11-23T12:12:25.429Z</time>
      </trkpt>
      <trkpt lat="48.33865" lon="2.71977">
        <ele>82</ele>
        <time>2022-11-23T12:12:30.222Z</time>
      </trkpt>
      <trkpt lat="48.33859" lon="2.71979">
        <ele>82</ele>
        <time>2022-11-23T12:12:34.477Z</time>
      </trkpt>
      <trkpt lat="48.33853" lon="2.71981">
        <ele>82</ele>
        <time>2022-11-23T12:12:38.456Z</time>
      </trkpt>
      <trkpt lat="48.33847" lon="2.71985">
        <ele>82</ele>
        <time>2022-11-23T12:12:43.281Z</time>
      </trkpt>
      <trkpt lat="48.33841" lon="2.71987">
        <ele>82</ele>
        <time>2022-11-23T12:12:47.441Z</time>
      </trkpt>
      <trkpt lat="48.33833" lon="2.71991">
        <ele>82</ele>
        <time>2022-11-23T12:12:52.204Z</time>
      </trkpt>
      <trkpt lat="48.33827" lon="2.71994">
        <ele>82</ele>
        <time>2022-11-23T12:12:56.359Z</time>
      </trkpt>
      <trkpt lat="48.33821" lon="2.71996">
        <ele>82</ele>
        <time>2022-11-23T12:13:00.472Z</time>
      </trkpt>
      <trkpt lat="48.33815" lon="2.72">
        <ele>82</ele>
        <time>2022-11-23T12:13:04.475Z</time>
      </trkpt>
      <trkpt lat="48.33809" lon="2.72002">
        <ele>82</ele>
        <time>2022-11-23T12:13:09.448Z</time>
      </trkpt>
      <trkpt lat="48.33802" lon="2.72007">
        <ele>82</ele>
        <time>2022-11-23T12:13:14.322Z</time>
      </trkpt>
      <trkpt lat="48.33798" lon="2.72013">
        <ele>82</ele>
        <time>2022-11-23T12:13:18.436Z</time>
      </trkpt>
      <trkpt lat="48.33796" lon="2.72022">
        <ele>82</ele>
        <time>2022-11-23T12:13:22.765Z</time>
      </trkpt>
      <trkpt lat="48.33793" lon="2.72031">
        <ele>82</ele>
        <time>2022-11-23T12:13:27.344Z</time>
      </trkpt>
      <trkpt lat="48.3379" lon="2.72039">
        <ele>82</ele>
        <time>2022-11-23T12:13:31.459Z</time>
      </trkpt>
      <trkpt lat="48.33787" lon="2.72048">
        <ele>83</ele>
        <time>2022-11-23T12:13:36.043Z</time>
      </trkpt>
      <trkpt lat="48.33785" lon="2.72057">
        <ele>83</ele>
        <time>2022-11-23T12:13:40.474Z</time>
      </trkpt>
      <trkpt lat="48.33782" lon="2.72067">
        <ele>83</ele>
        <time>2022-11-23T12:13:45.003Z</time>
      </trkpt>
      <trkpt lat="48.33779" lon="2.72077">
        <ele>82</ele>
        <time>2022-11-23T12:13:49.447Z</time>
      </trkpt>
      <trkpt lat="48.33775" lon="2.72086">
        <ele>82</ele>
        <time>2022-11-23T12:13:54.453Z</time>
      </trkpt>
      <trkpt lat="48.33772" lon="2.72097">
        <ele>82</ele>
        <time>2022-11-23T12:13:58.963Z</time>
      </trkpt>
      <trkpt lat="48.3377" lon="2.72104">
        <ele>82</ele>
        <time>2022-11-23T12:14:03.045Z</time>
      </trkpt>
      <trkpt lat="48.33768" lon="2.72112">
        <ele>82</ele>
        <time>2022-11-23T12:14:07.117Z</time>
      </trkpt>
      <trkpt lat="48.33765" lon="2.72121">
        <ele>82</ele>
        <time>2022-11-23T12:14:11.281Z</time>
      </trkpt>
      <trkpt lat="48.33764" lon="2.72128">
        <ele>82</ele>
        <time>2022-11-23T12:14:15.345Z</time>
      </trkpt>
      <trkpt lat="48.33761" lon="2.72135">
        <ele>82</ele>
        <time>2022-11-23T12:14:19.427Z</time>
      </trkpt>
      <trkpt lat="48.33758" lon="2.72143">
        <ele>82</ele>
        <time>2022-11-23T12:14:23.464Z</time>
      </trkpt>
      <trkpt lat="48.33756" lon="2.72153">
        <ele>82</ele>
        <time>2022-11-23T12:14:28.466Z</time>
      </trkpt>
      <trkpt lat="48.33753" lon="2.72161">
        <ele>82</ele>
        <time>2022-11-23T12:14:32.460Z</time>
      </trkpt>
      <trkpt lat="48.33751" lon="2.7217">
        <ele>82</ele>
        <time>2022-11-23T12:14:37.342Z</time>
      </trkpt>
      <trkpt lat="48.33749" lon="2.72179">
        <ele>82</ele>
        <time>2022-11-23T12:14:41.365Z</time>
      </trkpt>
      <trkpt lat="48.33747" lon="2.72188">
        <ele>83</ele>
        <time>2022-11-23T12:14:45.398Z</time>
      </trkpt>
      <trkpt lat="48.33744" lon="2.72196">
        <ele>83</ele>
        <time>2022-11-23T12:14:49.445Z</time>
      </trkpt>
      <trkpt lat="48.33742" lon="2.72206">
        <ele>83</ele>
        <time>2022-11-23T12:14:53.898Z</time>
      </trkpt>
      <trkpt lat="48.33741" lon="2.72215">
        <ele>83</ele>
        <time>2022-11-23T12:14:58.321Z</time>
      </trkpt>
      <trkpt lat="48.33739" lon="2.72226">
        <ele>83</ele>
        <time>2022-11-23T12:15:03.103Z</time>
      </trkpt>
      <trkpt lat="48.33737" lon="2.72235">
        <ele>83</ele>
        <time>2022-11-23T12:15:07.441Z</time>
      </trkpt>
      <trkpt lat="48.33735" lon="2.72244">
        <ele>84</ele>
        <time>2022-11-23T12:15:12.244Z</time>
      </trkpt>
      <trkpt lat="48.33734" lon="2.72254">
        <ele>84</ele>
        <time>2022-11-23T12:15:16.468Z</time>
      </trkpt>
      <trkpt lat="48.33732" lon="2.72262">
        <ele>84</ele>
        <time>2022-11-23T12:15:21.442Z</time>
      </trkpt>
      <trkpt lat="48.33731" lon="2.72271">
        <ele>83</ele>
        <time>2022-11-23T12:15:26.023Z</time>
      </trkpt>
      <trkpt lat="48.33729" lon="2.7228">
        <ele>83</ele>
        <time>2022-11-23T12:15:30.147Z</time>
      </trkpt>
      <trkpt lat="48.33727" lon="2.7229">
        <ele>83</ele>
        <time>2022-11-23T12:15:34.480Z</time>
      </trkpt>
      <trkpt lat="48.33726" lon="2.72299">
        <ele>82</ele>
        <time>2022-11-23T12:15:38.464Z</time>
      </trkpt>
      <trkpt lat="48.33725" lon="2.72309">
        <ele>82</ele>
        <time>2022-11-23T12:15:43.075Z</time>
      </trkpt>
      <trkpt lat="48.33723" lon="2.72318">
        <ele>82</ele>
        <time>2022-11-23T12:15:47.464Z</time>
      </trkpt>
      <trkpt lat="48.33717" lon="2.72324">
        <ele>81</ele>
        <time>2022-11-23T12:15:52.088Z</time>
      </trkpt>
      <trkpt lat="48.33719" lon="2.72337">
        <ele>81</ele>
        <time>2022-11-23T12:15:56.318Z</time>
      </trkpt>
      <trkpt lat="48.33719" lon="2.72347">
        <ele>81</ele>
        <time>2022-11-23T12:16:00.516Z</time>
      </trkpt>
      <trkpt lat="48.33717" lon="2.72354">
        <ele>81</ele>
        <time>2022-11-23T12:16:04.737Z</time>
      </trkpt>
      <trkpt lat="48.33716" lon="2.72362">
        <ele>81</ele>
        <time>2022-11-23T12:16:08.962Z</time>
      </trkpt>
      <trkpt lat="48.33714" lon="2.72371">
        <ele>81</ele>
        <time>2022-11-23T12:16:13.203Z</time>
      </trkpt>
      <trkpt lat="48.33713" lon="2.72382">
        <ele>81</ele>
        <time>2022-11-23T12:16:18.139Z</time>
      </trkpt>
      <trkpt lat="48.33711" lon="2.72391">
        <ele>81</ele>
        <time>2022-11-23T12:16:22.239Z</time>
      </trkpt>
      <trkpt lat="48.33711" lon="2.72401">
        <ele>81</ele>
        <time>2022-11-23T12:16:26.250Z</time>
      </trkpt>
      <trkpt lat="48.33711" lon="2.72414">
        <ele>82</ele>
        <time>2022-11-23T12:16:31.084Z</time>
      </trkpt>
      <trkpt lat="48.33711" lon="2.72425">
        <ele>82</ele>
        <time>2022-11-23T12:16:35.451Z</time>
      </trkpt>
      <trkpt lat="48.33713" lon="2.72434">
        <ele>82</ele>
        <time>2022-11-23T12:16:40.120Z</time>
      </trkpt>
      <trkpt lat="48.33714" lon="2.72444">
        <ele>82</ele>
        <time>2022-11-23T12:16:44.473Z</time>
      </trkpt>
      <trkpt lat="48.33716" lon="2.72452">
        <ele>82</ele>
        <time>2022-11-23T12:16:48.478Z</time>
      </trkpt>
      <trkpt lat="48.33717" lon="2.72462">
        <ele>83</ele>
        <time>2022-11-23T12:16:53.283Z</time>
      </trkpt>
      <trkpt lat="48.33717" lon="2.72469">
        <ele>83</ele>
        <time>2022-11-23T12:16:57.451Z</time>
      </trkpt>
      <trkpt lat="48.33715" lon="2.7248">
        <ele>83</ele>
        <time>2022-11-23T12:17:01.795Z</time>
      </trkpt>
      <trkpt lat="48.33712" lon="2.72489">
        <ele>84</ele>
        <time>2022-11-23T12:17:06.093Z</time>
      </trkpt>
      <trkpt lat="48.33709" lon="2.72499">
        <ele>84</ele>
        <time>2022-11-23T12:17:10.284Z</time>
      </trkpt>
      <trkpt lat="48.33708" lon="2.72508">
        <ele>83</ele>
        <time>2022-11-23T12:17:14.442Z</time>
      </trkpt>
      <trkpt lat="48.33706" lon="2.72517">
        <ele>83</ele>
        <time>2022-11-23T12:17:18.801Z</time>
      </trkpt>
      <trkpt lat="48.33703" lon="2.72526">
        <ele>83</ele>
        <time>2022-11-23T12:17:23.200Z</time>
      </trkpt>
      <trkpt lat="48.337" lon="2.72535">
        <ele>83</ele>
        <time>2022-11-23T12:17:27.462Z</time>
      </trkpt>
      <trkpt lat="48.33698" lon="2.72544">
        <ele>83</ele>
        <time>2022-11-23T12:17:31.468Z</time>
      </trkpt>
      <trkpt lat="48.33696" lon="2.72553">
        <ele>83</ele>
        <time>2022-11-23T12:17:36.224Z</time>
      </trkpt>
      <trkpt lat="48.33694" lon="2.72562">
        <ele>83</ele>
        <time>2022-11-23T12:17:40.296Z</time>
      </trkpt>
      <trkpt lat="48.33692" lon="2.72572">
        <ele>83</ele>
        <time>2022-11-23T12:17:44.617Z</time>
      </trkpt>
      <trkpt lat="48.33691" lon="2.72581">
        <ele>83</ele>
        <time>2022-11-23T12:17:49.001Z</time>
      </trkpt>
      <trkpt lat="48.3369" lon="2.7259">
        <ele>83</ele>
        <time>2022-11-23T12:17:53.282Z</time>
      </trkpt>
      <trkpt lat="48.3369" lon="2.72599">
        <ele>83</ele>
        <time>2022-11-23T12:17:57.437Z</time>
      </trkpt>
      <trkpt lat="48.33691" lon="2.72607">
        <ele>83</ele>
        <time>2022-11-23T12:18:01.483Z</time>
      </trkpt>
      <trkpt lat="48.33691" lon="2.72619">
        <ele>83</ele>
        <time>2022-11-23T12:18:06.384Z</time>
      </trkpt>
      <trkpt lat="48.3369" lon="2.72631">
        <ele>83</ele>
        <time>2022-11-23T12:18:11.245Z</time>
      </trkpt>
      <trkpt lat="48.3369" lon="2.72641">
        <ele>83</ele>
        <time>2022-11-23T12:18:15.443Z</time>
      </trkpt>
      <trkpt lat="48.3369" lon="2.72653">
        <ele>83</ele>
        <time>2022-11-23T12:18:20.476Z</time>
      </trkpt>
      <trkpt lat="48.3369" lon="2.7266">
        <ele>83</ele>
        <time>2022-11-23T12:18:24.453Z</time>
      </trkpt>
      <trkpt lat="48.3369" lon="2.72671">
        <ele>83</ele>
        <time>2022-11-23T12:18:29.403Z</time>
      </trkpt>
      <trkpt lat="48.33689" lon="2.72679">
        <ele>83</ele>
        <time>2022-11-23T12:18:33.463Z</time>
      </trkpt>
      <trkpt lat="48.33689" lon="2.7269">
        <ele>84</ele>
        <time>2022-11-23T12:18:38.216Z</time>
      </trkpt>
      <trkpt lat="48.33688" lon="2.72697">
        <ele>84</ele>
        <time>2022-11-23T12:18:42.448Z</time>
      </trkpt>
      <trkpt lat="48.33688" lon="2.72705">
        <ele>84</ele>
        <time>2022-11-23T12:18:46.443Z</time>
      </trkpt>
      <trkpt lat="48.33688" lon="2.72714">
        <ele>85</ele>
        <time>2022-11-23T12:18:50.557Z</time>
      </trkpt>
      <trkpt lat="48.33688" lon="2.72723">
        <ele>85</ele>
        <time>2022-11-23T12:18:55.098Z</time>
      </trkpt>
      <trkpt lat="48.33689" lon="2.72732">
        <ele>85</ele>
        <time>2022-11-23T12:18:59.178Z</time>
      </trkpt>
      <trkpt lat="48.33688" lon="2.7274">
        <ele>85</ele>
        <time>2022-11-23T12:19:03.458Z</time>
      </trkpt>
      <trkpt lat="48.33688" lon="2.72751">
        <ele>85</ele>
        <time>2022-11-23T12:19:08.280Z</time>
      </trkpt>
      <trkpt lat="48.33687" lon="2.72761">
        <ele>85</ele>
        <time>2022-11-23T12:19:13.143Z</time>
      </trkpt>
      <trkpt lat="48.33688" lon="2.7277">
        <ele>85</ele>
        <time>2022-11-23T12:19:17.452Z</time>
      </trkpt>
      <trkpt lat="48.33687" lon="2.7278">
        <ele>85</ele>
        <time>2022-11-23T12:19:22.205Z</time>
      </trkpt>
      <trkpt lat="48.33686" lon="2.72789">
        <ele>85</ele>
        <time>2022-11-23T12:19:26.380Z</time>
      </trkpt>
      <trkpt lat="48.33686" lon="2.72798">
        <ele>84</ele>
        <time>2022-11-23T12:19:30.903Z</time>
      </trkpt>
      <trkpt lat="48.33688" lon="2.72808">
        <ele>84</ele>
        <time>2022-11-23T12:19:35.164Z</time>
      </trkpt>
      <trkpt lat="48.33688" lon="2.72816">
        <ele>84</ele>
        <time>2022-11-23T12:19:39.296Z</time>
      </trkpt>
      <trkpt lat="48.33686" lon="2.72824">
        <ele>84</ele>
        <time>2022-11-23T12:19:43.487Z</time>
      </trkpt>
      <trkpt lat="48.33686" lon="2.72832">
        <ele>84</ele>
        <time>2022-11-23T12:19:48.201Z</time>
      </trkpt>
      <trkpt lat="48.33685" lon="2.72841">
        <ele>84</ele>
        <time>2022-11-23T12:19:53.045Z</time>
      </trkpt>
      <trkpt lat="48.33685" lon="2.72849">
        <ele>85</ele>
        <time>2022-11-23T12:19:57.099Z</time>
      </trkpt>
      <trkpt lat="48.33685" lon="2.72857">
        <ele>85</ele>
        <time>2022-11-23T12:20:01.489Z</time>
      </trkpt>
      <trkpt lat="48.33685" lon="2.72866">
        <ele>85</ele>
        <time>2022-11-23T12:20:06.120Z</time>
      </trkpt>
      <trkpt lat="48.33685" lon="2.72873">
        <ele>85</ele>
        <time>2022-11-23T12:20:11.400Z</time>
      </trkpt>
      <trkpt lat="48.33684" lon="2.72878">
        <ele>85</ele>
        <time>2022-11-23T12:20:16.319Z</time>
      </trkpt>
      <trkpt lat="48.33685" lon="2.72886">
        <ele>85</ele>
        <time>2022-11-23T12:20:21.471Z</time>
      </trkpt>
      <trkpt lat="48.33685" lon="2.72893">
        <ele>85</ele>
        <time>2022-11-23T12:20:25.955Z</time>
      </trkpt>
      <trkpt lat="48.33686" lon="2.729">
        <ele>85</ele>
        <time>2022-11-23T12:20:30.298Z</time>
      </trkpt>
      <trkpt lat="48.33685" lon="2.72906">
        <ele>86</ele>
        <time>2022-11-23T12:20:34.472Z</time>
      </trkpt>
      <trkpt lat="48.33685" lon="2.72912">
        <ele>86</ele>
        <time>2022-11-23T12:20:38.484Z</time>
      </trkpt>
      <trkpt lat="48.33684" lon="2.7292">
        <ele>86</ele>
        <time>2022-11-23T12:20:42.844Z</time>
      </trkpt>
      <trkpt lat="48.33684" lon="2.72928">
        <ele>86</ele>
        <time>2022-11-23T12:20:47.466Z</time>
      </trkpt>
      <trkpt lat="48.33684" lon="2.72937">
        <ele>86</ele>
        <time>2022-11-23T12:20:52.471Z</time>
      </trkpt>
      <trkpt lat="48.33684" lon="2.72945">
        <ele>86</ele>
        <time>2022-11-23T12:20:57.476Z</time>
      </trkpt>
      <trkpt lat="48.33683" lon="2.72952">
        <ele>86</ele>
        <time>2022-11-23T12:21:02.320Z</time>
      </trkpt>
      <trkpt lat="48.33683" lon="2.72959">
        <ele>86</ele>
        <time>2022-11-23T12:21:06.472Z</time>
      </trkpt>
      <trkpt lat="48.33683" lon="2.72967">
        <ele>86</ele>
        <time>2022-11-23T12:21:10.503Z</time>
      </trkpt>
      <trkpt lat="48.33683" lon="2.72974">
        <ele>86</ele>
        <time>2022-11-23T12:21:15.340Z</time>
      </trkpt>
      <trkpt lat="48.33683" lon="2.72981">
        <ele>86</ele>
        <time>2022-11-23T12:21:19.485Z</time>
      </trkpt>
      <trkpt lat="48.33683" lon="2.7299">
        <ele>86</ele>
        <time>2022-11-23T12:21:24.259Z</time>
      </trkpt>
      <trkpt lat="48.33682" lon="2.72997">
        <ele>86</ele>
        <time>2022-11-23T12:21:28.416Z</time>
      </trkpt>
      <trkpt lat="48.33682" lon="2.73004">
        <ele>86</ele>
        <time>2022-11-23T12:21:32.481Z</time>
      </trkpt>
      <trkpt lat="48.33682" lon="2.73011">
        <ele>86</ele>
        <time>2022-11-23T12:21:37.095Z</time>
      </trkpt>
      <trkpt lat="48.33681" lon="2.73017">
        <ele>86</ele>
        <time>2022-11-23T12:21:41.438Z</time>
      </trkpt>
      <trkpt lat="48.3368" lon="2.73025">
        <ele>87</ele>
        <time>2022-11-23T12:21:46.485Z</time>
      </trkpt>
      <trkpt lat="48.33681" lon="2.73033">
        <ele>86</ele>
        <time>2022-11-23T12:21:51.486Z</time>
      </trkpt>
      <trkpt lat="48.33682" lon="2.7304">
        <ele>86</ele>
        <time>2022-11-23T12:21:56.457Z</time>
      </trkpt>
      <trkpt lat="48.33681" lon="2.73047">
        <ele>86</ele>
        <time>2022-11-23T12:22:01.781Z</time>
      </trkpt>
      <trkpt lat="48.33682" lon="2.73055">
        <ele>86</ele>
        <time>2022-11-23T12:22:07.327Z</time>
      </trkpt>
      <trkpt lat="48.33682" lon="2.73064">
        <ele>86</ele>
        <time>2022-11-23T12:22:11.443Z</time>
      </trkpt>
      <trkpt lat="48.33683" lon="2.73071">
        <ele>86</ele>
        <time>2022-11-23T12:22:16.178Z</time>
      </trkpt>
      <trkpt lat="48.33682" lon="2.73082">
        <ele>86</ele>
        <time>2022-11-23T12:22:21.455Z</time>
      </trkpt>
      <trkpt lat="48.33682" lon="2.73091">
        <ele>86</ele>
        <time>2022-11-23T12:22:26.214Z</time>
      </trkpt>
      <trkpt lat="48.33682" lon="2.731">
        <ele>86</ele>
        <time>2022-11-23T12:22:31.201Z</time>
      </trkpt>
      <trkpt lat="48.33681" lon="2.73109">
        <ele>86</ele>
        <time>2022-11-23T12:22:35.662Z</time>
      </trkpt>
      <trkpt lat="48.3368" lon="2.73118">
        <ele>85</ele>
        <time>2022-11-23T12:22:40.027Z</time>
      </trkpt>
      <trkpt lat="48.3368" lon="2.73126">
        <ele>85</ele>
        <time>2022-11-23T12:22:44.274Z</time>
      </trkpt>
      <trkpt lat="48.3368" lon="2.73136">
        <ele>85</ele>
        <time>2022-11-23T12:22:49.177Z</time>
      </trkpt>
      <trkpt lat="48.3368" lon="2.73144">
        <ele>85</ele>
        <time>2022-11-23T12:22:53.378Z</time>
      </trkpt>
      <trkpt lat="48.33679" lon="2.73154">
        <ele>85</ele>
        <time>2022-11-23T12:22:57.460Z</time>
      </trkpt>
      <trkpt lat="48.33679" lon="2.73165">
        <ele>85</ele>
        <time>2022-11-23T12:23:02.463Z</time>
      </trkpt>
      <trkpt lat="48.33679" lon="2.73176">
        <ele>85</ele>
        <time>2022-11-23T12:23:07.478Z</time>
      </trkpt>
      <trkpt lat="48.33679" lon="2.73187">
        <ele>85</ele>
        <time>2022-11-23T12:23:12.220Z</time>
      </trkpt>
      <trkpt lat="48.33679" lon="2.73196">
        <ele>85</ele>
        <time>2022-11-23T12:23:16.461Z</time>
      </trkpt>
      <trkpt lat="48.33679" lon="2.73206">
        <ele>85</ele>
        <time>2022-11-23T12:23:21.471Z</time>
      </trkpt>
      <trkpt lat="48.33679" lon="2.73215">
        <ele>86</ele>
        <time>2022-11-23T12:23:26.140Z</time>
      </trkpt>
      <trkpt lat="48.33678" lon="2.73224">
        <ele>86</ele>
        <time>2022-11-23T12:23:30.342Z</time>
      </trkpt>
      <trkpt lat="48.33679" lon="2.73232">
        <ele>86</ele>
        <time>2022-11-23T12:23:34.511Z</time>
      </trkpt>
      <trkpt lat="48.33679" lon="2.7324">
        <ele>86</ele>
        <time>2022-11-23T12:23:38.983Z</time>
      </trkpt>
      <trkpt lat="48.33679" lon="2.73249">
        <ele>86</ele>
        <time>2022-11-23T12:23:43.423Z</time>
      </trkpt>
      <trkpt lat="48.33679" lon="2.7326">
        <ele>86</ele>
        <time>2022-11-23T12:23:48.489Z</time>
      </trkpt>
      <trkpt lat="48.33679" lon="2.73271">
        <ele>86</ele>
        <time>2022-11-23T12:23:53.145Z</time>
      </trkpt>
      <trkpt lat="48.33678" lon="2.73281">
        <ele>86</ele>
        <time>2022-11-23T12:23:57.398Z</time>
      </trkpt>
      <trkpt lat="48.33678" lon="2.73292">
        <ele>86</ele>
        <time>2022-11-23T12:24:02.465Z</time>
      </trkpt>
      <trkpt lat="48.33678" lon="2.733">
        <ele>86</ele>
        <time>2022-11-23T12:24:06.473Z</time>
      </trkpt>
      <trkpt lat="48.33678" lon="2.73311">
        <ele>86</ele>
        <time>2022-11-23T12:24:10.861Z</time>
      </trkpt>
      <trkpt lat="48.33678" lon="2.7332">
        <ele>86</ele>
        <time>2022-11-23T12:24:15.161Z</time>
      </trkpt>
      <trkpt lat="48.33677" lon="2.73328">
        <ele>86</ele>
        <time>2022-11-23T12:24:19.420Z</time>
      </trkpt>
      <trkpt lat="48.33677" lon="2.73338">
        <ele>86</ele>
        <time>2022-11-23T12:24:23.824Z</time>
      </trkpt>
      <trkpt lat="48.33677" lon="2.73347">
        <ele>86</ele>
        <time>2022-11-23T12:24:27.964Z</time>
      </trkpt>
      <trkpt lat="48.33677" lon="2.73355">
        <ele>85</ele>
        <time>2022-11-23T12:24:32.177Z</time>
      </trkpt>
      <trkpt lat="48.33676" lon="2.73365">
        <ele>85</ele>
        <time>2022-11-23T12:24:36.477Z</time>
      </trkpt>
      <trkpt lat="48.33674" lon="2.73375">
        <ele>85</ele>
        <time>2022-11-23T12:24:40.489Z</time>
      </trkpt>
      <trkpt lat="48.33674" lon="2.73383">
        <ele>85</ele>
        <time>2022-11-23T12:24:45.480Z</time>
      </trkpt>
      <trkpt lat="48.33675" lon="2.73393">
        <ele>85</ele>
        <time>2022-11-23T12:24:49.759Z</time>
      </trkpt>
      <trkpt lat="48.33675" lon="2.73403">
        <ele>85</ele>
        <time>2022-11-23T12:24:54.445Z</time>
      </trkpt>
      <trkpt lat="48.33675" lon="2.73413">
        <ele>85</ele>
        <time>2022-11-23T12:24:58.465Z</time>
      </trkpt>
      <trkpt lat="48.33675" lon="2.73424">
        <ele>85</ele>
        <time>2022-11-23T12:25:03.106Z</time>
      </trkpt>
      <trkpt lat="48.33674" lon="2.73435">
        <ele>86</ele>
        <time>2022-11-23T12:25:07.444Z</time>
      </trkpt>
      <trkpt lat="48.33674" lon="2.73443">
        <ele>86</ele>
        <time>2022-11-23T12:25:11.458Z</time>
      </trkpt>
      <trkpt lat="48.33673" lon="2.73454">
        <ele>86</ele>
        <time>2022-11-23T12:25:16.236Z</time>
      </trkpt>
      <trkpt lat="48.33673" lon="2.73464">
        <ele>87</ele>
        <time>2022-11-23T12:25:20.457Z</time>
      </trkpt>
      <trkpt lat="48.33673" lon="2.73476">
        <ele>87</ele>
        <time>2022-11-23T12:25:25.287Z</time>
      </trkpt>
      <trkpt lat="48.33673" lon="2.73485">
        <ele>87</ele>
        <time>2022-11-23T12:25:29.459Z</time>
      </trkpt>
      <trkpt lat="48.33672" lon="2.73494">
        <ele>88</ele>
        <time>2022-11-23T12:25:34.224Z</time>
      </trkpt>
      <trkpt lat="48.33672" lon="2.73504">
        <ele>88</ele>
        <time>2022-11-23T12:25:38.404Z</time>
      </trkpt>
      <trkpt lat="48.33671" lon="2.73514">
        <ele>88</ele>
        <time>2022-11-23T12:25:42.802Z</time>
      </trkpt>
      <trkpt lat="48.33671" lon="2.73522">
        <ele>88</ele>
        <time>2022-11-23T12:25:46.903Z</time>
      </trkpt>
      <trkpt lat="48.33671" lon="2.73533">
        <ele>88</ele>
        <time>2022-11-23T12:25:51.744Z</time>
      </trkpt>
      <trkpt lat="48.33672" lon="2.73543">
        <ele>87</ele>
        <time>2022-11-23T12:25:56.350Z</time>
      </trkpt>
      <trkpt lat="48.33673" lon="2.73553">
        <ele>87</ele>
        <time>2022-11-23T12:26:01.466Z</time>
      </trkpt>
      <trkpt lat="48.33673" lon="2.73563">
        <ele>87</ele>
        <time>2022-11-23T12:26:05.667Z</time>
      </trkpt>
      <trkpt lat="48.33674" lon="2.73574">
        <ele>85</ele>
        <time>2022-11-23T12:26:09.943Z</time>
      </trkpt>
      <trkpt lat="48.33675" lon="2.73583">
        <ele>85</ele>
        <time>2022-11-23T12:26:14.467Z</time>
      </trkpt>
      <trkpt lat="48.33674" lon="2.73593">
        <ele>85</ele>
        <time>2022-11-23T12:26:19.326Z</time>
      </trkpt>
      <trkpt lat="48.33671" lon="2.73597">
        <ele>85</ele>
        <time>2022-11-23T12:26:24.476Z</time>
      </trkpt>
      <trkpt lat="48.33665" lon="2.73596">
        <ele>85</ele>
        <time>2022-11-23T12:26:29.197Z</time>
      </trkpt>
      <trkpt lat="48.33658" lon="2.73596">
        <ele>85</ele>
        <time>2022-11-23T12:26:34.098Z</time>
      </trkpt>
      <trkpt lat="48.33652" lon="2.73593">
        <ele>85</ele>
        <time>2022-11-23T12:26:39.097Z</time>
      </trkpt>
      <trkpt lat="48.33646" lon="2.73593">
        <ele>85</ele>
        <time>2022-11-23T12:26:43.417Z</time>
      </trkpt>
      <trkpt lat="48.3364" lon="2.73594">
        <ele>85</ele>
        <time>2022-11-23T12:26:47.468Z</time>
      </trkpt>
      <trkpt lat="48.33633" lon="2.73592">
        <ele>85</ele>
        <time>2022-11-23T12:26:51.861Z</time>
      </trkpt>
      <trkpt lat="48.33627" lon="2.73593">
        <ele>85</ele>
        <time>2022-11-23T12:26:56.181Z</time>
      </trkpt>
      <trkpt lat="48.33621" lon="2.73595">
        <ele>85</ele>
        <time>2022-11-23T12:27:00.380Z</time>
      </trkpt>
      <trkpt lat="48.33617" lon="2.73595">
        <ele>85</ele>
        <time>2022-11-23T12:27:04.449Z</time>
      </trkpt>
      <trkpt lat="48.33613" lon="2.73594">
        <ele>85</ele>
        <time>2022-11-23T12:27:09.475Z</time>
      </trkpt>
      <trkpt lat="48.3361" lon="2.73599">
        <ele>85</ele>
        <time>2022-11-23T12:27:13.904Z</time>
      </trkpt>
      <trkpt lat="48.33608" lon="2.73603">
        <ele>85</ele>
        <time>2022-11-23T12:27:18.199Z</time>
      </trkpt>
      <trkpt lat="48.33601" lon="2.73607">
        <ele>85</ele>
        <time>2022-11-23T12:27:22.743Z</time>
      </trkpt>
      <trkpt lat="48.33596" lon="2.73613">
        <ele>85</ele>
        <time>2022-11-23T12:27:27.122Z</time>
      </trkpt>
      <trkpt lat="48.33591" lon="2.73613">
        <ele>85</ele>
        <time>2022-11-23T12:27:31.431Z</time>
      </trkpt>
      <trkpt lat="48.33585" lon="2.73615">
        <ele>85</ele>
        <time>2022-11-23T12:27:35.760Z</time>
      </trkpt>
      <trkpt lat="48.33579" lon="2.73617">
        <ele>85</ele>
        <time>2022-11-23T12:27:40.017Z</time>
      </trkpt>
      <trkpt lat="48.33574" lon="2.73619">
        <ele>85</ele>
        <time>2022-11-23T12:27:44.238Z</time>
      </trkpt>
      <trkpt lat="48.33568" lon="2.73621">
        <ele>85</ele>
        <time>2022-11-23T12:27:48.469Z</time>
      </trkpt>
      <trkpt lat="48.33561" lon="2.73622">
        <ele>85</ele>
        <time>2022-11-23T12:27:52.756Z</time>
      </trkpt>
      <trkpt lat="48.33556" lon="2.73624">
        <ele>85</ele>
        <time>2022-11-23T12:27:56.954Z</time>
      </trkpt>
      <trkpt lat="48.33549" lon="2.73625">
        <ele>85</ele>
        <time>2022-11-23T12:28:01.475Z</time>
      </trkpt>
      <trkpt lat="48.33542" lon="2.73626">
        <ele>85</ele>
        <time>2022-11-23T12:28:06.405Z</time>
      </trkpt>
      <trkpt lat="48.33536" lon="2.73626">
        <ele>85</ele>
        <time>2022-11-23T12:28:10.464Z</time>
      </trkpt>
      <trkpt lat="48.33529" lon="2.73629">
        <ele>85</ele>
        <time>2022-11-23T12:28:15.016Z</time>
      </trkpt>
      <trkpt lat="48.33523" lon="2.73631">
        <ele>85</ele>
        <time>2022-11-23T12:28:19.469Z</time>
      </trkpt>
      <trkpt lat="48.33516" lon="2.73633">
        <ele>85</ele>
        <time>2022-11-23T12:28:23.822Z</time>
      </trkpt>
      <trkpt lat="48.33509" lon="2.73636">
        <ele>85</ele>
        <time>2022-11-23T12:28:28.446Z</time>
      </trkpt>
      <trkpt lat="48.33504" lon="2.73638">
        <ele>85</ele>
        <time>2022-11-23T12:28:32.764Z</time>
      </trkpt>
      <trkpt lat="48.33498" lon="2.73641">
        <ele>85</ele>
        <time>2022-11-23T12:28:37.044Z</time>
      </trkpt>
      <trkpt lat="48.33492" lon="2.73642">
        <ele>85</ele>
        <time>2022-11-23T12:28:41.263Z</time>
      </trkpt>
      <trkpt lat="48.33484" lon="2.73644">
        <ele>85</ele>
        <time>2022-11-23T12:28:46.200Z</time>
      </trkpt>
      <trkpt lat="48.33479" lon="2.73646">
        <ele>85</ele>
        <time>2022-11-23T12:28:50.465Z</time>
      </trkpt>
      <trkpt lat="48.33473" lon="2.73648">
        <ele>85</ele>
        <time>2022-11-23T12:28:54.737Z</time>
      </trkpt>
      <trkpt lat="48.33466" lon="2.73649">
        <ele>85</ele>
        <time>2022-11-23T12:28:59.021Z</time>
      </trkpt>
      <trkpt lat="48.3346" lon="2.73652">
        <ele>85</ele>
        <time>2022-11-23T12:29:03.122Z</time>
      </trkpt>
      <trkpt lat="48.33454" lon="2.73655">
        <ele>85</ele>
        <time>2022-11-23T12:29:07.480Z</time>
      </trkpt>
      <trkpt lat="48.33448" lon="2.73658">
        <ele>85</ele>
        <time>2022-11-23T12:29:12.398Z</time>
      </trkpt>
      <trkpt lat="48.33441" lon="2.73661">
        <ele>85</ele>
        <time>2022-11-23T12:29:17.491Z</time>
      </trkpt>
      <trkpt lat="48.33436" lon="2.73665">
        <ele>85</ele>
        <time>2022-11-23T12:29:21.472Z</time>
      </trkpt>
      <trkpt lat="48.3343" lon="2.73667">
        <ele>86</ele>
        <time>2022-11-23T12:29:25.941Z</time>
      </trkpt>
      <trkpt lat="48.33424" lon="2.7367">
        <ele>86</ele>
        <time>2022-11-23T12:29:30.201Z</time>
      </trkpt>
      <trkpt lat="48.33419" lon="2.73673">
        <ele>86</ele>
        <time>2022-11-23T12:29:34.461Z</time>
      </trkpt>
      <trkpt lat="48.33412" lon="2.73676">
        <ele>86</ele>
        <time>2022-11-23T12:29:39.220Z</time>
      </trkpt>
      <trkpt lat="48.33406" lon="2.73679">
        <ele>86</ele>
        <time>2022-11-23T12:29:43.480Z</time>
      </trkpt>
      <trkpt lat="48.334" lon="2.73682">
        <ele>86</ele>
        <time>2022-11-23T12:29:47.469Z</time>
      </trkpt>
      <trkpt lat="48.33396" lon="2.73688">
        <ele>86</ele>
        <time>2022-11-23T12:29:51.944Z</time>
      </trkpt>
      <trkpt lat="48.3339" lon="2.73691">
        <ele>86</ele>
        <time>2022-11-23T12:29:56.404Z</time>
      </trkpt>
      <trkpt lat="48.33386" lon="2.73692">
        <ele>86</ele>
        <time>2022-11-23T12:30:01.481Z</time>
      </trkpt>
      <trkpt lat="48.33381" lon="2.73694">
        <ele>86</ele>
        <time>2022-11-23T12:30:05.899Z</time>
      </trkpt>
      <trkpt lat="48.33376" lon="2.73696">
        <ele>86</ele>
        <time>2022-11-23T12:30:10.146Z</time>
      </trkpt>
      <trkpt lat="48.3337" lon="2.73698">
        <ele>87</ele>
        <time>2022-11-23T12:30:14.765Z</time>
      </trkpt>
      <trkpt lat="48.33365" lon="2.73701">
        <ele>87</ele>
        <time>2022-11-23T12:30:18.876Z</time>
      </trkpt>
      <trkpt lat="48.3336" lon="2.73704">
        <ele>87</ele>
        <time>2022-11-23T12:30:23.255Z</time>
      </trkpt>
      <trkpt lat="48.33353" lon="2.73706">
        <ele>87</ele>
        <time>2022-11-23T12:30:28.435Z</time>
      </trkpt>
      <trkpt lat="48.3335" lon="2.73708">
        <ele>87</ele>
        <time>2022-11-23T12:30:32.462Z</time>
      </trkpt>
      <trkpt lat="48.33346" lon="2.73711">
        <ele>86</ele>
        <time>2022-11-23T12:30:36.884Z</time>
      </trkpt>
      <trkpt lat="48.33341" lon="2.73716">
        <ele>86</ele>
        <time>2022-11-23T12:30:41.101Z</time>
      </trkpt>
      <trkpt lat="48.33335" lon="2.73721">
        <ele>86</ele>
        <time>2022-11-23T12:30:45.424Z</time>
      </trkpt>
      <trkpt lat="48.33329" lon="2.73725">
        <ele>86</ele>
        <time>2022-11-23T12:30:49.426Z</time>
      </trkpt>
      <trkpt lat="48.33321" lon="2.73727">
        <ele>86</ele>
        <time>2022-11-23T12:30:53.465Z</time>
      </trkpt>
      <trkpt lat="48.33314" lon="2.73732">
        <ele>86</ele>
        <time>2022-11-23T12:30:58.036Z</time>
      </trkpt>
      <trkpt lat="48.33309" lon="2.73735">
        <ele>86</ele>
        <time>2022-11-23T12:31:02.164Z</time>
      </trkpt>
      <trkpt lat="48.33303" lon="2.73736">
        <ele>86</ele>
        <time>2022-11-23T12:31:06.236Z</time>
      </trkpt>
      <trkpt lat="48.33297" lon="2.73739">
        <ele>85</ele>
        <time>2022-11-23T12:31:10.322Z</time>
      </trkpt>
      <trkpt lat="48.3329" lon="2.73741">
        <ele>82</ele>
        <time>2022-11-23T12:31:14.756Z</time>
      </trkpt>
      <trkpt lat="48.33284" lon="2.73743">
        <ele>82</ele>
        <time>2022-11-23T12:31:18.963Z</time>
      </trkpt>
      <trkpt lat="48.33278" lon="2.73746">
        <ele>82</ele>
        <time>2022-11-23T12:31:23.199Z</time>
      </trkpt>
      <trkpt lat="48.33273" lon="2.7375">
        <ele>82</ele>
        <time>2022-11-23T12:31:27.496Z</time>
      </trkpt>
      <trkpt lat="48.33266" lon="2.73755">
        <ele>82</ele>
        <time>2022-11-23T12:31:32.477Z</time>
      </trkpt>
      <trkpt lat="48.3326" lon="2.7376">
        <ele>78</ele>
        <time>2022-11-23T12:31:36.975Z</time>
      </trkpt>
      <trkpt lat="48.33254" lon="2.73767">
        <ele>78</ele>
        <time>2022-11-23T12:31:41.974Z</time>
      </trkpt>
      <trkpt lat="48.33249" lon="2.73772">
        <ele>78</ele>
        <time>2022-11-23T12:31:46.060Z</time>
      </trkpt>
      <trkpt lat="48.33244" lon="2.73776">
        <ele>78</ele>
        <time>2022-11-23T12:31:50.336Z</time>
      </trkpt>
      <trkpt lat="48.33238" lon="2.7378">
        <ele>78</ele>
        <time>2022-11-23T12:31:54.466Z</time>
      </trkpt>
      <trkpt lat="48.33232" lon="2.73787">
        <ele>75</ele>
        <time>2022-11-23T12:31:59.179Z</time>
      </trkpt>
      <trkpt lat="48.33227" lon="2.73792">
        <ele>74</ele>
        <time>2022-11-23T12:32:03.222Z</time>
      </trkpt>
      <trkpt lat="48.33223" lon="2.73799">
        <ele>74</ele>
        <time>2022-11-23T12:32:08.339Z</time>
      </trkpt>
      <trkpt lat="48.33217" lon="2.73803">
        <ele>74</ele>
        <time>2022-11-23T12:32:13.098Z</time>
      </trkpt>
      <trkpt lat="48.33212" lon="2.73807">
        <ele>74</ele>
        <time>2022-11-23T12:32:17.157Z</time>
      </trkpt>
      <trkpt lat="48.33206" lon="2.7381">
        <ele>72</ele>
        <time>2022-11-23T12:32:21.176Z</time>
      </trkpt>
      <trkpt lat="48.33201" lon="2.7381">
        <ele>72</ele>
        <time>2022-11-23T12:32:25.373Z</time>
      </trkpt>
      <trkpt lat="48.33196" lon="2.73812">
        <ele>72</ele>
        <time>2022-11-23T12:32:29.474Z</time>
      </trkpt>
      <trkpt lat="48.33191" lon="2.73815">
        <ele>72</ele>
        <time>2022-11-23T12:32:33.580Z</time>
      </trkpt>
      <trkpt lat="48.33186" lon="2.73817">
        <ele>72</ele>
        <time>2022-11-23T12:32:38.099Z</time>
      </trkpt>
      <trkpt lat="48.33181" lon="2.73819">
        <ele>72</ele>
        <time>2022-11-23T12:32:42.121Z</time>
      </trkpt>
      <trkpt lat="48.33174" lon="2.73821">
        <ele>66</ele>
        <time>2022-11-23T12:32:46.455Z</time>
      </trkpt>
      <trkpt lat="48.33167" lon="2.73825">
        <ele>66</ele>
        <time>2022-11-23T12:32:51.038Z</time>
      </trkpt>
      <trkpt lat="48.33161" lon="2.7383">
        <ele>66</ele>
        <time>2022-11-23T12:32:55.441Z</time>
      </trkpt>
      <trkpt lat="48.33155" lon="2.73834">
        <ele>66</ele>
        <time>2022-11-23T12:32:59.976Z</time>
      </trkpt>
      <trkpt lat="48.3315" lon="2.73839">
        <ele>61</ele>
        <time>2022-11-23T12:33:04.076Z</time>
      </trkpt>
      <trkpt lat="48.33148" lon="2.73839">
        <ele>61</ele>
        <time>2022-11-23T12:33:08.460Z</time>
      </trkpt>
      <trkpt lat="48.33148" lon="2.73838">
        <ele>61</ele>
        <time>2022-11-23T12:33:13.638Z</time>
      </trkpt>
      <trkpt lat="48.33146" lon="2.73838">
        <ele>61</ele>
        <time>2022-11-23T12:33:18.074Z</time>
      </trkpt>
      <trkpt lat="48.33142" lon="2.73834">
        <ele>61</ele>
        <time>2022-11-23T12:33:22.243Z</time>
      </trkpt>
      <trkpt lat="48.33137" lon="2.73829">
        <ele>61</ele>
        <time>2022-11-23T12:33:26.761Z</time>
      </trkpt>
      <trkpt lat="48.33133" lon="2.73821">
        <ele>61</ele>
        <time>2022-11-23T12:33:31.383Z</time>
      </trkpt>
      <trkpt lat="48.33128" lon="2.73816">
        <ele>63</ele>
        <time>2022-11-23T12:33:35.575Z</time>
      </trkpt>
      <trkpt lat="48.33124" lon="2.7381">
        <ele>59</ele>
        <time>2022-11-23T12:33:40.079Z</time>
      </trkpt>
      <trkpt lat="48.3312" lon="2.7381">
        <ele>59</ele>
        <time>2022-11-23T12:33:44.428Z</time>
      </trkpt>
      <trkpt lat="48.33125" lon="2.73817">
        <ele>63</ele>
        <time>2022-11-23T12:33:48.997Z</time>
      </trkpt>
      <trkpt lat="48.3313" lon="2.73824">
        <ele>61</ele>
        <time>2022-11-23T12:33:53.071Z</time>
      </trkpt>
      <trkpt lat="48.33134" lon="2.73832">
        <ele>61</ele>
        <time>2022-11-23T12:33:57.476Z</time>
      </trkpt>
      <trkpt lat="48.3314" lon="2.73842">
        <ele>61</ele>
        <time>2022-11-23T12:34:02.473Z</time>
      </trkpt>
      <trkpt lat="48.33143" lon="2.73848">
        <ele>59</ele>
        <time>2022-11-23T12:34:06.484Z</time>
      </trkpt>
      <trkpt lat="48.33147" lon="2.73857">
        <ele>59</ele>
        <time>2022-11-23T12:34:11.044Z</time>
      </trkpt>
      <trkpt lat="48.3315" lon="2.73864">
        <ele>59</ele>
        <time>2022-11-23T12:34:15.204Z</time>
      </trkpt>
      <trkpt lat="48.33153" lon="2.73872">
        <ele>65</ele>
        <time>2022-11-23T12:34:19.438Z</time>
      </trkpt>
      <trkpt lat="48.33155" lon="2.73878">
        <ele>64</ele>
        <time>2022-11-23T12:34:23.435Z</time>
      </trkpt>
      <trkpt lat="48.33158" lon="2.73885">
        <ele>64</ele>
        <time>2022-11-23T12:34:27.665Z</time>
      </trkpt>
      <trkpt lat="48.33159" lon="2.73894">
        <ele>64</ele>
        <time>2022-11-23T12:34:32.401Z</time>
      </trkpt>
      <trkpt lat="48.3316" lon="2.73901">
        <ele>64</ele>
        <time>2022-11-23T12:34:36.840Z</time>
      </trkpt>
      <trkpt lat="48.33161" lon="2.73928">
        <ele>62</ele>
        <time>2022-11-23T12:36:05.436Z</time>
      </trkpt>
      <trkpt lat="48.33162" lon="2.73928">
        <ele>62</ele>
        <time>2022-11-23T12:36:09.454Z</time>
      </trkpt>
      <trkpt lat="48.33164" lon="2.73935">
        <ele>62</ele>
        <time>2022-11-23T12:36:13.438Z</time>
      </trkpt>
      <trkpt lat="48.33166" lon="2.73943">
        <ele>62</ele>
        <time>2022-11-23T12:36:17.467Z</time>
      </trkpt>
      <trkpt lat="48.33168" lon="2.73951">
        <ele>62</ele>
        <time>2022-11-23T12:36:21.854Z</time>
      </trkpt>
      <trkpt lat="48.33169" lon="2.7396">
        <ele>61</ele>
        <time>2022-11-23T12:36:26.431Z</time>
      </trkpt>
      <trkpt lat="48.33171" lon="2.73968">
        <ele>61</ele>
        <time>2022-11-23T12:36:31.426Z</time>
      </trkpt>
      <trkpt lat="48.33174" lon="2.73975">
        <ele>61</ele>
        <time>2022-11-23T12:36:36.454Z</time>
      </trkpt>
      <trkpt lat="48.33175" lon="2.73983">
        <ele>61</ele>
        <time>2022-11-23T12:36:40.998Z</time>
      </trkpt>
      <trkpt lat="48.33178" lon="2.7399">
        <ele>60</ele>
        <time>2022-11-23T12:36:45.134Z</time>
      </trkpt>
      <trkpt lat="48.33181" lon="2.73998">
        <ele>64</ele>
        <time>2022-11-23T12:36:49.355Z</time>
      </trkpt>
      <trkpt lat="48.33183" lon="2.74007">
        <ele>64</ele>
        <time>2022-11-23T12:36:53.595Z</time>
      </trkpt>
      <trkpt lat="48.33185" lon="2.74017">
        <ele>62</ele>
        <time>2022-11-23T12:36:57.839Z</time>
      </trkpt>
      <trkpt lat="48.33187" lon="2.74026">
        <ele>62</ele>
        <time>2022-11-23T12:37:02.156Z</time>
      </trkpt>
      <trkpt lat="48.33189" lon="2.74034">
        <ele>62</ele>
        <time>2022-11-23T12:37:06.416Z</time>
      </trkpt>
      <trkpt lat="48.33192" lon="2.74043">
        <ele>61</ele>
        <time>2022-11-23T12:37:10.740Z</time>
      </trkpt>
      <trkpt lat="48.33194" lon="2.74052">
        <ele>61</ele>
        <time>2022-11-23T12:37:15.100Z</time>
      </trkpt>
      <trkpt lat="48.33196" lon="2.7406">
        <ele>61</ele>
        <time>2022-11-23T12:37:19.422Z</time>
      </trkpt>
      <trkpt lat="48.33198" lon="2.74067">
        <ele>61</ele>
        <time>2022-11-23T12:37:23.756Z</time>
      </trkpt>
      <trkpt lat="48.33201" lon="2.74074">
        <ele>59</ele>
        <time>2022-11-23T12:37:28.219Z</time>
      </trkpt>
      <trkpt lat="48.33205" lon="2.74083">
        <ele>59</ele>
        <time>2022-11-23T12:37:32.461Z</time>
      </trkpt>
      <trkpt lat="48.33207" lon="2.74093">
        <ele>59</ele>
        <time>2022-11-23T12:37:37.454Z</time>
      </trkpt>
      <trkpt lat="48.3321" lon="2.741">
        <ele>63</ele>
        <time>2022-11-23T12:37:41.469Z</time>
      </trkpt>
      <trkpt lat="48.33214" lon="2.74108">
        <ele>63</ele>
        <time>2022-11-23T12:37:46.024Z</time>
      </trkpt>
      <trkpt lat="48.33217" lon="2.74114">
        <ele>63</ele>
        <time>2022-11-23T12:37:50.463Z</time>
      </trkpt>
      <trkpt lat="48.33221" lon="2.7412">
        <ele>63</ele>
        <time>2022-11-23T12:37:54.465Z</time>
      </trkpt>
      <trkpt lat="48.33222" lon="2.74129">
        <ele>62</ele>
        <time>2022-11-23T12:37:58.840Z</time>
      </trkpt>
      <trkpt lat="48.33226" lon="2.74135">
        <ele>62</ele>
        <time>2022-11-23T12:38:03.223Z</time>
      </trkpt>
      <trkpt lat="48.33228" lon="2.74147">
        <ele>62</ele>
        <time>2022-11-23T12:38:08.181Z</time>
      </trkpt>
      <trkpt lat="48.33231" lon="2.74159">
        <ele>60</ele>
        <time>2022-11-23T12:38:13.422Z</time>
      </trkpt>
      <trkpt lat="48.33233" lon="2.74166">
        <ele>60</ele>
        <time>2022-11-23T12:38:17.418Z</time>
      </trkpt>
      <trkpt lat="48.33236" lon="2.74175">
        <ele>60</ele>
        <time>2022-11-23T12:38:21.471Z</time>
      </trkpt>
      <trkpt lat="48.33237" lon="2.74185">
        <ele>61</ele>
        <time>2022-11-23T12:38:25.779Z</time>
      </trkpt>
      <trkpt lat="48.33239" lon="2.74193">
        <ele>61</ele>
        <time>2022-11-23T12:38:30.126Z</time>
      </trkpt>
      <trkpt lat="48.33243" lon="2.74201">
        <ele>61</ele>
        <time>2022-11-23T12:38:34.483Z</time>
      </trkpt>
      <trkpt lat="48.33247" lon="2.7421">
        <ele>59</ele>
        <time>2022-11-23T12:38:39.216Z</time>
      </trkpt>
      <trkpt lat="48.3325" lon="2.74217">
        <ele>59</ele>
        <time>2022-11-23T12:38:43.220Z</time>
      </trkpt>
      <trkpt lat="48.33254" lon="2.74225">
        <ele>59</ele>
        <time>2022-11-23T12:38:47.286Z</time>
      </trkpt>
      <trkpt lat="48.33257" lon="2.74231">
        <ele>59</ele>
        <time>2022-11-23T12:38:51.281Z</time>
      </trkpt>
      <trkpt lat="48.33259" lon="2.7424">
        <ele>59</ele>
        <time>2022-11-23T12:38:55.444Z</time>
      </trkpt>
      <trkpt lat="48.33262" lon="2.74246">
        <ele>59</ele>
        <time>2022-11-23T12:38:59.445Z</time>
      </trkpt>
      <trkpt lat="48.33265" lon="2.74253">
        <ele>64</ele>
        <time>2022-11-23T12:39:03.446Z</time>
      </trkpt>
      <trkpt lat="48.33268" lon="2.7426">
        <ele>64</ele>
        <time>2022-11-23T12:39:07.599Z</time>
      </trkpt>
      <trkpt lat="48.33271" lon="2.74268">
        <ele>63</ele>
        <time>2022-11-23T12:39:11.718Z</time>
      </trkpt>
      <trkpt lat="48.33271" lon="2.74277">
        <ele>63</ele>
        <time>2022-11-23T12:39:15.962Z</time>
      </trkpt>
      <trkpt lat="48.33272" lon="2.74287">
        <ele>63</ele>
        <time>2022-11-23T12:39:20.444Z</time>
      </trkpt>
      <trkpt lat="48.33273" lon="2.74297">
        <ele>63</ele>
        <time>2022-11-23T12:39:25.430Z</time>
      </trkpt>
      <trkpt lat="48.33278" lon="2.74306">
        <ele>63</ele>
        <time>2022-11-23T12:39:29.795Z</time>
      </trkpt>
      <trkpt lat="48.33279" lon="2.74316">
        <ele>63</ele>
        <time>2022-11-23T12:39:34.003Z</time>
      </trkpt>
      <trkpt lat="48.33281" lon="2.74324">
        <ele>61</ele>
        <time>2022-11-23T12:39:38.217Z</time>
      </trkpt>
      <trkpt lat="48.33284" lon="2.74332">
        <ele>61</ele>
        <time>2022-11-23T12:39:42.436Z</time>
      </trkpt>
      <trkpt lat="48.33285" lon="2.74341">
        <ele>61</ele>
        <time>2022-11-23T12:39:46.449Z</time>
      </trkpt>
      <trkpt lat="48.33287" lon="2.74349">
        <ele>61</ele>
        <time>2022-11-23T12:39:50.465Z</time>
      </trkpt>
      <trkpt lat="48.33291" lon="2.74358">
        <ele>61</ele>
        <time>2022-11-23T12:39:55.180Z</time>
      </trkpt>
      <trkpt lat="48.33294" lon="2.74368">
        <ele>64</ele>
        <time>2022-11-23T12:40:00.160Z</time>
      </trkpt>
      <trkpt lat="48.33298" lon="2.74374">
        <ele>64</ele>
        <time>2022-11-23T12:40:04.429Z</time>
      </trkpt>
      <trkpt lat="48.33298" lon="2.74383">
        <ele>63</ele>
        <time>2022-11-23T12:40:09.205Z</time>
      </trkpt>
      <trkpt lat="48.333" lon="2.7439">
        <ele>63</ele>
        <time>2022-11-23T12:40:13.426Z</time>
      </trkpt>
      <trkpt lat="48.33306" lon="2.74395">
        <ele>63</ele>
        <time>2022-11-23T12:40:17.836Z</time>
      </trkpt>
      <trkpt lat="48.33311" lon="2.74402">
        <ele>63</ele>
        <time>2022-11-23T12:40:22.424Z</time>
      </trkpt>
      <trkpt lat="48.33316" lon="2.7441">
        <ele>60</ele>
        <time>2022-11-23T12:40:27.141Z</time>
      </trkpt>
      <trkpt lat="48.33319" lon="2.74418">
        <ele>60</ele>
        <time>2022-11-23T12:40:31.429Z</time>
      </trkpt>
      <trkpt lat="48.33324" lon="2.74424">
        <ele>66</ele>
        <time>2022-11-23T12:40:35.764Z</time>
      </trkpt>
      <trkpt lat="48.33327" lon="2.7443">
        <ele>66</ele>
        <time>2022-11-23T12:40:40.279Z</time>
      </trkpt>
      <trkpt lat="48.33331" lon="2.74436">
        <ele>63</ele>
        <time>2022-11-23T12:40:45.428Z</time>
      </trkpt>
      <trkpt lat="48.33335" lon="2.74443">
        <ele>63</ele>
        <time>2022-11-23T12:40:50.101Z</time>
      </trkpt>
      <trkpt lat="48.33339" lon="2.74452">
        <ele>63</ele>
        <time>2022-11-23T12:40:54.432Z</time>
      </trkpt>
      <trkpt lat="48.33342" lon="2.74464">
        <ele>61</ele>
        <time>2022-11-23T12:40:59.364Z</time>
      </trkpt>
      <trkpt lat="48.33345" lon="2.74471">
        <ele>61</ele>
        <time>2022-11-23T12:41:03.447Z</time>
      </trkpt>
      <trkpt lat="48.33346" lon="2.74478">
        <ele>61</ele>
        <time>2022-11-23T12:41:07.947Z</time>
      </trkpt>
      <trkpt lat="48.33353" lon="2.74485">
        <ele>64</ele>
        <time>2022-11-23T12:41:12.085Z</time>
      </trkpt>
      <trkpt lat="48.33357" lon="2.74488">
        <ele>61</ele>
        <time>2022-11-23T12:41:16.202Z</time>
      </trkpt>
      <trkpt lat="48.33361" lon="2.74494">
        <ele>61</ele>
        <time>2022-11-23T12:41:20.302Z</time>
      </trkpt>
      <trkpt lat="48.33365" lon="2.74503">
        <ele>61</ele>
        <time>2022-11-23T12:41:24.836Z</time>
      </trkpt>
      <trkpt lat="48.3337" lon="2.74509">
        <ele>61</ele>
        <time>2022-11-23T12:41:29.431Z</time>
      </trkpt>
      <trkpt lat="48.33373" lon="2.74515">
        <ele>57</ele>
        <time>2022-11-23T12:41:33.428Z</time>
      </trkpt>
      <trkpt lat="48.33377" lon="2.74519">
        <ele>62</ele>
        <time>2022-11-23T12:41:38.038Z</time>
      </trkpt>
      <trkpt lat="48.33381" lon="2.74529">
        <ele>62</ele>
        <time>2022-11-23T12:41:42.475Z</time>
      </trkpt>
      <trkpt lat="48.33383" lon="2.74538">
        <ele>62</ele>
        <time>2022-11-23T12:41:47.235Z</time>
      </trkpt>
      <trkpt lat="48.33389" lon="2.74545">
        <ele>59</ele>
        <time>2022-11-23T12:41:51.442Z</time>
      </trkpt>
      <trkpt lat="48.33392" lon="2.74553">
        <ele>59</ele>
        <time>2022-11-23T12:41:56.016Z</time>
      </trkpt>
      <trkpt lat="48.334" lon="2.74562">
        <ele>59</ele>
        <time>2022-11-23T12:42:04.430Z</time>
      </trkpt>
      <trkpt lat="48.33399" lon="2.74565">
        <ele>59</ele>
        <time>2022-11-23T12:42:09.425Z</time>
      </trkpt>
      <trkpt lat="48.33398" lon="2.74566">
        <ele>59</ele>
        <time>2022-11-23T12:42:14.429Z</time>
      </trkpt>
      <trkpt lat="48.334" lon="2.74569">
        <ele>59</ele>
        <time>2022-11-23T12:42:19.315Z</time>
      </trkpt>
      <trkpt lat="48.33406" lon="2.74578">
        <ele>61</ele>
        <time>2022-11-23T12:42:23.425Z</time>
      </trkpt>
      <trkpt lat="48.33409" lon="2.74589">
        <ele>61</ele>
        <time>2022-11-23T12:42:27.720Z</time>
      </trkpt>
      <trkpt lat="48.33413" lon="2.74597">
        <ele>61</ele>
        <time>2022-11-23T12:42:32.436Z</time>
      </trkpt>
      <trkpt lat="48.33417" lon="2.74605">
        <ele>60</ele>
        <time>2022-11-23T12:42:37.002Z</time>
      </trkpt>
      <trkpt lat="48.33419" lon="2.74611">
        <ele>60</ele>
        <time>2022-11-23T12:42:41.322Z</time>
      </trkpt>
      <trkpt lat="48.33421" lon="2.74615">
        <ele>60</ele>
        <time>2022-11-23T12:42:45.358Z</time>
      </trkpt>
      <trkpt lat="48.33425" lon="2.74619">
        <ele>60</ele>
        <time>2022-11-23T12:42:49.462Z</time>
      </trkpt>
      <trkpt lat="48.3343" lon="2.74621">
        <ele>60</ele>
        <time>2022-11-23T12:42:53.978Z</time>
      </trkpt>
      <trkpt lat="48.33436" lon="2.74617">
        <ele>62</ele>
        <time>2022-11-23T12:42:58.434Z</time>
      </trkpt>
      <trkpt lat="48.33442" lon="2.74612">
        <ele>62</ele>
        <time>2022-11-23T12:43:03.430Z</time>
      </trkpt>
      <trkpt lat="48.33448" lon="2.74607">
        <ele>62</ele>
        <time>2022-11-23T12:43:08.315Z</time>
      </trkpt>
      <trkpt lat="48.33453" lon="2.74607">
        <ele>62</ele>
        <time>2022-11-23T12:43:12.438Z</time>
      </trkpt>
      <trkpt lat="48.33455" lon="2.74611">
        <ele>62</ele>
        <time>2022-11-23T12:43:17.003Z</time>
      </trkpt>
      <trkpt lat="48.33457" lon="2.74616">
        <ele>62</ele>
        <time>2022-11-23T12:43:21.355Z</time>
      </trkpt>
      <trkpt lat="48.33461" lon="2.74626">
        <ele>61</ele>
        <time>2022-11-23T12:43:26.361Z</time>
      </trkpt>
      <trkpt lat="48.33465" lon="2.74637">
        <ele>61</ele>
        <time>2022-11-23T12:43:31.422Z</time>
      </trkpt>
      <trkpt lat="48.3347" lon="2.74641">
        <ele>61</ele>
        <time>2022-11-23T12:43:36.478Z</time>
      </trkpt>
      <trkpt lat="48.33476" lon="2.74658">
        <ele>59</ele>
        <time>2022-11-23T12:45:00.082Z</time>
      </trkpt>
      <trkpt lat="48.33476" lon="2.7466">
        <ele>59</ele>
        <time>2022-11-23T12:45:04.401Z</time>
      </trkpt>
      <trkpt lat="48.33475" lon="2.74661">
        <ele>59</ele>
        <time>2022-11-23T12:45:08.443Z</time>
      </trkpt>
      <trkpt lat="48.33476" lon="2.74666">
        <ele>59</ele>
        <time>2022-11-23T12:45:13.174Z</time>
      </trkpt>
      <trkpt lat="48.3348" lon="2.74669">
        <ele>59</ele>
        <time>2022-11-23T12:45:17.449Z</time>
      </trkpt>
      <trkpt lat="48.3348" lon="2.74672">
        <ele>59</ele>
        <time>2022-11-23T12:45:21.438Z</time>
      </trkpt>
      <trkpt lat="48.3348" lon="2.74675">
        <ele>59</ele>
        <time>2022-11-23T12:45:25.444Z</time>
      </trkpt>
      <trkpt lat="48.3348" lon="2.74681">
        <ele>57</ele>
        <time>2022-11-23T12:45:30.199Z</time>
      </trkpt>
      <trkpt lat="48.33477" lon="2.74687">
        <ele>57</ele>
        <time>2022-11-23T12:45:34.357Z</time>
      </trkpt>
      <trkpt lat="48.33475" lon="2.74698">
        <ele>57</ele>
        <time>2022-11-23T12:45:39.117Z</time>
      </trkpt>
      <trkpt lat="48.33476" lon="2.74708">
        <ele>57</ele>
        <time>2022-11-23T12:45:43.439Z</time>
      </trkpt>
      <trkpt lat="48.33475" lon="2.74716">
        <ele>54</ele>
        <time>2022-11-23T12:45:48.195Z</time>
      </trkpt>
      <trkpt lat="48.33473" lon="2.74723">
        <ele>54</ele>
        <time>2022-11-23T12:45:53.430Z</time>
      </trkpt>
      <trkpt lat="48.33474" lon="2.7473">
        <ele>54</ele>
        <time>2022-11-23T12:45:57.450Z</time>
      </trkpt>
      <trkpt lat="48.33478" lon="2.74739">
        <ele>54</ele>
        <time>2022-11-23T12:46:02.220Z</time>
      </trkpt>
      <trkpt lat="48.3348" lon="2.74748">
        <ele>54</ele>
        <time>2022-11-23T12:46:06.431Z</time>
      </trkpt>
      <trkpt lat="48.3348" lon="2.74756">
        <ele>54</ele>
        <time>2022-11-23T12:46:11.322Z</time>
      </trkpt>
      <trkpt lat="48.33481" lon="2.74764">
        <ele>54</ele>
        <time>2022-11-23T12:46:16.366Z</time>
      </trkpt>
      <trkpt lat="48.33483" lon="2.74771">
        <ele>54</ele>
        <time>2022-11-23T12:46:20.678Z</time>
      </trkpt>
      <trkpt lat="48.33487" lon="2.74778">
        <ele>59</ele>
        <time>2022-11-23T12:46:25.423Z</time>
      </trkpt>
      <trkpt lat="48.33487" lon="2.74781">
        <ele>59</ele>
        <time>2022-11-23T12:46:29.904Z</time>
      </trkpt>
      <trkpt lat="48.33485" lon="2.74785">
        <ele>54</ele>
        <time>2022-11-23T12:46:34.100Z</time>
      </trkpt>
      <trkpt lat="48.33482" lon="2.74792">
        <ele>54</ele>
        <time>2022-11-23T12:46:38.412Z</time>
      </trkpt>
      <trkpt lat="48.3348" lon="2.74802">
        <ele>55</ele>
        <time>2022-11-23T12:46:42.942Z</time>
      </trkpt>
      <trkpt lat="48.33476" lon="2.74807">
        <ele>55</ele>
        <time>2022-11-23T12:46:47.436Z</time>
      </trkpt>
      <trkpt lat="48.3347" lon="2.74808">
        <ele>55</ele>
        <time>2022-11-23T12:46:52.366Z</time>
      </trkpt>
      <trkpt lat="48.33464" lon="2.74809">
        <ele>55</ele>
        <time>2022-11-23T12:46:56.977Z</time>
      </trkpt>
      <trkpt lat="48.33459" lon="2.7481">
        <ele>55</ele>
        <time>2022-11-23T12:47:01.436Z</time>
      </trkpt>
      <trkpt lat="48.33459" lon="2.7481">
        <ele>55</ele>
        <time>2022-11-23T12:47:06.446Z</time>
      </trkpt>
      <trkpt lat="48.3346" lon="2.74811">
        <ele>55</ele>
        <time>2022-11-23T12:47:11.426Z</time>
      </trkpt>
      <trkpt lat="48.3346" lon="2.74812">
        <ele>55</ele>
        <time>2022-11-23T12:47:16.021Z</time>
      </trkpt>
      <trkpt lat="48.33459" lon="2.74808">
        <ele>55</ele>
        <time>2022-11-23T12:47:20.105Z</time>
      </trkpt>
      <trkpt lat="48.33465" lon="2.74805">
        <ele>55</ele>
        <time>2022-11-23T12:47:24.442Z</time>
      </trkpt>
      <trkpt lat="48.33473" lon="2.74804">
        <ele>55</ele>
        <time>2022-11-23T12:47:28.638Z</time>
      </trkpt>
      <trkpt lat="48.33477" lon="2.74798">
        <ele>55</ele>
        <time>2022-11-23T12:47:32.897Z</time>
      </trkpt>
      <trkpt lat="48.33478" lon="2.7479">
        <ele>54</ele>
        <time>2022-11-23T12:47:37.160Z</time>
      </trkpt>
      <trkpt lat="48.3348" lon="2.74783">
        <ele>54</ele>
        <time>2022-11-23T12:47:41.282Z</time>
      </trkpt>
      <trkpt lat="48.3348" lon="2.7478">
        <ele>54</ele>
        <time>2022-11-23T12:47:45.920Z</time>
      </trkpt>
      <trkpt lat="48.3348" lon="2.74784">
        <ele>54</ele>
        <time>2022-11-23T12:47:50.432Z</time>
      </trkpt>
      <trkpt lat="48.33479" lon="2.74793">
        <ele>55</ele>
        <time>2022-11-23T12:47:54.434Z</time>
      </trkpt>
      <trkpt lat="48.33481" lon="2.74803">
        <ele>55</ele>
        <time>2022-11-23T12:47:59.437Z</time>
      </trkpt>
      <trkpt lat="48.33481" lon="2.74813">
        <ele>55</ele>
        <time>2022-11-23T12:48:03.430Z</time>
      </trkpt>
      <trkpt lat="48.33484" lon="2.74823">
        <ele>55</ele>
        <time>2022-11-23T12:48:08.423Z</time>
      </trkpt>
      <trkpt lat="48.33485" lon="2.74823">
        <ele>55</ele>
        <time>2022-11-23T12:48:12.448Z</time>
      </trkpt>
      <trkpt lat="48.33485" lon="2.74822">
        <ele>55</ele>
        <time>2022-11-23T12:48:16.466Z</time>
      </trkpt>
      <trkpt lat="48.33486" lon="2.74829">
        <ele>60</ele>
        <time>2022-11-23T12:48:21.449Z</time>
      </trkpt>
      <trkpt lat="48.33489" lon="2.74835">
        <ele>60</ele>
        <time>2022-11-23T12:48:25.463Z</time>
      </trkpt>
      <trkpt lat="48.33489" lon="2.74845">
        <ele>60</ele>
        <time>2022-11-23T12:48:30.097Z</time>
      </trkpt>
      <trkpt lat="48.3349" lon="2.74854">
        <ele>60</ele>
        <time>2022-11-23T12:48:34.437Z</time>
      </trkpt>
      <trkpt lat="48.33489" lon="2.74862">
        <ele>60</ele>
        <time>2022-11-23T12:48:38.640Z</time>
      </trkpt>
      <trkpt lat="48.33486" lon="2.74869">
        <ele>55</ele>
        <time>2022-11-23T12:48:43.041Z</time>
      </trkpt>
      <trkpt lat="48.33484" lon="2.74877">
        <ele>55</ele>
        <time>2022-11-23T12:48:47.103Z</time>
      </trkpt>
      <trkpt lat="48.33484" lon="2.74884">
        <ele>55</ele>
        <time>2022-11-23T12:48:51.236Z</time>
      </trkpt>
      <trkpt lat="48.33484" lon="2.74892">
        <ele>55</ele>
        <time>2022-11-23T12:48:55.317Z</time>
      </trkpt>
      <trkpt lat="48.33487" lon="2.74901">
        <ele>60</ele>
        <time>2022-11-23T12:48:59.444Z</time>
      </trkpt>
      <trkpt lat="48.3349" lon="2.74902">
        <ele>60</ele>
        <time>2022-11-23T12:49:03.820Z</time>
      </trkpt>
      <trkpt lat="48.33491" lon="2.74905">
        <ele>61</ele>
        <time>2022-11-23T12:49:08.091Z</time>
      </trkpt>
      <trkpt lat="48.33491" lon="2.74909">
        <ele>61</ele>
        <time>2022-11-23T12:49:12.329Z</time>
      </trkpt>
      <trkpt lat="48.33492" lon="2.74918">
        <ele>61</ele>
        <time>2022-11-23T12:49:16.460Z</time>
      </trkpt>
      <trkpt lat="48.33497" lon="2.74936">
        <ele>62</ele>
        <time>2022-11-23T12:49:20.636Z</time>
      </trkpt>
      <trkpt lat="48.33496" lon="2.74945">
        <ele>62</ele>
        <time>2022-11-23T12:49:25.435Z</time>
      </trkpt>
      <trkpt lat="48.33493" lon="2.7495">
        <ele>62</ele>
        <time>2022-11-23T12:49:29.441Z</time>
      </trkpt>
      <trkpt lat="48.33493" lon="2.74951">
        <ele>62</ele>
        <time>2022-11-23T12:49:34.258Z</time>
      </trkpt>
      <trkpt lat="48.33492" lon="2.74954">
        <ele>62</ele>
        <time>2022-11-23T12:49:38.442Z</time>
      </trkpt>
      <trkpt lat="48.33492" lon="2.74957">
        <ele>62</ele>
        <time>2022-11-23T12:49:43.418Z</time>
      </trkpt>
      <trkpt lat="48.33492" lon="2.74958">
        <ele>62</ele>
        <time>2022-11-23T12:49:48.118Z</time>
      </trkpt>
      <trkpt lat="48.33485" lon="2.7496">
        <ele>56</ele>
        <time>2022-11-23T12:49:52.263Z</time>
      </trkpt>
      <trkpt lat="48.33479" lon="2.74966">
        <ele>56</ele>
        <time>2022-11-23T12:49:56.344Z</time>
      </trkpt>
      <trkpt lat="48.3347" lon="2.74968">
        <ele>56</ele>
        <time>2022-11-23T12:50:19.866Z</time>
      </trkpt>
      <trkpt lat="48.33469" lon="2.7497">
        <ele>56</ele>
        <time>2022-11-23T12:50:24.285Z</time>
      </trkpt>
      <trkpt lat="48.33468" lon="2.7497">
        <ele>56</ele>
        <time>2022-11-23T12:50:28.438Z</time>
      </trkpt>
      <trkpt lat="48.33469" lon="2.74981">
        <ele>56</ele>
        <time>2022-11-23T12:50:33.431Z</time>
      </trkpt>
      <trkpt lat="48.33469" lon="2.74983">
        <ele>56</ele>
        <time>2022-11-23T12:50:37.423Z</time>
      </trkpt>
      <trkpt lat="48.33471" lon="2.74972">
        <ele>56</ele>
        <time>2022-11-23T12:51:44.451Z</time>
      </trkpt>
      <trkpt lat="48.33471" lon="2.74971">
        <ele>56</ele>
        <time>2022-11-23T12:51:48.449Z</time>
      </trkpt>
      <trkpt lat="48.33471" lon="2.74971">
        <ele>56</ele>
        <time>2022-11-23T12:51:52.462Z</time>
      </trkpt>
      <trkpt lat="48.33472" lon="2.74969">
        <ele>56</ele>
        <time>2022-11-23T12:51:57.448Z</time>
      </trkpt>
      <trkpt lat="48.33477" lon="2.74967">
        <ele>56</ele>
        <time>2022-11-23T12:52:01.839Z</time>
      </trkpt>
      <trkpt lat="48.33484" lon="2.74966">
        <ele>56</ele>
        <time>2022-11-23T12:52:06.257Z</time>
      </trkpt>
      <trkpt lat="48.3349" lon="2.74963">
        <ele>59</ele>
        <time>2022-11-23T12:52:10.448Z</time>
      </trkpt>
      <trkpt lat="48.33496" lon="2.74959">
        <ele>59</ele>
        <time>2022-11-23T12:52:14.936Z</time>
      </trkpt>
      <trkpt lat="48.33499" lon="2.74954">
        <ele>62</ele>
        <time>2022-11-23T12:52:19.451Z</time>
      </trkpt>
      <trkpt lat="48.335" lon="2.7495">
        <ele>62</ele>
        <time>2022-11-23T12:52:24.450Z</time>
      </trkpt>
      <trkpt lat="48.33498" lon="2.74945">
        <ele>62</ele>
        <time>2022-11-23T12:52:29.454Z</time>
      </trkpt>
      <trkpt lat="48.33497" lon="2.74942">
        <ele>62</ele>
        <time>2022-11-23T12:52:34.261Z</time>
      </trkpt>
      <trkpt lat="48.33497" lon="2.74935">
        <ele>62</ele>
        <time>2022-11-23T12:52:38.441Z</time>
      </trkpt>
      <trkpt lat="48.33497" lon="2.74928">
        <ele>61</ele>
        <time>2022-11-23T12:52:43.376Z</time>
      </trkpt>
      <trkpt lat="48.33496" lon="2.7492">
        <ele>61</ele>
        <time>2022-11-23T12:52:47.453Z</time>
      </trkpt>
      <trkpt lat="48.33493" lon="2.74909">
        <ele>61</ele>
        <time>2022-11-23T12:52:51.835Z</time>
      </trkpt>
      <trkpt lat="48.3349" lon="2.74898">
        <ele>60</ele>
        <time>2022-11-23T12:52:56.160Z</time>
      </trkpt>
      <trkpt lat="48.33489" lon="2.74891">
        <ele>60</ele>
        <time>2022-11-23T12:53:00.448Z</time>
      </trkpt>
      <trkpt lat="48.33486" lon="2.74888">
        <ele>55</ele>
        <time>2022-11-23T12:53:04.619Z</time>
      </trkpt>
      <trkpt lat="48.33487" lon="2.7488">
        <ele>60</ele>
        <time>2022-11-23T12:53:08.703Z</time>
      </trkpt>
      <trkpt lat="48.33488" lon="2.7487">
        <ele>60</ele>
        <time>2022-11-23T12:53:12.763Z</time>
      </trkpt>
      <trkpt lat="48.33486" lon="2.7486">
        <ele>60</ele>
        <time>2022-11-23T12:53:16.834Z</time>
      </trkpt>
      <trkpt lat="48.33486" lon="2.7485">
        <ele>55</ele>
        <time>2022-11-23T12:53:21.178Z</time>
      </trkpt>
      <trkpt lat="48.33487" lon="2.74841">
        <ele>60</ele>
        <time>2022-11-23T12:53:25.441Z</time>
      </trkpt>
      <trkpt lat="48.33486" lon="2.74833">
        <ele>60</ele>
        <time>2022-11-23T12:53:30.284Z</time>
      </trkpt>
      <trkpt lat="48.33486" lon="2.74825">
        <ele>55</ele>
        <time>2022-11-23T12:53:34.444Z</time>
      </trkpt>
      <trkpt lat="48.33487" lon="2.74814">
        <ele>59</ele>
        <time>2022-11-23T12:53:39.462Z</time>
      </trkpt>
      <trkpt lat="48.33485" lon="2.74802">
        <ele>55</ele>
        <time>2022-11-23T12:53:44.116Z</time>
      </trkpt>
      <trkpt lat="48.33484" lon="2.74794">
        <ele>55</ele>
        <time>2022-11-23T12:53:48.298Z</time>
      </trkpt>
      <trkpt lat="48.33485" lon="2.74784">
        <ele>54</ele>
        <time>2022-11-23T12:53:52.559Z</time>
      </trkpt>
      <trkpt lat="48.33485" lon="2.74775">
        <ele>54</ele>
        <time>2022-11-23T12:53:56.959Z</time>
      </trkpt>
      <trkpt lat="48.33482" lon="2.74767">
        <ele>54</ele>
        <time>2022-11-23T12:54:01.222Z</time>
      </trkpt>
      <trkpt lat="48.33481" lon="2.7476">
        <ele>54</ele>
        <time>2022-11-23T12:54:05.621Z</time>
      </trkpt>
      <trkpt lat="48.33481" lon="2.74753">
        <ele>54</ele>
        <time>2022-11-23T12:54:09.824Z</time>
      </trkpt>
      <trkpt lat="48.3348" lon="2.74745">
        <ele>54</ele>
        <time>2022-11-23T12:54:14.240Z</time>
      </trkpt>
      <trkpt lat="48.33479" lon="2.74738">
        <ele>54</ele>
        <time>2022-11-23T12:54:18.254Z</time>
      </trkpt>
      <trkpt lat="48.33479" lon="2.74731">
        <ele>54</ele>
        <time>2022-11-23T12:54:22.955Z</time>
      </trkpt>
      <trkpt lat="48.33477" lon="2.74722">
        <ele>54</ele>
        <time>2022-11-23T12:54:48.432Z</time>
      </trkpt>
      <trkpt lat="48.33477" lon="2.74719">
        <ele>54</ele>
        <time>2022-11-23T12:54:52.440Z</time>
      </trkpt>
      <trkpt lat="48.33479" lon="2.74705">
        <ele>57</ele>
        <time>2022-11-23T12:54:56.661Z</time>
      </trkpt>
      <trkpt lat="48.3348" lon="2.74695">
        <ele>57</ele>
        <time>2022-11-23T12:55:00.664Z</time>
      </trkpt>
      <trkpt lat="48.3348" lon="2.74684">
        <ele>57</ele>
        <time>2022-11-23T12:55:05.142Z</time>
      </trkpt>
      <trkpt lat="48.33482" lon="2.74674">
        <ele>59</ele>
        <time>2022-11-23T12:55:09.136Z</time>
      </trkpt>
      <trkpt lat="48.33482" lon="2.74665">
        <ele>59</ele>
        <time>2022-11-23T12:55:13.141Z</time>
      </trkpt>
      <trkpt lat="48.33485" lon="2.74656">
        <ele>59</ele>
        <time>2022-11-23T12:55:17.443Z</time>
      </trkpt>
      <trkpt lat="48.33487" lon="2.74646">
        <ele>61</ele>
        <time>2022-11-23T12:55:22.434Z</time>
      </trkpt>
      <trkpt lat="48.33487" lon="2.74636">
        <ele>61</ele>
        <time>2022-11-23T12:55:26.916Z</time>
      </trkpt>
      <trkpt lat="48.33488" lon="2.74626">
        <ele>61</ele>
        <time>2022-11-23T12:55:31.242Z</time>
      </trkpt>
      <trkpt lat="48.33492" lon="2.74615">
        <ele>62</ele>
        <time>2022-11-23T12:55:36.100Z</time>
      </trkpt>
      <trkpt lat="48.33495" lon="2.74606">
        <ele>62</ele>
        <time>2022-11-23T12:55:40.458Z</time>
      </trkpt>
      <trkpt lat="48.33496" lon="2.74595">
        <ele>63</ele>
        <time>2022-11-23T12:55:44.996Z</time>
      </trkpt>
      <trkpt lat="48.33498" lon="2.74584">
        <ele>63</ele>
        <time>2022-11-23T12:55:49.436Z</time>
      </trkpt>
      <trkpt lat="48.335" lon="2.74573">
        <ele>63</ele>
        <time>2022-11-23T12:55:54.484Z</time>
      </trkpt>
      <trkpt lat="48.33502" lon="2.74563">
        <ele>65</ele>
        <time>2022-11-23T12:55:59.455Z</time>
      </trkpt>
      <trkpt lat="48.33503" lon="2.74554">
        <ele>65</ele>
        <time>2022-11-23T12:56:03.880Z</time>
      </trkpt>
      <trkpt lat="48.33507" lon="2.74544">
        <ele>65</ele>
        <time>2022-11-23T12:56:08.459Z</time>
      </trkpt>
      <trkpt lat="48.33511" lon="2.74534">
        <ele>67</ele>
        <time>2022-11-23T12:56:13.441Z</time>
      </trkpt>
      <trkpt lat="48.33515" lon="2.74525">
        <ele>66</ele>
        <time>2022-11-23T12:56:18.039Z</time>
      </trkpt>
      <trkpt lat="48.33518" lon="2.74518">
        <ele>66</ele>
        <time>2022-11-23T12:56:22.251Z</time>
      </trkpt>
      <trkpt lat="48.33521" lon="2.74511">
        <ele>68</ele>
        <time>2022-11-23T12:56:26.448Z</time>
      </trkpt>
      <trkpt lat="48.33527" lon="2.74507">
        <ele>68</ele>
        <time>2022-11-23T12:56:31.120Z</time>
      </trkpt>
      <trkpt lat="48.33532" lon="2.74504">
        <ele>68</ele>
        <time>2022-11-23T12:56:35.320Z</time>
      </trkpt>
      <trkpt lat="48.33536" lon="2.74501">
        <ele>68</ele>
        <time>2022-11-23T12:56:39.760Z</time>
      </trkpt>
      <trkpt lat="48.33539" lon="2.74499">
        <ele>68</ele>
        <time>2022-11-23T12:56:44.218Z</time>
      </trkpt>
      <trkpt lat="48.33541" lon="2.74499">
        <ele>68</ele>
        <time>2022-11-23T12:56:48.326Z</time>
      </trkpt>
      <trkpt lat="48.33545" lon="2.74499">
        <ele>68</ele>
        <time>2022-11-23T12:56:52.462Z</time>
      </trkpt>
      <trkpt lat="48.3355" lon="2.74497">
        <ele>68</ele>
        <time>2022-11-23T12:56:56.472Z</time>
      </trkpt>
      <trkpt lat="48.33554" lon="2.74495">
        <ele>68</ele>
        <time>2022-11-23T12:57:01.445Z</time>
      </trkpt>
      <trkpt lat="48.33559" lon="2.7449">
        <ele>68</ele>
        <time>2022-11-23T12:57:05.460Z</time>
      </trkpt>
      <trkpt lat="48.33566" lon="2.74484">
        <ele>68</ele>
        <time>2022-11-23T12:57:09.899Z</time>
      </trkpt>
      <trkpt lat="48.33572" lon="2.7448">
        <ele>69</ele>
        <time>2022-11-23T12:57:14.123Z</time>
      </trkpt>
      <trkpt lat="48.33577" lon="2.74477">
        <ele>69</ele>
        <time>2022-11-23T12:57:18.222Z</time>
      </trkpt>
      <trkpt lat="48.33584" lon="2.74469">
        <ele>69</ele>
        <time>2022-11-23T12:57:22.462Z</time>
      </trkpt>
      <trkpt lat="48.3359" lon="2.74463">
        <ele>69</ele>
        <time>2022-11-23T12:57:26.975Z</time>
      </trkpt>
      <trkpt lat="48.33595" lon="2.74459">
        <ele>69</ele>
        <time>2022-11-23T12:57:31.303Z</time>
      </trkpt>
      <trkpt lat="48.336" lon="2.74455">
        <ele>70</ele>
        <time>2022-11-23T12:57:35.444Z</time>
      </trkpt>
      <trkpt lat="48.33605" lon="2.74458">
        <ele>71</ele>
        <time>2022-11-23T12:57:39.456Z</time>
      </trkpt>
      <trkpt lat="48.33612" lon="2.7446">
        <ele>71</ele>
        <time>2022-11-23T12:57:44.138Z</time>
      </trkpt>
      <trkpt lat="48.33619" lon="2.7446">
        <ele>71</ele>
        <time>2022-11-23T12:57:49.344Z</time>
      </trkpt>
      <trkpt lat="48.33624" lon="2.74459">
        <ele>71</ele>
        <time>2022-11-23T12:57:53.368Z</time>
      </trkpt>
      <trkpt lat="48.33626" lon="2.74458">
        <ele>73</ele>
        <time>2022-11-23T12:57:57.479Z</time>
      </trkpt>
      <trkpt lat="48.33629" lon="2.74456">
        <ele>71</ele>
        <time>2022-11-23T12:58:02.430Z</time>
      </trkpt>
      <trkpt lat="48.33633" lon="2.74455">
        <ele>71</ele>
        <time>2022-11-23T12:58:06.433Z</time>
      </trkpt>
      <trkpt lat="48.33638" lon="2.74457">
        <ele>71</ele>
        <time>2022-11-23T12:58:10.927Z</time>
      </trkpt>
      <trkpt lat="48.33641" lon="2.74454">
        <ele>71</ele>
        <time>2022-11-23T12:58:15.445Z</time>
      </trkpt>
      <trkpt lat="48.33644" lon="2.74454">
        <ele>71</ele>
        <time>2022-11-23T12:58:20.177Z</time>
      </trkpt>
      <trkpt lat="48.33644" lon="2.74451">
        <ele>71</ele>
        <time>2022-11-23T12:58:24.470Z</time>
      </trkpt>
      <trkpt lat="48.33647" lon="2.74444">
        <ele>71</ele>
        <time>2022-11-23T12:58:28.458Z</time>
      </trkpt>
      <trkpt lat="48.33655" lon="2.74439">
        <ele>72</ele>
        <time>2022-11-23T12:58:33.421Z</time>
      </trkpt>
      <trkpt lat="48.3366" lon="2.74439">
        <ele>72</ele>
        <time>2022-11-23T12:58:37.662Z</time>
      </trkpt>
      <trkpt lat="48.33663" lon="2.7444">
        <ele>72</ele>
        <time>2022-11-23T12:58:42.431Z</time>
      </trkpt>
      <trkpt lat="48.33663" lon="2.74443">
        <ele>72</ele>
        <time>2022-11-23T12:58:46.794Z</time>
      </trkpt>
      <trkpt lat="48.33667" lon="2.74447">
        <ele>72</ele>
        <time>2022-11-23T12:58:51.003Z</time>
      </trkpt>
      <trkpt lat="48.33672" lon="2.74451">
        <ele>72</ele>
        <time>2022-11-23T12:58:55.058Z</time>
      </trkpt>
      <trkpt lat="48.3368" lon="2.74452">
        <ele>72</ele>
        <time>2022-11-23T12:58:59.198Z</time>
      </trkpt>
      <trkpt lat="48.33685" lon="2.74453">
        <ele>72</ele>
        <time>2022-11-23T12:59:03.300Z</time>
      </trkpt>
      <trkpt lat="48.33692" lon="2.74454">
        <ele>72</ele>
        <time>2022-11-23T12:59:08.180Z</time>
      </trkpt>
      <trkpt lat="48.33698" lon="2.74456">
        <ele>72</ele>
        <time>2022-11-23T12:59:12.219Z</time>
      </trkpt>
      <trkpt lat="48.33704" lon="2.74457">
        <ele>72</ele>
        <time>2022-11-23T12:59:16.800Z</time>
      </trkpt>
      <trkpt lat="48.33709" lon="2.74462">
        <ele>74</ele>
        <time>2022-11-23T12:59:21.124Z</time>
      </trkpt>
      <trkpt lat="48.33717" lon="2.74462">
        <ele>74</ele>
        <time>2022-11-23T12:59:25.462Z</time>
      </trkpt>
      <trkpt lat="48.33726" lon="2.74463">
        <ele>74</ele>
        <time>2022-11-23T12:59:30.143Z</time>
      </trkpt>
      <trkpt lat="48.33735" lon="2.74464">
        <ele>74</ele>
        <time>2022-11-23T12:59:34.396Z</time>
      </trkpt>
      <trkpt lat="48.33742" lon="2.74466">
        <ele>75</ele>
        <time>2022-11-23T12:59:38.436Z</time>
      </trkpt>
      <trkpt lat="48.33748" lon="2.74468">
        <ele>75</ele>
        <time>2022-11-23T12:59:43.157Z</time>
      </trkpt>
      <trkpt lat="48.33755" lon="2.7447">
        <ele>75</ele>
        <time>2022-11-23T12:59:47.448Z</time>
      </trkpt>
      <trkpt lat="48.3376" lon="2.74471">
        <ele>75</ele>
        <time>2022-11-23T12:59:51.878Z</time>
      </trkpt>
      <trkpt lat="48.33767" lon="2.74472">
        <ele>75</ele>
        <time>2022-11-23T12:59:56.458Z</time>
      </trkpt>
      <trkpt lat="48.33773" lon="2.74474">
        <ele>75</ele>
        <time>2022-11-23T13:00:00.977Z</time>
      </trkpt>
      <trkpt lat="48.33779" lon="2.74476">
        <ele>75</ele>
        <time>2022-11-23T13:00:05.440Z</time>
      </trkpt>
      <trkpt lat="48.33787" lon="2.74478">
        <ele>75</ele>
        <time>2022-11-23T13:00:10.439Z</time>
      </trkpt>
      <trkpt lat="48.33794" lon="2.74478">
        <ele>76</ele>
        <time>2022-11-23T13:00:15.322Z</time>
      </trkpt>
      <trkpt lat="48.338" lon="2.74477">
        <ele>76</ele>
        <time>2022-11-23T13:00:19.426Z</time>
      </trkpt>
      <trkpt lat="48.33806" lon="2.74477">
        <ele>76</ele>
        <time>2022-11-23T13:00:23.450Z</time>
      </trkpt>
      <trkpt lat="48.33813" lon="2.74479">
        <ele>76</ele>
        <time>2022-11-23T13:00:27.802Z</time>
      </trkpt>
      <trkpt lat="48.33819" lon="2.74477">
        <ele>76</ele>
        <time>2022-11-23T13:00:31.824Z</time>
      </trkpt>
      <trkpt lat="48.33825" lon="2.74477">
        <ele>77</ele>
        <time>2022-11-23T13:00:35.897Z</time>
      </trkpt>
      <trkpt lat="48.33832" lon="2.74476">
        <ele>77</ele>
        <time>2022-11-23T13:00:40.257Z</time>
      </trkpt>
      <trkpt lat="48.3384" lon="2.74477">
        <ele>77</ele>
        <time>2022-11-23T13:00:44.677Z</time>
      </trkpt>
      <trkpt lat="48.33846" lon="2.74478">
        <ele>77</ele>
        <time>2022-11-23T13:00:48.857Z</time>
      </trkpt>
      <trkpt lat="48.33852" lon="2.74478">
        <ele>79</ele>
        <time>2022-11-23T13:00:53.237Z</time>
      </trkpt>
      <trkpt lat="48.33857" lon="2.74478">
        <ele>79</ele>
        <time>2022-11-23T13:00:57.286Z</time>
      </trkpt>
      <trkpt lat="48.33863" lon="2.74482">
        <ele>79</ele>
        <time>2022-11-23T13:01:01.879Z</time>
      </trkpt>
      <trkpt lat="48.33864" lon="2.74484">
        <ele>79</ele>
        <time>2022-11-23T13:01:06.357Z</time>
      </trkpt>
      <trkpt lat="48.33865" lon="2.74486">
        <ele>79</ele>
        <time>2022-11-23T13:01:10.472Z</time>
      </trkpt>
      <trkpt lat="48.33867" lon="2.7449">
        <ele>80</ele>
        <time>2022-11-23T13:01:15.023Z</time>
      </trkpt>
      <trkpt lat="48.33872" lon="2.74491">
        <ele>80</ele>
        <time>2022-11-23T13:01:19.363Z</time>
      </trkpt>
      <trkpt lat="48.33876" lon="2.74491">
        <ele>81</ele>
        <time>2022-11-23T13:01:23.442Z</time>
      </trkpt>
      <trkpt lat="48.33879" lon="2.74492">
        <ele>81</ele>
        <time>2022-11-23T13:01:28.361Z</time>
      </trkpt>
      <trkpt lat="48.33883" lon="2.74495">
        <ele>81</ele>
        <time>2022-11-23T13:01:32.360Z</time>
      </trkpt>
      <trkpt lat="48.33887" lon="2.745">
        <ele>81</ele>
        <time>2022-11-23T13:01:36.457Z</time>
      </trkpt>
      <trkpt lat="48.33895" lon="2.74505">
        <ele>81</ele>
        <time>2022-11-23T13:01:41.428Z</time>
      </trkpt>
      <trkpt lat="48.339" lon="2.74509">
        <ele>81</ele>
        <time>2022-11-23T13:01:45.430Z</time>
      </trkpt>
      <trkpt lat="48.33906" lon="2.74513">
        <ele>81</ele>
        <time>2022-11-23T13:01:49.429Z</time>
      </trkpt>
      <trkpt lat="48.33911" lon="2.74522">
        <ele>84</ele>
        <time>2022-11-23T13:01:54.081Z</time>
      </trkpt>
      <trkpt lat="48.33915" lon="2.74525">
        <ele>84</ele>
        <time>2022-11-23T13:01:58.434Z</time>
      </trkpt>
      <trkpt lat="48.33919" lon="2.74528">
        <ele>84</ele>
        <time>2022-11-23T13:02:03.430Z</time>
      </trkpt>
      <trkpt lat="48.33922" lon="2.74533">
        <ele>84</ele>
        <time>2022-11-23T13:02:07.435Z</time>
      </trkpt>
      <trkpt lat="48.33926" lon="2.74539">
        <ele>84</ele>
        <time>2022-11-23T13:02:12.160Z</time>
      </trkpt>
      <trkpt lat="48.3393" lon="2.74545">
        <ele>87</ele>
        <time>2022-11-23T13:02:16.637Z</time>
      </trkpt>
      <trkpt lat="48.33932" lon="2.74552">
        <ele>89</ele>
        <time>2022-11-23T13:02:21.176Z</time>
      </trkpt>
      <trkpt lat="48.33934" lon="2.7456">
        <ele>89</ele>
        <time>2022-11-23T13:02:25.783Z</time>
      </trkpt>
      <trkpt lat="48.33935" lon="2.74568">
        <ele>89</ele>
        <time>2022-11-23T13:02:30.299Z</time>
      </trkpt>
      <trkpt lat="48.33937" lon="2.74576">
        <ele>90</ele>
        <time>2022-11-23T13:02:34.441Z</time>
      </trkpt>
      <trkpt lat="48.33937" lon="2.74585">
        <ele>90</ele>
        <time>2022-11-23T13:02:38.820Z</time>
      </trkpt>
      <trkpt lat="48.33939" lon="2.74592">
        <ele>90</ele>
        <time>2022-11-23T13:02:43.263Z</time>
      </trkpt>
      <trkpt lat="48.33939" lon="2.746">
        <ele>91</ele>
        <time>2022-11-23T13:02:47.437Z</time>
      </trkpt>
      <trkpt lat="48.3394" lon="2.7461">
        <ele>91</ele>
        <time>2022-11-23T13:02:51.802Z</time>
      </trkpt>
      <trkpt lat="48.33939" lon="2.7462">
        <ele>91</ele>
        <time>2022-11-23T13:02:56.035Z</time>
      </trkpt>
      <trkpt lat="48.33939" lon="2.74627">
        <ele>92</ele>
        <time>2022-11-23T13:03:00.075Z</time>
      </trkpt>
      <trkpt lat="48.33939" lon="2.74637">
        <ele>92</ele>
        <time>2022-11-23T13:03:04.444Z</time>
      </trkpt>
      <trkpt lat="48.3394" lon="2.74647">
        <ele>92</ele>
        <time>2022-11-23T13:03:09.400Z</time>
      </trkpt>
      <trkpt lat="48.3394" lon="2.74657">
        <ele>93</ele>
        <time>2022-11-23T13:03:13.825Z</time>
      </trkpt>
      <trkpt lat="48.3394" lon="2.74666">
        <ele>93</ele>
        <time>2022-11-23T13:03:18.102Z</time>
      </trkpt>
      <trkpt lat="48.3394" lon="2.74674">
        <ele>93</ele>
        <time>2022-11-23T13:03:22.454Z</time>
      </trkpt>
      <trkpt lat="48.3394" lon="2.74681">
        <ele>95</ele>
        <time>2022-11-23T13:03:26.458Z</time>
      </trkpt>
      <trkpt lat="48.33941" lon="2.7469">
        <ele>95</ele>
        <time>2022-11-23T13:03:30.883Z</time>
      </trkpt>
      <trkpt lat="48.33941" lon="2.74699">
        <ele>95</ele>
        <time>2022-11-23T13:03:35.443Z</time>
      </trkpt>
      <trkpt lat="48.33941" lon="2.74708">
        <ele>95</ele>
        <time>2022-11-23T13:03:40.456Z</time>
      </trkpt>
      <trkpt lat="48.3394" lon="2.74718">
        <ele>96</ele>
        <time>2022-11-23T13:03:45.446Z</time>
      </trkpt>
      <trkpt lat="48.3394" lon="2.74727">
        <ele>96</ele>
        <time>2022-11-23T13:03:49.995Z</time>
      </trkpt>
      <trkpt lat="48.33939" lon="2.74736">
        <ele>96</ele>
        <time>2022-11-23T13:03:54.006Z</time>
      </trkpt>
      <trkpt lat="48.3394" lon="2.74747">
        <ele>96</ele>
        <time>2022-11-23T13:03:58.470Z</time>
      </trkpt>
      <trkpt lat="48.3394" lon="2.74756">
        <ele>96</ele>
        <time>2022-11-23T13:04:02.943Z</time>
      </trkpt>
      <trkpt lat="48.3394" lon="2.74764">
        <ele>97</ele>
        <time>2022-11-23T13:04:07.161Z</time>
      </trkpt>
      <trkpt lat="48.33939" lon="2.74773">
        <ele>97</ele>
        <time>2022-11-23T13:04:11.360Z</time>
      </trkpt>
      <trkpt lat="48.33939" lon="2.74783">
        <ele>97</ele>
        <time>2022-11-23T13:04:15.698Z</time>
      </trkpt>
      <trkpt lat="48.33939" lon="2.74793">
        <ele>97</ele>
        <time>2022-11-23T13:04:20.040Z</time>
      </trkpt>
      <trkpt lat="48.33938" lon="2.748">
        <ele>97</ele>
        <time>2022-11-23T13:04:25.142Z</time>
      </trkpt>
      <trkpt lat="48.33937" lon="2.74808">
        <ele>97</ele>
        <time>2022-11-23T13:04:29.323Z</time>
      </trkpt>
      <trkpt lat="48.33936" lon="2.74818">
        <ele>97</ele>
        <time>2022-11-23T13:04:34.319Z</time>
      </trkpt>
      <trkpt lat="48.33933" lon="2.74827">
        <ele>98</ele>
        <time>2022-11-23T13:04:38.759Z</time>
      </trkpt>
      <trkpt lat="48.33933" lon="2.74835">
        <ele>98</ele>
        <time>2022-11-23T13:04:43.183Z</time>
      </trkpt>
      <trkpt lat="48.33933" lon="2.74843">
        <ele>98</ele>
        <time>2022-11-23T13:04:47.202Z</time>
      </trkpt>
      <trkpt lat="48.33934" lon="2.74853">
        <ele>98</ele>
        <time>2022-11-23T13:04:51.322Z</time>
      </trkpt>
      <trkpt lat="48.33934" lon="2.74862">
        <ele>98</ele>
        <time>2022-11-23T13:04:56.227Z</time>
      </trkpt>
      <trkpt lat="48.33935" lon="2.74872">
        <ele>98</ele>
        <time>2022-11-23T13:05:01.042Z</time>
      </trkpt>
      <trkpt lat="48.33936" lon="2.7488">
        <ele>99</ele>
        <time>2022-11-23T13:05:05.438Z</time>
      </trkpt>
      <trkpt lat="48.33936" lon="2.7489">
        <ele>99</ele>
        <time>2022-11-23T13:05:10.241Z</time>
      </trkpt>
      <trkpt lat="48.33937" lon="2.74901">
        <ele>99</ele>
        <time>2022-11-23T13:05:15.465Z</time>
      </trkpt>
      <trkpt lat="48.33938" lon="2.7491">
        <ele>100</ele>
        <time>2022-11-23T13:05:20.044Z</time>
      </trkpt>
      <trkpt lat="48.33939" lon="2.74918">
        <ele>100</ele>
        <time>2022-11-23T13:05:24.457Z</time>
      </trkpt>
      <trkpt lat="48.33941" lon="2.74927">
        <ele>100</ele>
        <time>2022-11-23T13:05:28.709Z</time>
      </trkpt>
      <trkpt lat="48.33943" lon="2.74935">
        <ele>101</ele>
        <time>2022-11-23T13:05:34.242Z</time>
      </trkpt>
      <trkpt lat="48.33946" lon="2.74942">
        <ele>101</ele>
        <time>2022-11-23T13:05:38.337Z</time>
      </trkpt>
      <trkpt lat="48.33949" lon="2.74949">
        <ele>101</ele>
        <time>2022-11-23T13:05:42.429Z</time>
      </trkpt>
      <trkpt lat="48.33952" lon="2.74963">
        <ele>101</ele>
        <time>2022-11-23T13:05:46.431Z</time>
      </trkpt>
      <trkpt lat="48.33951" lon="2.74973">
        <ele>101</ele>
        <time>2022-11-23T13:05:51.004Z</time>
      </trkpt>
      <trkpt lat="48.33952" lon="2.7498">
        <ele>101</ele>
        <time>2022-11-23T13:05:55.302Z</time>
      </trkpt>
      <trkpt lat="48.33953" lon="2.74987">
        <ele>100</ele>
        <time>2022-11-23T13:05:59.704Z</time>
      </trkpt>
      <trkpt lat="48.33955" lon="2.74995">
        <ele>100</ele>
        <time>2022-11-23T13:06:04.159Z</time>
      </trkpt>
      <trkpt lat="48.33957" lon="2.74999">
        <ele>100</ele>
        <time>2022-11-23T13:06:08.458Z</time>
      </trkpt>
      <trkpt lat="48.33959" lon="2.75005">
        <ele>101</ele>
        <time>2022-11-23T13:06:12.915Z</time>
      </trkpt>
      <trkpt lat="48.33962" lon="2.75014">
        <ele>101</ele>
        <time>2022-11-23T13:06:17.242Z</time>
      </trkpt>
      <trkpt lat="48.33963" lon="2.75023">
        <ele>101</ele>
        <time>2022-11-23T13:06:22.239Z</time>
      </trkpt>
      <trkpt lat="48.33964" lon="2.75029">
        <ele>101</ele>
        <time>2022-11-23T13:06:26.473Z</time>
      </trkpt>
      <trkpt lat="48.33964" lon="2.75039">
        <ele>101</ele>
        <time>2022-11-23T13:06:30.955Z</time>
      </trkpt>
      <trkpt lat="48.33965" lon="2.75048">
        <ele>100</ele>
        <time>2022-11-23T13:06:35.416Z</time>
      </trkpt>
      <trkpt lat="48.33965" lon="2.75059">
        <ele>100</ele>
        <time>2022-11-23T13:06:39.758Z</time>
      </trkpt>
      <trkpt lat="48.33965" lon="2.75067">
        <ele>100</ele>
        <time>2022-11-23T13:06:44.120Z</time>
      </trkpt>
      <trkpt lat="48.33967" lon="2.75076">
        <ele>99</ele>
        <time>2022-11-23T13:06:48.439Z</time>
      </trkpt>
      <trkpt lat="48.33967" lon="2.75084">
        <ele>99</ele>
        <time>2022-11-23T13:06:53.221Z</time>
      </trkpt>
      <trkpt lat="48.33968" lon="2.75093">
        <ele>99</ele>
        <time>2022-11-23T13:06:58.139Z</time>
      </trkpt>
      <trkpt lat="48.3397" lon="2.75107">
        <ele>98</ele>
        <time>2022-11-23T13:07:10.919Z</time>
      </trkpt>
      <trkpt lat="48.33972" lon="2.75106">
        <ele>98</ele>
        <time>2022-11-23T13:07:15.447Z</time>
      </trkpt>
      <trkpt lat="48.33972" lon="2.75107">
        <ele>98</ele>
        <time>2022-11-23T13:07:20.200Z</time>
      </trkpt>
      <trkpt lat="48.33973" lon="2.75112">
        <ele>98</ele>
        <time>2022-11-23T13:07:24.203Z</time>
      </trkpt>
      <trkpt lat="48.33973" lon="2.75118">
        <ele>98</ele>
        <time>2022-11-23T13:07:28.471Z</time>
      </trkpt>
      <trkpt lat="48.33974" lon="2.75121">
        <ele>98</ele>
        <time>2022-11-23T13:07:32.464Z</time>
      </trkpt>
      <trkpt lat="48.33972" lon="2.75127">
        <ele>98</ele>
        <time>2022-11-23T13:07:37.461Z</time>
      </trkpt>
      <trkpt lat="48.3397" lon="2.75133">
        <ele>98</ele>
        <time>2022-11-23T13:07:42.461Z</time>
      </trkpt>
      <trkpt lat="48.33967" lon="2.7514">
        <ele>98</ele>
        <time>2022-11-23T13:07:46.876Z</time>
      </trkpt>
      <trkpt lat="48.33964" lon="2.75148">
        <ele>98</ele>
        <time>2022-11-23T13:07:51.363Z</time>
      </trkpt>
      <trkpt lat="48.3396" lon="2.75156">
        <ele>97</ele>
        <time>2022-11-23T13:07:55.472Z</time>
      </trkpt>
      <trkpt lat="48.33958" lon="2.75164">
        <ele>97</ele>
        <time>2022-11-23T13:08:00.181Z</time>
      </trkpt>
      <trkpt lat="48.33955" lon="2.75171">
        <ele>97</ele>
        <time>2022-11-23T13:08:04.465Z</time>
      </trkpt>
      <trkpt lat="48.33951" lon="2.75178">
        <ele>97</ele>
        <time>2022-11-23T13:08:08.880Z</time>
      </trkpt>
      <trkpt lat="48.33949" lon="2.75185">
        <ele>96</ele>
        <time>2022-11-23T13:08:13.156Z</time>
      </trkpt>
      <trkpt lat="48.33947" lon="2.75192">
        <ele>96</ele>
        <time>2022-11-23T13:08:17.456Z</time>
      </trkpt>
      <trkpt lat="48.33946" lon="2.752">
        <ele>96</ele>
        <time>2022-11-23T13:08:21.907Z</time>
      </trkpt>
      <trkpt lat="48.33945" lon="2.75209">
        <ele>95</ele>
        <time>2022-11-23T13:08:26.022Z</time>
      </trkpt>
      <trkpt lat="48.33944" lon="2.75216">
        <ele>95</ele>
        <time>2022-11-23T13:08:31.120Z</time>
      </trkpt>
      <trkpt lat="48.33943" lon="2.75228">
        <ele>95</ele>
        <time>2022-11-23T13:08:35.737Z</time>
      </trkpt>
      <trkpt lat="48.33941" lon="2.75239">
        <ele>94</ele>
        <time>2022-11-23T13:08:40.104Z</time>
      </trkpt>
      <trkpt lat="48.3394" lon="2.75248">
        <ele>94</ele>
        <time>2022-11-23T13:08:44.442Z</time>
      </trkpt>
      <trkpt lat="48.33939" lon="2.75259">
        <ele>94</ele>
        <time>2022-11-23T13:08:49.422Z</time>
      </trkpt>
      <trkpt lat="48.33938" lon="2.75267">
        <ele>93</ele>
        <time>2022-11-23T13:08:53.595Z</time>
      </trkpt>
      <trkpt lat="48.33936" lon="2.75276">
        <ele>93</ele>
        <time>2022-11-23T13:08:57.922Z</time>
      </trkpt>
      <trkpt lat="48.33934" lon="2.75286">
        <ele>93</ele>
        <time>2022-11-23T13:09:02.472Z</time>
      </trkpt>
      <trkpt lat="48.33933" lon="2.75296">
        <ele>92</ele>
        <time>2022-11-23T13:09:06.800Z</time>
      </trkpt>
      <trkpt lat="48.33932" lon="2.75305">
        <ele>92</ele>
        <time>2022-11-23T13:09:11.136Z</time>
      </trkpt>
      <trkpt lat="48.33931" lon="2.75313">
        <ele>92</ele>
        <time>2022-11-23T13:09:15.447Z</time>
      </trkpt>
      <trkpt lat="48.3393" lon="2.75319">
        <ele>91</ele>
        <time>2022-11-23T13:09:19.460Z</time>
      </trkpt>
      <trkpt lat="48.33929" lon="2.75324">
        <ele>89</ele>
        <time>2022-11-23T13:09:24.319Z</time>
      </trkpt>
      <trkpt lat="48.33929" lon="2.7533">
        <ele>89</ele>
        <time>2022-11-23T13:09:28.464Z</time>
      </trkpt>
      <trkpt lat="48.33928" lon="2.75333">
        <ele>89</ele>
        <time>2022-11-23T13:09:33.117Z</time>
      </trkpt>
      <trkpt lat="48.33926" lon="2.75347">
        <ele>89</ele>
        <time>2022-11-23T13:10:10.642Z</time>
      </trkpt>
      <trkpt lat="48.3393" lon="2.7535">
        <ele>89</ele>
        <time>2022-11-23T13:10:14.760Z</time>
      </trkpt>
      <trkpt lat="48.33933" lon="2.75355">
        <ele>90</ele>
        <time>2022-11-23T13:10:19.471Z</time>
      </trkpt>
      <trkpt lat="48.33935" lon="2.75365">
        <ele>90</ele>
        <time>2022-11-23T13:10:24.179Z</time>
      </trkpt>
      <trkpt lat="48.33936" lon="2.75373">
        <ele>90</ele>
        <time>2022-11-23T13:10:28.296Z</time>
      </trkpt>
      <trkpt lat="48.33937" lon="2.75382">
        <ele>89</ele>
        <time>2022-11-23T13:10:33.197Z</time>
      </trkpt>
      <trkpt lat="48.33938" lon="2.75391">
        <ele>89</ele>
        <time>2022-11-23T13:10:37.999Z</time>
      </trkpt>
      <trkpt lat="48.33937" lon="2.75396">
        <ele>89</ele>
        <time>2022-11-23T13:10:41.999Z</time>
      </trkpt>
      <trkpt lat="48.33938" lon="2.75405">
        <ele>89</ele>
        <time>2022-11-23T13:10:46.336Z</time>
      </trkpt>
      <trkpt lat="48.3394" lon="2.75414">
        <ele>89</ele>
        <time>2022-11-23T13:10:50.736Z</time>
      </trkpt>
      <trkpt lat="48.33942" lon="2.75422">
        <ele>89</ele>
        <time>2022-11-23T13:10:55.062Z</time>
      </trkpt>
      <trkpt lat="48.33944" lon="2.7543">
        <ele>89</ele>
        <time>2022-11-23T13:10:59.222Z</time>
      </trkpt>
      <trkpt lat="48.33944" lon="2.75438">
        <ele>89</ele>
        <time>2022-11-23T13:11:03.405Z</time>
      </trkpt>
      <trkpt lat="48.33945" lon="2.75445">
        <ele>89</ele>
        <time>2022-11-23T13:11:07.485Z</time>
      </trkpt>
      <trkpt lat="48.33948" lon="2.75456">
        <ele>89</ele>
        <time>2022-11-23T13:11:12.384Z</time>
      </trkpt>
      <trkpt lat="48.33951" lon="2.75466">
        <ele>88</ele>
        <time>2022-11-23T13:11:16.464Z</time>
      </trkpt>
      <trkpt lat="48.33953" lon="2.75475">
        <ele>88</ele>
        <time>2022-11-23T13:11:20.764Z</time>
      </trkpt>
      <trkpt lat="48.33956" lon="2.75481">
        <ele>88</ele>
        <time>2022-11-23T13:11:25.097Z</time>
      </trkpt>
      <trkpt lat="48.33958" lon="2.75491">
        <ele>88</ele>
        <time>2022-11-23T13:11:29.501Z</time>
      </trkpt>
      <trkpt lat="48.33963" lon="2.75497">
        <ele>89</ele>
        <time>2022-11-23T13:11:33.803Z</time>
      </trkpt>
      <trkpt lat="48.33966" lon="2.75503">
        <ele>89</ele>
        <time>2022-11-23T13:11:38.201Z</time>
      </trkpt>
      <trkpt lat="48.33967" lon="2.75513">
        <ele>89</ele>
        <time>2022-11-23T13:11:42.482Z</time>
      </trkpt>
      <trkpt lat="48.33971" lon="2.7552">
        <ele>89</ele>
        <time>2022-11-23T13:11:46.900Z</time>
      </trkpt>
      <trkpt lat="48.33973" lon="2.75528">
        <ele>89</ele>
        <time>2022-11-23T13:11:51.179Z</time>
      </trkpt>
      <trkpt lat="48.33977" lon="2.75537">
        <ele>89</ele>
        <time>2022-11-23T13:11:55.457Z</time>
      </trkpt>
      <trkpt lat="48.33979" lon="2.75546">
        <ele>89</ele>
        <time>2022-11-23T13:11:59.796Z</time>
      </trkpt>
      <trkpt lat="48.33981" lon="2.75555">
        <ele>89</ele>
        <time>2022-11-23T13:12:04.075Z</time>
      </trkpt>
      <trkpt lat="48.33984" lon="2.75562">
        <ele>89</ele>
        <time>2022-11-23T13:12:08.319Z</time>
      </trkpt>
      <trkpt lat="48.33987" lon="2.7557">
        <ele>92</ele>
        <time>2022-11-23T13:12:12.479Z</time>
      </trkpt>
      <trkpt lat="48.3399" lon="2.75579">
        <ele>92</ele>
        <time>2022-11-23T13:12:17.344Z</time>
      </trkpt>
      <trkpt lat="48.33994" lon="2.75587">
        <ele>92</ele>
        <time>2022-11-23T13:12:22.004Z</time>
      </trkpt>
      <trkpt lat="48.33996" lon="2.75593">
        <ele>92</ele>
        <time>2022-11-23T13:12:26.374Z</time>
      </trkpt>
      <trkpt lat="48.34" lon="2.75602">
        <ele>92</ele>
        <time>2022-11-23T13:12:31.098Z</time>
      </trkpt>
      <trkpt lat="48.34003" lon="2.7561">
        <ele>92</ele>
        <time>2022-11-23T13:12:35.423Z</time>
      </trkpt>
      <trkpt lat="48.34006" lon="2.75619">
        <ele>92</ele>
        <time>2022-11-23T13:12:39.944Z</time>
      </trkpt>
      <trkpt lat="48.34008" lon="2.75625">
        <ele>92</ele>
        <time>2022-11-23T13:12:44.459Z</time>
      </trkpt>
      <trkpt lat="48.34009" lon="2.75631">
        <ele>92</ele>
        <time>2022-11-23T13:12:48.462Z</time>
      </trkpt>
      <trkpt lat="48.34013" lon="2.75639">
        <ele>92</ele>
        <time>2022-11-23T13:12:52.863Z</time>
      </trkpt>
      <trkpt lat="48.34017" lon="2.75648">
        <ele>92</ele>
        <time>2022-11-23T13:12:57.261Z</time>
      </trkpt>
      <trkpt lat="48.3402" lon="2.75654">
        <ele>91</ele>
        <time>2022-11-23T13:13:01.458Z</time>
      </trkpt>
      <trkpt lat="48.34024" lon="2.75663">
        <ele>91</ele>
        <time>2022-11-23T13:13:06.464Z</time>
      </trkpt>
      <trkpt lat="48.34028" lon="2.75668">
        <ele>91</ele>
        <time>2022-11-23T13:13:10.921Z</time>
      </trkpt>
      <trkpt lat="48.3403" lon="2.75675">
        <ele>91</ele>
        <time>2022-11-23T13:13:14.918Z</time>
      </trkpt>
      <trkpt lat="48.34033" lon="2.75683">
        <ele>91</ele>
        <time>2022-11-23T13:13:19.363Z</time>
      </trkpt>
      <trkpt lat="48.34035" lon="2.75693">
        <ele>91</ele>
        <time>2022-11-23T13:13:24.247Z</time>
      </trkpt>
      <trkpt lat="48.34037" lon="2.75701">
        <ele>91</ele>
        <time>2022-11-23T13:13:28.284Z</time>
      </trkpt>
      <trkpt lat="48.3404" lon="2.75709">
        <ele>89</ele>
        <time>2022-11-23T13:13:32.681Z</time>
      </trkpt>
      <trkpt lat="48.34042" lon="2.75716">
        <ele>90</ele>
        <time>2022-11-23T13:13:36.879Z</time>
      </trkpt>
      <trkpt lat="48.34043" lon="2.75724">
        <ele>90</ele>
        <time>2022-11-23T13:13:41.057Z</time>
      </trkpt>
      <trkpt lat="48.3404" lon="2.75731">
        <ele>89</ele>
        <time>2022-11-23T13:13:45.466Z</time>
      </trkpt>
      <trkpt lat="48.34035" lon="2.75737">
        <ele>89</ele>
        <time>2022-11-23T13:13:49.618Z</time>
      </trkpt>
      <trkpt lat="48.34031" lon="2.75741">
        <ele>89</ele>
        <time>2022-11-23T13:13:54.026Z</time>
      </trkpt>
      <trkpt lat="48.34027" lon="2.75747">
        <ele>89</ele>
        <time>2022-11-23T13:13:58.259Z</time>
      </trkpt>
      <trkpt lat="48.34024" lon="2.75753">
        <ele>89</ele>
        <time>2022-11-23T13:14:02.478Z</time>
      </trkpt>
      <trkpt lat="48.34021" lon="2.7576">
        <ele>89</ele>
        <time>2022-11-23T13:14:07.243Z</time>
      </trkpt>
      <trkpt lat="48.34017" lon="2.75766">
        <ele>89</ele>
        <time>2022-11-23T13:14:11.415Z</time>
      </trkpt>
      <trkpt lat="48.34013" lon="2.75771">
        <ele>88</ele>
        <time>2022-11-23T13:14:15.640Z</time>
      </trkpt>
      <trkpt lat="48.34008" lon="2.75776">
        <ele>88</ele>
        <time>2022-11-23T13:14:20.483Z</time>
      </trkpt>
      <trkpt lat="48.34003" lon="2.75783">
        <ele>88</ele>
        <time>2022-11-23T13:14:25.043Z</time>
      </trkpt>
      <trkpt lat="48.33999" lon="2.75787">
        <ele>88</ele>
        <time>2022-11-23T13:14:29.237Z</time>
      </trkpt>
      <trkpt lat="48.33994" lon="2.75793">
        <ele>88</ele>
        <time>2022-11-23T13:14:33.425Z</time>
      </trkpt>
      <trkpt lat="48.33991" lon="2.75801">
        <ele>88</ele>
        <time>2022-11-23T13:14:37.455Z</time>
      </trkpt>
      <trkpt lat="48.3399" lon="2.75808">
        <ele>88</ele>
        <time>2022-11-23T13:14:42.411Z</time>
      </trkpt>
      <trkpt lat="48.3399" lon="2.75815">
        <ele>88</ele>
        <time>2022-11-23T13:14:46.473Z</time>
      </trkpt>
      <trkpt lat="48.33991" lon="2.75825">
        <ele>87</ele>
        <time>2022-11-23T13:14:50.765Z</time>
      </trkpt>
      <trkpt lat="48.33992" lon="2.75833">
        <ele>87</ele>
        <time>2022-11-23T13:14:55.123Z</time>
      </trkpt>
      <trkpt lat="48.33995" lon="2.75843">
        <ele>87</ele>
        <time>2022-11-23T13:14:59.447Z</time>
      </trkpt>
      <trkpt lat="48.33998" lon="2.75857">
        <ele>85</ele>
        <time>2022-11-23T13:15:03.884Z</time>
      </trkpt>
      <trkpt lat="48.34001" lon="2.75865">
        <ele>85</ele>
        <time>2022-11-23T13:15:08.222Z</time>
      </trkpt>
      <trkpt lat="48.34004" lon="2.75874">
        <ele>85</ele>
        <time>2022-11-23T13:15:12.738Z</time>
      </trkpt>
      <trkpt lat="48.34007" lon="2.7588">
        <ele>84</ele>
        <time>2022-11-23T13:15:17.116Z</time>
      </trkpt>
      <trkpt lat="48.34011" lon="2.75885">
        <ele>84</ele>
        <time>2022-11-23T13:15:21.383Z</time>
      </trkpt>
      <trkpt lat="48.34015" lon="2.75892">
        <ele>86</ele>
        <time>2022-11-23T13:15:25.443Z</time>
      </trkpt>
      <trkpt lat="48.34018" lon="2.75898">
        <ele>86</ele>
        <time>2022-11-23T13:15:29.678Z</time>
      </trkpt>
      <trkpt lat="48.34022" lon="2.75907">
        <ele>85</ele>
        <time>2022-11-23T13:15:34.442Z</time>
      </trkpt>
      <trkpt lat="48.34027" lon="2.75912">
        <ele>85</ele>
        <time>2022-11-23T13:15:39.432Z</time>
      </trkpt>
      <trkpt lat="48.34031" lon="2.75917">
        <ele>85</ele>
        <time>2022-11-23T13:15:43.977Z</time>
      </trkpt>
      <trkpt lat="48.34032" lon="2.75926">
        <ele>85</ele>
        <time>2022-11-23T13:15:48.444Z</time>
      </trkpt>
      <trkpt lat="48.34037" lon="2.75932">
        <ele>85</ele>
        <time>2022-11-23T13:15:53.261Z</time>
      </trkpt>
      <trkpt lat="48.34044" lon="2.75938">
        <ele>86</ele>
        <time>2022-11-23T13:15:58.243Z</time>
      </trkpt>
      <trkpt lat="48.34049" lon="2.75945">
        <ele>86</ele>
        <time>2022-11-23T13:16:03.243Z</time>
      </trkpt>
      <trkpt lat="48.34053" lon="2.7596">
        <ele>86</ele>
        <time>2022-11-23T13:16:36.101Z</time>
      </trkpt>
      <trkpt lat="48.34053" lon="2.75961">
        <ele>86</ele>
        <time>2022-11-23T13:16:40.242Z</time>
      </trkpt>
      <trkpt lat="48.34059" lon="2.75967">
        <ele>86</ele>
        <time>2022-11-23T13:16:44.456Z</time>
      </trkpt>
      <trkpt lat="48.34064" lon="2.75974">
        <ele>86</ele>
        <time>2022-11-23T13:16:49.359Z</time>
      </trkpt>
      <trkpt lat="48.34068" lon="2.75978">
        <ele>86</ele>
        <time>2022-11-23T13:16:53.450Z</time>
      </trkpt>
      <trkpt lat="48.34075" lon="2.75982">
        <ele>89</ele>
        <time>2022-11-23T13:16:58.144Z</time>
      </trkpt>
      <trkpt lat="48.34079" lon="2.75987">
        <ele>88</ele>
        <time>2022-11-23T13:17:02.438Z</time>
      </trkpt>
      <trkpt lat="48.34083" lon="2.75991">
        <ele>88</ele>
        <time>2022-11-23T13:17:06.437Z</time>
      </trkpt>
      <trkpt lat="48.34087" lon="2.75996">
        <ele>88</ele>
        <time>2022-11-23T13:17:10.479Z</time>
      </trkpt>
      <trkpt lat="48.34091" lon="2.76004">
        <ele>88</ele>
        <time>2022-11-23T13:17:15.001Z</time>
      </trkpt>
      <trkpt lat="48.34095" lon="2.76012">
        <ele>88</ele>
        <time>2022-11-23T13:17:19.339Z</time>
      </trkpt>
      <trkpt lat="48.34099" lon="2.76019">
        <ele>91</ele>
        <time>2022-11-23T13:17:24.200Z</time>
      </trkpt>
      <trkpt lat="48.34102" lon="2.76026">
        <ele>91</ele>
        <time>2022-11-23T13:17:28.417Z</time>
      </trkpt>
      <trkpt lat="48.34105" lon="2.76033">
        <ele>91</ele>
        <time>2022-11-23T13:17:32.723Z</time>
      </trkpt>
      <trkpt lat="48.34108" lon="2.76037">
        <ele>91</ele>
        <time>2022-11-23T13:17:37.299Z</time>
      </trkpt>
      <trkpt lat="48.3411" lon="2.76041">
        <ele>91</ele>
        <time>2022-11-23T13:17:41.430Z</time>
      </trkpt>
      <trkpt lat="48.34112" lon="2.76046">
        <ele>90</ele>
        <time>2022-11-23T13:17:45.583Z</time>
      </trkpt>
      <trkpt lat="48.34115" lon="2.76051">
        <ele>90</ele>
        <time>2022-11-23T13:17:49.599Z</time>
      </trkpt>
      <trkpt lat="48.34117" lon="2.7606">
        <ele>90</ele>
        <time>2022-11-23T13:17:55.916Z</time>
      </trkpt>
      <trkpt lat="48.3412" lon="2.76067">
        <ele>90</ele>
        <time>2022-11-23T13:18:01.059Z</time>
      </trkpt>
      <trkpt lat="48.34122" lon="2.76072">
        <ele>89</ele>
        <time>2022-11-23T13:18:05.378Z</time>
      </trkpt>
      <trkpt lat="48.34125" lon="2.76077">
        <ele>89</ele>
        <time>2022-11-23T13:18:09.449Z</time>
      </trkpt>
      <trkpt lat="48.34126" lon="2.76083">
        <ele>92</ele>
        <time>2022-11-23T13:18:14.123Z</time>
      </trkpt>
      <trkpt lat="48.34128" lon="2.76093">
        <ele>92</ele>
        <time>2022-11-23T13:18:19.139Z</time>
      </trkpt>
      <trkpt lat="48.34133" lon="2.76102">
        <ele>90</ele>
        <time>2022-11-23T13:18:23.450Z</time>
      </trkpt>
      <trkpt lat="48.34136" lon="2.76109">
        <ele>90</ele>
        <time>2022-11-23T13:18:27.446Z</time>
      </trkpt>
      <trkpt lat="48.34138" lon="2.76116">
        <ele>90</ele>
        <time>2022-11-23T13:18:31.998Z</time>
      </trkpt>
      <trkpt lat="48.3414" lon="2.76124">
        <ele>90</ele>
        <time>2022-11-23T13:18:36.460Z</time>
      </trkpt>
      <trkpt lat="48.34143" lon="2.76133">
        <ele>88</ele>
        <time>2022-11-23T13:18:41.434Z</time>
      </trkpt>
      <trkpt lat="48.34148" lon="2.76139">
        <ele>88</ele>
        <time>2022-11-23T13:18:45.432Z</time>
      </trkpt>
      <trkpt lat="48.3415" lon="2.76148">
        <ele>88</ele>
        <time>2022-11-23T13:18:50.318Z</time>
      </trkpt>
      <trkpt lat="48.34154" lon="2.76154">
        <ele>89</ele>
        <time>2022-11-23T13:18:54.359Z</time>
      </trkpt>
      <trkpt lat="48.34158" lon="2.76161">
        <ele>89</ele>
        <time>2022-11-23T13:18:59.276Z</time>
      </trkpt>
      <trkpt lat="48.34161" lon="2.76165">
        <ele>89</ele>
        <time>2022-11-23T13:19:04.058Z</time>
      </trkpt>
      <trkpt lat="48.34163" lon="2.76171">
        <ele>89</ele>
        <time>2022-11-23T13:19:08.086Z</time>
      </trkpt>
      <trkpt lat="48.3417" lon="2.76177">
        <ele>89</ele>
        <time>2022-11-23T13:19:12.440Z</time>
      </trkpt>
      <trkpt lat="48.34171" lon="2.76186">
        <ele>87</ele>
        <time>2022-11-23T13:19:16.895Z</time>
      </trkpt>
      <trkpt lat="48.34174" lon="2.7619">
        <ele>87</ele>
        <time>2022-11-23T13:19:21.446Z</time>
      </trkpt>
      <trkpt lat="48.34174" lon="2.76196">
        <ele>87</ele>
        <time>2022-11-23T13:19:25.445Z</time>
      </trkpt>
      <trkpt lat="48.34177" lon="2.76205">
        <ele>87</ele>
        <time>2022-11-23T13:19:29.662Z</time>
      </trkpt>
      <trkpt lat="48.34182" lon="2.76212">
        <ele>88</ele>
        <time>2022-11-23T13:19:34.027Z</time>
      </trkpt>
      <trkpt lat="48.34188" lon="2.7622">
        <ele>88</ele>
        <time>2022-11-23T13:19:38.469Z</time>
      </trkpt>
      <trkpt lat="48.34192" lon="2.76227">
        <ele>88</ele>
        <time>2022-11-23T13:19:43.298Z</time>
      </trkpt>
      <trkpt lat="48.34197" lon="2.76236">
        <ele>88</ele>
        <time>2022-11-23T13:19:48.355Z</time>
      </trkpt>
      <trkpt lat="48.34202" lon="2.76244">
        <ele>86</ele>
        <time>2022-11-23T13:19:53.480Z</time>
      </trkpt>
      <trkpt lat="48.34207" lon="2.7625">
        <ele>86</ele>
        <time>2022-11-23T13:19:57.956Z</time>
      </trkpt>
      <trkpt lat="48.34211" lon="2.76255">
        <ele>89</ele>
        <time>2022-11-23T13:20:02.378Z</time>
      </trkpt>
      <trkpt lat="48.34214" lon="2.7626">
        <ele>89</ele>
        <time>2022-11-23T13:20:06.403Z</time>
      </trkpt>
      <trkpt lat="48.34218" lon="2.76268">
        <ele>87</ele>
        <time>2022-11-23T13:20:11.364Z</time>
      </trkpt>
      <trkpt lat="48.3422" lon="2.76274">
        <ele>87</ele>
        <time>2022-11-23T13:20:15.443Z</time>
      </trkpt>
      <trkpt lat="48.34223" lon="2.76282">
        <ele>87</ele>
        <time>2022-11-23T13:20:20.388Z</time>
      </trkpt>
      <trkpt lat="48.34223" lon="2.76291">
        <ele>87</ele>
        <time>2022-11-23T13:20:24.452Z</time>
      </trkpt>
      <trkpt lat="48.34219" lon="2.76298">
        <ele>86</ele>
        <time>2022-11-23T13:20:28.997Z</time>
      </trkpt>
      <trkpt lat="48.34214" lon="2.76303">
        <ele>86</ele>
        <time>2022-11-23T13:20:33.223Z</time>
      </trkpt>
      <trkpt lat="48.34209" lon="2.7631">
        <ele>86</ele>
        <time>2022-11-23T13:20:37.723Z</time>
      </trkpt>
      <trkpt lat="48.34207" lon="2.76316">
        <ele>84</ele>
        <time>2022-11-23T13:20:41.905Z</time>
      </trkpt>
      <trkpt lat="48.34203" lon="2.76321">
        <ele>83</ele>
        <time>2022-11-23T13:20:46.360Z</time>
      </trkpt>
      <trkpt lat="48.34197" lon="2.76328">
        <ele>83</ele>
        <time>2022-11-23T13:20:51.476Z</time>
      </trkpt>
      <trkpt lat="48.34193" lon="2.76333">
        <ele>83</ele>
        <time>2022-11-23T13:20:56.073Z</time>
      </trkpt>
      <trkpt lat="48.34189" lon="2.76338">
        <ele>83</ele>
        <time>2022-11-23T13:21:00.338Z</time>
      </trkpt>
      <trkpt lat="48.34183" lon="2.76344">
        <ele>83</ele>
        <time>2022-11-23T13:21:05.377Z</time>
      </trkpt>
      <trkpt lat="48.34179" lon="2.76351">
        <ele>81</ele>
        <time>2022-11-23T13:21:09.454Z</time>
      </trkpt>
      <trkpt lat="48.34175" lon="2.76356">
        <ele>81</ele>
        <time>2022-11-23T13:21:13.442Z</time>
      </trkpt>
      <trkpt lat="48.34171" lon="2.76362">
        <ele>81</ele>
        <time>2022-11-23T13:21:17.451Z</time>
      </trkpt>
      <trkpt lat="48.34166" lon="2.76367">
        <ele>81</ele>
        <time>2022-11-23T13:21:21.904Z</time>
      </trkpt>
      <trkpt lat="48.34161" lon="2.76373">
        <ele>81</ele>
        <time>2022-11-23T13:21:26.443Z</time>
      </trkpt>
      <trkpt lat="48.34157" lon="2.76379">
        <ele>80</ele>
        <time>2022-11-23T13:21:30.725Z</time>
      </trkpt>
      <trkpt lat="48.34153" lon="2.76383">
        <ele>79</ele>
        <time>2022-11-23T13:21:34.983Z</time>
      </trkpt>
      <trkpt lat="48.34149" lon="2.76388">
        <ele>79</ele>
        <time>2022-11-23T13:21:39.101Z</time>
      </trkpt>
      <trkpt lat="48.34144" lon="2.76395">
        <ele>79</ele>
        <time>2022-11-23T13:21:43.460Z</time>
      </trkpt>
      <trkpt lat="48.34139" lon="2.76404">
        <ele>77</ele>
        <time>2022-11-23T13:21:48.416Z</time>
      </trkpt>
      <trkpt lat="48.34138" lon="2.76412">
        <ele>77</ele>
        <time>2022-11-23T13:21:52.478Z</time>
      </trkpt>
      <trkpt lat="48.34131" lon="2.76418">
        <ele>77</ele>
        <time>2022-11-23T13:21:56.867Z</time>
      </trkpt>
      <trkpt lat="48.34126" lon="2.76424">
        <ele>77</ele>
        <time>2022-11-23T13:22:01.163Z</time>
      </trkpt>
      <trkpt lat="48.34122" lon="2.76432">
        <ele>72</ele>
        <time>2022-11-23T13:22:05.484Z</time>
      </trkpt>
      <trkpt lat="48.34115" lon="2.76437">
        <ele>72</ele>
        <time>2022-11-23T13:22:10.420Z</time>
      </trkpt>
      <trkpt lat="48.3411" lon="2.76441">
        <ele>72</ele>
        <time>2022-11-23T13:22:15.162Z</time>
      </trkpt>
      <trkpt lat="48.34101" lon="2.76451">
        <ele>72</ele>
        <time>2022-11-23T13:22:24.139Z</time>
      </trkpt>
      <trkpt lat="48.34101" lon="2.76451">
        <ele>72</ele>
        <time>2022-11-23T13:22:28.441Z</time>
      </trkpt>
      <trkpt lat="48.34102" lon="2.76454">
        <ele>72</ele>
        <time>2022-11-23T13:22:33.376Z</time>
      </trkpt>
      <trkpt lat="48.34107" lon="2.76461">
        <ele>69</ele>
        <time>2022-11-23T13:22:37.436Z</time>
      </trkpt>
      <trkpt lat="48.34113" lon="2.76468">
        <ele>69</ele>
        <time>2022-11-23T13:22:42.455Z</time>
      </trkpt>
      <trkpt lat="48.34116" lon="2.7647">
        <ele>69</ele>
        <time>2022-11-23T13:22:46.802Z</time>
      </trkpt>
      <trkpt lat="48.34119" lon="2.76477">
        <ele>69</ele>
        <time>2022-11-23T13:22:50.980Z</time>
      </trkpt>
      <trkpt lat="48.34123" lon="2.76483">
        <ele>69</ele>
        <time>2022-11-23T13:22:55.156Z</time>
      </trkpt>
      <trkpt lat="48.34127" lon="2.7649">
        <ele>70</ele>
        <time>2022-11-23T13:22:59.341Z</time>
      </trkpt>
      <trkpt lat="48.34132" lon="2.76496">
        <ele>70</ele>
        <time>2022-11-23T13:23:03.465Z</time>
      </trkpt>
      <trkpt lat="48.34137" lon="2.76505">
        <ele>70</ele>
        <time>2022-11-23T13:23:08.452Z</time>
      </trkpt>
      <trkpt lat="48.34142" lon="2.76513">
        <ele>70</ele>
        <time>2022-11-23T13:23:12.448Z</time>
      </trkpt>
      <trkpt lat="48.34147" lon="2.76519">
        <ele>70</ele>
        <time>2022-11-23T13:23:16.961Z</time>
      </trkpt>
      <trkpt lat="48.34152" lon="2.76525">
        <ele>70</ele>
        <time>2022-11-23T13:23:21.453Z</time>
      </trkpt>
      <trkpt lat="48.34156" lon="2.76531">
        <ele>71</ele>
        <time>2022-11-23T13:23:25.763Z</time>
      </trkpt>
      <trkpt lat="48.34161" lon="2.76538">
        <ele>71</ele>
        <time>2022-11-23T13:23:30.483Z</time>
      </trkpt>
      <trkpt lat="48.34166" lon="2.76544">
        <ele>70</ele>
        <time>2022-11-23T13:23:34.996Z</time>
      </trkpt>
      <trkpt lat="48.34171" lon="2.7655">
        <ele>70</ele>
        <time>2022-11-23T13:23:39.403Z</time>
      </trkpt>
      <trkpt lat="48.34176" lon="2.76556">
        <ele>70</ele>
        <time>2022-11-23T13:23:43.797Z</time>
      </trkpt>
      <trkpt lat="48.3418" lon="2.76562">
        <ele>70</ele>
        <time>2022-11-23T13:23:48.496Z</time>
      </trkpt>
      <trkpt lat="48.34185" lon="2.76569">
        <ele>71</ele>
        <time>2022-11-23T13:23:53.356Z</time>
      </trkpt>
      <trkpt lat="48.34189" lon="2.76575">
        <ele>70</ele>
        <time>2022-11-23T13:23:57.461Z</time>
      </trkpt>
      <trkpt lat="48.34194" lon="2.7658">
        <ele>70</ele>
        <time>2022-11-23T13:24:02.467Z</time>
      </trkpt>
      <trkpt lat="48.342" lon="2.76587">
        <ele>70</ele>
        <time>2022-11-23T13:24:07.462Z</time>
      </trkpt>
      <trkpt lat="48.34205" lon="2.76594">
        <ele>70</ele>
        <time>2022-11-23T13:24:12.345Z</time>
      </trkpt>
      <trkpt lat="48.34211" lon="2.76599">
        <ele>72</ele>
        <time>2022-11-23T13:24:16.618Z</time>
      </trkpt>
      <trkpt lat="48.34215" lon="2.76605">
        <ele>72</ele>
        <time>2022-11-23T13:24:21.456Z</time>
      </trkpt>
      <trkpt lat="48.34219" lon="2.76611">
        <ele>72</ele>
        <time>2022-11-23T13:24:25.452Z</time>
      </trkpt>
      <trkpt lat="48.34224" lon="2.76618">
        <ele>72</ele>
        <time>2022-11-23T13:24:29.983Z</time>
      </trkpt>
      <trkpt lat="48.34229" lon="2.76625">
        <ele>72</ele>
        <time>2022-11-23T13:24:34.440Z</time>
      </trkpt>
      <trkpt lat="48.34234" lon="2.76631">
        <ele>70</ele>
        <time>2022-11-23T13:24:39.099Z</time>
      </trkpt>
      <trkpt lat="48.34239" lon="2.7664">
        <ele>75</ele>
        <time>2022-11-23T13:24:44.379Z</time>
      </trkpt>
      <trkpt lat="48.34245" lon="2.76645">
        <ele>75</ele>
        <time>2022-11-23T13:24:49.441Z</time>
      </trkpt>
      <trkpt lat="48.34249" lon="2.76651">
        <ele>75</ele>
        <time>2022-11-23T13:24:53.443Z</time>
      </trkpt>
      <trkpt lat="48.34253" lon="2.76656">
        <ele>72</ele>
        <time>2022-11-23T13:24:57.944Z</time>
      </trkpt>
      <trkpt lat="48.34258" lon="2.76662">
        <ele>72</ele>
        <time>2022-11-23T13:25:02.242Z</time>
      </trkpt>
      <trkpt lat="48.34263" lon="2.76668">
        <ele>72</ele>
        <time>2022-11-23T13:25:06.680Z</time>
      </trkpt>
      <trkpt lat="48.34267" lon="2.76675">
        <ele>75</ele>
        <time>2022-11-23T13:25:11.449Z</time>
      </trkpt>
      <trkpt lat="48.34272" lon="2.76679">
        <ele>75</ele>
        <time>2022-11-23T13:25:16.441Z</time>
      </trkpt>
      <trkpt lat="48.34275" lon="2.76685">
        <ele>74</ele>
        <time>2022-11-23T13:25:20.459Z</time>
      </trkpt>
      <trkpt lat="48.3428" lon="2.7669">
        <ele>74</ele>
        <time>2022-11-23T13:25:24.976Z</time>
      </trkpt>
      <trkpt lat="48.34285" lon="2.76695">
        <ele>74</ele>
        <time>2022-11-23T13:25:29.254Z</time>
      </trkpt>
      <trkpt lat="48.3429" lon="2.76702">
        <ele>74</ele>
        <time>2022-11-23T13:25:34.355Z</time>
      </trkpt>
      <trkpt lat="48.34295" lon="2.76708">
        <ele>73</ele>
        <time>2022-11-23T13:25:39.255Z</time>
      </trkpt>
      <trkpt lat="48.343" lon="2.76714">
        <ele>73</ele>
        <time>2022-11-23T13:25:43.458Z</time>
      </trkpt>
      <trkpt lat="48.34304" lon="2.7672">
        <ele>73</ele>
        <time>2022-11-23T13:25:48.471Z</time>
      </trkpt>
      <trkpt lat="48.3431" lon="2.76726">
        <ele>73</ele>
        <time>2022-11-23T13:25:53.436Z</time>
      </trkpt>
      <trkpt lat="48.34315" lon="2.7673">
        <ele>73</ele>
        <time>2022-11-23T13:25:57.897Z</time>
      </trkpt>
      <trkpt lat="48.3432" lon="2.76737">
        <ele>73</ele>
        <time>2022-11-23T13:26:02.275Z</time>
      </trkpt>
      <trkpt lat="48.34325" lon="2.76743">
        <ele>73</ele>
        <time>2022-11-23T13:26:07.177Z</time>
      </trkpt>
      <trkpt lat="48.34329" lon="2.76749">
        <ele>73</ele>
        <time>2022-11-23T13:26:11.454Z</time>
      </trkpt>
      <trkpt lat="48.34333" lon="2.76753">
        <ele>73</ele>
        <time>2022-11-23T13:26:15.620Z</time>
      </trkpt>
      <trkpt lat="48.34337" lon="2.76759">
        <ele>73</ele>
        <time>2022-11-23T13:26:19.743Z</time>
      </trkpt>
      <trkpt lat="48.34341" lon="2.76764">
        <ele>72</ele>
        <time>2022-11-23T13:26:24.336Z</time>
      </trkpt>
      <trkpt lat="48.34345" lon="2.76771">
        <ele>72</ele>
        <time>2022-11-23T13:26:28.447Z</time>
      </trkpt>
      <trkpt lat="48.3435" lon="2.76778">
        <ele>72</ele>
        <time>2022-11-23T13:26:33.415Z</time>
      </trkpt>
      <trkpt lat="48.34355" lon="2.76783">
        <ele>72</ele>
        <time>2022-11-23T13:26:38.324Z</time>
      </trkpt>
      <trkpt lat="48.34359" lon="2.76789">
        <ele>72</ele>
        <time>2022-11-23T13:26:42.341Z</time>
      </trkpt>
      <trkpt lat="48.34364" lon="2.76794">
        <ele>72</ele>
        <time>2022-11-23T13:26:46.718Z</time>
      </trkpt>
      <trkpt lat="48.34368" lon="2.76799">
        <ele>72</ele>
        <time>2022-11-23T13:26:51.177Z</time>
      </trkpt>
      <trkpt lat="48.34373" lon="2.76805">
        <ele>72</ele>
        <time>2022-11-23T13:26:55.664Z</time>
      </trkpt>
      <trkpt lat="48.34377" lon="2.7681">
        <ele>73</ele>
        <time>2022-11-23T13:26:59.966Z</time>
      </trkpt>
      <trkpt lat="48.34381" lon="2.76816">
        <ele>73</ele>
        <time>2022-11-23T13:27:04.037Z</time>
      </trkpt>
      <trkpt lat="48.34385" lon="2.76821">
        <ele>72</ele>
        <time>2022-11-23T13:27:08.244Z</time>
      </trkpt>
      <trkpt lat="48.3439" lon="2.76827">
        <ele>72</ele>
        <time>2022-11-23T13:27:12.542Z</time>
      </trkpt>
      <trkpt lat="48.34395" lon="2.76833">
        <ele>72</ele>
        <time>2022-11-23T13:27:17.446Z</time>
      </trkpt>
      <trkpt lat="48.34399" lon="2.76838">
        <ele>72</ele>
        <time>2022-11-23T13:27:21.857Z</time>
      </trkpt>
      <trkpt lat="48.34403" lon="2.76844">
        <ele>74</ele>
        <time>2022-11-23T13:27:26.056Z</time>
      </trkpt>
      <trkpt lat="48.34407" lon="2.76851">
        <ele>73</ele>
        <time>2022-11-23T13:27:31.022Z</time>
      </trkpt>
      <trkpt lat="48.34411" lon="2.76857">
        <ele>73</ele>
        <time>2022-11-23T13:27:35.139Z</time>
      </trkpt>
      <trkpt lat="48.34416" lon="2.76865">
        <ele>73</ele>
        <time>2022-11-23T13:27:39.978Z</time>
      </trkpt>
      <trkpt lat="48.3442" lon="2.76873">
        <ele>73</ele>
        <time>2022-11-23T13:27:44.263Z</time>
      </trkpt>
      <trkpt lat="48.34424" lon="2.76878">
        <ele>72</ele>
        <time>2022-11-23T13:27:48.743Z</time>
      </trkpt>
      <trkpt lat="48.34428" lon="2.76885">
        <ele>72</ele>
        <time>2022-11-23T13:27:53.023Z</time>
      </trkpt>
      <trkpt lat="48.34432" lon="2.76894">
        <ele>73</ele>
        <time>2022-11-23T13:27:57.923Z</time>
      </trkpt>
      <trkpt lat="48.34436" lon="2.76901">
        <ele>73</ele>
        <time>2022-11-23T13:28:02.481Z</time>
      </trkpt>
      <trkpt lat="48.34441" lon="2.76909">
        <ele>73</ele>
        <time>2022-11-23T13:28:07.302Z</time>
      </trkpt>
      <trkpt lat="48.34447" lon="2.76917">
        <ele>73</ele>
        <time>2022-11-23T13:28:12.473Z</time>
      </trkpt>
      <trkpt lat="48.34451" lon="2.76924">
        <ele>73</ele>
        <time>2022-11-23T13:28:16.966Z</time>
      </trkpt>
      <trkpt lat="48.34455" lon="2.7693">
        <ele>73</ele>
        <time>2022-11-23T13:28:21.479Z</time>
      </trkpt>
      <trkpt lat="48.34458" lon="2.76936">
        <ele>72</ele>
        <time>2022-11-23T13:28:25.475Z</time>
      </trkpt>
      <trkpt lat="48.34462" lon="2.76943">
        <ele>72</ele>
        <time>2022-11-23T13:28:30Z</time>
      </trkpt>
      <trkpt lat="48.34467" lon="2.76949">
        <ele>72</ele>
        <time>2022-11-23T13:28:34.345Z</time>
      </trkpt>
      <trkpt lat="48.34471" lon="2.76956">
        <ele>72</ele>
        <time>2022-11-23T13:28:38.719Z</time>
      </trkpt>
      <trkpt lat="48.34473" lon="2.76956">
        <ele>72</ele>
        <time>2022-11-23T13:28:43.439Z</time>
      </trkpt>
      <trkpt lat="48.34474" lon="2.76954">
        <ele>72</ele>
        <time>2022-11-23T13:28:47.904Z</time>
      </trkpt>
      <trkpt lat="48.34475" lon="2.76961">
        <ele>70</ele>
        <time>2022-11-23T13:28:52.205Z</time>
      </trkpt>
      <trkpt lat="48.34478" lon="2.76967">
        <ele>70</ele>
        <time>2022-11-23T13:28:55.673Z</time>
      </trkpt>
      <trkpt lat="48.34483" lon="2.76974">
        <ele>70</ele>
        <time>2022-11-23T13:29:00.483Z</time>
      </trkpt>
      <trkpt lat="48.34489" lon="2.76981">
        <ele>71</ele>
        <time>2022-11-23T13:29:05.280Z</time>
      </trkpt>
      <trkpt lat="48.34492" lon="2.76988">
        <ele>70</ele>
        <time>2022-11-23T13:29:09.482Z</time>
      </trkpt>
      <trkpt lat="48.34496" lon="2.76998">
        <ele>70</ele>
        <time>2022-11-23T13:29:14.344Z</time>
      </trkpt>
      <trkpt lat="48.345" lon="2.77005">
        <ele>70</ele>
        <time>2022-11-23T13:29:18.442Z</time>
      </trkpt>
      <trkpt lat="48.34503" lon="2.7701">
        <ele>70</ele>
        <time>2022-11-23T13:29:22.468Z</time>
      </trkpt>
      <trkpt lat="48.34508" lon="2.77017">
        <ele>69</ele>
        <time>2022-11-23T13:29:27.077Z</time>
      </trkpt>
      <trkpt lat="48.34512" lon="2.77023">
        <ele>69</ele>
        <time>2022-11-23T13:29:31.460Z</time>
      </trkpt>
      <trkpt lat="48.34515" lon="2.7703">
        <ele>73</ele>
        <time>2022-11-23T13:29:35.467Z</time>
      </trkpt>
      <trkpt lat="48.34519" lon="2.77037">
        <ele>73</ele>
        <time>2022-11-23T13:29:39.938Z</time>
      </trkpt>
      <trkpt lat="48.34523" lon="2.77044">
        <ele>72</ele>
        <time>2022-11-23T13:29:44.178Z</time>
      </trkpt>
      <trkpt lat="48.34527" lon="2.77051">
        <ele>72</ele>
        <time>2022-11-23T13:29:48.456Z</time>
      </trkpt>
      <trkpt lat="48.3453" lon="2.77059">
        <ele>72</ele>
        <time>2022-11-23T13:29:52.637Z</time>
      </trkpt>
      <trkpt lat="48.34534" lon="2.77068">
        <ele>72</ele>
        <time>2022-11-23T13:29:57.454Z</time>
      </trkpt>
      <trkpt lat="48.34538" lon="2.77074">
        <ele>71</ele>
        <time>2022-11-23T13:30:01.843Z</time>
      </trkpt>
      <trkpt lat="48.34542" lon="2.77083">
        <ele>75</ele>
        <time>2022-11-23T13:30:06.473Z</time>
      </trkpt>
      <trkpt lat="48.34546" lon="2.77089">
        <ele>75</ele>
        <time>2022-11-23T13:30:10.474Z</time>
      </trkpt>
      <trkpt lat="48.3455" lon="2.77097">
        <ele>75</ele>
        <time>2022-11-23T13:30:14.765Z</time>
      </trkpt>
      <trkpt lat="48.34554" lon="2.77104">
        <ele>74</ele>
        <time>2022-11-23T13:30:19.102Z</time>
      </trkpt>
      <trkpt lat="48.34557" lon="2.7711">
        <ele>74</ele>
        <time>2022-11-23T13:30:23.455Z</time>
      </trkpt>
      <trkpt lat="48.34559" lon="2.77109">
        <ele>74</ele>
        <time>2022-11-23T13:30:27.459Z</time>
      </trkpt>
      <trkpt lat="48.34558" lon="2.77108">
        <ele>74</ele>
        <time>2022-11-23T13:30:32.445Z</time>
      </trkpt>
      <trkpt lat="48.34558" lon="2.77108">
        <ele>74</ele>
        <time>2022-11-23T13:30:37.278Z</time>
      </trkpt>
      <trkpt lat="48.34557" lon="2.77118">
        <ele>74</ele>
        <time>2022-11-23T13:30:42.218Z</time>
      </trkpt>
      <trkpt lat="48.34553" lon="2.77125">
        <ele>72</ele>
        <time>2022-11-23T13:30:46.461Z</time>
      </trkpt>
      <trkpt lat="48.34549" lon="2.77127">
        <ele>72</ele>
        <time>2022-11-23T13:30:51.162Z</time>
      </trkpt>
      <trkpt lat="48.34544" lon="2.77129">
        <ele>72</ele>
        <time>2022-11-23T13:30:55.340Z</time>
      </trkpt>
      <trkpt lat="48.34536" lon="2.77137">
        <ele>69</ele>
        <time>2022-11-23T13:31:00.262Z</time>
      </trkpt>
      <trkpt lat="48.34531" lon="2.77142">
        <ele>69</ele>
        <time>2022-11-23T13:31:04.399Z</time>
      </trkpt>
      <trkpt lat="48.34526" lon="2.77146">
        <ele>69</ele>
        <time>2022-11-23T13:31:08.449Z</time>
      </trkpt>
      <trkpt lat="48.3452" lon="2.77151">
        <ele>69</ele>
        <time>2022-11-23T13:31:12.783Z</time>
      </trkpt>
      <trkpt lat="48.34515" lon="2.77157">
        <ele>68</ele>
        <time>2022-11-23T13:31:17.219Z</time>
      </trkpt>
      <trkpt lat="48.34509" lon="2.77164">
        <ele>64</ele>
        <time>2022-11-23T13:31:22.059Z</time>
      </trkpt>
      <trkpt lat="48.34504" lon="2.77167">
        <ele>64</ele>
        <time>2022-11-23T13:31:26.136Z</time>
      </trkpt>
      <trkpt lat="48.345" lon="2.77173">
        <ele>64</ele>
        <time>2022-11-23T13:31:30.356Z</time>
      </trkpt>
      <trkpt lat="48.34495" lon="2.7718">
        <ele>64</ele>
        <time>2022-11-23T13:31:35.458Z</time>
      </trkpt>
      <trkpt lat="48.34491" lon="2.77183">
        <ele>63</ele>
        <time>2022-11-23T13:31:39.823Z</time>
      </trkpt>
      <trkpt lat="48.34487" lon="2.77187">
        <ele>63</ele>
        <time>2022-11-23T13:31:44.283Z</time>
      </trkpt>
      <trkpt lat="48.34483" lon="2.77193">
        <ele>62</ele>
        <time>2022-11-23T13:31:48.379Z</time>
      </trkpt>
      <trkpt lat="48.34478" lon="2.77198">
        <ele>62</ele>
        <time>2022-11-23T13:31:52.456Z</time>
      </trkpt>
      <trkpt lat="48.34472" lon="2.77203">
        <ele>62</ele>
        <time>2022-11-23T13:31:57.223Z</time>
      </trkpt>
      <trkpt lat="48.34467" lon="2.77208">
        <ele>62</ele>
        <time>2022-11-23T13:32:01.464Z</time>
      </trkpt>
      <trkpt lat="48.34463" lon="2.77211">
        <ele>62</ele>
        <time>2022-11-23T13:32:06.001Z</time>
      </trkpt>
      <trkpt lat="48.34457" lon="2.77215">
        <ele>61</ele>
        <time>2022-11-23T13:32:10.481Z</time>
      </trkpt>
      <trkpt lat="48.34452" lon="2.7722">
        <ele>61</ele>
        <time>2022-11-23T13:32:15.100Z</time>
      </trkpt>
      <trkpt lat="48.34447" lon="2.77226">
        <ele>61</ele>
        <time>2022-11-23T13:32:19.407Z</time>
      </trkpt>
      <trkpt lat="48.34442" lon="2.77232">
        <ele>61</ele>
        <time>2022-11-23T13:32:24.379Z</time>
      </trkpt>
      <trkpt lat="48.34437" lon="2.77236">
        <ele>61</ele>
        <time>2022-11-23T13:32:28.471Z</time>
      </trkpt>
      <trkpt lat="48.34432" lon="2.77241">
        <ele>60</ele>
        <time>2022-11-23T13:32:33.142Z</time>
      </trkpt>
      <trkpt lat="48.34427" lon="2.77245">
        <ele>58</ele>
        <time>2022-11-23T13:32:37.466Z</time>
      </trkpt>
      <trkpt lat="48.34422" lon="2.77251">
        <ele>58</ele>
        <time>2022-11-23T13:32:42.184Z</time>
      </trkpt>
      <trkpt lat="48.34417" lon="2.77256">
        <ele>58</ele>
        <time>2022-11-23T13:32:46.473Z</time>
      </trkpt>
      <trkpt lat="48.34411" lon="2.77262">
        <ele>58</ele>
        <time>2022-11-23T13:32:51.397Z</time>
      </trkpt>
      <trkpt lat="48.34406" lon="2.77266">
        <ele>56</ele>
        <time>2022-11-23T13:32:55.481Z</time>
      </trkpt>
      <trkpt lat="48.344" lon="2.77273">
        <ele>56</ele>
        <time>2022-11-23T13:33:00.340Z</time>
      </trkpt>
      <trkpt lat="48.34395" lon="2.77277">
        <ele>56</ele>
        <time>2022-11-23T13:33:05.306Z</time>
      </trkpt>
      <trkpt lat="48.3439" lon="2.77283">
        <ele>56</ele>
        <time>2022-11-23T13:33:09.471Z</time>
      </trkpt>
      <trkpt lat="48.34384" lon="2.77288">
        <ele>56</ele>
        <time>2022-11-23T13:33:14.085Z</time>
      </trkpt>
      <trkpt lat="48.34379" lon="2.77293">
        <ele>55</ele>
        <time>2022-11-23T13:33:18.495Z</time>
      </trkpt>
      <trkpt lat="48.34373" lon="2.77297">
        <ele>55</ele>
        <time>2022-11-23T13:33:22.877Z</time>
      </trkpt>
      <trkpt lat="48.34369" lon="2.77303">
        <ele>55</ele>
        <time>2022-11-23T13:33:27.100Z</time>
      </trkpt>
      <trkpt lat="48.34364" lon="2.77308">
        <ele>55</ele>
        <time>2022-11-23T13:33:31.244Z</time>
      </trkpt>
      <trkpt lat="48.34359" lon="2.77312">
        <ele>55</ele>
        <time>2022-11-23T13:33:35.469Z</time>
      </trkpt>
      <trkpt lat="48.34354" lon="2.77317">
        <ele>55</ele>
        <time>2022-11-23T13:33:39.740Z</time>
      </trkpt>
      <trkpt lat="48.34349" lon="2.77323">
        <ele>54</ele>
        <time>2022-11-23T13:33:44.202Z</time>
      </trkpt>
      <trkpt lat="48.34344" lon="2.77329">
        <ele>54</ele>
        <time>2022-11-23T13:33:48.480Z</time>
      </trkpt>
      <trkpt lat="48.34341" lon="2.77336">
        <ele>54</ele>
        <time>2022-11-23T13:33:52.881Z</time>
      </trkpt>
      <trkpt lat="48.3434" lon="2.77344">
        <ele>54</ele>
        <time>2022-11-23T13:33:57.478Z</time>
      </trkpt>
      <trkpt lat="48.34341" lon="2.77349">
        <ele>53</ele>
        <time>2022-11-23T13:34:01.842Z</time>
      </trkpt>
      <trkpt lat="48.34344" lon="2.77352">
        <ele>53</ele>
        <time>2022-11-23T13:34:06.100Z</time>
      </trkpt>
      <trkpt lat="48.34349" lon="2.7736">
        <ele>54</ele>
        <time>2022-11-23T13:34:10.490Z</time>
      </trkpt>
      <trkpt lat="48.34353" lon="2.77364">
        <ele>54</ele>
        <time>2022-11-23T13:34:14.484Z</time>
      </trkpt>
      <trkpt lat="48.34358" lon="2.77372">
        <ele>54</ele>
        <time>2022-11-23T13:34:19.221Z</time>
      </trkpt>
      <trkpt lat="48.34361" lon="2.77379">
        <ele>54</ele>
        <time>2022-11-23T13:34:23.360Z</time>
      </trkpt>
      <trkpt lat="48.34366" lon="2.77386">
        <ele>54</ele>
        <time>2022-11-23T13:34:27.464Z</time>
      </trkpt>
      <trkpt lat="48.34371" lon="2.77392">
        <ele>54</ele>
        <time>2022-11-23T13:34:31.739Z</time>
      </trkpt>
      <trkpt lat="48.34375" lon="2.774">
        <ele>54</ele>
        <time>2022-11-23T13:34:36.325Z</time>
      </trkpt>
      <trkpt lat="48.34378" lon="2.77408">
        <ele>54</ele>
        <time>2022-11-23T13:34:40.442Z</time>
      </trkpt>
      <trkpt lat="48.34381" lon="2.77416">
        <ele>54</ele>
        <time>2022-11-23T13:34:45.071Z</time>
      </trkpt>
      <trkpt lat="48.34386" lon="2.77422">
        <ele>54</ele>
        <time>2022-11-23T13:34:49.457Z</time>
      </trkpt>
      <trkpt lat="48.34388" lon="2.77428">
        <ele>54</ele>
        <time>2022-11-23T13:34:53.486Z</time>
      </trkpt>
      <trkpt lat="48.34392" lon="2.77435">
        <ele>55</ele>
        <time>2022-11-23T13:34:58.280Z</time>
      </trkpt>
      <trkpt lat="48.34396" lon="2.77443">
        <ele>55</ele>
        <time>2022-11-23T13:35:02.488Z</time>
      </trkpt>
      <trkpt lat="48.34401" lon="2.77453">
        <ele>55</ele>
        <time>2022-11-23T13:35:07.338Z</time>
      </trkpt>
      <trkpt lat="48.34406" lon="2.77458">
        <ele>55</ele>
        <time>2022-11-23T13:35:11.450Z</time>
      </trkpt>
      <trkpt lat="48.3441" lon="2.77465">
        <ele>55</ele>
        <time>2022-11-23T13:35:15.453Z</time>
      </trkpt>
      <trkpt lat="48.34413" lon="2.77472">
        <ele>55</ele>
        <time>2022-11-23T13:35:19.798Z</time>
      </trkpt>
      <trkpt lat="48.34415" lon="2.77482">
        <ele>55</ele>
        <time>2022-11-23T13:35:24.472Z</time>
      </trkpt>
      <trkpt lat="48.34416" lon="2.77491">
        <ele>56</ele>
        <time>2022-11-23T13:35:29.040Z</time>
      </trkpt>
      <trkpt lat="48.3442" lon="2.77498">
        <ele>56</ele>
        <time>2022-11-23T13:35:33.155Z</time>
      </trkpt>
      <trkpt lat="48.34423" lon="2.77506">
        <ele>56</ele>
        <time>2022-11-23T13:35:38.103Z</time>
      </trkpt>
      <trkpt lat="48.34427" lon="2.77515">
        <ele>56</ele>
        <time>2022-11-23T13:35:43.100Z</time>
      </trkpt>
      <trkpt lat="48.34429" lon="2.77521">
        <ele>56</ele>
        <time>2022-11-23T13:35:47.099Z</time>
      </trkpt>
      <trkpt lat="48.34427" lon="2.77533">
        <ele>56</ele>
        <time>2022-11-23T13:35:52.071Z</time>
      </trkpt>
      <trkpt lat="48.34422" lon="2.77539">
        <ele>56</ele>
        <time>2022-11-23T13:35:56.144Z</time>
      </trkpt>
      <trkpt lat="48.34415" lon="2.77544">
        <ele>55</ele>
        <time>2022-11-23T13:36:00.453Z</time>
      </trkpt>
      <trkpt lat="48.34411" lon="2.77551">
        <ele>55</ele>
        <time>2022-11-23T13:36:04.980Z</time>
      </trkpt>
      <trkpt lat="48.34408" lon="2.77558">
        <ele>55</ele>
        <time>2022-11-23T13:36:09.022Z</time>
      </trkpt>
      <trkpt lat="48.34407" lon="2.77568">
        <ele>55</ele>
        <time>2022-11-23T13:36:13.439Z</time>
      </trkpt>
      <trkpt lat="48.3441" lon="2.77576">
        <ele>55</ele>
        <time>2022-11-23T13:36:17.481Z</time>
      </trkpt>
      <trkpt lat="48.34415" lon="2.77584">
        <ele>55</ele>
        <time>2022-11-23T13:36:21.979Z</time>
      </trkpt>
      <trkpt lat="48.34419" lon="2.7759">
        <ele>55</ele>
        <time>2022-11-23T13:36:26.144Z</time>
      </trkpt>
      <trkpt lat="48.34423" lon="2.77596">
        <ele>55</ele>
        <time>2022-11-23T13:36:30.462Z</time>
      </trkpt>
      <trkpt lat="48.34425" lon="2.77602">
        <ele>55</ele>
        <time>2022-11-23T13:36:34.469Z</time>
      </trkpt>
      <trkpt lat="48.34427" lon="2.7761">
        <ele>55</ele>
        <time>2022-11-23T13:36:38.473Z</time>
      </trkpt>
      <trkpt lat="48.34428" lon="2.77618">
        <ele>55</ele>
        <time>2022-11-23T13:36:42.642Z</time>
      </trkpt>
      <trkpt lat="48.34427" lon="2.77625">
        <ele>54</ele>
        <time>2022-11-23T13:36:47.478Z</time>
      </trkpt>
      <trkpt lat="48.34424" lon="2.77634">
        <ele>54</ele>
        <time>2022-11-23T13:36:51.841Z</time>
      </trkpt>
      <trkpt lat="48.34418" lon="2.77641">
        <ele>54</ele>
        <time>2022-11-23T13:36:56.479Z</time>
      </trkpt>
      <trkpt lat="48.34411" lon="2.77645">
        <ele>54</ele>
        <time>2022-11-23T13:37:00.637Z</time>
      </trkpt>
      <trkpt lat="48.34404" lon="2.77651">
        <ele>54</ele>
        <time>2022-11-23T13:37:05.472Z</time>
      </trkpt>
      <trkpt lat="48.34398" lon="2.77655">
        <ele>51</ele>
        <time>2022-11-23T13:37:09.644Z</time>
      </trkpt>
      <trkpt lat="48.34392" lon="2.7766">
        <ele>51</ele>
        <time>2022-11-23T13:37:14.480Z</time>
      </trkpt>
      <trkpt lat="48.34387" lon="2.77665">
        <ele>51</ele>
        <time>2022-11-23T13:37:19.003Z</time>
      </trkpt>
      <trkpt lat="48.34382" lon="2.77668">
        <ele>51</ele>
        <time>2022-11-23T13:37:23.197Z</time>
      </trkpt>
      <trkpt lat="48.34376" lon="2.77675">
        <ele>51</ele>
        <time>2022-11-23T13:37:28.122Z</time>
      </trkpt>
      <trkpt lat="48.3437" lon="2.77681">
        <ele>51</ele>
        <time>2022-11-23T13:37:33.078Z</time>
      </trkpt>
      <trkpt lat="48.34365" lon="2.77682">
        <ele>51</ele>
        <time>2022-11-23T13:37:38.301Z</time>
      </trkpt>
      <trkpt lat="48.34356" lon="2.77687">
        <ele>51</ele>
        <time>2022-11-23T13:37:43.242Z</time>
      </trkpt>
      <trkpt lat="48.3435" lon="2.77693">
        <ele>51</ele>
        <time>2022-11-23T13:37:47.803Z</time>
      </trkpt>
      <trkpt lat="48.34343" lon="2.777">
        <ele>51</ele>
        <time>2022-11-23T13:37:52.475Z</time>
      </trkpt>
      <trkpt lat="48.34336" lon="2.77705">
        <ele>51</ele>
        <time>2022-11-23T13:37:57.160Z</time>
      </trkpt>
      <trkpt lat="48.34332" lon="2.7771">
        <ele>51</ele>
        <time>2022-11-23T13:38:01.262Z</time>
      </trkpt>
      <trkpt lat="48.34326" lon="2.77716">
        <ele>51</ele>
        <time>2022-11-23T13:38:05.476Z</time>
      </trkpt>
      <trkpt lat="48.34321" lon="2.77721">
        <ele>51</ele>
        <time>2022-11-23T13:38:09.845Z</time>
      </trkpt>
      <trkpt lat="48.34316" lon="2.77726">
        <ele>51</ele>
        <time>2022-11-23T13:38:14.325Z</time>
      </trkpt>
      <trkpt lat="48.3431" lon="2.7773">
        <ele>51</ele>
        <time>2022-11-23T13:38:18.322Z</time>
      </trkpt>
      <trkpt lat="48.34305" lon="2.77735">
        <ele>51</ele>
        <time>2022-11-23T13:38:22.481Z</time>
      </trkpt>
      <trkpt lat="48.34299" lon="2.7774">
        <ele>50</ele>
        <time>2022-11-23T13:38:26.784Z</time>
      </trkpt>
      <trkpt lat="48.34295" lon="2.77745">
        <ele>50</ele>
        <time>2022-11-23T13:38:31.066Z</time>
      </trkpt>
      <trkpt lat="48.34289" lon="2.77749">
        <ele>50</ele>
        <time>2022-11-23T13:38:35.681Z</time>
      </trkpt>
      <trkpt lat="48.34283" lon="2.77753">
        <ele>50</ele>
        <time>2022-11-23T13:38:40.299Z</time>
      </trkpt>
      <trkpt lat="48.34276" lon="2.77759">
        <ele>50</ele>
        <time>2022-11-23T13:38:45.486Z</time>
      </trkpt>
      <trkpt lat="48.34269" lon="2.77766">
        <ele>48</ele>
        <time>2022-11-23T13:38:49.798Z</time>
      </trkpt>
      <trkpt lat="48.34264" lon="2.7777">
        <ele>48</ele>
        <time>2022-11-23T13:38:53.839Z</time>
      </trkpt>
      <trkpt lat="48.34258" lon="2.77775">
        <ele>49</ele>
        <time>2022-11-23T13:38:58.282Z</time>
      </trkpt>
      <trkpt lat="48.34254" lon="2.7778">
        <ele>49</ele>
        <time>2022-11-23T13:39:02.477Z</time>
      </trkpt>
      <trkpt lat="48.34249" lon="2.77785">
        <ele>49</ele>
        <time>2022-11-23T13:39:06.476Z</time>
      </trkpt>
      <trkpt lat="48.34243" lon="2.7779">
        <ele>49</ele>
        <time>2022-11-23T13:39:11.468Z</time>
      </trkpt>
      <trkpt lat="48.34237" lon="2.77793">
        <ele>49</ele>
        <time>2022-11-23T13:39:15.980Z</time>
      </trkpt>
      <trkpt lat="48.34231" lon="2.77794">
        <ele>51</ele>
        <time>2022-11-23T13:39:20.025Z</time>
      </trkpt>
      <trkpt lat="48.34225" lon="2.778">
        <ele>51</ele>
        <time>2022-11-23T13:39:24.158Z</time>
      </trkpt>
      <trkpt lat="48.3422" lon="2.77805">
        <ele>51</ele>
        <time>2022-11-23T13:39:28.380Z</time>
      </trkpt>
      <trkpt lat="48.34214" lon="2.7781">
        <ele>51</ele>
        <time>2022-11-23T13:39:32.456Z</time>
      </trkpt>
      <trkpt lat="48.34209" lon="2.77814">
        <ele>51</ele>
        <time>2022-11-23T13:39:36.666Z</time>
      </trkpt>
      <trkpt lat="48.34204" lon="2.77818">
        <ele>52</ele>
        <time>2022-11-23T13:39:40.797Z</time>
      </trkpt>
      <trkpt lat="48.34199" lon="2.77822">
        <ele>54</ele>
        <time>2022-11-23T13:39:45.041Z</time>
      </trkpt>
      <trkpt lat="48.34194" lon="2.77825">
        <ele>54</ele>
        <time>2022-11-23T13:39:49.445Z</time>
      </trkpt>
      <trkpt lat="48.34189" lon="2.7783">
        <ele>54</ele>
        <time>2022-11-23T13:39:53.777Z</time>
      </trkpt>
      <trkpt lat="48.34184" lon="2.77833">
        <ele>54</ele>
        <time>2022-11-23T13:39:57.979Z</time>
      </trkpt>
      <trkpt lat="48.34178" lon="2.77837">
        <ele>53</ele>
        <time>2022-11-23T13:40:02.398Z</time>
      </trkpt>
      <trkpt lat="48.34172" lon="2.7784">
        <ele>53</ele>
        <time>2022-11-23T13:40:07.260Z</time>
      </trkpt>
      <trkpt lat="48.34166" lon="2.77842">
        <ele>53</ele>
        <time>2022-11-23T13:40:11.480Z</time>
      </trkpt>
      <trkpt lat="48.34161" lon="2.77846">
        <ele>53</ele>
        <time>2022-11-23T13:40:15.484Z</time>
      </trkpt>
      <trkpt lat="48.34157" lon="2.77849">
        <ele>53</ele>
        <time>2022-11-23T13:40:19.963Z</time>
      </trkpt>
      <trkpt lat="48.34153" lon="2.77856">
        <ele>53</ele>
        <time>2022-11-23T13:40:24.238Z</time>
      </trkpt>
      <trkpt lat="48.34149" lon="2.77863">
        <ele>52</ele>
        <time>2022-11-23T13:40:28.421Z</time>
      </trkpt>
      <trkpt lat="48.34145" lon="2.7787">
        <ele>52</ele>
        <time>2022-11-23T13:40:32.806Z</time>
      </trkpt>
      <trkpt lat="48.34141" lon="2.77874">
        <ele>52</ele>
        <time>2022-11-23T13:40:37.174Z</time>
      </trkpt>
      <trkpt lat="48.3414" lon="2.77877">
        <ele>51</ele>
        <time>2022-11-23T13:40:41.447Z</time>
      </trkpt>
      <trkpt lat="48.34136" lon="2.77883">
        <ele>51</ele>
        <time>2022-11-23T13:40:45.442Z</time>
      </trkpt>
      <trkpt lat="48.34132" lon="2.7789">
        <ele>51</ele>
        <time>2022-11-23T13:40:49.785Z</time>
      </trkpt>
      <trkpt lat="48.34128" lon="2.77896">
        <ele>51</ele>
        <time>2022-11-23T13:40:54.217Z</time>
      </trkpt>
      <trkpt lat="48.34123" lon="2.77904">
        <ele>50</ele>
        <time>2022-11-23T13:40:58.459Z</time>
      </trkpt>
      <trkpt lat="48.34117" lon="2.77909">
        <ele>50</ele>
        <time>2022-11-23T13:41:03.478Z</time>
      </trkpt>
      <trkpt lat="48.3411" lon="2.77915">
        <ele>50</ele>
        <time>2022-11-23T13:41:08.305Z</time>
      </trkpt>
      <trkpt lat="48.34105" lon="2.77919">
        <ele>50</ele>
        <time>2022-11-23T13:41:12.489Z</time>
      </trkpt>
      <trkpt lat="48.34097" lon="2.77924">
        <ele>50</ele>
        <time>2022-11-23T13:41:17.157Z</time>
      </trkpt>
      <trkpt lat="48.34092" lon="2.7793">
        <ele>49</ele>
        <time>2022-11-23T13:41:21.450Z</time>
      </trkpt>
      <trkpt lat="48.34087" lon="2.77936">
        <ele>48</ele>
        <time>2022-11-23T13:41:25.758Z</time>
      </trkpt>
      <trkpt lat="48.34083" lon="2.7794">
        <ele>48</ele>
        <time>2022-11-23T13:41:30.037Z</time>
      </trkpt>
      <trkpt lat="48.34077" lon="2.77946">
        <ele>48</ele>
        <time>2022-11-23T13:41:34.380Z</time>
      </trkpt>
      <trkpt lat="48.34072" lon="2.7795">
        <ele>48</ele>
        <time>2022-11-23T13:41:38.700Z</time>
      </trkpt>
      <trkpt lat="48.34067" lon="2.77953">
        <ele>48</ele>
        <time>2022-11-23T13:41:42.979Z</time>
      </trkpt>
      <trkpt lat="48.34062" lon="2.77956">
        <ele>48</ele>
        <time>2022-11-23T13:41:47.018Z</time>
      </trkpt>
      <trkpt lat="48.34056" lon="2.77958">
        <ele>48</ele>
        <time>2022-11-23T13:41:51.465Z</time>
      </trkpt>
      <trkpt lat="48.3405" lon="2.7796">
        <ele>48</ele>
        <time>2022-11-23T13:41:56.220Z</time>
      </trkpt>
      <trkpt lat="48.34042" lon="2.77964">
        <ele>50</ele>
        <time>2022-11-23T13:42:01.482Z</time>
      </trkpt>
      <trkpt lat="48.34036" lon="2.77969">
        <ele>50</ele>
        <time>2022-11-23T13:42:05.799Z</time>
      </trkpt>
      <trkpt lat="48.34032" lon="2.77974">
        <ele>50</ele>
        <time>2022-11-23T13:42:10.180Z</time>
      </trkpt>
      <trkpt lat="48.34028" lon="2.77977">
        <ele>50</ele>
        <time>2022-11-23T13:42:14.204Z</time>
      </trkpt>
      <trkpt lat="48.34024" lon="2.77982">
        <ele>50</ele>
        <time>2022-11-23T13:42:18.472Z</time>
      </trkpt>
      <trkpt lat="48.34019" lon="2.77985">
        <ele>50</ele>
        <time>2022-11-23T13:42:23.016Z</time>
      </trkpt>
      <trkpt lat="48.34015" lon="2.77987">
        <ele>50</ele>
        <time>2022-11-23T13:42:27.280Z</time>
      </trkpt>
      <trkpt lat="48.3401" lon="2.77984">
        <ele>51</ele>
        <time>2022-11-23T13:42:31.463Z</time>
      </trkpt>
      <trkpt lat="48.34006" lon="2.77977">
        <ele>51</ele>
        <time>2022-11-23T13:42:36.021Z</time>
      </trkpt>
      <trkpt lat="48.34001" lon="2.77969">
        <ele>51</ele>
        <time>2022-11-23T13:42:40.469Z</time>
      </trkpt>
      <trkpt lat="48.33996" lon="2.7796">
        <ele>51</ele>
        <time>2022-11-23T13:42:45.041Z</time>
      </trkpt>
      <trkpt lat="48.33993" lon="2.77955">
        <ele>51</ele>
        <time>2022-11-23T13:42:49.448Z</time>
      </trkpt>
      <trkpt lat="48.3399" lon="2.7795">
        <ele>51</ele>
        <time>2022-11-23T13:42:54.417Z</time>
      </trkpt>
      <trkpt lat="48.33988" lon="2.77948">
        <ele>51</ele>
        <time>2022-11-23T13:42:59.450Z</time>
      </trkpt>
      <trkpt lat="48.33987" lon="2.77947">
        <ele>51</ele>
        <time>2022-11-23T13:43:03.453Z</time>
      </trkpt>
      <trkpt lat="48.33984" lon="2.77948">
        <ele>52</ele>
        <time>2022-11-23T13:43:07.736Z</time>
      </trkpt>
      <trkpt lat="48.3398" lon="2.77948">
        <ele>52</ele>
        <time>2022-11-23T13:43:12.282Z</time>
      </trkpt>
      <trkpt lat="48.33975" lon="2.77947">
        <ele>52</ele>
        <time>2022-11-23T13:43:16.397Z</time>
      </trkpt>
      <trkpt lat="48.33971" lon="2.77944">
        <ele>52</ele>
        <time>2022-11-23T13:43:20.444Z</time>
      </trkpt>
      <trkpt lat="48.33968" lon="2.77942">
        <ele>52</ele>
        <time>2022-11-23T13:43:24.763Z</time>
      </trkpt>
      <trkpt lat="48.33963" lon="2.77938">
        <ele>52</ele>
        <time>2022-11-23T13:43:28.863Z</time>
      </trkpt>
      <trkpt lat="48.33953" lon="2.77944">
        <ele>55</ele>
        <time>2022-11-23T13:43:33.432Z</time>
      </trkpt>
      <trkpt lat="48.33948" lon="2.77948">
        <ele>55</ele>
        <time>2022-11-23T13:43:37.447Z</time>
      </trkpt>
      <trkpt lat="48.33945" lon="2.77948">
        <ele>55</ele>
        <time>2022-11-23T13:43:42.401Z</time>
      </trkpt>
      <trkpt lat="48.33939" lon="2.77953">
        <ele>55</ele>
        <time>2022-11-23T13:43:47.004Z</time>
      </trkpt>
      <trkpt lat="48.33934" lon="2.77958">
        <ele>55</ele>
        <time>2022-11-23T13:43:51.439Z</time>
      </trkpt>
      <trkpt lat="48.33929" lon="2.77961">
        <ele>55</ele>
        <time>2022-11-23T13:43:55.716Z</time>
      </trkpt>
      <trkpt lat="48.33923" lon="2.77964">
        <ele>55</ele>
        <time>2022-11-23T13:44:00.438Z</time>
      </trkpt>
      <trkpt lat="48.33918" lon="2.77971">
        <ele>55</ele>
        <time>2022-11-23T13:44:04.756Z</time>
      </trkpt>
      <trkpt lat="48.33915" lon="2.77974">
        <ele>55</ele>
        <time>2022-11-23T13:44:08.863Z</time>
      </trkpt>
      <trkpt lat="48.33911" lon="2.77981">
        <ele>55</ele>
        <time>2022-11-23T13:44:13.445Z</time>
      </trkpt>
      <trkpt lat="48.33911" lon="2.77981">
        <ele>55</ele>
        <time>2022-11-23T13:44:18.071Z</time>
      </trkpt>
      <trkpt lat="48.33909" lon="2.77983">
        <ele>55</ele>
        <time>2022-11-23T13:44:22.457Z</time>
      </trkpt>
      <trkpt lat="48.33907" lon="2.77982">
        <ele>55</ele>
        <time>2022-11-23T13:44:27.445Z</time>
      </trkpt>
      <trkpt lat="48.33903" lon="2.77986">
        <ele>55</ele>
        <time>2022-11-23T13:44:32.146Z</time>
      </trkpt>
      <trkpt lat="48.33898" lon="2.7799">
        <ele>56</ele>
        <time>2022-11-23T13:44:37.102Z</time>
      </trkpt>
      <trkpt lat="48.33893" lon="2.77997">
        <ele>56</ele>
        <time>2022-11-23T13:44:41.443Z</time>
      </trkpt>
      <trkpt lat="48.33885" lon="2.78002">
        <ele>56</ele>
        <time>2022-11-23T13:44:45.917Z</time>
      </trkpt>
      <trkpt lat="48.33882" lon="2.78007">
        <ele>56</ele>
        <time>2022-11-23T13:44:50.450Z</time>
      </trkpt>
      <trkpt lat="48.33876" lon="2.7801">
        <ele>56</ele>
        <time>2022-11-23T13:44:55.004Z</time>
      </trkpt>
      <trkpt lat="48.33871" lon="2.78015">
        <ele>56</ele>
        <time>2022-11-23T13:44:59.437Z</time>
      </trkpt>
      <trkpt lat="48.3387" lon="2.78015">
        <ele>56</ele>
        <time>2022-11-23T13:45:04.142Z</time>
      </trkpt>
      <trkpt lat="48.33867" lon="2.78018">
        <ele>56</ele>
        <time>2022-11-23T13:45:08.566Z</time>
      </trkpt>
      <trkpt lat="48.33864" lon="2.78023">
        <ele>56</ele>
        <time>2022-11-23T13:45:12.981Z</time>
      </trkpt>
      <trkpt lat="48.33861" lon="2.78029">
        <ele>56</ele>
        <time>2022-11-23T13:45:17.329Z</time>
      </trkpt>
      <trkpt lat="48.33859" lon="2.78036">
        <ele>56</ele>
        <time>2022-11-23T13:45:21.724Z</time>
      </trkpt>
      <trkpt lat="48.33854" lon="2.78041">
        <ele>56</ele>
        <time>2022-11-23T13:45:26.226Z</time>
      </trkpt>
      <trkpt lat="48.33849" lon="2.78046">
        <ele>56</ele>
        <time>2022-11-23T13:45:31.176Z</time>
      </trkpt>
      <trkpt lat="48.33845" lon="2.7805">
        <ele>55</ele>
        <time>2022-11-23T13:45:35.449Z</time>
      </trkpt>
      <trkpt lat="48.3384" lon="2.78055">
        <ele>55</ele>
        <time>2022-11-23T13:45:39.779Z</time>
      </trkpt>
      <trkpt lat="48.33834" lon="2.78059">
        <ele>55</ele>
        <time>2022-11-23T13:45:44.341Z</time>
      </trkpt>
      <trkpt lat="48.3383" lon="2.78066">
        <ele>55</ele>
        <time>2022-11-23T13:45:48.398Z</time>
      </trkpt>
      <trkpt lat="48.33826" lon="2.78069">
        <ele>55</ele>
        <time>2022-11-23T13:45:52.474Z</time>
      </trkpt>
      <trkpt lat="48.3382" lon="2.78071">
        <ele>56</ele>
        <time>2022-11-23T13:45:57.450Z</time>
      </trkpt>
      <trkpt lat="48.33814" lon="2.78075">
        <ele>58</ele>
        <time>2022-11-23T13:46:01.449Z</time>
      </trkpt>
      <trkpt lat="48.33809" lon="2.7808">
        <ele>58</ele>
        <time>2022-11-23T13:46:05.466Z</time>
      </trkpt>
      <trkpt lat="48.33801" lon="2.78087">
        <ele>58</ele>
        <time>2022-11-23T13:46:10.420Z</time>
      </trkpt>
      <trkpt lat="48.33797" lon="2.78092">
        <ele>58</ele>
        <time>2022-11-23T13:46:14.442Z</time>
      </trkpt>
      <trkpt lat="48.33791" lon="2.78099">
        <ele>58</ele>
        <time>2022-11-23T13:46:19.455Z</time>
      </trkpt>
      <trkpt lat="48.33785" lon="2.78103">
        <ele>58</ele>
        <time>2022-11-23T13:46:24.056Z</time>
      </trkpt>
      <trkpt lat="48.3378" lon="2.78108">
        <ele>58</ele>
        <time>2022-11-23T13:46:28.320Z</time>
      </trkpt>
      <trkpt lat="48.33775" lon="2.78112">
        <ele>58</ele>
        <time>2022-11-23T13:46:32.463Z</time>
      </trkpt>
      <trkpt lat="48.33771" lon="2.78117">
        <ele>58</ele>
        <time>2022-11-23T13:46:36.454Z</time>
      </trkpt>
      <trkpt lat="48.33766" lon="2.78123">
        <ele>58</ele>
        <time>2022-11-23T13:46:41.437Z</time>
      </trkpt>
      <trkpt lat="48.33759" lon="2.78125">
        <ele>57</ele>
        <time>2022-11-23T13:46:45.464Z</time>
      </trkpt>
      <trkpt lat="48.33754" lon="2.78128">
        <ele>57</ele>
        <time>2022-11-23T13:46:49.460Z</time>
      </trkpt>
      <trkpt lat="48.3375" lon="2.78133">
        <ele>57</ele>
        <time>2022-11-23T13:46:53.482Z</time>
      </trkpt>
      <trkpt lat="48.33744" lon="2.78138">
        <ele>57</ele>
        <time>2022-11-23T13:46:57.883Z</time>
      </trkpt>
      <trkpt lat="48.33738" lon="2.78142">
        <ele>57</ele>
        <time>2022-11-23T13:47:01.944Z</time>
      </trkpt>
      <trkpt lat="48.33732" lon="2.78146">
        <ele>57</ele>
        <time>2022-11-23T13:47:06.441Z</time>
      </trkpt>
      <trkpt lat="48.33727" lon="2.7815">
        <ele>57</ele>
        <time>2022-11-23T13:47:11.465Z</time>
      </trkpt>
      <trkpt lat="48.3372" lon="2.78156">
        <ele>56</ele>
        <time>2022-11-23T13:47:16.164Z</time>
      </trkpt>
      <trkpt lat="48.33715" lon="2.78163">
        <ele>56</ele>
        <time>2022-11-23T13:47:21.162Z</time>
      </trkpt>
      <trkpt lat="48.33709" lon="2.78168">
        <ele>56</ele>
        <time>2022-11-23T13:47:25.221Z</time>
      </trkpt>
      <trkpt lat="48.33703" lon="2.78175">
        <ele>53</ele>
        <time>2022-11-23T13:47:29.469Z</time>
      </trkpt>
      <trkpt lat="48.33698" lon="2.7818">
        <ele>53</ele>
        <time>2022-11-23T13:47:34.455Z</time>
      </trkpt>
      <trkpt lat="48.33692" lon="2.78181">
        <ele>52</ele>
        <time>2022-11-23T13:47:38.469Z</time>
      </trkpt>
      <trkpt lat="48.33687" lon="2.78181">
        <ele>52</ele>
        <time>2022-11-23T13:47:43.120Z</time>
      </trkpt>
      <trkpt lat="48.33682" lon="2.78184">
        <ele>52</ele>
        <time>2022-11-23T13:49:02.470Z</time>
      </trkpt>
      <trkpt lat="48.33681" lon="2.7819">
        <ele>52</ele>
        <time>2022-11-23T13:49:07.095Z</time>
      </trkpt>
      <trkpt lat="48.33676" lon="2.78196">
        <ele>49</ele>
        <time>2022-11-23T13:49:11.366Z</time>
      </trkpt>
      <trkpt lat="48.33669" lon="2.78201">
        <ele>49</ele>
        <time>2022-11-23T13:49:15.973Z</time>
      </trkpt>
      <trkpt lat="48.33664" lon="2.78203">
        <ele>49</ele>
        <time>2022-11-23T13:49:20.203Z</time>
      </trkpt>
      <trkpt lat="48.33663" lon="2.78205">
        <ele>49</ele>
        <time>2022-11-23T13:49:24.358Z</time>
      </trkpt>
      <trkpt lat="48.33656" lon="2.78206">
        <ele>49</ele>
        <time>2022-11-23T13:49:29.162Z</time>
      </trkpt>
      <trkpt lat="48.33651" lon="2.78213">
        <ele>48</ele>
        <time>2022-11-23T13:49:33.198Z</time>
      </trkpt>
      <trkpt lat="48.33643" lon="2.7822">
        <ele>48</ele>
        <time>2022-11-23T13:49:37.462Z</time>
      </trkpt>
      <trkpt lat="48.33639" lon="2.78229">
        <ele>48</ele>
        <time>2022-11-23T13:49:41.903Z</time>
      </trkpt>
      <trkpt lat="48.33634" lon="2.78235">
        <ele>48</ele>
        <time>2022-11-23T13:49:46.376Z</time>
      </trkpt>
      <trkpt lat="48.33628" lon="2.7824">
        <ele>48</ele>
        <time>2022-11-23T13:49:50.417Z</time>
      </trkpt>
      <trkpt lat="48.33624" lon="2.78245">
        <ele>48</ele>
        <time>2022-11-23T13:49:54.461Z</time>
      </trkpt>
      <trkpt lat="48.3362" lon="2.78249">
        <ele>48</ele>
        <time>2022-11-23T13:49:58.844Z</time>
      </trkpt>
      <trkpt lat="48.33618" lon="2.78259">
        <ele>48</ele>
        <time>2022-11-23T13:50:03.286Z</time>
      </trkpt>
      <trkpt lat="48.33614" lon="2.78266">
        <ele>47</ele>
        <time>2022-11-23T13:50:07.461Z</time>
      </trkpt>
      <trkpt lat="48.33613" lon="2.78275">
        <ele>47</ele>
        <time>2022-11-23T13:50:11.896Z</time>
      </trkpt>
      <trkpt lat="48.33611" lon="2.78283">
        <ele>47</ele>
        <time>2022-11-23T13:50:16.024Z</time>
      </trkpt>
      <trkpt lat="48.33609" lon="2.7829">
        <ele>47</ele>
        <time>2022-11-23T13:50:20.135Z</time>
      </trkpt>
      <trkpt lat="48.33606" lon="2.783">
        <ele>46</ele>
        <time>2022-11-23T13:50:24.336Z</time>
      </trkpt>
      <trkpt lat="48.33604" lon="2.78306">
        <ele>46</ele>
        <time>2022-11-23T13:50:28.803Z</time>
      </trkpt>
      <trkpt lat="48.33603" lon="2.78317">
        <ele>46</ele>
        <time>2022-11-23T13:50:33.298Z</time>
      </trkpt>
      <trkpt lat="48.33603" lon="2.78327">
        <ele>46</ele>
        <time>2022-11-23T13:50:37.455Z</time>
      </trkpt>
      <trkpt lat="48.33602" lon="2.78336">
        <ele>46</ele>
        <time>2022-11-23T13:50:41.862Z</time>
      </trkpt>
      <trkpt lat="48.33601" lon="2.78344">
        <ele>46</ele>
        <time>2022-11-23T13:50:46.163Z</time>
      </trkpt>
      <trkpt lat="48.33598" lon="2.78352">
        <ele>48</ele>
        <time>2022-11-23T13:50:50.337Z</time>
      </trkpt>
      <trkpt lat="48.33595" lon="2.7836">
        <ele>49</ele>
        <time>2022-11-23T13:50:54.483Z</time>
      </trkpt>
      <trkpt lat="48.33591" lon="2.78369">
        <ele>49</ele>
        <time>2022-11-23T13:50:59.004Z</time>
      </trkpt>
      <trkpt lat="48.33587" lon="2.78377">
        <ele>49</ele>
        <time>2022-11-23T13:51:03.101Z</time>
      </trkpt>
      <trkpt lat="48.33581" lon="2.78385">
        <ele>49</ele>
        <time>2022-11-23T13:51:08.094Z</time>
      </trkpt>
      <trkpt lat="48.33578" lon="2.78393">
        <ele>49</ele>
        <time>2022-11-23T13:51:12.199Z</time>
      </trkpt>
      <trkpt lat="48.33578" lon="2.78402">
        <ele>49</ele>
        <time>2022-11-23T13:51:16.236Z</time>
      </trkpt>
      <trkpt lat="48.33578" lon="2.7841">
        <ele>50</ele>
        <time>2022-11-23T13:51:20.319Z</time>
      </trkpt>
      <trkpt lat="48.33578" lon="2.78418">
        <ele>50</ele>
        <time>2022-11-23T13:51:24.418Z</time>
      </trkpt>
      <trkpt lat="48.33579" lon="2.78426">
        <ele>50</ele>
        <time>2022-11-23T13:51:28.454Z</time>
      </trkpt>
      <trkpt lat="48.33579" lon="2.78436">
        <ele>51</ele>
        <time>2022-11-23T13:51:32.962Z</time>
      </trkpt>
      <trkpt lat="48.33581" lon="2.78445">
        <ele>51</ele>
        <time>2022-11-23T13:51:37.105Z</time>
      </trkpt>
      <trkpt lat="48.33583" lon="2.78454">
        <ele>51</ele>
        <time>2022-11-23T13:51:41.479Z</time>
      </trkpt>
      <trkpt lat="48.33585" lon="2.78465">
        <ele>52</ele>
        <time>2022-11-23T13:51:46.017Z</time>
      </trkpt>
      <trkpt lat="48.33587" lon="2.78474">
        <ele>52</ele>
        <time>2022-11-23T13:51:50.097Z</time>
      </trkpt>
      <trkpt lat="48.33591" lon="2.78481">
        <ele>52</ele>
        <time>2022-11-23T13:51:54.198Z</time>
      </trkpt>
      <trkpt lat="48.33595" lon="2.78488">
        <ele>52</ele>
        <time>2022-11-23T13:51:58.281Z</time>
      </trkpt>
      <trkpt lat="48.33597" lon="2.78494">
        <ele>52</ele>
        <time>2022-11-23T13:52:02.378Z</time>
      </trkpt>
      <trkpt lat="48.33602" lon="2.785">
        <ele>50</ele>
        <time>2022-11-23T13:52:07.201Z</time>
      </trkpt>
      <trkpt lat="48.33606" lon="2.78505">
        <ele>50</ele>
        <time>2022-11-23T13:52:11.400Z</time>
      </trkpt>
      <trkpt lat="48.33612" lon="2.78509">
        <ele>50</ele>
        <time>2022-11-23T13:52:15.471Z</time>
      </trkpt>
      <trkpt lat="48.33616" lon="2.78516">
        <ele>50</ele>
        <time>2022-11-23T13:52:20.041Z</time>
      </trkpt>
      <trkpt lat="48.3362" lon="2.78521">
        <ele>50</ele>
        <time>2022-11-23T13:52:24.098Z</time>
      </trkpt>
      <trkpt lat="48.33623" lon="2.78529">
        <ele>50</ele>
        <time>2022-11-23T13:52:28.470Z</time>
      </trkpt>
      <trkpt lat="48.33627" lon="2.78538">
        <ele>49</ele>
        <time>2022-11-23T13:52:32.919Z</time>
      </trkpt>
      <trkpt lat="48.3363" lon="2.78546">
        <ele>49</ele>
        <time>2022-11-23T13:52:37.302Z</time>
      </trkpt>
      <trkpt lat="48.33633" lon="2.78556">
        <ele>49</ele>
        <time>2022-11-23T13:52:42.284Z</time>
      </trkpt>
      <trkpt lat="48.33636" lon="2.78563">
        <ele>49</ele>
        <time>2022-11-23T13:52:46.476Z</time>
      </trkpt>
      <trkpt lat="48.33639" lon="2.78571">
        <ele>50</ele>
        <time>2022-11-23T13:52:50.824Z</time>
      </trkpt>
      <trkpt lat="48.33641" lon="2.78578">
        <ele>50</ele>
        <time>2022-11-23T13:52:54.906Z</time>
      </trkpt>
      <trkpt lat="48.33644" lon="2.78583">
        <ele>50</ele>
        <time>2022-11-23T13:52:59.218Z</time>
      </trkpt>
      <trkpt lat="48.33649" lon="2.78591">
        <ele>50</ele>
        <time>2022-11-23T13:53:03.561Z</time>
      </trkpt>
      <trkpt lat="48.33652" lon="2.78596">
        <ele>50</ele>
        <time>2022-11-23T13:53:07.764Z</time>
      </trkpt>
      <trkpt lat="48.33656" lon="2.78601">
        <ele>47</ele>
        <time>2022-11-23T13:53:11.797Z</time>
      </trkpt>
      <trkpt lat="48.3366" lon="2.78607">
        <ele>47</ele>
        <time>2022-11-23T13:53:15.839Z</time>
      </trkpt>
      <trkpt lat="48.33662" lon="2.78612">
        <ele>47</ele>
        <time>2022-11-23T13:53:20.120Z</time>
      </trkpt>
      <trkpt lat="48.33667" lon="2.78621">
        <ele>47</ele>
        <time>2022-11-23T13:53:24.462Z</time>
      </trkpt>
      <trkpt lat="48.3367" lon="2.78628">
        <ele>48</ele>
        <time>2022-11-23T13:53:29.088Z</time>
      </trkpt>
      <trkpt lat="48.33674" lon="2.78633">
        <ele>48</ele>
        <time>2022-11-23T13:53:33.458Z</time>
      </trkpt>
      <trkpt lat="48.33675" lon="2.7864">
        <ele>48</ele>
        <time>2022-11-23T13:53:38.260Z</time>
      </trkpt>
      <trkpt lat="48.33678" lon="2.78649">
        <ele>48</ele>
        <time>2022-11-23T13:53:42.640Z</time>
      </trkpt>
      <trkpt lat="48.33682" lon="2.78656">
        <ele>48</ele>
        <time>2022-11-23T13:53:47.115Z</time>
      </trkpt>
      <trkpt lat="48.33684" lon="2.78665">
        <ele>48</ele>
        <time>2022-11-23T13:53:51.387Z</time>
      </trkpt>
      <trkpt lat="48.33687" lon="2.78674">
        <ele>48</ele>
        <time>2022-11-23T13:53:56.095Z</time>
      </trkpt>
      <trkpt lat="48.3369" lon="2.78681">
        <ele>50</ele>
        <time>2022-11-23T13:54:00.301Z</time>
      </trkpt>
      <trkpt lat="48.33694" lon="2.7869">
        <ele>50</ele>
        <time>2022-11-23T13:54:04.386Z</time>
      </trkpt>
      <trkpt lat="48.33699" lon="2.78694">
        <ele>50</ele>
        <time>2022-11-23T13:54:09.165Z</time>
      </trkpt>
      <trkpt lat="48.33704" lon="2.78699">
        <ele>50</ele>
        <time>2022-11-23T13:54:13.472Z</time>
      </trkpt>
      <trkpt lat="48.33708" lon="2.78703">
        <ele>50</ele>
        <time>2022-11-23T13:54:17.481Z</time>
      </trkpt>
      <trkpt lat="48.33712" lon="2.78711">
        <ele>51</ele>
        <time>2022-11-23T13:54:22.363Z</time>
      </trkpt>
      <trkpt lat="48.33715" lon="2.78719">
        <ele>51</ele>
        <time>2022-11-23T13:54:26.405Z</time>
      </trkpt>
      <trkpt lat="48.33719" lon="2.78727">
        <ele>51</ele>
        <time>2022-11-23T13:54:30.636Z</time>
      </trkpt>
      <trkpt lat="48.33722" lon="2.78734">
        <ele>51</ele>
        <time>2022-11-23T13:54:34.857Z</time>
      </trkpt>
      <trkpt lat="48.33726" lon="2.78741">
        <ele>52</ele>
        <time>2022-11-23T13:54:39.002Z</time>
      </trkpt>
      <trkpt lat="48.33729" lon="2.78747">
        <ele>52</ele>
        <time>2022-11-23T13:54:43.183Z</time>
      </trkpt>
      <trkpt lat="48.33732" lon="2.78755">
        <ele>52</ele>
        <time>2022-11-23T13:54:47.304Z</time>
      </trkpt>
      <trkpt lat="48.33736" lon="2.78763">
        <ele>52</ele>
        <time>2022-11-23T13:54:51.480Z</time>
      </trkpt>
      <trkpt lat="48.3374" lon="2.78768">
        <ele>52</ele>
        <time>2022-11-23T13:54:55.604Z</time>
      </trkpt>
      <trkpt lat="48.33744" lon="2.78774">
        <ele>52</ele>
        <time>2022-11-23T13:55:00.260Z</time>
      </trkpt>
      <trkpt lat="48.33749" lon="2.78779">
        <ele>52</ele>
        <time>2022-11-23T13:55:04.420Z</time>
      </trkpt>
      <trkpt lat="48.33752" lon="2.78785">
        <ele>52</ele>
        <time>2022-11-23T13:55:08.595Z</time>
      </trkpt>
      <trkpt lat="48.33756" lon="2.78791">
        <ele>52</ele>
        <time>2022-11-23T13:55:12.942Z</time>
      </trkpt>
      <trkpt lat="48.33761" lon="2.78796">
        <ele>52</ele>
        <time>2022-11-23T13:55:17.096Z</time>
      </trkpt>
      <trkpt lat="48.33764" lon="2.78803">
        <ele>54</ele>
        <time>2022-11-23T13:55:21.219Z</time>
      </trkpt>
      <trkpt lat="48.33768" lon="2.78812">
        <ele>54</ele>
        <time>2022-11-23T13:55:25.725Z</time>
      </trkpt>
      <trkpt lat="48.33771" lon="2.78819">
        <ele>54</ele>
        <time>2022-11-23T13:55:29.880Z</time>
      </trkpt>
      <trkpt lat="48.33774" lon="2.78827">
        <ele>54</ele>
        <time>2022-11-23T13:55:34.093Z</time>
      </trkpt>
      <trkpt lat="48.33778" lon="2.78834">
        <ele>54</ele>
        <time>2022-11-23T13:55:38.471Z</time>
      </trkpt>
      <trkpt lat="48.33783" lon="2.78842">
        <ele>54</ele>
        <time>2022-11-23T13:55:43.466Z</time>
      </trkpt>
      <trkpt lat="48.33788" lon="2.78845">
        <ele>54</ele>
        <time>2022-11-23T13:55:47.459Z</time>
      </trkpt>
      <trkpt lat="48.33793" lon="2.78847">
        <ele>56</ele>
        <time>2022-11-23T13:55:51.897Z</time>
      </trkpt>
      <trkpt lat="48.33799" lon="2.78848">
        <ele>57</ele>
        <time>2022-11-23T13:55:56.304Z</time>
      </trkpt>
      <trkpt lat="48.33804" lon="2.78852">
        <ele>57</ele>
        <time>2022-11-23T13:56:00.862Z</time>
      </trkpt>
      <trkpt lat="48.33807" lon="2.78854">
        <ele>57</ele>
        <time>2022-11-23T13:56:05.007Z</time>
      </trkpt>
      <trkpt lat="48.3381" lon="2.78855">
        <ele>57</ele>
        <time>2022-11-23T13:56:09.082Z</time>
      </trkpt>
      <trkpt lat="48.33814" lon="2.78859">
        <ele>57</ele>
        <time>2022-11-23T13:56:13.485Z</time>
      </trkpt>
      <trkpt lat="48.3382" lon="2.78865">
        <ele>55</ele>
        <time>2022-11-23T13:56:17.699Z</time>
      </trkpt>
      <trkpt lat="48.33825" lon="2.78873">
        <ele>55</ele>
        <time>2022-11-23T13:56:23.023Z</time>
      </trkpt>
      <trkpt lat="48.33829" lon="2.78879">
        <ele>54</ele>
        <time>2022-11-23T13:56:27.469Z</time>
      </trkpt>
      <trkpt lat="48.33833" lon="2.78886">
        <ele>54</ele>
        <time>2022-11-23T13:56:31.716Z</time>
      </trkpt>
      <trkpt lat="48.33838" lon="2.78891">
        <ele>54</ele>
        <time>2022-11-23T13:56:36.101Z</time>
      </trkpt>
      <trkpt lat="48.33843" lon="2.78895">
        <ele>54</ele>
        <time>2022-11-23T13:56:40.415Z</time>
      </trkpt>
      <trkpt lat="48.33849" lon="2.78899">
        <ele>52</ele>
        <time>2022-11-23T13:56:44.641Z</time>
      </trkpt>
      <trkpt lat="48.33854" lon="2.78902">
        <ele>52</ele>
        <time>2022-11-23T13:56:48.964Z</time>
      </trkpt>
      <trkpt lat="48.33858" lon="2.78908">
        <ele>52</ele>
        <time>2022-11-23T13:56:53.428Z</time>
      </trkpt>
      <trkpt lat="48.33859" lon="2.78911">
        <ele>52</ele>
        <time>2022-11-23T13:56:58.024Z</time>
      </trkpt>
      <trkpt lat="48.33864" lon="2.78917">
        <ele>52</ele>
        <time>2022-11-23T13:57:02.217Z</time>
      </trkpt>
      <trkpt lat="48.33871" lon="2.78918">
        <ele>52</ele>
        <time>2022-11-23T13:57:06.778Z</time>
      </trkpt>
      <trkpt lat="48.33876" lon="2.7892">
        <ele>52</ele>
        <time>2022-11-23T13:57:11.343Z</time>
      </trkpt>
      <trkpt lat="48.33881" lon="2.78923">
        <ele>52</ele>
        <time>2022-11-23T13:57:15.445Z</time>
      </trkpt>
      <trkpt lat="48.33886" lon="2.78923">
        <ele>52</ele>
        <time>2022-11-23T13:57:20.447Z</time>
      </trkpt>
      <trkpt lat="48.33893" lon="2.78923">
        <ele>52</ele>
        <time>2022-11-23T13:57:25.158Z</time>
      </trkpt>
      <trkpt lat="48.339" lon="2.78925">
        <ele>52</ele>
        <time>2022-11-23T13:57:30.383Z</time>
      </trkpt>
      <trkpt lat="48.33905" lon="2.78926">
        <ele>52</ele>
        <time>2022-11-23T13:57:34.451Z</time>
      </trkpt>
      <trkpt lat="48.3391" lon="2.78926">
        <ele>52</ele>
        <time>2022-11-23T13:57:39.003Z</time>
      </trkpt>
      <trkpt lat="48.33914" lon="2.78926">
        <ele>52</ele>
        <time>2022-11-23T13:57:43.449Z</time>
      </trkpt>
      <trkpt lat="48.33921" lon="2.7893">
        <ele>52</ele>
        <time>2022-11-23T13:57:48.221Z</time>
      </trkpt>
      <trkpt lat="48.33928" lon="2.78934">
        <ele>53</ele>
        <time>2022-11-23T13:57:52.555Z</time>
      </trkpt>
      <trkpt lat="48.33933" lon="2.78936">
        <ele>54</ele>
        <time>2022-11-23T13:57:56.839Z</time>
      </trkpt>
      <trkpt lat="48.3394" lon="2.78934">
        <ele>54</ele>
        <time>2022-11-23T13:58:01.142Z</time>
      </trkpt>
      <trkpt lat="48.33945" lon="2.78937">
        <ele>54</ele>
        <time>2022-11-23T13:58:05.937Z</time>
      </trkpt>
      <trkpt lat="48.33948" lon="2.78942">
        <ele>54</ele>
        <time>2022-11-23T13:58:10.340Z</time>
      </trkpt>
      <trkpt lat="48.33952" lon="2.78947">
        <ele>54</ele>
        <time>2022-11-23T13:58:14.455Z</time>
      </trkpt>
      <trkpt lat="48.33956" lon="2.78951">
        <ele>54</ele>
        <time>2022-11-23T13:58:18.779Z</time>
      </trkpt>
      <trkpt lat="48.33961" lon="2.78955">
        <ele>56</ele>
        <time>2022-11-23T13:58:23.101Z</time>
      </trkpt>
      <trkpt lat="48.33966" lon="2.78959">
        <ele>57</ele>
        <time>2022-11-23T13:58:27.198Z</time>
      </trkpt>
      <trkpt lat="48.33972" lon="2.78962">
        <ele>57</ele>
        <time>2022-11-23T13:58:31.840Z</time>
      </trkpt>
      <trkpt lat="48.33978" lon="2.78967">
        <ele>57</ele>
        <time>2022-11-23T13:58:36.062Z</time>
      </trkpt>
      <trkpt lat="48.33982" lon="2.78972">
        <ele>57</ele>
        <time>2022-11-23T13:58:40.260Z</time>
      </trkpt>
      <trkpt lat="48.33986" lon="2.78975">
        <ele>57</ele>
        <time>2022-11-23T13:58:44.277Z</time>
      </trkpt>
      <trkpt lat="48.33991" lon="2.78979">
        <ele>57</ele>
        <time>2022-11-23T13:58:48.426Z</time>
      </trkpt>
      <trkpt lat="48.33995" lon="2.78982">
        <ele>57</ele>
        <time>2022-11-23T13:58:52.703Z</time>
      </trkpt>
      <trkpt lat="48.34" lon="2.78985">
        <ele>57</ele>
        <time>2022-11-23T13:58:56.761Z</time>
      </trkpt>
      <trkpt lat="48.34005" lon="2.78989">
        <ele>56</ele>
        <time>2022-11-23T13:59:01.473Z</time>
      </trkpt>
      <trkpt lat="48.34011" lon="2.78992">
        <ele>56</ele>
        <time>2022-11-23T13:59:05.739Z</time>
      </trkpt>
      <trkpt lat="48.34014" lon="2.78996">
        <ele>58</ele>
        <time>2022-11-23T13:59:10.038Z</time>
      </trkpt>
      <trkpt lat="48.34018" lon="2.79003">
        <ele>58</ele>
        <time>2022-11-23T13:59:14.472Z</time>
      </trkpt>
      <trkpt lat="48.34023" lon="2.79007">
        <ele>58</ele>
        <time>2022-11-23T13:59:19.426Z</time>
      </trkpt>
      <trkpt lat="48.34028" lon="2.7901">
        <ele>58</ele>
        <time>2022-11-23T13:59:24.446Z</time>
      </trkpt>
      <trkpt lat="48.34034" lon="2.79018">
        <ele>56</ele>
        <time>2022-11-23T13:59:29.286Z</time>
      </trkpt>
      <trkpt lat="48.34039" lon="2.79022">
        <ele>56</ele>
        <time>2022-11-23T13:59:33.297Z</time>
      </trkpt>
      <trkpt lat="48.34044" lon="2.79022">
        <ele>57</ele>
        <time>2022-11-23T13:59:38.438Z</time>
      </trkpt>
      <trkpt lat="48.34048" lon="2.7902">
        <ele>57</ele>
        <time>2022-11-23T13:59:43.303Z</time>
      </trkpt>
      <trkpt lat="48.34055" lon="2.79016">
        <ele>57</ele>
        <time>2022-11-23T13:59:47.458Z</time>
      </trkpt>
      <trkpt lat="48.34062" lon="2.79018">
        <ele>57</ele>
        <time>2022-11-23T13:59:52.160Z</time>
      </trkpt>
      <trkpt lat="48.34068" lon="2.79022">
        <ele>57</ele>
        <time>2022-11-23T13:59:56.221Z</time>
      </trkpt>
      <trkpt lat="48.34074" lon="2.79027">
        <ele>56</ele>
        <time>2022-11-23T14:00:01.444Z</time>
      </trkpt>
      <trkpt lat="48.34077" lon="2.79032">
        <ele>56</ele>
        <time>2022-11-23T14:00:05.758Z</time>
      </trkpt>
      <trkpt lat="48.34082" lon="2.79035">
        <ele>56</ele>
        <time>2022-11-23T14:00:09.999Z</time>
      </trkpt>
      <trkpt lat="48.34086" lon="2.7904">
        <ele>56</ele>
        <time>2022-11-23T14:00:14.201Z</time>
      </trkpt>
      <trkpt lat="48.34089" lon="2.79046">
        <ele>56</ele>
        <time>2022-11-23T14:00:18.451Z</time>
      </trkpt>
      <trkpt lat="48.34092" lon="2.79054">
        <ele>56</ele>
        <time>2022-11-23T14:00:22.959Z</time>
      </trkpt>
      <trkpt lat="48.34095" lon="2.7906">
        <ele>56</ele>
        <time>2022-11-23T14:00:27.339Z</time>
      </trkpt>
      <trkpt lat="48.34099" lon="2.79065">
        <ele>57</ele>
        <time>2022-11-23T14:00:31.857Z</time>
      </trkpt>
      <trkpt lat="48.34103" lon="2.79069">
        <ele>57</ele>
        <time>2022-11-23T14:00:36.356Z</time>
      </trkpt>
      <trkpt lat="48.34105" lon="2.79073">
        <ele>56</ele>
        <time>2022-11-23T14:00:40.467Z</time>
      </trkpt>
      <trkpt lat="48.3411" lon="2.79075">
        <ele>56</ele>
        <time>2022-11-23T14:00:44.856Z</time>
      </trkpt>
      <trkpt lat="48.34115" lon="2.79078">
        <ele>56</ele>
        <time>2022-11-23T14:00:49.364Z</time>
      </trkpt>
      <trkpt lat="48.3412" lon="2.79081">
        <ele>56</ele>
        <time>2022-11-23T14:00:53.418Z</time>
      </trkpt>
      <trkpt lat="48.34125" lon="2.79085">
        <ele>56</ele>
        <time>2022-11-23T14:00:57.470Z</time>
      </trkpt>
      <trkpt lat="48.3413" lon="2.79089">
        <ele>56</ele>
        <time>2022-11-23T14:01:01.838Z</time>
      </trkpt>
      <trkpt lat="48.34135" lon="2.79092">
        <ele>56</ele>
        <time>2022-11-23T14:01:06.404Z</time>
      </trkpt>
      <trkpt lat="48.3414" lon="2.79096">
        <ele>56</ele>
        <time>2022-11-23T14:01:10.957Z</time>
      </trkpt>
      <trkpt lat="48.34143" lon="2.79102">
        <ele>54</ele>
        <time>2022-11-23T14:01:15.339Z</time>
      </trkpt>
      <trkpt lat="48.34147" lon="2.7911">
        <ele>54</ele>
        <time>2022-11-23T14:01:20.244Z</time>
      </trkpt>
      <trkpt lat="48.34152" lon="2.79115">
        <ele>54</ele>
        <time>2022-11-23T14:01:24.541Z</time>
      </trkpt>
      <trkpt lat="48.34156" lon="2.7912">
        <ele>55</ele>
        <time>2022-11-23T14:01:29.494Z</time>
      </trkpt>
      <trkpt lat="48.34162" lon="2.79124">
        <ele>55</ele>
        <time>2022-11-23T14:01:34.088Z</time>
      </trkpt>
      <trkpt lat="48.34167" lon="2.79125">
        <ele>55</ele>
        <time>2022-11-23T14:01:38.447Z</time>
      </trkpt>
      <trkpt lat="48.34171" lon="2.79127">
        <ele>54</ele>
        <time>2022-11-23T14:01:42.464Z</time>
      </trkpt>
      <trkpt lat="48.34176" lon="2.79133">
        <ele>54</ele>
        <time>2022-11-23T14:01:46.840Z</time>
      </trkpt>
      <trkpt lat="48.34181" lon="2.79137">
        <ele>55</ele>
        <time>2022-11-23T14:01:51.305Z</time>
      </trkpt>
      <trkpt lat="48.34186" lon="2.7914">
        <ele>55</ele>
        <time>2022-11-23T14:01:55.460Z</time>
      </trkpt>
      <trkpt lat="48.34191" lon="2.79142">
        <ele>55</ele>
        <time>2022-11-23T14:01:59.785Z</time>
      </trkpt>
      <trkpt lat="48.34196" lon="2.79145">
        <ele>55</ele>
        <time>2022-11-23T14:02:04.201Z</time>
      </trkpt>
      <trkpt lat="48.34201" lon="2.79149">
        <ele>55</ele>
        <time>2022-11-23T14:02:08.462Z</time>
      </trkpt>
      <trkpt lat="48.34206" lon="2.79152">
        <ele>55</ele>
        <time>2022-11-23T14:02:13.281Z</time>
      </trkpt>
      <trkpt lat="48.34211" lon="2.79158">
        <ele>54</ele>
        <time>2022-11-23T14:02:18.365Z</time>
      </trkpt>
      <trkpt lat="48.34216" lon="2.79164">
        <ele>54</ele>
        <time>2022-11-23T14:02:22.981Z</time>
      </trkpt>
      <trkpt lat="48.3422" lon="2.79169">
        <ele>54</ele>
        <time>2022-11-23T14:02:27.427Z</time>
      </trkpt>
      <trkpt lat="48.34224" lon="2.79173">
        <ele>54</ele>
        <time>2022-11-23T14:02:31.839Z</time>
      </trkpt>
      <trkpt lat="48.34228" lon="2.79178">
        <ele>54</ele>
        <time>2022-11-23T14:02:36.343Z</time>
      </trkpt>
      <trkpt lat="48.3423" lon="2.79183">
        <ele>52</ele>
        <time>2022-11-23T14:02:40.437Z</time>
      </trkpt>
      <trkpt lat="48.34233" lon="2.79189">
        <ele>52</ele>
        <time>2022-11-23T14:02:45.452Z</time>
      </trkpt>
      <trkpt lat="48.3424" lon="2.79195">
        <ele>53</ele>
        <time>2022-11-23T14:02:50.263Z</time>
      </trkpt>
      <trkpt lat="48.34245" lon="2.792">
        <ele>53</ele>
        <time>2022-11-23T14:02:54.443Z</time>
      </trkpt>
      <trkpt lat="48.34251" lon="2.79204">
        <ele>53</ele>
        <time>2022-11-23T14:02:58.946Z</time>
      </trkpt>
      <trkpt lat="48.34257" lon="2.79212">
        <ele>52</ele>
        <time>2022-11-23T14:03:03.463Z</time>
      </trkpt>
      <trkpt lat="48.34262" lon="2.79218">
        <ele>52</ele>
        <time>2022-11-23T14:03:07.671Z</time>
      </trkpt>
      <trkpt lat="48.34266" lon="2.79224">
        <ele>54</ele>
        <time>2022-11-23T14:03:11.721Z</time>
      </trkpt>
      <trkpt lat="48.3427" lon="2.79229">
        <ele>54</ele>
        <time>2022-11-23T14:03:15.995Z</time>
      </trkpt>
      <trkpt lat="48.34275" lon="2.79235">
        <ele>54</ele>
        <time>2022-11-23T14:03:20.445Z</time>
      </trkpt>
      <trkpt lat="48.3428" lon="2.7924">
        <ele>53</ele>
        <time>2022-11-23T14:03:24.819Z</time>
      </trkpt>
      <trkpt lat="48.34283" lon="2.79247">
        <ele>53</ele>
        <time>2022-11-23T14:03:28.976Z</time>
      </trkpt>
      <trkpt lat="48.34287" lon="2.79253">
        <ele>53</ele>
        <time>2022-11-23T14:03:33.195Z</time>
      </trkpt>
      <trkpt lat="48.3429" lon="2.79259">
        <ele>53</ele>
        <time>2022-11-23T14:03:37.314Z</time>
      </trkpt>
      <trkpt lat="48.34294" lon="2.79267">
        <ele>53</ele>
        <time>2022-11-23T14:03:41.656Z</time>
      </trkpt>
      <trkpt lat="48.34298" lon="2.79274">
        <ele>53</ele>
        <time>2022-11-23T14:03:46.449Z</time>
      </trkpt>
      <trkpt lat="48.34302" lon="2.79278">
        <ele>53</ele>
        <time>2022-11-23T14:03:50.817Z</time>
      </trkpt>
      <trkpt lat="48.34306" lon="2.79284">
        <ele>53</ele>
        <time>2022-11-23T14:03:55.098Z</time>
      </trkpt>
      <trkpt lat="48.3431" lon="2.79288">
        <ele>53</ele>
        <time>2022-11-23T14:03:59.421Z</time>
      </trkpt>
      <trkpt lat="48.34314" lon="2.79294">
        <ele>52</ele>
        <time>2022-11-23T14:04:03.875Z</time>
      </trkpt>
      <trkpt lat="48.34317" lon="2.793">
        <ele>52</ele>
        <time>2022-11-23T14:04:08.255Z</time>
      </trkpt>
      <trkpt lat="48.34322" lon="2.79308">
        <ele>52</ele>
        <time>2022-11-23T14:04:13.196Z</time>
      </trkpt>
      <trkpt lat="48.34327" lon="2.79315">
        <ele>52</ele>
        <time>2022-11-23T14:04:18.241Z</time>
      </trkpt>
      <trkpt lat="48.34331" lon="2.79322">
        <ele>51</ele>
        <time>2022-11-23T14:04:23.201Z</time>
      </trkpt>
      <trkpt lat="48.34335" lon="2.79328">
        <ele>51</ele>
        <time>2022-11-23T14:04:27.459Z</time>
      </trkpt>
      <trkpt lat="48.34339" lon="2.79335">
        <ele>51</ele>
        <time>2022-11-23T14:04:31.471Z</time>
      </trkpt>
      <trkpt lat="48.34344" lon="2.7934">
        <ele>51</ele>
        <time>2022-11-23T14:04:35.845Z</time>
      </trkpt>
      <trkpt lat="48.34348" lon="2.79345">
        <ele>50</ele>
        <time>2022-11-23T14:04:39.979Z</time>
      </trkpt>
      <trkpt lat="48.34353" lon="2.79351">
        <ele>51</ele>
        <time>2022-11-23T14:04:44.483Z</time>
      </trkpt>
      <trkpt lat="48.34357" lon="2.79357">
        <ele>51</ele>
        <time>2022-11-23T14:04:49.035Z</time>
      </trkpt>
      <trkpt lat="48.34362" lon="2.7936">
        <ele>51</ele>
        <time>2022-11-23T14:04:53.262Z</time>
      </trkpt>
      <trkpt lat="48.34366" lon="2.79365">
        <ele>51</ele>
        <time>2022-11-23T14:04:57.465Z</time>
      </trkpt>
      <trkpt lat="48.34372" lon="2.7937">
        <ele>51</ele>
        <time>2022-11-23T14:05:02.456Z</time>
      </trkpt>
      <trkpt lat="48.34374" lon="2.79375">
        <ele>51</ele>
        <time>2022-11-23T14:05:06.657Z</time>
      </trkpt>
      <trkpt lat="48.3438" lon="2.7938">
        <ele>53</ele>
        <time>2022-11-23T14:05:11.023Z</time>
      </trkpt>
      <trkpt lat="48.34386" lon="2.79384">
        <ele>53</ele>
        <time>2022-11-23T14:05:15.401Z</time>
      </trkpt>
      <trkpt lat="48.34391" lon="2.79389">
        <ele>53</ele>
        <time>2022-11-23T14:05:19.781Z</time>
      </trkpt>
      <trkpt lat="48.34395" lon="2.79394">
        <ele>53</ele>
        <time>2022-11-23T14:05:24.198Z</time>
      </trkpt>
      <trkpt lat="48.34401" lon="2.794">
        <ele>53</ele>
        <time>2022-11-23T14:05:29.117Z</time>
      </trkpt>
      <trkpt lat="48.34405" lon="2.79405">
        <ele>53</ele>
        <time>2022-11-23T14:05:33.473Z</time>
      </trkpt>
      <trkpt lat="48.3441" lon="2.79409">
        <ele>53</ele>
        <time>2022-11-23T14:05:37.902Z</time>
      </trkpt>
      <trkpt lat="48.34413" lon="2.79412">
        <ele>53</ele>
        <time>2022-11-23T14:05:42.458Z</time>
      </trkpt>
      <trkpt lat="48.34413" lon="2.79414">
        <ele>53</ele>
        <time>2022-11-23T14:05:46.878Z</time>
      </trkpt>
      <trkpt lat="48.34417" lon="2.79418">
        <ele>53</ele>
        <time>2022-11-23T14:05:50.875Z</time>
      </trkpt>
      <trkpt lat="48.34421" lon="2.79422">
        <ele>53</ele>
        <time>2022-11-23T14:05:55.144Z</time>
      </trkpt>
      <trkpt lat="48.34426" lon="2.79428">
        <ele>53</ele>
        <time>2022-11-23T14:05:59.422Z</time>
      </trkpt>
      <trkpt lat="48.34431" lon="2.79429">
        <ele>52</ele>
        <time>2022-11-23T14:06:03.475Z</time>
      </trkpt>
      <trkpt lat="48.34434" lon="2.79436">
        <ele>53</ele>
        <time>2022-11-23T14:06:07.470Z</time>
      </trkpt>
      <trkpt lat="48.34439" lon="2.79443">
        <ele>53</ele>
        <time>2022-11-23T14:06:12.220Z</time>
      </trkpt>
      <trkpt lat="48.34445" lon="2.79447">
        <ele>53</ele>
        <time>2022-11-23T14:06:16.516Z</time>
      </trkpt>
      <trkpt lat="48.3445" lon="2.79447">
        <ele>53</ele>
        <time>2022-11-23T14:06:21.444Z</time>
      </trkpt>
      <trkpt lat="48.34454" lon="2.79451">
        <ele>53</ele>
        <time>2022-11-23T14:06:25.949Z</time>
      </trkpt>
      <trkpt lat="48.34459" lon="2.79458">
        <ele>50</ele>
        <time>2022-11-23T14:06:30.320Z</time>
      </trkpt>
      <trkpt lat="48.34463" lon="2.79464">
        <ele>52</ele>
        <time>2022-11-23T14:06:34.419Z</time>
      </trkpt>
      <trkpt lat="48.34469" lon="2.79468">
        <ele>52</ele>
        <time>2022-11-23T14:06:38.760Z</time>
      </trkpt>
      <trkpt lat="48.34475" lon="2.79472">
        <ele>52</ele>
        <time>2022-11-23T14:06:43.440Z</time>
      </trkpt>
      <trkpt lat="48.34478" lon="2.79475">
        <ele>52</ele>
        <time>2022-11-23T14:06:47.445Z</time>
      </trkpt>
      <trkpt lat="48.34481" lon="2.79475">
        <ele>52</ele>
        <time>2022-11-23T14:06:52.478Z</time>
      </trkpt>
      <trkpt lat="48.3448" lon="2.79476">
        <ele>52</ele>
        <time>2022-11-23T14:08:15.447Z</time>
      </trkpt>
      <trkpt lat="48.3448" lon="2.79477">
        <ele>52</ele>
        <time>2022-11-23T14:08:19.470Z</time>
      </trkpt>
      <trkpt lat="48.3448" lon="2.79477">
        <ele>52</ele>
        <time>2022-11-23T14:08:23.490Z</time>
      </trkpt>
      <trkpt lat="48.34483" lon="2.79481">
        <ele>52</ele>
        <time>2022-11-23T14:08:28.461Z</time>
      </trkpt>
      <trkpt lat="48.34487" lon="2.79485">
        <ele>49</ele>
        <time>2022-11-23T14:08:32.815Z</time>
      </trkpt>
      <trkpt lat="48.34492" lon="2.79491">
        <ele>49</ele>
        <time>2022-11-23T14:08:37.195Z</time>
      </trkpt>
      <trkpt lat="48.34498" lon="2.79497">
        <ele>49</ele>
        <time>2022-11-23T14:08:42.362Z</time>
      </trkpt>
      <trkpt lat="48.34503" lon="2.79502">
        <ele>49</ele>
        <time>2022-11-23T14:08:47.318Z</time>
      </trkpt>
      <trkpt lat="48.34508" lon="2.79508">
        <ele>49</ele>
        <time>2022-11-23T14:08:52.095Z</time>
      </trkpt>
      <trkpt lat="48.34513" lon="2.79513">
        <ele>49</ele>
        <time>2022-11-23T14:08:56.360Z</time>
      </trkpt>
      <trkpt lat="48.34517" lon="2.79519">
        <ele>47</ele>
        <time>2022-11-23T14:09:00.603Z</time>
      </trkpt>
      <trkpt lat="48.34522" lon="2.79523">
        <ele>47</ele>
        <time>2022-11-23T14:09:04.816Z</time>
      </trkpt>
      <trkpt lat="48.34527" lon="2.79529">
        <ele>47</ele>
        <time>2022-11-23T14:09:09.118Z</time>
      </trkpt>
      <trkpt lat="48.34532" lon="2.79534">
        <ele>47</ele>
        <time>2022-11-23T14:09:13.380Z</time>
      </trkpt>
      <trkpt lat="48.34537" lon="2.79539">
        <ele>47</ele>
        <time>2022-11-23T14:09:18.143Z</time>
      </trkpt>
      <trkpt lat="48.34542" lon="2.79544">
        <ele>48</ele>
        <time>2022-11-23T14:09:22.434Z</time>
      </trkpt>
      <trkpt lat="48.34547" lon="2.7955">
        <ele>48</ele>
        <time>2022-11-23T14:09:27.215Z</time>
      </trkpt>
      <trkpt lat="48.34553" lon="2.79555">
        <ele>48</ele>
        <time>2022-11-23T14:09:31.446Z</time>
      </trkpt>
      <trkpt lat="48.34558" lon="2.7956">
        <ele>48</ele>
        <time>2022-11-23T14:09:36.225Z</time>
      </trkpt>
      <trkpt lat="48.34563" lon="2.79565">
        <ele>48</ele>
        <time>2022-11-23T14:09:40.463Z</time>
      </trkpt>
      <trkpt lat="48.34569" lon="2.7957">
        <ele>49</ele>
        <time>2022-11-23T14:09:45.260Z</time>
      </trkpt>
      <trkpt lat="48.34574" lon="2.79574">
        <ele>50</ele>
        <time>2022-11-23T14:09:49.495Z</time>
      </trkpt>
      <trkpt lat="48.34579" lon="2.79581">
        <ele>50</ele>
        <time>2022-11-23T14:09:54.427Z</time>
      </trkpt>
      <trkpt lat="48.34584" lon="2.79586">
        <ele>50</ele>
        <time>2022-11-23T14:09:58.741Z</time>
      </trkpt>
      <trkpt lat="48.34588" lon="2.7959">
        <ele>50</ele>
        <time>2022-11-23T14:10:02.996Z</time>
      </trkpt>
      <trkpt lat="48.34593" lon="2.79595">
        <ele>50</ele>
        <time>2022-11-23T14:10:07.144Z</time>
      </trkpt>
      <trkpt lat="48.34598" lon="2.796">
        <ele>52</ele>
        <time>2022-11-23T14:10:11.402Z</time>
      </trkpt>
      <trkpt lat="48.34603" lon="2.79605">
        <ele>52</ele>
        <time>2022-11-23T14:10:15.860Z</time>
      </trkpt>
      <trkpt lat="48.34608" lon="2.7961">
        <ele>52</ele>
        <time>2022-11-23T14:10:20.237Z</time>
      </trkpt>
      <trkpt lat="48.34613" lon="2.79617">
        <ele>52</ele>
        <time>2022-11-23T14:10:25.216Z</time>
      </trkpt>
      <trkpt lat="48.34618" lon="2.79622">
        <ele>52</ele>
        <time>2022-11-23T14:10:29.497Z</time>
      </trkpt>
      <trkpt lat="48.34624" lon="2.79623">
        <ele>52</ele>
        <time>2022-11-23T14:10:33.900Z</time>
      </trkpt>
      <trkpt lat="48.34629" lon="2.79624">
        <ele>53</ele>
        <time>2022-11-23T14:10:38.303Z</time>
      </trkpt>
      <trkpt lat="48.34635" lon="2.7962">
        <ele>53</ele>
        <time>2022-11-23T14:10:42.820Z</time>
      </trkpt>
      <trkpt lat="48.3464" lon="2.79614">
        <ele>53</ele>
        <time>2022-11-23T14:10:47.296Z</time>
      </trkpt>
      <trkpt lat="48.34643" lon="2.79608">
        <ele>53</ele>
        <time>2022-11-23T14:10:51.490Z</time>
      </trkpt>
      <trkpt lat="48.34645" lon="2.796">
        <ele>53</ele>
        <time>2022-11-23T14:10:55.998Z</time>
      </trkpt>
      <trkpt lat="48.34649" lon="2.79594">
        <ele>51</ele>
        <time>2022-11-23T14:11:00.184Z</time>
      </trkpt>
      <trkpt lat="48.34653" lon="2.79588">
        <ele>50</ele>
        <time>2022-11-23T14:11:04.317Z</time>
      </trkpt>
      <trkpt lat="48.34657" lon="2.7958">
        <ele>50</ele>
        <time>2022-11-23T14:11:09.219Z</time>
      </trkpt>
      <trkpt lat="48.34661" lon="2.79574">
        <ele>50</ele>
        <time>2022-11-23T14:11:13.455Z</time>
      </trkpt>
      <trkpt lat="48.34665" lon="2.79565">
        <ele>49</ele>
        <time>2022-11-23T14:11:17.879Z</time>
      </trkpt>
      <trkpt lat="48.34669" lon="2.79559">
        <ele>49</ele>
        <time>2022-11-23T14:11:21.995Z</time>
      </trkpt>
      <trkpt lat="48.34672" lon="2.79551">
        <ele>49</ele>
        <time>2022-11-23T14:11:26.469Z</time>
      </trkpt>
      <trkpt lat="48.34675" lon="2.79544">
        <ele>49</ele>
        <time>2022-11-23T14:11:30.963Z</time>
      </trkpt>
      <trkpt lat="48.34679" lon="2.79536">
        <ele>50</ele>
        <time>2022-11-23T14:11:35.277Z</time>
      </trkpt>
      <trkpt lat="48.34682" lon="2.79528">
        <ele>51</ele>
        <time>2022-11-23T14:11:40.219Z</time>
      </trkpt>
      <trkpt lat="48.34685" lon="2.79521">
        <ele>51</ele>
        <time>2022-11-23T14:11:44.457Z</time>
      </trkpt>
      <trkpt lat="48.34688" lon="2.79513">
        <ele>54</ele>
        <time>2022-11-23T14:11:48.926Z</time>
      </trkpt>
      <trkpt lat="48.34691" lon="2.79506">
        <ele>54</ele>
        <time>2022-11-23T14:11:53.283Z</time>
      </trkpt>
      <trkpt lat="48.34694" lon="2.79497">
        <ele>54</ele>
        <time>2022-11-23T14:11:58.286Z</time>
      </trkpt>
      <trkpt lat="48.34698" lon="2.79491">
        <ele>54</ele>
        <time>2022-11-23T14:12:02.464Z</time>
      </trkpt>
      <trkpt lat="48.34701" lon="2.79486">
        <ele>55</ele>
        <time>2022-11-23T14:12:06.997Z</time>
      </trkpt>
      <trkpt lat="48.34706" lon="2.79484">
        <ele>55</ele>
        <time>2022-11-23T14:12:11.470Z</time>
      </trkpt>
      <trkpt lat="48.34707" lon="2.79484">
        <ele>55</ele>
        <time>2022-11-23T14:12:16.461Z</time>
      </trkpt>
      <trkpt lat="48.34709" lon="2.79482">
        <ele>58</ele>
        <time>2022-11-23T14:12:20.472Z</time>
      </trkpt>
      <trkpt lat="48.34712" lon="2.7948">
        <ele>58</ele>
        <time>2022-11-23T14:12:25.135Z</time>
      </trkpt>
      <trkpt lat="48.34716" lon="2.79475">
        <ele>58</ele>
        <time>2022-11-23T14:12:29.185Z</time>
      </trkpt>
      <trkpt lat="48.34721" lon="2.79471">
        <ele>58</ele>
        <time>2022-11-23T14:12:33.460Z</time>
      </trkpt>
      <trkpt lat="48.34724" lon="2.79464">
        <ele>58</ele>
        <time>2022-11-23T14:12:38.225Z</time>
      </trkpt>
      <trkpt lat="48.34727" lon="2.79457">
        <ele>59</ele>
        <time>2022-11-23T14:12:43.264Z</time>
      </trkpt>
      <trkpt lat="48.34731" lon="2.79448">
        <ele>59</ele>
        <time>2022-11-23T14:12:48.121Z</time>
      </trkpt>
      <trkpt lat="48.34733" lon="2.79438">
        <ele>59</ele>
        <time>2022-11-23T14:12:52.518Z</time>
      </trkpt>
      <trkpt lat="48.34734" lon="2.79431">
        <ele>59</ele>
        <time>2022-11-23T14:12:56.818Z</time>
      </trkpt>
      <trkpt lat="48.34735" lon="2.79422">
        <ele>59</ele>
        <time>2022-11-23T14:13:01.124Z</time>
      </trkpt>
      <trkpt lat="48.34737" lon="2.79413">
        <ele>61</ele>
        <time>2022-11-23T14:13:05.479Z</time>
      </trkpt>
      <trkpt lat="48.3474" lon="2.79407">
        <ele>61</ele>
        <time>2022-11-23T14:13:09.958Z</time>
      </trkpt>
      <trkpt lat="48.34745" lon="2.79402">
        <ele>62</ele>
        <time>2022-11-23T14:13:14.478Z</time>
      </trkpt>
      <trkpt lat="48.3475" lon="2.79401">
        <ele>62</ele>
        <time>2022-11-23T14:13:19.016Z</time>
      </trkpt>
      <trkpt lat="48.34756" lon="2.79407">
        <ele>61</ele>
        <time>2022-11-23T14:13:23.281Z</time>
      </trkpt>
      <trkpt lat="48.34761" lon="2.79412">
        <ele>61</ele>
        <time>2022-11-23T14:13:28.244Z</time>
      </trkpt>
      <trkpt lat="48.34766" lon="2.79417">
        <ele>62</ele>
        <time>2022-11-23T14:13:32.467Z</time>
      </trkpt>
      <trkpt lat="48.3477" lon="2.79423">
        <ele>62</ele>
        <time>2022-11-23T14:13:36.883Z</time>
      </trkpt>
      <trkpt lat="48.34775" lon="2.79427">
        <ele>62</ele>
        <time>2022-11-23T14:13:41.359Z</time>
      </trkpt>
      <trkpt lat="48.34781" lon="2.79433">
        <ele>63</ele>
        <time>2022-11-23T14:13:45.835Z</time>
      </trkpt>
      <trkpt lat="48.34785" lon="2.79438">
        <ele>63</ele>
        <time>2022-11-23T14:13:49.836Z</time>
      </trkpt>
      <trkpt lat="48.34787" lon="2.79445">
        <ele>63</ele>
        <time>2022-11-23T14:13:54.317Z</time>
      </trkpt>
      <trkpt lat="48.34791" lon="2.7945">
        <ele>63</ele>
        <time>2022-11-23T14:13:58.324Z</time>
      </trkpt>
      <trkpt lat="48.34797" lon="2.79457">
        <ele>62</ele>
        <time>2022-11-23T14:14:02.473Z</time>
      </trkpt>
      <trkpt lat="48.34801" lon="2.79463">
        <ele>63</ele>
        <time>2022-11-23T14:14:06.841Z</time>
      </trkpt>
      <trkpt lat="48.34806" lon="2.79469">
        <ele>63</ele>
        <time>2022-11-23T14:14:11.221Z</time>
      </trkpt>
      <trkpt lat="48.34812" lon="2.79474">
        <ele>63</ele>
        <time>2022-11-23T14:14:16.140Z</time>
      </trkpt>
      <trkpt lat="48.34817" lon="2.79482">
        <ele>63</ele>
        <time>2022-11-23T14:14:21.163Z</time>
      </trkpt>
      <trkpt lat="48.3482" lon="2.79487">
        <ele>61</ele>
        <time>2022-11-23T14:14:25.470Z</time>
      </trkpt>
      <trkpt lat="48.34825" lon="2.79492">
        <ele>61</ele>
        <time>2022-11-23T14:14:30.403Z</time>
      </trkpt>
      <trkpt lat="48.34833" lon="2.79499">
        <ele>61</ele>
        <time>2022-11-23T14:14:35.468Z</time>
      </trkpt>
      <trkpt lat="48.34838" lon="2.79506">
        <ele>61</ele>
        <time>2022-11-23T14:14:39.801Z</time>
      </trkpt>
      <trkpt lat="48.34844" lon="2.79513">
        <ele>61</ele>
        <time>2022-11-23T14:14:44.470Z</time>
      </trkpt>
      <trkpt lat="48.34847" lon="2.79516">
        <ele>60</ele>
        <time>2022-11-23T14:14:49.137Z</time>
      </trkpt>
      <trkpt lat="48.3485" lon="2.79521">
        <ele>62</ele>
        <time>2022-11-23T14:14:53.204Z</time>
      </trkpt>
      <trkpt lat="48.34856" lon="2.79529">
        <ele>62</ele>
        <time>2022-11-23T14:14:58.447Z</time>
      </trkpt>
      <trkpt lat="48.34861" lon="2.79533">
        <ele>62</ele>
        <time>2022-11-23T14:15:02.466Z</time>
      </trkpt>
      <trkpt lat="48.34865" lon="2.79538">
        <ele>62</ele>
        <time>2022-11-23T14:15:06.464Z</time>
      </trkpt>
      <trkpt lat="48.34869" lon="2.79543">
        <ele>61</ele>
        <time>2022-11-23T14:15:10.760Z</time>
      </trkpt>
      <trkpt lat="48.34871" lon="2.79549">
        <ele>61</ele>
        <time>2022-11-23T14:15:15.298Z</time>
      </trkpt>
      <trkpt lat="48.34876" lon="2.79552">
        <ele>61</ele>
        <time>2022-11-23T14:15:20.478Z</time>
      </trkpt>
      <trkpt lat="48.34882" lon="2.79559">
        <ele>61</ele>
        <time>2022-11-23T14:15:25.103Z</time>
      </trkpt>
      <trkpt lat="48.34887" lon="2.79565">
        <ele>61</ele>
        <time>2022-11-23T14:15:29.475Z</time>
      </trkpt>
      <trkpt lat="48.34891" lon="2.79572">
        <ele>60</ele>
        <time>2022-11-23T14:15:34.047Z</time>
      </trkpt>
      <trkpt lat="48.34895" lon="2.79578">
        <ele>60</ele>
        <time>2022-11-23T14:15:38.340Z</time>
      </trkpt>
      <trkpt lat="48.34898" lon="2.79582">
        <ele>60</ele>
        <time>2022-11-23T14:15:42.483Z</time>
      </trkpt>
      <trkpt lat="48.34904" lon="2.79588">
        <ele>60</ele>
        <time>2022-11-23T14:15:46.985Z</time>
      </trkpt>
      <trkpt lat="48.34908" lon="2.79593">
        <ele>60</ele>
        <time>2022-11-23T14:15:51.320Z</time>
      </trkpt>
      <trkpt lat="48.34913" lon="2.79599">
        <ele>61</ele>
        <time>2022-11-23T14:15:55.320Z</time>
      </trkpt>
      <trkpt lat="48.34918" lon="2.79604">
        <ele>61</ele>
        <time>2022-11-23T14:16:00.198Z</time>
      </trkpt>
      <trkpt lat="48.34924" lon="2.79611">
        <ele>61</ele>
        <time>2022-11-23T14:16:05.468Z</time>
      </trkpt>
      <trkpt lat="48.34928" lon="2.79617">
        <ele>61</ele>
        <time>2022-11-23T14:16:10.142Z</time>
      </trkpt>
      <trkpt lat="48.34932" lon="2.79624">
        <ele>60</ele>
        <time>2022-11-23T14:16:14.462Z</time>
      </trkpt>
      <trkpt lat="48.34935" lon="2.79629">
        <ele>62</ele>
        <time>2022-11-23T14:16:18.721Z</time>
      </trkpt>
      <trkpt lat="48.3494" lon="2.79636">
        <ele>62</ele>
        <time>2022-11-23T14:16:23.120Z</time>
      </trkpt>
      <trkpt lat="48.34946" lon="2.79644">
        <ele>62</ele>
        <time>2022-11-23T14:16:27.460Z</time>
      </trkpt>
      <trkpt lat="48.3495" lon="2.79648">
        <ele>62</ele>
        <time>2022-11-23T14:16:31.472Z</time>
      </trkpt>
      <trkpt lat="48.34953" lon="2.79653">
        <ele>64</ele>
        <time>2022-11-23T14:16:36.324Z</time>
      </trkpt>
      <trkpt lat="48.34957" lon="2.79658">
        <ele>64</ele>
        <time>2022-11-23T14:16:40.471Z</time>
      </trkpt>
      <trkpt lat="48.34963" lon="2.79663">
        <ele>63</ele>
        <time>2022-11-23T14:16:44.958Z</time>
      </trkpt>
      <trkpt lat="48.34969" lon="2.79672">
        <ele>63</ele>
        <time>2022-11-23T14:16:49.903Z</time>
      </trkpt>
      <trkpt lat="48.34975" lon="2.79678">
        <ele>63</ele>
        <time>2022-11-23T14:16:54.478Z</time>
      </trkpt>
      <trkpt lat="48.34981" lon="2.79684">
        <ele>64</ele>
        <time>2022-11-23T14:16:59.280Z</time>
      </trkpt>
      <trkpt lat="48.34986" lon="2.79689">
        <ele>62</ele>
        <time>2022-11-23T14:17:03.450Z</time>
      </trkpt>
      <trkpt lat="48.34991" lon="2.79695">
        <ele>62</ele>
        <time>2022-11-23T14:17:08.452Z</time>
      </trkpt>
      <trkpt lat="48.34995" lon="2.79701">
        <ele>62</ele>
        <time>2022-11-23T14:17:13.341Z</time>
      </trkpt>
      <trkpt lat="48.34999" lon="2.79706">
        <ele>62</ele>
        <time>2022-11-23T14:17:17.472Z</time>
      </trkpt>
      <trkpt lat="48.35004" lon="2.79714">
        <ele>62</ele>
        <time>2022-11-23T14:17:22.302Z</time>
      </trkpt>
      <trkpt lat="48.35009" lon="2.7972">
        <ele>62</ele>
        <time>2022-11-23T14:17:26.301Z</time>
      </trkpt>
      <trkpt lat="48.35013" lon="2.79727">
        <ele>62</ele>
        <time>2022-11-23T14:17:31.219Z</time>
      </trkpt>
      <trkpt lat="48.35018" lon="2.79734">
        <ele>61</ele>
        <time>2022-11-23T14:17:36.452Z</time>
      </trkpt>
      <trkpt lat="48.35023" lon="2.7974">
        <ele>60</ele>
        <time>2022-11-23T14:17:40.542Z</time>
      </trkpt>
      <trkpt lat="48.35027" lon="2.79746">
        <ele>60</ele>
        <time>2022-11-23T14:17:44.801Z</time>
      </trkpt>
      <trkpt lat="48.3503" lon="2.79751">
        <ele>60</ele>
        <time>2022-11-23T14:17:49.101Z</time>
      </trkpt>
      <trkpt lat="48.35034" lon="2.79756">
        <ele>60</ele>
        <time>2022-11-23T14:17:53.470Z</time>
      </trkpt>
      <trkpt lat="48.35039" lon="2.7976">
        <ele>60</ele>
        <time>2022-11-23T14:17:57.465Z</time>
      </trkpt>
      <trkpt lat="48.35044" lon="2.79766">
        <ele>60</ele>
        <time>2022-11-23T14:18:02.476Z</time>
      </trkpt>
      <trkpt lat="48.3505" lon="2.79772">
        <ele>60</ele>
        <time>2022-11-23T14:18:06.963Z</time>
      </trkpt>
      <trkpt lat="48.35055" lon="2.79778">
        <ele>60</ele>
        <time>2022-11-23T14:18:11.200Z</time>
      </trkpt>
      <trkpt lat="48.35061" lon="2.79784">
        <ele>60</ele>
        <time>2022-11-23T14:18:15.481Z</time>
      </trkpt>
      <trkpt lat="48.35066" lon="2.79791">
        <ele>60</ele>
        <time>2022-11-23T14:18:19.920Z</time>
      </trkpt>
      <trkpt lat="48.35071" lon="2.79797">
        <ele>61</ele>
        <time>2022-11-23T14:18:24.286Z</time>
      </trkpt>
      <trkpt lat="48.35077" lon="2.79804">
        <ele>61</ele>
        <time>2022-11-23T14:18:28.539Z</time>
      </trkpt>
      <trkpt lat="48.35081" lon="2.79809">
        <ele>61</ele>
        <time>2022-11-23T14:18:32.823Z</time>
      </trkpt>
      <trkpt lat="48.35083" lon="2.79813">
        <ele>61</ele>
        <time>2022-11-23T14:18:37.088Z</time>
      </trkpt>
      <trkpt lat="48.35088" lon="2.79819">
        <ele>61</ele>
        <time>2022-11-23T14:18:41.137Z</time>
      </trkpt>
      <trkpt lat="48.35093" lon="2.79825">
        <ele>62</ele>
        <time>2022-11-23T14:18:45.300Z</time>
      </trkpt>
      <trkpt lat="48.35098" lon="2.79832">
        <ele>62</ele>
        <time>2022-11-23T14:18:49.469Z</time>
      </trkpt>
      <trkpt lat="48.35103" lon="2.79838">
        <ele>62</ele>
        <time>2022-11-23T14:18:54.455Z</time>
      </trkpt>
      <trkpt lat="48.35108" lon="2.79845">
        <ele>62</ele>
        <time>2022-11-23T14:18:58.742Z</time>
      </trkpt>
      <trkpt lat="48.35113" lon="2.79853">
        <ele>62</ele>
        <time>2022-11-23T14:19:03Z</time>
      </trkpt>
      <trkpt lat="48.35118" lon="2.79859">
        <ele>62</ele>
        <time>2022-11-23T14:19:07.323Z</time>
      </trkpt>
      <trkpt lat="48.35123" lon="2.79864">
        <ele>62</ele>
        <time>2022-11-23T14:19:12.243Z</time>
      </trkpt>
      <trkpt lat="48.35128" lon="2.79871">
        <ele>61</ele>
        <time>2022-11-23T14:19:17.135Z</time>
      </trkpt>
      <trkpt lat="48.35133" lon="2.79877">
        <ele>59</ele>
        <time>2022-11-23T14:19:21.444Z</time>
      </trkpt>
      <trkpt lat="48.35137" lon="2.79882">
        <ele>59</ele>
        <time>2022-11-23T14:19:25.717Z</time>
      </trkpt>
      <trkpt lat="48.35141" lon="2.79887">
        <ele>59</ele>
        <time>2022-11-23T14:19:29.923Z</time>
      </trkpt>
      <trkpt lat="48.35146" lon="2.79893">
        <ele>59</ele>
        <time>2022-11-23T14:19:34.260Z</time>
      </trkpt>
      <trkpt lat="48.35151" lon="2.79899">
        <ele>59</ele>
        <time>2022-11-23T14:19:38.462Z</time>
      </trkpt>
      <trkpt lat="48.35157" lon="2.79907">
        <ele>57</ele>
        <time>2022-11-23T14:19:43.320Z</time>
      </trkpt>
      <trkpt lat="48.35164" lon="2.79912">
        <ele>57</ele>
        <time>2022-11-23T14:19:48.284Z</time>
      </trkpt>
      <trkpt lat="48.35168" lon="2.79917">
        <ele>57</ele>
        <time>2022-11-23T14:19:52.469Z</time>
      </trkpt>
      <trkpt lat="48.35174" lon="2.79922">
        <ele>57</ele>
        <time>2022-11-23T14:19:57.294Z</time>
      </trkpt>
      <trkpt lat="48.35181" lon="2.79928">
        <ele>58</ele>
        <time>2022-11-23T14:20:02.122Z</time>
      </trkpt>
      <trkpt lat="48.35185" lon="2.79932">
        <ele>56</ele>
        <time>2022-11-23T14:20:06.460Z</time>
      </trkpt>
      <trkpt lat="48.3519" lon="2.79936">
        <ele>56</ele>
        <time>2022-11-23T14:20:10.801Z</time>
      </trkpt>
      <trkpt lat="48.35195" lon="2.79938">
        <ele>56</ele>
        <time>2022-11-23T14:20:15.199Z</time>
      </trkpt>
      <trkpt lat="48.35201" lon="2.79942">
        <ele>56</ele>
        <time>2022-11-23T14:20:19.383Z</time>
      </trkpt>
      <trkpt lat="48.35205" lon="2.79944">
        <ele>56</ele>
        <time>2022-11-23T14:20:23.601Z</time>
      </trkpt>
      <trkpt lat="48.3521" lon="2.79947">
        <ele>58</ele>
        <time>2022-11-23T14:20:27.658Z</time>
      </trkpt>
      <trkpt lat="48.35216" lon="2.7995">
        <ele>58</ele>
        <time>2022-11-23T14:20:32.464Z</time>
      </trkpt>
      <trkpt lat="48.35222" lon="2.79954">
        <ele>58</ele>
        <time>2022-11-23T14:20:36.623Z</time>
      </trkpt>
      <trkpt lat="48.35227" lon="2.79958">
        <ele>58</ele>
        <time>2022-11-23T14:20:41.443Z</time>
      </trkpt>
      <trkpt lat="48.3523" lon="2.79959">
        <ele>56</ele>
        <time>2022-11-23T14:20:46.451Z</time>
      </trkpt>
      <trkpt lat="48.3523" lon="2.7996">
        <ele>56</ele>
        <time>2022-11-23T14:20:50.774Z</time>
      </trkpt>
      <trkpt lat="48.35232" lon="2.79963">
        <ele>56</ele>
        <time>2022-11-23T14:21:27.477Z</time>
      </trkpt>
      <trkpt lat="48.35235" lon="2.7996">
        <ele>56</ele>
        <time>2022-11-23T14:21:31.468Z</time>
      </trkpt>
      <trkpt lat="48.35242" lon="2.79961">
        <ele>58</ele>
        <time>2022-11-23T14:21:36.485Z</time>
      </trkpt>
      <trkpt lat="48.35248" lon="2.7996">
        <ele>58</ele>
        <time>2022-11-23T14:21:40.481Z</time>
      </trkpt>
      <trkpt lat="48.35255" lon="2.79955">
        <ele>60</ele>
        <time>2022-11-23T14:21:45.470Z</time>
      </trkpt>
      <trkpt lat="48.35259" lon="2.79954">
        <ele>60</ele>
        <time>2022-11-23T14:21:49.945Z</time>
      </trkpt>
      <trkpt lat="48.35264" lon="2.79951">
        <ele>60</ele>
        <time>2022-11-23T14:21:54.201Z</time>
      </trkpt>
      <trkpt lat="48.35266" lon="2.7995">
        <ele>59</ele>
        <time>2022-11-23T14:21:58.207Z</time>
      </trkpt>
      <trkpt lat="48.35269" lon="2.79949">
        <ele>59</ele>
        <time>2022-11-23T14:22:02.470Z</time>
      </trkpt>
      <trkpt lat="48.35276" lon="2.79945">
        <ele>59</ele>
        <time>2022-11-23T14:22:06.489Z</time>
      </trkpt>
      <trkpt lat="48.35282" lon="2.79942">
        <ele>59</ele>
        <time>2022-11-23T14:22:10.960Z</time>
      </trkpt>
      <trkpt lat="48.35287" lon="2.79938">
        <ele>59</ele>
        <time>2022-11-23T14:22:15.102Z</time>
      </trkpt>
      <trkpt lat="48.35293" lon="2.79935">
        <ele>58</ele>
        <time>2022-11-23T14:22:19.461Z</time>
      </trkpt>
      <trkpt lat="48.35299" lon="2.79932">
        <ele>58</ele>
        <time>2022-11-23T14:22:24.470Z</time>
      </trkpt>
      <trkpt lat="48.35306" lon="2.79929">
        <ele>58</ele>
        <time>2022-11-23T14:22:29.421Z</time>
      </trkpt>
      <trkpt lat="48.3531" lon="2.79928">
        <ele>58</ele>
        <time>2022-11-23T14:22:33.464Z</time>
      </trkpt>
      <trkpt lat="48.35317" lon="2.79928">
        <ele>58</ele>
        <time>2022-11-23T14:22:38.055Z</time>
      </trkpt>
      <trkpt lat="48.35323" lon="2.79924">
        <ele>57</ele>
        <time>2022-11-23T14:22:42.452Z</time>
      </trkpt>
      <trkpt lat="48.3533" lon="2.79922">
        <ele>57</ele>
        <time>2022-11-23T14:22:47.101Z</time>
      </trkpt>
      <trkpt lat="48.35334" lon="2.79921">
        <ele>57</ele>
        <time>2022-11-23T14:22:51.259Z</time>
      </trkpt>
      <trkpt lat="48.3534" lon="2.7992">
        <ele>57</ele>
        <time>2022-11-23T14:22:55.479Z</time>
      </trkpt>
      <trkpt lat="48.35347" lon="2.79918">
        <ele>57</ele>
        <time>2022-11-23T14:23:00.025Z</time>
      </trkpt>
      <trkpt lat="48.35354" lon="2.7992">
        <ele>55</ele>
        <time>2022-11-23T14:23:04.467Z</time>
      </trkpt>
      <trkpt lat="48.3536" lon="2.79919">
        <ele>55</ele>
        <time>2022-11-23T14:23:08.863Z</time>
      </trkpt>
      <trkpt lat="48.35365" lon="2.79919">
        <ele>55</ele>
        <time>2022-11-23T14:23:12.977Z</time>
      </trkpt>
      <trkpt lat="48.3537" lon="2.79919">
        <ele>55</ele>
        <time>2022-11-23T14:23:17.141Z</time>
      </trkpt>
      <trkpt lat="48.35375" lon="2.79919">
        <ele>55</ele>
        <time>2022-11-23T14:23:21.363Z</time>
      </trkpt>
      <trkpt lat="48.35383" lon="2.79918">
        <ele>55</ele>
        <time>2022-11-23T14:23:25.499Z</time>
      </trkpt>
      <trkpt lat="48.3539" lon="2.79919">
        <ele>55</ele>
        <time>2022-11-23T14:23:29.922Z</time>
      </trkpt>
      <trkpt lat="48.35395" lon="2.79921">
        <ele>55</ele>
        <time>2022-11-23T14:23:33.963Z</time>
      </trkpt>
      <trkpt lat="48.35399" lon="2.79925">
        <ele>55</ele>
        <time>2022-11-23T14:23:38.278Z</time>
      </trkpt>
      <trkpt lat="48.35406" lon="2.79924">
        <ele>56</ele>
        <time>2022-11-23T14:23:42.484Z</time>
      </trkpt>
      <trkpt lat="48.35414" lon="2.79922">
        <ele>56</ele>
        <time>2022-11-23T14:23:46.744Z</time>
      </trkpt>
      <trkpt lat="48.3542" lon="2.79923">
        <ele>56</ele>
        <time>2022-11-23T14:23:51.460Z</time>
      </trkpt>
      <trkpt lat="48.35425" lon="2.79924">
        <ele>56</ele>
        <time>2022-11-23T14:23:56.296Z</time>
      </trkpt>
      <trkpt lat="48.35433" lon="2.7992">
        <ele>57</ele>
        <time>2022-11-23T14:24:00.457Z</time>
      </trkpt>
      <trkpt lat="48.35439" lon="2.7992">
        <ele>57</ele>
        <time>2022-11-23T14:24:04.639Z</time>
      </trkpt>
      <trkpt lat="48.35444" lon="2.79923">
        <ele>57</ele>
        <time>2022-11-23T14:24:09.099Z</time>
      </trkpt>
      <trkpt lat="48.3545" lon="2.79927">
        <ele>57</ele>
        <time>2022-11-23T14:24:13.491Z</time>
      </trkpt>
      <trkpt lat="48.35457" lon="2.79928">
        <ele>57</ele>
        <time>2022-11-23T14:24:18.163Z</time>
      </trkpt>
      <trkpt lat="48.35462" lon="2.79927">
        <ele>58</ele>
        <time>2022-11-23T14:24:22.161Z</time>
      </trkpt>
      <trkpt lat="48.35468" lon="2.79929">
        <ele>58</ele>
        <time>2022-11-23T14:24:26.423Z</time>
      </trkpt>
      <trkpt lat="48.35473" lon="2.79931">
        <ele>58</ele>
        <time>2022-11-23T14:24:31.199Z</time>
      </trkpt>
      <trkpt lat="48.35478" lon="2.79934">
        <ele>58</ele>
        <time>2022-11-23T14:24:35.424Z</time>
      </trkpt>
      <trkpt lat="48.35485" lon="2.79935">
        <ele>58</ele>
        <time>2022-11-23T14:24:40.221Z</time>
      </trkpt>
      <trkpt lat="48.35492" lon="2.79935">
        <ele>61</ele>
        <time>2022-11-23T14:24:45.183Z</time>
      </trkpt>
      <trkpt lat="48.35496" lon="2.79936">
        <ele>61</ele>
        <time>2022-11-23T14:24:49.478Z</time>
      </trkpt>
      <trkpt lat="48.35501" lon="2.79936">
        <ele>61</ele>
        <time>2022-11-23T14:24:53.999Z</time>
      </trkpt>
      <trkpt lat="48.35508" lon="2.79937">
        <ele>61</ele>
        <time>2022-11-23T14:24:58.322Z</time>
      </trkpt>
      <trkpt lat="48.35515" lon="2.79937">
        <ele>62</ele>
        <time>2022-11-23T14:25:02.718Z</time>
      </trkpt>
      <trkpt lat="48.35521" lon="2.79938">
        <ele>62</ele>
        <time>2022-11-23T14:25:07.182Z</time>
      </trkpt>
      <trkpt lat="48.35526" lon="2.79938">
        <ele>62</ele>
        <time>2022-11-23T14:25:11.220Z</time>
      </trkpt>
      <trkpt lat="48.35531" lon="2.79937">
        <ele>62</ele>
        <time>2022-11-23T14:25:15.446Z</time>
      </trkpt>
      <trkpt lat="48.35534" lon="2.79937">
        <ele>62</ele>
        <time>2022-11-23T14:25:23.447Z</time>
      </trkpt>
      <trkpt lat="48.35534" lon="2.79937">
        <ele>62</ele>
        <time>2022-11-23T14:25:27.471Z</time>
      </trkpt>
      <trkpt lat="48.35537" lon="2.79938">
        <ele>62</ele>
        <time>2022-11-23T14:25:31.763Z</time>
      </trkpt>
      <trkpt lat="48.35542" lon="2.79939">
        <ele>60</ele>
        <time>2022-11-23T14:25:36.022Z</time>
      </trkpt>
      <trkpt lat="48.35547" lon="2.79937">
        <ele>60</ele>
        <time>2022-11-23T14:25:40.493Z</time>
      </trkpt>
      <trkpt lat="48.35553" lon="2.79938">
        <ele>60</ele>
        <time>2022-11-23T14:25:44.725Z</time>
      </trkpt>
      <trkpt lat="48.35558" lon="2.79938">
        <ele>60</ele>
        <time>2022-11-23T14:25:49.145Z</time>
      </trkpt>
      <trkpt lat="48.35564" lon="2.79938">
        <ele>60</ele>
        <time>2022-11-23T14:25:53.500Z</time>
      </trkpt>
      <trkpt lat="48.35569" lon="2.79938">
        <ele>60</ele>
        <time>2022-11-23T14:25:58.478Z</time>
      </trkpt>
      <trkpt lat="48.35571" lon="2.7994">
        <ele>58</ele>
        <time>2022-11-23T14:26:02.477Z</time>
      </trkpt>
      <trkpt lat="48.35578" lon="2.79937">
        <ele>58</ele>
        <time>2022-11-23T14:26:07.098Z</time>
      </trkpt>
      <trkpt lat="48.35583" lon="2.79936">
        <ele>58</ele>
        <time>2022-11-23T14:26:11.382Z</time>
      </trkpt>
      <trkpt lat="48.35589" lon="2.79937">
        <ele>58</ele>
        <time>2022-11-23T14:26:15.479Z</time>
      </trkpt>
      <trkpt lat="48.35596" lon="2.79938">
        <ele>58</ele>
        <time>2022-11-23T14:26:20.487Z</time>
      </trkpt>
      <trkpt lat="48.35604" lon="2.79938">
        <ele>57</ele>
        <time>2022-11-23T14:26:25.345Z</time>
      </trkpt>
      <trkpt lat="48.35609" lon="2.79938">
        <ele>57</ele>
        <time>2022-11-23T14:26:29.495Z</time>
      </trkpt>
      <trkpt lat="48.35617" lon="2.79938">
        <ele>57</ele>
        <time>2022-11-23T14:26:34.325Z</time>
      </trkpt>
      <trkpt lat="48.35623" lon="2.7994">
        <ele>57</ele>
        <time>2022-11-23T14:26:39.303Z</time>
      </trkpt>
      <trkpt lat="48.3563" lon="2.79944">
        <ele>56</ele>
        <time>2022-11-23T14:26:43.450Z</time>
      </trkpt>
      <trkpt lat="48.35637" lon="2.79945">
        <ele>56</ele>
        <time>2022-11-23T14:26:48.220Z</time>
      </trkpt>
      <trkpt lat="48.35643" lon="2.79946">
        <ele>56</ele>
        <time>2022-11-23T14:26:52.560Z</time>
      </trkpt>
      <trkpt lat="48.35648" lon="2.79945">
        <ele>56</ele>
        <time>2022-11-23T14:26:56.964Z</time>
      </trkpt>
      <trkpt lat="48.35654" lon="2.79944">
        <ele>57</ele>
        <time>2022-11-23T14:27:01.175Z</time>
      </trkpt>
      <trkpt lat="48.35659" lon="2.79943">
        <ele>57</ele>
        <time>2022-11-23T14:27:05.480Z</time>
      </trkpt>
      <trkpt lat="48.35663" lon="2.79943">
        <ele>57</ele>
        <time>2022-11-23T14:27:09.763Z</time>
      </trkpt>
      <trkpt lat="48.35668" lon="2.79943">
        <ele>57</ele>
        <time>2022-11-23T14:27:14.203Z</time>
      </trkpt>
      <trkpt lat="48.35674" lon="2.79941">
        <ele>57</ele>
        <time>2022-11-23T14:27:18.459Z</time>
      </trkpt>
      <trkpt lat="48.3568" lon="2.7994">
        <ele>57</ele>
        <time>2022-11-23T14:27:23.017Z</time>
      </trkpt>
      <trkpt lat="48.35685" lon="2.79939">
        <ele>58</ele>
        <time>2022-11-23T14:27:27.446Z</time>
      </trkpt>
      <trkpt lat="48.35688" lon="2.7994">
        <ele>58</ele>
        <time>2022-11-23T14:27:31.452Z</time>
      </trkpt>
      <trkpt lat="48.35692" lon="2.79941">
        <ele>58</ele>
        <time>2022-11-23T14:27:35.448Z</time>
      </trkpt>
      <trkpt lat="48.35699" lon="2.79941">
        <ele>58</ele>
        <time>2022-11-23T14:27:39.743Z</time>
      </trkpt>
      <trkpt lat="48.35703" lon="2.79943">
        <ele>58</ele>
        <time>2022-11-23T14:27:44.023Z</time>
      </trkpt>
      <trkpt lat="48.35711" lon="2.79941">
        <ele>59</ele>
        <time>2022-11-23T14:27:48.475Z</time>
      </trkpt>
      <trkpt lat="48.35715" lon="2.79942">
        <ele>59</ele>
        <time>2022-11-23T14:27:52.837Z</time>
      </trkpt>
      <trkpt lat="48.35721" lon="2.7994">
        <ele>59</ele>
        <time>2022-11-23T14:27:57.042Z</time>
      </trkpt>
      <trkpt lat="48.35727" lon="2.79939">
        <ele>59</ele>
        <time>2022-11-23T14:28:01.224Z</time>
      </trkpt>
      <trkpt lat="48.35731" lon="2.7994">
        <ele>59</ele>
        <time>2022-11-23T14:28:05.296Z</time>
      </trkpt>
      <trkpt lat="48.35736" lon="2.79943">
        <ele>59</ele>
        <time>2022-11-23T14:28:09.480Z</time>
      </trkpt>
      <trkpt lat="48.35741" lon="2.7994">
        <ele>60</ele>
        <time>2022-11-23T14:28:13.881Z</time>
      </trkpt>
      <trkpt lat="48.35743" lon="2.79938">
        <ele>60</ele>
        <time>2022-11-23T14:28:18.456Z</time>
      </trkpt>
      <trkpt lat="48.35743" lon="2.79938">
        <ele>60</ele>
        <time>2022-11-23T14:28:37.486Z</time>
      </trkpt>
      <trkpt lat="48.35746" lon="2.79936">
        <ele>60</ele>
        <time>2022-11-23T14:28:42.285Z</time>
      </trkpt>
      <trkpt lat="48.35749" lon="2.79935">
        <ele>60</ele>
        <time>2022-11-23T14:28:47.300Z</time>
      </trkpt>
      <trkpt lat="48.35756" lon="2.79938">
        <ele>60</ele>
        <time>2022-11-23T14:28:51.961Z</time>
      </trkpt>
      <trkpt lat="48.35764" lon="2.79945">
        <ele>64</ele>
        <time>2022-11-23T14:28:56.936Z</time>
      </trkpt>
      <trkpt lat="48.35767" lon="2.79938">
        <ele>64</ele>
        <time>2022-11-23T14:30:09.183Z</time>
      </trkpt>
      <trkpt lat="48.35773" lon="2.79938">
        <ele>64</ele>
        <time>2022-11-23T14:30:13.795Z</time>
      </trkpt>
      <trkpt lat="48.35778" lon="2.79938">
        <ele>64</ele>
        <time>2022-11-23T14:30:18.422Z</time>
      </trkpt>
      <trkpt lat="48.35784" lon="2.79935">
        <ele>64</ele>
        <time>2022-11-23T14:30:22.922Z</time>
      </trkpt>
      <trkpt lat="48.35789" lon="2.79934">
        <ele>64</ele>
        <time>2022-11-23T14:30:27.165Z</time>
      </trkpt>
      <trkpt lat="48.35793" lon="2.79937">
        <ele>67</ele>
        <time>2022-11-23T14:30:31.237Z</time>
      </trkpt>
      <trkpt lat="48.35797" lon="2.7994">
        <ele>67</ele>
        <time>2022-11-23T14:30:35.439Z</time>
      </trkpt>
      <trkpt lat="48.35801" lon="2.79945">
        <ele>67</ele>
        <time>2022-11-23T14:30:39.883Z</time>
      </trkpt>
      <trkpt lat="48.35806" lon="2.7995">
        <ele>67</ele>
        <time>2022-11-23T14:30:44.490Z</time>
      </trkpt>
      <trkpt lat="48.35809" lon="2.79953">
        <ele>67</ele>
        <time>2022-11-23T14:30:48.479Z</time>
      </trkpt>
      <trkpt lat="48.35812" lon="2.7996">
        <ele>67</ele>
        <time>2022-11-23T14:30:53.217Z</time>
      </trkpt>
      <trkpt lat="48.35817" lon="2.79966">
        <ele>67</ele>
        <time>2022-11-23T14:30:57.822Z</time>
      </trkpt>
      <trkpt lat="48.35821" lon="2.79972">
        <ele>72</ele>
        <time>2022-11-23T14:31:01.881Z</time>
      </trkpt>
      <trkpt lat="48.35825" lon="2.79978">
        <ele>72</ele>
        <time>2022-11-23T14:31:06.061Z</time>
      </trkpt>
      <trkpt lat="48.3583" lon="2.79983">
        <ele>72</ele>
        <time>2022-11-23T14:31:10.244Z</time>
      </trkpt>
      <trkpt lat="48.35837" lon="2.79993">
        <ele>71</ele>
        <time>2022-11-23T14:31:19.019Z</time>
      </trkpt>
      <trkpt lat="48.3584" lon="2.79995">
        <ele>71</ele>
        <time>2022-11-23T14:31:23.140Z</time>
      </trkpt>
      <trkpt lat="48.35843" lon="2.79998">
        <ele>71</ele>
        <time>2022-11-23T14:31:27.223Z</time>
      </trkpt>
      <trkpt lat="48.35846" lon="2.80002">
        <ele>71</ele>
        <time>2022-11-23T14:31:31.404Z</time>
      </trkpt>
      <trkpt lat="48.35849" lon="2.80006">
        <ele>76</ele>
        <time>2022-11-23T14:31:35.475Z</time>
      </trkpt>
      <trkpt lat="48.35852" lon="2.80012">
        <ele>76</ele>
        <time>2022-11-23T14:31:39.492Z</time>
      </trkpt>
      <trkpt lat="48.35856" lon="2.80018">
        <ele>74</ele>
        <time>2022-11-23T14:31:43.928Z</time>
      </trkpt>
      <trkpt lat="48.3586" lon="2.80024">
        <ele>74</ele>
        <time>2022-11-23T14:31:48.092Z</time>
      </trkpt>
      <trkpt lat="48.35864" lon="2.8003">
        <ele>74</ele>
        <time>2022-11-23T14:31:52.179Z</time>
      </trkpt>
      <trkpt lat="48.35867" lon="2.80036">
        <ele>74</ele>
        <time>2022-11-23T14:31:56.451Z</time>
      </trkpt>
      <trkpt lat="48.35871" lon="2.80041">
        <ele>74</ele>
        <time>2022-11-23T14:32:00.485Z</time>
      </trkpt>
      <trkpt lat="48.35873" lon="2.80047">
        <ele>72</ele>
        <time>2022-11-23T14:32:05.491Z</time>
      </trkpt>
      <trkpt lat="48.35877" lon="2.80053">
        <ele>79</ele>
        <time>2022-11-23T14:32:09.999Z</time>
      </trkpt>
      <trkpt lat="48.35881" lon="2.80058">
        <ele>79</ele>
        <time>2022-11-23T14:32:14.527Z</time>
      </trkpt>
      <trkpt lat="48.35885" lon="2.80064">
        <ele>79</ele>
        <time>2022-11-23T14:32:19.264Z</time>
      </trkpt>
      <trkpt lat="48.35889" lon="2.80068">
        <ele>79</ele>
        <time>2022-11-23T14:32:23.323Z</time>
      </trkpt>
      <trkpt lat="48.35894" lon="2.8007">
        <ele>76</ele>
        <time>2022-11-23T14:32:27.685Z</time>
      </trkpt>
      <trkpt lat="48.35897" lon="2.80073">
        <ele>76</ele>
        <time>2022-11-23T14:32:32.195Z</time>
      </trkpt>
      <trkpt lat="48.359" lon="2.80078">
        <ele>76</ele>
        <time>2022-11-23T14:32:36.239Z</time>
      </trkpt>
      <trkpt lat="48.35904" lon="2.80082">
        <ele>80</ele>
        <time>2022-11-23T14:32:40.283Z</time>
      </trkpt>
      <trkpt lat="48.35911" lon="2.8009">
        <ele>80</ele>
        <time>2022-11-23T14:32:45.480Z</time>
      </trkpt>
      <trkpt lat="48.35912" lon="2.80093">
        <ele>80</ele>
        <time>2022-11-23T14:32:50.484Z</time>
      </trkpt>
      <trkpt lat="48.35912" lon="2.80093">
        <ele>80</ele>
        <time>2022-11-23T14:32:54.506Z</time>
      </trkpt>
      <trkpt lat="48.35913" lon="2.80098">
        <ele>76</ele>
        <time>2022-11-23T14:32:58.920Z</time>
      </trkpt>
      <trkpt lat="48.35918" lon="2.80104">
        <ele>76</ele>
        <time>2022-11-23T14:33:03.400Z</time>
      </trkpt>
      <trkpt lat="48.35922" lon="2.80109">
        <ele>76</ele>
        <time>2022-11-23T14:33:07.462Z</time>
      </trkpt>
      <trkpt lat="48.35924" lon="2.80119">
        <ele>76</ele>
        <time>2022-11-23T14:33:20.473Z</time>
      </trkpt>
      <trkpt lat="48.35922" lon="2.8012">
        <ele>76</ele>
        <time>2022-11-23T14:33:24.881Z</time>
      </trkpt>
      <trkpt lat="48.35921" lon="2.80123">
        <ele>76</ele>
        <time>2022-11-23T14:33:29.043Z</time>
      </trkpt>
      <trkpt lat="48.35918" lon="2.80125">
        <ele>76</ele>
        <time>2022-11-23T14:33:33.199Z</time>
      </trkpt>
      <trkpt lat="48.35914" lon="2.80126">
        <ele>72</ele>
        <time>2022-11-23T14:33:37.645Z</time>
      </trkpt>
      <trkpt lat="48.3591" lon="2.80125">
        <ele>76</ele>
        <time>2022-11-23T14:33:47.423Z</time>
      </trkpt>
      <trkpt lat="48.35909" lon="2.80126">
        <ele>72</ele>
        <time>2022-11-23T14:33:51.481Z</time>
      </trkpt>
      <trkpt lat="48.35907" lon="2.80128">
        <ele>72</ele>
        <time>2022-11-23T14:33:55.489Z</time>
      </trkpt>
      <trkpt lat="48.35904" lon="2.80128">
        <ele>72</ele>
        <time>2022-11-23T14:34:00.508Z</time>
      </trkpt>
      <trkpt lat="48.35901" lon="2.80127">
        <ele>67</ele>
        <time>2022-11-23T14:34:05.487Z</time>
      </trkpt>
      <trkpt lat="48.35907" lon="2.80136">
        <ele>72</ele>
        <time>2022-11-23T14:34:10.480Z</time>
      </trkpt>
      <trkpt lat="48.35913" lon="2.80145">
        <ele>72</ele>
        <time>2022-11-23T14:34:15.483Z</time>
      </trkpt>
      <trkpt lat="48.35918" lon="2.80154">
        <ele>69</ele>
        <time>2022-11-23T14:34:20.001Z</time>
      </trkpt>
      <trkpt lat="48.35922" lon="2.80162">
        <ele>69</ele>
        <time>2022-11-23T14:34:24.376Z</time>
      </trkpt>
      <trkpt lat="48.35931" lon="2.80179">
        <ele>71</ele>
        <time>2022-11-23T14:35:12.492Z</time>
      </trkpt>
      <trkpt lat="48.35931" lon="2.80179">
        <ele>71</ele>
        <time>2022-11-23T14:35:17.468Z</time>
      </trkpt>
      <trkpt lat="48.35931" lon="2.80179">
        <ele>71</ele>
        <time>2022-11-23T14:35:22.491Z</time>
      </trkpt>
      <trkpt lat="48.35936" lon="2.80186">
        <ele>69</ele>
        <time>2022-11-23T14:35:27.244Z</time>
      </trkpt>
      <trkpt lat="48.35939" lon="2.80192">
        <ele>69</ele>
        <time>2022-11-23T14:35:31.479Z</time>
      </trkpt>
      <trkpt lat="48.35942" lon="2.80195">
        <ele>69</ele>
        <time>2022-11-23T14:35:36.477Z</time>
      </trkpt>
      <trkpt lat="48.35938" lon="2.80194">
        <ele>69</ele>
        <time>2022-11-23T14:35:41.363Z</time>
      </trkpt>
      <trkpt lat="48.35935" lon="2.8019">
        <ele>69</ele>
        <time>2022-11-23T14:35:45.623Z</time>
      </trkpt>
      <trkpt lat="48.35931" lon="2.80185">
        <ele>69</ele>
        <time>2022-11-23T14:35:50.184Z</time>
      </trkpt>
      <trkpt lat="48.35927" lon="2.80179">
        <ele>69</ele>
        <time>2022-11-23T14:35:54.625Z</time>
      </trkpt>
      <trkpt lat="48.35922" lon="2.80173">
        <ele>69</ele>
        <time>2022-11-23T14:35:59.485Z</time>
      </trkpt>
      <trkpt lat="48.35916" lon="2.80167">
        <ele>69</ele>
        <time>2022-11-23T14:36:04.139Z</time>
      </trkpt>
      <trkpt lat="48.35911" lon="2.80159">
        <ele>69</ele>
        <time>2022-11-23T14:36:08.140Z</time>
      </trkpt>
      <trkpt lat="48.35905" lon="2.80153">
        <ele>69</ele>
        <time>2022-11-23T14:36:12.160Z</time>
      </trkpt>
      <trkpt lat="48.359" lon="2.80148">
        <ele>67</ele>
        <time>2022-11-23T14:36:16.503Z</time>
      </trkpt>
      <trkpt lat="48.35895" lon="2.80144">
        <ele>67</ele>
        <time>2022-11-23T14:36:20.760Z</time>
      </trkpt>
      <trkpt lat="48.35888" lon="2.80145">
        <ele>67</ele>
        <time>2022-11-23T14:36:25.381Z</time>
      </trkpt>
      <trkpt lat="48.35882" lon="2.8015">
        <ele>67</ele>
        <time>2022-11-23T14:36:30.240Z</time>
      </trkpt>
      <trkpt lat="48.35878" lon="2.80155">
        <ele>65</ele>
        <time>2022-11-23T14:36:34.482Z</time>
      </trkpt>
      <trkpt lat="48.35871" lon="2.80156">
        <ele>61</ele>
        <time>2022-11-23T14:36:39.059Z</time>
      </trkpt>
      <trkpt lat="48.35866" lon="2.80159">
        <ele>61</ele>
        <time>2022-11-23T14:36:43.282Z</time>
      </trkpt>
      <trkpt lat="48.3586" lon="2.80161">
        <ele>61</ele>
        <time>2022-11-23T14:36:47.476Z</time>
      </trkpt>
      <trkpt lat="48.35855" lon="2.80164">
        <ele>61</ele>
        <time>2022-11-23T14:36:51.477Z</time>
      </trkpt>
      <trkpt lat="48.35848" lon="2.80166">
        <ele>61</ele>
        <time>2022-11-23T14:36:56.480Z</time>
      </trkpt>
      <trkpt lat="48.35842" lon="2.80169">
        <ele>58</ele>
        <time>2022-11-23T14:37:00.925Z</time>
      </trkpt>
      <trkpt lat="48.35835" lon="2.80172">
        <ele>58</ele>
        <time>2022-11-23T14:37:05.458Z</time>
      </trkpt>
      <trkpt lat="48.35831" lon="2.80175">
        <ele>58</ele>
        <time>2022-11-23T14:37:10.196Z</time>
      </trkpt>
      <trkpt lat="48.35827" lon="2.80178">
        <ele>58</ele>
        <time>2022-11-23T14:37:14.480Z</time>
      </trkpt>
      <trkpt lat="48.35827" lon="2.8018">
        <ele>58</ele>
        <time>2022-11-23T14:37:18.471Z</time>
      </trkpt>
      <trkpt lat="48.35827" lon="2.80179">
        <ele>58</ele>
        <time>2022-11-23T14:37:23.041Z</time>
      </trkpt>
      <trkpt lat="48.35821" lon="2.8018">
        <ele>58</ele>
        <time>2022-11-23T14:37:27.143Z</time>
      </trkpt>
      <trkpt lat="48.35814" lon="2.80186">
        <ele>57</ele>
        <time>2022-11-23T14:37:32.236Z</time>
      </trkpt>
      <trkpt lat="48.35808" lon="2.80187">
        <ele>57</ele>
        <time>2022-11-23T14:37:36.900Z</time>
      </trkpt>
      <trkpt lat="48.35801" lon="2.80191">
        <ele>57</ele>
        <time>2022-11-23T14:37:42.155Z</time>
      </trkpt>
      <trkpt lat="48.35796" lon="2.80195">
        <ele>57</ele>
        <time>2022-11-23T14:37:45.629Z</time>
      </trkpt>
      <trkpt lat="48.35789" lon="2.80197">
        <ele>57</ele>
        <time>2022-11-23T14:37:50.378Z</time>
      </trkpt>
      <trkpt lat="48.35784" lon="2.80198">
        <ele>57</ele>
        <time>2022-11-23T14:37:54.382Z</time>
      </trkpt>
      <trkpt lat="48.35777" lon="2.80209">
        <ele>57</ele>
        <time>2022-11-23T14:38:11.490Z</time>
      </trkpt>
      <trkpt lat="48.35774" lon="2.80209">
        <ele>57</ele>
        <time>2022-11-23T14:38:15.945Z</time>
      </trkpt>
      <trkpt lat="48.35767" lon="2.80212">
        <ele>57</ele>
        <time>2022-11-23T14:38:20.099Z</time>
      </trkpt>
      <trkpt lat="48.3576" lon="2.80215">
        <ele>56</ele>
        <time>2022-11-23T14:38:24.239Z</time>
      </trkpt>
      <trkpt lat="48.35755" lon="2.80218">
        <ele>56</ele>
        <time>2022-11-23T14:38:28.477Z</time>
      </trkpt>
      <trkpt lat="48.35749" lon="2.8022">
        <ele>56</ele>
        <time>2022-11-23T14:38:32.485Z</time>
      </trkpt>
      <trkpt lat="48.35743" lon="2.80223">
        <ele>56</ele>
        <time>2022-11-23T14:38:36.863Z</time>
      </trkpt>
      <trkpt lat="48.35738" lon="2.80226">
        <ele>56</ele>
        <time>2022-11-23T14:38:41.485Z</time>
      </trkpt>
      <trkpt lat="48.35733" lon="2.80228">
        <ele>54</ele>
        <time>2022-11-23T14:38:46.022Z</time>
      </trkpt>
      <trkpt lat="48.35726" lon="2.80231">
        <ele>54</ele>
        <time>2022-11-23T14:38:50.460Z</time>
      </trkpt>
      <trkpt lat="48.35719" lon="2.80234">
        <ele>54</ele>
        <time>2022-11-23T14:38:55.284Z</time>
      </trkpt>
      <trkpt lat="48.35713" lon="2.80236">
        <ele>54</ele>
        <time>2022-11-23T14:38:59.343Z</time>
      </trkpt>
      <trkpt lat="48.35707" lon="2.8024">
        <ele>55</ele>
        <time>2022-11-23T14:39:03.467Z</time>
      </trkpt>
      <trkpt lat="48.35701" lon="2.80243">
        <ele>55</ele>
        <time>2022-11-23T14:39:08.099Z</time>
      </trkpt>
      <trkpt lat="48.35694" lon="2.80246">
        <ele>55</ele>
        <time>2022-11-23T14:39:12.359Z</time>
      </trkpt>
      <trkpt lat="48.35688" lon="2.80248">
        <ele>55</ele>
        <time>2022-11-23T14:39:16.685Z</time>
      </trkpt>
      <trkpt lat="48.35682" lon="2.80252">
        <ele>55</ele>
        <time>2022-11-23T14:39:20.885Z</time>
      </trkpt>
      <trkpt lat="48.35677" lon="2.80257">
        <ele>56</ele>
        <time>2022-11-23T14:39:25.035Z</time>
      </trkpt>
      <trkpt lat="48.35672" lon="2.80261">
        <ele>56</ele>
        <time>2022-11-23T14:39:29.097Z</time>
      </trkpt>
      <trkpt lat="48.35666" lon="2.80266">
        <ele>56</ele>
        <time>2022-11-23T14:39:33.342Z</time>
      </trkpt>
      <trkpt lat="48.3566" lon="2.80266">
        <ele>56</ele>
        <time>2022-11-23T14:39:37.479Z</time>
      </trkpt>
      <trkpt lat="48.35655" lon="2.80271">
        <ele>56</ele>
        <time>2022-11-23T14:39:42.199Z</time>
      </trkpt>
      <trkpt lat="48.35651" lon="2.80275">
        <ele>57</ele>
        <time>2022-11-23T14:39:46.261Z</time>
      </trkpt>
      <trkpt lat="48.35645" lon="2.80279">
        <ele>57</ele>
        <time>2022-11-23T14:39:50.582Z</time>
      </trkpt>
      <trkpt lat="48.35639" lon="2.80282">
        <ele>57</ele>
        <time>2022-11-23T14:39:54.797Z</time>
      </trkpt>
      <trkpt lat="48.35635" lon="2.80285">
        <ele>57</ele>
        <time>2022-11-23T14:39:58.937Z</time>
      </trkpt>
      <trkpt lat="48.3563" lon="2.80289">
        <ele>57</ele>
        <time>2022-11-23T14:40:03.240Z</time>
      </trkpt>
      <trkpt lat="48.35625" lon="2.80291">
        <ele>57</ele>
        <time>2022-11-23T14:40:07.492Z</time>
      </trkpt>
      <trkpt lat="48.3562" lon="2.80293">
        <ele>58</ele>
        <time>2022-11-23T14:40:11.966Z</time>
      </trkpt>
      <trkpt lat="48.35613" lon="2.80296">
        <ele>58</ele>
        <time>2022-11-23T14:40:16.198Z</time>
      </trkpt>
      <trkpt lat="48.35607" lon="2.80298">
        <ele>58</ele>
        <time>2022-11-23T14:40:20.361Z</time>
      </trkpt>
      <trkpt lat="48.35601" lon="2.80296">
        <ele>58</ele>
        <time>2022-11-23T14:40:25.087Z</time>
      </trkpt>
      <trkpt lat="48.35595" lon="2.80298">
        <ele>59</ele>
        <time>2022-11-23T14:40:29.102Z</time>
      </trkpt>
      <trkpt lat="48.3559" lon="2.80302">
        <ele>59</ele>
        <time>2022-11-23T14:40:33.184Z</time>
      </trkpt>
      <trkpt lat="48.35584" lon="2.80303">
        <ele>59</ele>
        <time>2022-11-23T14:40:37.487Z</time>
      </trkpt>
      <trkpt lat="48.35577" lon="2.80306">
        <ele>59</ele>
        <time>2022-11-23T14:40:42.220Z</time>
      </trkpt>
      <trkpt lat="48.35571" lon="2.80308">
        <ele>59</ele>
        <time>2022-11-23T14:40:46.378Z</time>
      </trkpt>
      <trkpt lat="48.35566" lon="2.80311">
        <ele>57</ele>
        <time>2022-11-23T14:40:50.478Z</time>
      </trkpt>
      <trkpt lat="48.35561" lon="2.80314">
        <ele>57</ele>
        <time>2022-11-23T14:40:54.484Z</time>
      </trkpt>
      <trkpt lat="48.35557" lon="2.80317">
        <ele>57</ele>
        <time>2022-11-23T14:40:58.493Z</time>
      </trkpt>
      <trkpt lat="48.35553" lon="2.80321">
        <ele>57</ele>
        <time>2022-11-23T14:41:02.496Z</time>
      </trkpt>
      <trkpt lat="48.35546" lon="2.80325">
        <ele>57</ele>
        <time>2022-11-23T14:41:07.276Z</time>
      </trkpt>
      <trkpt lat="48.3554" lon="2.8033">
        <ele>56</ele>
        <time>2022-11-23T14:41:11.469Z</time>
      </trkpt>
      <trkpt lat="48.35534" lon="2.80335">
        <ele>56</ele>
        <time>2022-11-23T14:41:15.620Z</time>
      </trkpt>
      <trkpt lat="48.35529" lon="2.80342">
        <ele>56</ele>
        <time>2022-11-23T14:41:19.697Z</time>
      </trkpt>
      <trkpt lat="48.35524" lon="2.80347">
        <ele>56</ele>
        <time>2022-11-23T14:41:23.918Z</time>
      </trkpt>
      <trkpt lat="48.35517" lon="2.8035">
        <ele>57</ele>
        <time>2022-11-23T14:41:28.484Z</time>
      </trkpt>
      <trkpt lat="48.35513" lon="2.80353">
        <ele>56</ele>
        <time>2022-11-23T14:41:32.736Z</time>
      </trkpt>
      <trkpt lat="48.35506" lon="2.80358">
        <ele>56</ele>
        <time>2022-11-23T14:41:37.353Z</time>
      </trkpt>
      <trkpt lat="48.355" lon="2.80364">
        <ele>56</ele>
        <time>2022-11-23T14:41:41.521Z</time>
      </trkpt>
      <trkpt lat="48.35495" lon="2.80369">
        <ele>56</ele>
        <time>2022-11-23T14:41:45.741Z</time>
      </trkpt>
      <trkpt lat="48.35488" lon="2.80375">
        <ele>56</ele>
        <time>2022-11-23T14:41:51.492Z</time>
      </trkpt>
      <trkpt lat="48.35481" lon="2.80382">
        <ele>54</ele>
        <time>2022-11-23T14:41:55.702Z</time>
      </trkpt>
      <trkpt lat="48.3548" lon="2.8039">
        <ele>54</ele>
        <time>2022-11-23T14:41:59.945Z</time>
      </trkpt>
      <trkpt lat="48.3548" lon="2.80397">
        <ele>54</ele>
        <time>2022-11-23T14:42:04.106Z</time>
      </trkpt>
      <trkpt lat="48.35483" lon="2.80403">
        <ele>55</ele>
        <time>2022-11-23T14:42:08.324Z</time>
      </trkpt>
      <trkpt lat="48.35486" lon="2.80412">
        <ele>57</ele>
        <time>2022-11-23T14:42:12.562Z</time>
      </trkpt>
      <trkpt lat="48.3549" lon="2.80419">
        <ele>57</ele>
        <time>2022-11-23T14:42:17.184Z</time>
      </trkpt>
      <trkpt lat="48.35494" lon="2.80423">
        <ele>57</ele>
        <time>2022-11-23T14:42:21.305Z</time>
      </trkpt>
      <trkpt lat="48.35498" lon="2.8043">
        <ele>57</ele>
        <time>2022-11-23T14:42:25.918Z</time>
      </trkpt>
      <trkpt lat="48.35502" lon="2.80437">
        <ele>56</ele>
        <time>2022-11-23T14:42:30.098Z</time>
      </trkpt>
      <trkpt lat="48.35505" lon="2.80443">
        <ele>56</ele>
        <time>2022-11-23T14:42:34.399Z</time>
      </trkpt>
      <trkpt lat="48.35508" lon="2.8045">
        <ele>56</ele>
        <time>2022-11-23T14:42:38.759Z</time>
      </trkpt>
      <trkpt lat="48.35508" lon="2.80458">
        <ele>55</ele>
        <time>2022-11-23T14:42:43.160Z</time>
      </trkpt>
      <trkpt lat="48.35503" lon="2.80465">
        <ele>55</ele>
        <time>2022-11-23T14:42:47.475Z</time>
      </trkpt>
      <trkpt lat="48.35496" lon="2.80474">
        <ele>55</ele>
        <time>2022-11-23T14:43:13.469Z</time>
      </trkpt>
      <trkpt lat="48.35501" lon="2.80472">
        <ele>55</ele>
        <time>2022-11-23T14:43:18.339Z</time>
      </trkpt>
      <trkpt lat="48.35506" lon="2.80469">
        <ele>55</ele>
        <time>2022-11-23T14:43:23.158Z</time>
      </trkpt>
      <trkpt lat="48.35515" lon="2.80475">
        <ele>57</ele>
        <time>2022-11-23T14:43:28.123Z</time>
      </trkpt>
      <trkpt lat="48.35519" lon="2.80484">
        <ele>57</ele>
        <time>2022-11-23T14:43:32.462Z</time>
      </trkpt>
      <trkpt lat="48.35523" lon="2.80493">
        <ele>55</ele>
        <time>2022-11-23T14:43:36.878Z</time>
      </trkpt>
      <trkpt lat="48.35526" lon="2.80502">
        <ele>55</ele>
        <time>2022-11-23T14:43:41.297Z</time>
      </trkpt>
      <trkpt lat="48.35532" lon="2.8051">
        <ele>55</ele>
        <time>2022-11-23T14:43:45.640Z</time>
      </trkpt>
      <trkpt lat="48.35536" lon="2.80518">
        <ele>54</ele>
        <time>2022-11-23T14:43:49.999Z</time>
      </trkpt>
      <trkpt lat="48.35541" lon="2.80527">
        <ele>54</ele>
        <time>2022-11-23T14:43:54.320Z</time>
      </trkpt>
      <trkpt lat="48.35545" lon="2.80534">
        <ele>56</ele>
        <time>2022-11-23T14:43:58.761Z</time>
      </trkpt>
      <trkpt lat="48.35548" lon="2.80542">
        <ele>54</ele>
        <time>2022-11-23T14:44:02.779Z</time>
      </trkpt>
      <trkpt lat="48.35551" lon="2.80552">
        <ele>54</ele>
        <time>2022-11-23T14:44:07.259Z</time>
      </trkpt>
      <trkpt lat="48.35556" lon="2.80563">
        <ele>54</ele>
        <time>2022-11-23T14:44:12.161Z</time>
      </trkpt>
      <trkpt lat="48.35559" lon="2.80569">
        <ele>54</ele>
        <time>2022-11-23T14:44:16.178Z</time>
      </trkpt>
      <trkpt lat="48.35564" lon="2.80578">
        <ele>51</ele>
        <time>2022-11-23T14:44:21.160Z</time>
      </trkpt>
      <trkpt lat="48.35568" lon="2.80587">
        <ele>51</ele>
        <time>2022-11-23T14:44:26.120Z</time>
      </trkpt>
      <trkpt lat="48.35573" lon="2.80598">
        <ele>54</ele>
        <time>2022-11-23T14:44:31.119Z</time>
      </trkpt>
      <trkpt lat="48.35577" lon="2.80608">
        <ele>54</ele>
        <time>2022-11-23T14:44:36.097Z</time>
      </trkpt>
      <trkpt lat="48.35582" lon="2.80616">
        <ele>54</ele>
        <time>2022-11-23T14:44:40.490Z</time>
      </trkpt>
      <trkpt lat="48.35587" lon="2.80625">
        <ele>54</ele>
        <time>2022-11-23T14:44:45.342Z</time>
      </trkpt>
      <trkpt lat="48.35592" lon="2.80633">
        <ele>54</ele>
        <time>2022-11-23T14:44:50.277Z</time>
      </trkpt>
      <trkpt lat="48.35598" lon="2.80643">
        <ele>57</ele>
        <time>2022-11-23T14:44:55.223Z</time>
      </trkpt>
      <trkpt lat="48.35602" lon="2.80651">
        <ele>57</ele>
        <time>2022-11-23T14:45:00.237Z</time>
      </trkpt>
      <trkpt lat="48.35606" lon="2.80662">
        <ele>56</ele>
        <time>2022-11-23T14:45:05.220Z</time>
      </trkpt>
      <trkpt lat="48.3561" lon="2.80675">
        <ele>56</ele>
        <time>2022-11-23T14:45:10.043Z</time>
      </trkpt>
      <trkpt lat="48.35614" lon="2.80684">
        <ele>55</ele>
        <time>2022-11-23T14:45:14.463Z</time>
      </trkpt>
      <trkpt lat="48.35618" lon="2.80693">
        <ele>55</ele>
        <time>2022-11-23T14:45:18.784Z</time>
      </trkpt>
      <trkpt lat="48.35623" lon="2.80702">
        <ele>55</ele>
        <time>2022-11-23T14:45:23.257Z</time>
      </trkpt>
      <trkpt lat="48.35628" lon="2.8071">
        <ele>56</ele>
        <time>2022-11-23T14:45:27.719Z</time>
      </trkpt>
      <trkpt lat="48.35632" lon="2.80717">
        <ele>56</ele>
        <time>2022-11-23T14:45:32.225Z</time>
      </trkpt>
      <trkpt lat="48.35637" lon="2.80724">
        <ele>56</ele>
        <time>2022-11-23T14:45:37.198Z</time>
      </trkpt>
      <trkpt lat="48.35643" lon="2.80732">
        <ele>56</ele>
        <time>2022-11-23T14:45:42.102Z</time>
      </trkpt>
      <trkpt lat="48.35648" lon="2.80741">
        <ele>55</ele>
        <time>2022-11-23T14:45:47.144Z</time>
      </trkpt>
      <trkpt lat="48.35652" lon="2.80745">
        <ele>55</ele>
        <time>2022-11-23T14:45:51.155Z</time>
      </trkpt>
      <trkpt lat="48.35659" lon="2.80755">
        <ele>54</ele>
        <time>2022-11-23T14:45:56.197Z</time>
      </trkpt>
      <trkpt lat="48.35663" lon="2.80763">
        <ele>54</ele>
        <time>2022-11-23T14:46:00.239Z</time>
      </trkpt>
      <trkpt lat="48.35665" lon="2.80773">
        <ele>52</ele>
        <time>2022-11-23T14:46:04.242Z</time>
      </trkpt>
      <trkpt lat="48.35669" lon="2.8078">
        <ele>52</ele>
        <time>2022-11-23T14:46:08.306Z</time>
      </trkpt>
      <trkpt lat="48.35673" lon="2.80787">
        <ele>52</ele>
        <time>2022-11-23T14:46:12.358Z</time>
      </trkpt>
      <trkpt lat="48.35678" lon="2.80793">
        <ele>51</ele>
        <time>2022-11-23T14:46:16.361Z</time>
      </trkpt>
      <trkpt lat="48.35682" lon="2.80802">
        <ele>51</ele>
        <time>2022-11-23T14:46:20.443Z</time>
      </trkpt>
      <trkpt lat="48.35686" lon="2.80809">
        <ele>51</ele>
        <time>2022-11-23T14:46:24.926Z</time>
      </trkpt>
      <trkpt lat="48.3569" lon="2.80817">
        <ele>51</ele>
        <time>2022-11-23T14:46:29.438Z</time>
      </trkpt>
      <trkpt lat="48.35693" lon="2.80826">
        <ele>51</ele>
        <time>2022-11-23T14:46:33.490Z</time>
      </trkpt>
      <trkpt lat="48.35696" lon="2.80834">
        <ele>51</ele>
        <time>2022-11-23T14:46:37.739Z</time>
      </trkpt>
      <trkpt lat="48.357" lon="2.8084">
        <ele>51</ele>
        <time>2022-11-23T14:46:42.101Z</time>
      </trkpt>
      <trkpt lat="48.35704" lon="2.80848">
        <ele>50</ele>
        <time>2022-11-23T14:46:46.387Z</time>
      </trkpt>
      <trkpt lat="48.35708" lon="2.80854">
        <ele>50</ele>
        <time>2022-11-23T14:46:50.494Z</time>
      </trkpt>
      <trkpt lat="48.35712" lon="2.80861">
        <ele>53</ele>
        <time>2022-11-23T14:46:54.879Z</time>
      </trkpt>
      <trkpt lat="48.35715" lon="2.80868">
        <ele>53</ele>
        <time>2022-11-23T14:46:59.202Z</time>
      </trkpt>
      <trkpt lat="48.3572" lon="2.80874">
        <ele>53</ele>
        <time>2022-11-23T14:47:04.320Z</time>
      </trkpt>
      <trkpt lat="48.35724" lon="2.80879">
        <ele>54</ele>
        <time>2022-11-23T14:47:08.697Z</time>
      </trkpt>
      <trkpt lat="48.35729" lon="2.80883">
        <ele>54</ele>
        <time>2022-11-23T14:47:12.941Z</time>
      </trkpt>
      <trkpt lat="48.35733" lon="2.80893">
        <ele>54</ele>
        <time>2022-11-23T14:47:17.144Z</time>
      </trkpt>
      <trkpt lat="48.35739" lon="2.80899">
        <ele>56</ele>
        <time>2022-11-23T14:47:22.117Z</time>
      </trkpt>
      <trkpt lat="48.35742" lon="2.80903">
        <ele>57</ele>
        <time>2022-11-23T14:47:26.480Z</time>
      </trkpt>
      <trkpt lat="48.35746" lon="2.80908">
        <ele>57</ele>
        <time>2022-11-23T14:47:30.841Z</time>
      </trkpt>
      <trkpt lat="48.35751" lon="2.80913">
        <ele>57</ele>
        <time>2022-11-23T14:47:35.141Z</time>
      </trkpt>
      <trkpt lat="48.35755" lon="2.80914">
        <ele>57</ele>
        <time>2022-11-23T14:47:39.362Z</time>
      </trkpt>
      <trkpt lat="48.35759" lon="2.80918">
        <ele>57</ele>
        <time>2022-11-23T14:47:43.496Z</time>
      </trkpt>
      <trkpt lat="48.35764" lon="2.80924">
        <ele>58</ele>
        <time>2022-11-23T14:47:48.280Z</time>
      </trkpt>
      <trkpt lat="48.35769" lon="2.80929">
        <ele>58</ele>
        <time>2022-11-23T14:47:52.467Z</time>
      </trkpt>
      <trkpt lat="48.35773" lon="2.80936">
        <ele>57</ele>
        <time>2022-11-23T14:47:57.043Z</time>
      </trkpt>
      <trkpt lat="48.35779" lon="2.8094">
        <ele>57</ele>
        <time>2022-11-23T14:48:01.296Z</time>
      </trkpt>
      <trkpt lat="48.35785" lon="2.80944">
        <ele>57</ele>
        <time>2022-11-23T14:48:05.488Z</time>
      </trkpt>
      <trkpt lat="48.35791" lon="2.8095">
        <ele>57</ele>
        <time>2022-11-23T14:48:10.046Z</time>
      </trkpt>
      <trkpt lat="48.35797" lon="2.80954">
        <ele>56</ele>
        <time>2022-11-23T14:48:14.498Z</time>
      </trkpt>
      <trkpt lat="48.35802" lon="2.80959">
        <ele>55</ele>
        <time>2022-11-23T14:48:19.300Z</time>
      </trkpt>
      <trkpt lat="48.35806" lon="2.80964">
        <ele>55</ele>
        <time>2022-11-23T14:48:23.460Z</time>
      </trkpt>
      <trkpt lat="48.35811" lon="2.80968">
        <ele>55</ele>
        <time>2022-11-23T14:48:27.743Z</time>
      </trkpt>
      <trkpt lat="48.35814" lon="2.80972">
        <ele>55</ele>
        <time>2022-11-23T14:48:31.944Z</time>
      </trkpt>
      <trkpt lat="48.3582" lon="2.80976">
        <ele>56</ele>
        <time>2022-11-23T14:48:36.178Z</time>
      </trkpt>
      <trkpt lat="48.35826" lon="2.80982">
        <ele>56</ele>
        <time>2022-11-23T14:48:40.338Z</time>
      </trkpt>
      <trkpt lat="48.35831" lon="2.80985">
        <ele>56</ele>
        <time>2022-11-23T14:48:44.484Z</time>
      </trkpt>
      <trkpt lat="48.35838" lon="2.80989">
        <ele>55</ele>
        <time>2022-11-23T14:48:49.180Z</time>
      </trkpt>
      <trkpt lat="48.35844" lon="2.80993">
        <ele>55</ele>
        <time>2022-11-23T14:48:53.343Z</time>
      </trkpt>
      <trkpt lat="48.35849" lon="2.81">
        <ele>56</ele>
        <time>2022-11-23T14:48:57.425Z</time>
      </trkpt>
      <trkpt lat="48.35853" lon="2.81008">
        <ele>56</ele>
        <time>2022-11-23T14:49:01.616Z</time>
      </trkpt>
      <trkpt lat="48.35857" lon="2.81015">
        <ele>56</ele>
        <time>2022-11-23T14:49:06.342Z</time>
      </trkpt>
      <trkpt lat="48.35862" lon="2.81021">
        <ele>56</ele>
        <time>2022-11-23T14:49:10.741Z</time>
      </trkpt>
      <trkpt lat="48.35866" lon="2.81026">
        <ele>56</ele>
        <time>2022-11-23T14:49:15.045Z</time>
      </trkpt>
      <trkpt lat="48.35871" lon="2.8103">
        <ele>56</ele>
        <time>2022-11-23T14:49:19.262Z</time>
      </trkpt>
      <trkpt lat="48.35876" lon="2.81033">
        <ele>58</ele>
        <time>2022-11-23T14:49:23.503Z</time>
      </trkpt>
      <trkpt lat="48.35881" lon="2.81037">
        <ele>58</ele>
        <time>2022-11-23T14:49:27.923Z</time>
      </trkpt>
      <trkpt lat="48.35884" lon="2.81043">
        <ele>59</ele>
        <time>2022-11-23T14:49:32.466Z</time>
      </trkpt>
      <trkpt lat="48.35888" lon="2.81047">
        <ele>59</ele>
        <time>2022-11-23T14:49:36.660Z</time>
      </trkpt>
      <trkpt lat="48.35893" lon="2.81054">
        <ele>59</ele>
        <time>2022-11-23T14:49:41.039Z</time>
      </trkpt>
      <trkpt lat="48.35898" lon="2.81061">
        <ele>59</ele>
        <time>2022-11-23T14:49:45.449Z</time>
      </trkpt>
      <trkpt lat="48.35905" lon="2.81067">
        <ele>60</ele>
        <time>2022-11-23T14:49:49.841Z</time>
      </trkpt>
      <trkpt lat="48.3591" lon="2.81074">
        <ele>61</ele>
        <time>2022-11-23T14:49:54.218Z</time>
      </trkpt>
      <trkpt lat="48.35916" lon="2.8108">
        <ele>61</ele>
        <time>2022-11-23T14:49:58.458Z</time>
      </trkpt>
      <trkpt lat="48.35921" lon="2.81084">
        <ele>61</ele>
        <time>2022-11-23T14:50:04.121Z</time>
      </trkpt>
      <trkpt lat="48.35928" lon="2.8109">
        <ele>61</ele>
        <time>2022-11-23T14:50:08.603Z</time>
      </trkpt>
      <trkpt lat="48.35931" lon="2.81094">
        <ele>60</ele>
        <time>2022-11-23T14:50:12.961Z</time>
      </trkpt>
      <trkpt lat="48.35937" lon="2.81096">
        <ele>60</ele>
        <time>2022-11-23T14:50:17.358Z</time>
      </trkpt>
      <trkpt lat="48.35942" lon="2.81096">
        <ele>60</ele>
        <time>2022-11-23T14:50:21.957Z</time>
      </trkpt>
      <trkpt lat="48.35947" lon="2.81096">
        <ele>60</ele>
        <time>2022-11-23T14:50:26.341Z</time>
      </trkpt>
      <trkpt lat="48.35953" lon="2.81098">
        <ele>59</ele>
        <time>2022-11-23T14:50:30.719Z</time>
      </trkpt>
      <trkpt lat="48.35959" lon="2.81103">
        <ele>57</ele>
        <time>2022-11-23T14:50:35.478Z</time>
      </trkpt>
      <trkpt lat="48.35967" lon="2.81109">
        <ele>57</ele>
        <time>2022-11-23T14:50:39.998Z</time>
      </trkpt>
      <trkpt lat="48.35973" lon="2.81112">
        <ele>57</ele>
        <time>2022-11-23T14:50:44.400Z</time>
      </trkpt>
      <trkpt lat="48.35977" lon="2.81115">
        <ele>57</ele>
        <time>2022-11-23T14:50:49.195Z</time>
      </trkpt>
      <trkpt lat="48.35982" lon="2.81119">
        <ele>57</ele>
        <time>2022-11-23T14:50:53.457Z</time>
      </trkpt>
      <trkpt lat="48.35986" lon="2.81123">
        <ele>57</ele>
        <time>2022-11-23T14:50:57.783Z</time>
      </trkpt>
      <trkpt lat="48.35991" lon="2.81127">
        <ele>56</ele>
        <time>2022-11-23T14:51:02.256Z</time>
      </trkpt>
      <trkpt lat="48.35997" lon="2.81132">
        <ele>56</ele>
        <time>2022-11-23T14:51:06.718Z</time>
      </trkpt>
      <trkpt lat="48.36003" lon="2.81135">
        <ele>56</ele>
        <time>2022-11-23T14:51:11.103Z</time>
      </trkpt>
      <trkpt lat="48.36008" lon="2.81139">
        <ele>56</ele>
        <time>2022-11-23T14:51:15.458Z</time>
      </trkpt>
      <trkpt lat="48.36013" lon="2.81143">
        <ele>56</ele>
        <time>2022-11-23T14:51:19.458Z</time>
      </trkpt>
      <trkpt lat="48.36017" lon="2.81148">
        <ele>57</ele>
        <time>2022-11-23T14:51:23.759Z</time>
      </trkpt>
      <trkpt lat="48.36021" lon="2.81152">
        <ele>57</ele>
        <time>2022-11-23T14:51:28.065Z</time>
      </trkpt>
      <trkpt lat="48.36024" lon="2.81155">
        <ele>57</ele>
        <time>2022-11-23T14:51:32.463Z</time>
      </trkpt>
      <trkpt lat="48.36029" lon="2.8116">
        <ele>57</ele>
        <time>2022-11-23T14:51:36.464Z</time>
      </trkpt>
      <trkpt lat="48.36034" lon="2.81165">
        <ele>57</ele>
        <time>2022-11-23T14:51:40.700Z</time>
      </trkpt>
      <trkpt lat="48.36038" lon="2.8117">
        <ele>57</ele>
        <time>2022-11-23T14:51:45.160Z</time>
      </trkpt>
      <trkpt lat="48.3604" lon="2.81178">
        <ele>57</ele>
        <time>2022-11-23T14:51:49.360Z</time>
      </trkpt>
      <trkpt lat="48.36048" lon="2.81188">
        <ele>58</ele>
        <time>2022-11-23T14:51:54.379Z</time>
      </trkpt>
      <trkpt lat="48.36054" lon="2.81195">
        <ele>58</ele>
        <time>2022-11-23T14:51:58.675Z</time>
      </trkpt>
      <trkpt lat="48.36058" lon="2.81202">
        <ele>58</ele>
        <time>2022-11-23T14:52:03.024Z</time>
      </trkpt>
      <trkpt lat="48.36062" lon="2.81207">
        <ele>58</ele>
        <time>2022-11-23T14:52:07.320Z</time>
      </trkpt>
      <trkpt lat="48.36066" lon="2.81214">
        <ele>57</ele>
        <time>2022-11-23T14:52:11.578Z</time>
      </trkpt>
      <trkpt lat="48.36072" lon="2.81221">
        <ele>59</ele>
        <time>2022-11-23T14:52:16.159Z</time>
      </trkpt>
      <trkpt lat="48.36076" lon="2.81227">
        <ele>59</ele>
        <time>2022-11-23T14:52:20.338Z</time>
      </trkpt>
      <trkpt lat="48.36078" lon="2.81234">
        <ele>59</ele>
        <time>2022-11-23T14:52:25.321Z</time>
      </trkpt>
      <trkpt lat="48.3608" lon="2.81235">
        <ele>59</ele>
        <time>2022-11-23T14:52:29.477Z</time>
      </trkpt>
      <trkpt lat="48.36081" lon="2.81237">
        <ele>57</ele>
        <time>2022-11-23T14:52:34.491Z</time>
      </trkpt>
      <trkpt lat="48.36082" lon="2.81238">
        <ele>57</ele>
        <time>2022-11-23T14:52:39.201Z</time>
      </trkpt>
      <trkpt lat="48.36083" lon="2.8124">
        <ele>57</ele>
        <time>2022-11-23T14:52:43.464Z</time>
      </trkpt>
      <trkpt lat="48.36087" lon="2.81247">
        <ele>57</ele>
        <time>2022-11-23T14:52:47.737Z</time>
      </trkpt>
      <trkpt lat="48.36091" lon="2.81253">
        <ele>57</ele>
        <time>2022-11-23T14:52:51.999Z</time>
      </trkpt>
      <trkpt lat="48.36096" lon="2.8126">
        <ele>57</ele>
        <time>2022-11-23T14:52:56.242Z</time>
      </trkpt>
      <trkpt lat="48.361" lon="2.81266">
        <ele>55</ele>
        <time>2022-11-23T14:53:00.623Z</time>
      </trkpt>
      <trkpt lat="48.36105" lon="2.81272">
        <ele>55</ele>
        <time>2022-11-23T14:53:04.876Z</time>
      </trkpt>
      <trkpt lat="48.3611" lon="2.81279">
        <ele>55</ele>
        <time>2022-11-23T14:53:09.160Z</time>
      </trkpt>
      <trkpt lat="48.36115" lon="2.81286">
        <ele>55</ele>
        <time>2022-11-23T14:53:13.463Z</time>
      </trkpt>
      <trkpt lat="48.36121" lon="2.81293">
        <ele>54</ele>
        <time>2022-11-23T14:53:17.638Z</time>
      </trkpt>
      <trkpt lat="48.36126" lon="2.81299">
        <ele>54</ele>
        <time>2022-11-23T14:53:22.285Z</time>
      </trkpt>
      <trkpt lat="48.36131" lon="2.81305">
        <ele>54</ele>
        <time>2022-11-23T14:53:26.358Z</time>
      </trkpt>
      <trkpt lat="48.36134" lon="2.81311">
        <ele>54</ele>
        <time>2022-11-23T14:53:30.624Z</time>
      </trkpt>
      <trkpt lat="48.36138" lon="2.81317">
        <ele>54</ele>
        <time>2022-11-23T14:53:34.879Z</time>
      </trkpt>
      <trkpt lat="48.36142" lon="2.81325">
        <ele>55</ele>
        <time>2022-11-23T14:53:39.103Z</time>
      </trkpt>
      <trkpt lat="48.36146" lon="2.81332">
        <ele>55</ele>
        <time>2022-11-23T14:53:43.257Z</time>
      </trkpt>
      <trkpt lat="48.36149" lon="2.81337">
        <ele>55</ele>
        <time>2022-11-23T14:53:47.322Z</time>
      </trkpt>
      <trkpt lat="48.36154" lon="2.81344">
        <ele>55</ele>
        <time>2022-11-23T14:53:51.470Z</time>
      </trkpt>
      <trkpt lat="48.36158" lon="2.81352">
        <ele>55</ele>
        <time>2022-11-23T14:53:56.470Z</time>
      </trkpt>
      <trkpt lat="48.36161" lon="2.8136">
        <ele>55</ele>
        <time>2022-11-23T14:54:00.756Z</time>
      </trkpt>
      <trkpt lat="48.36164" lon="2.81367">
        <ele>55</ele>
        <time>2022-11-23T14:54:04.780Z</time>
      </trkpt>
      <trkpt lat="48.36167" lon="2.81375">
        <ele>55</ele>
        <time>2022-11-23T14:54:08.956Z</time>
      </trkpt>
      <trkpt lat="48.36169" lon="2.81382">
        <ele>54</ele>
        <time>2022-11-23T14:54:13.360Z</time>
      </trkpt>
      <trkpt lat="48.36173" lon="2.81391">
        <ele>54</ele>
        <time>2022-11-23T14:54:18.196Z</time>
      </trkpt>
      <trkpt lat="48.36176" lon="2.814">
        <ele>54</ele>
        <time>2022-11-23T14:54:22.382Z</time>
      </trkpt>
      <trkpt lat="48.36179" lon="2.81408">
        <ele>51</ele>
        <time>2022-11-23T14:54:27.158Z</time>
      </trkpt>
      <trkpt lat="48.36183" lon="2.81416">
        <ele>54</ele>
        <time>2022-11-23T14:54:31.458Z</time>
      </trkpt>
      <trkpt lat="48.36187" lon="2.81423">
        <ele>54</ele>
        <time>2022-11-23T14:54:35.739Z</time>
      </trkpt>
      <trkpt lat="48.3619" lon="2.8143">
        <ele>54</ele>
        <time>2022-11-23T14:54:40.224Z</time>
      </trkpt>
      <trkpt lat="48.36193" lon="2.81439">
        <ele>53</ele>
        <time>2022-11-23T14:54:44.468Z</time>
      </trkpt>
      <trkpt lat="48.36197" lon="2.81446">
        <ele>53</ele>
        <time>2022-11-23T14:54:48.845Z</time>
      </trkpt>
      <trkpt lat="48.362" lon="2.81452">
        <ele>53</ele>
        <time>2022-11-23T14:54:53.135Z</time>
      </trkpt>
      <trkpt lat="48.36204" lon="2.81459">
        <ele>53</ele>
        <time>2022-11-23T14:54:57.459Z</time>
      </trkpt>
      <trkpt lat="48.36209" lon="2.81468">
        <ele>54</ele>
        <time>2022-11-23T14:55:02.325Z</time>
      </trkpt>
      <trkpt lat="48.36213" lon="2.81475">
        <ele>54</ele>
        <time>2022-11-23T14:55:07.236Z</time>
      </trkpt>
      <trkpt lat="48.36215" lon="2.81482">
        <ele>54</ele>
        <time>2022-11-23T14:55:11.458Z</time>
      </trkpt>
      <trkpt lat="48.36218" lon="2.81487">
        <ele>54</ele>
        <time>2022-11-23T14:55:15.459Z</time>
      </trkpt>
      <trkpt lat="48.36221" lon="2.81494">
        <ele>54</ele>
        <time>2022-11-23T14:55:20.240Z</time>
      </trkpt>
      <trkpt lat="48.36225" lon="2.81505">
        <ele>54</ele>
        <time>2022-11-23T14:55:24.736Z</time>
      </trkpt>
      <trkpt lat="48.3623" lon="2.81514">
        <ele>54</ele>
        <time>2022-11-23T14:55:29.720Z</time>
      </trkpt>
      <trkpt lat="48.36234" lon="2.81522">
        <ele>54</ele>
        <time>2022-11-23T14:55:33.997Z</time>
      </trkpt>
      <trkpt lat="48.36235" lon="2.81529">
        <ele>54</ele>
        <time>2022-11-23T14:55:38.339Z</time>
      </trkpt>
      <trkpt lat="48.36238" lon="2.81536">
        <ele>54</ele>
        <time>2022-11-23T14:55:42.496Z</time>
      </trkpt>
      <trkpt lat="48.36239" lon="2.81539">
        <ele>54</ele>
        <time>2022-11-23T14:55:48.105Z</time>
      </trkpt>
      <trkpt lat="48.3624" lon="2.81544">
        <ele>55</ele>
        <time>2022-11-23T14:55:52.177Z</time>
      </trkpt>
      <trkpt lat="48.36243" lon="2.81553">
        <ele>55</ele>
        <time>2022-11-23T14:55:56.398Z</time>
      </trkpt>
      <trkpt lat="48.36247" lon="2.81563">
        <ele>55</ele>
        <time>2022-11-23T14:56:00.980Z</time>
      </trkpt>
      <trkpt lat="48.3625" lon="2.81571">
        <ele>54</ele>
        <time>2022-11-23T14:56:05.023Z</time>
      </trkpt>
      <trkpt lat="48.36253" lon="2.8158">
        <ele>54</ele>
        <time>2022-11-23T14:56:09.488Z</time>
      </trkpt>
      <trkpt lat="48.36256" lon="2.81586">
        <ele>54</ele>
        <time>2022-11-23T14:56:13.481Z</time>
      </trkpt>
      <trkpt lat="48.36255" lon="2.81593">
        <ele>54</ele>
        <time>2022-11-23T14:56:17.961Z</time>
      </trkpt>
      <trkpt lat="48.36256" lon="2.81602">
        <ele>53</ele>
        <time>2022-11-23T14:56:21.964Z</time>
      </trkpt>
      <trkpt lat="48.36263" lon="2.81619">
        <ele>53</ele>
        <time>2022-11-23T14:56:30.504Z</time>
      </trkpt>
      <trkpt lat="48.36266" lon="2.81625">
        <ele>53</ele>
        <time>2022-11-23T14:56:35.116Z</time>
      </trkpt>
      <trkpt lat="48.36269" lon="2.81633">
        <ele>53</ele>
        <time>2022-11-23T14:56:39.219Z</time>
      </trkpt>
      <trkpt lat="48.36272" lon="2.81638">
        <ele>53</ele>
        <time>2022-11-23T14:56:43.445Z</time>
      </trkpt>
      <trkpt lat="48.36275" lon="2.81647">
        <ele>53</ele>
        <time>2022-11-23T14:56:47.700Z</time>
      </trkpt>
      <trkpt lat="48.36278" lon="2.81656">
        <ele>53</ele>
        <time>2022-11-23T14:56:51.965Z</time>
      </trkpt>
      <trkpt lat="48.3628" lon="2.81665">
        <ele>53</ele>
        <time>2022-11-23T14:56:56.485Z</time>
      </trkpt>
      <trkpt lat="48.36283" lon="2.81674">
        <ele>53</ele>
        <time>2022-11-23T14:57:01.085Z</time>
      </trkpt>
      <trkpt lat="48.36285" lon="2.81682">
        <ele>53</ele>
        <time>2022-11-23T14:57:05.363Z</time>
      </trkpt>
      <trkpt lat="48.36287" lon="2.81688">
        <ele>53</ele>
        <time>2022-11-23T14:57:09.482Z</time>
      </trkpt>
      <trkpt lat="48.36291" lon="2.81699">
        <ele>53</ele>
        <time>2022-11-23T14:57:14.378Z</time>
      </trkpt>
      <trkpt lat="48.36294" lon="2.81709">
        <ele>54</ele>
        <time>2022-11-23T14:57:19.237Z</time>
      </trkpt>
      <trkpt lat="48.36297" lon="2.81715">
        <ele>54</ele>
        <time>2022-11-23T14:57:23.492Z</time>
      </trkpt>
      <trkpt lat="48.363" lon="2.81724">
        <ele>54</ele>
        <time>2022-11-23T14:57:27.741Z</time>
      </trkpt>
      <trkpt lat="48.36303" lon="2.81733">
        <ele>54</ele>
        <time>2022-11-23T14:57:31.924Z</time>
      </trkpt>
      <trkpt lat="48.36304" lon="2.81744">
        <ele>53</ele>
        <time>2022-11-23T14:57:37.205Z</time>
      </trkpt>
      <trkpt lat="48.36308" lon="2.81753">
        <ele>53</ele>
        <time>2022-11-23T14:57:41.461Z</time>
      </trkpt>
      <trkpt lat="48.3631" lon="2.81761">
        <ele>53</ele>
        <time>2022-11-23T14:57:46.302Z</time>
      </trkpt>
      <trkpt lat="48.36313" lon="2.81768">
        <ele>53</ele>
        <time>2022-11-23T14:57:50.622Z</time>
      </trkpt>
      <trkpt lat="48.36315" lon="2.81776">
        <ele>53</ele>
        <time>2022-11-23T14:57:54.883Z</time>
      </trkpt>
      <trkpt lat="48.36318" lon="2.81784">
        <ele>53</ele>
        <time>2022-11-23T14:57:59.277Z</time>
      </trkpt>
      <trkpt lat="48.36321" lon="2.81792">
        <ele>54</ele>
        <time>2022-11-23T14:58:03.467Z</time>
      </trkpt>
      <trkpt lat="48.36323" lon="2.81801">
        <ele>54</ele>
        <time>2022-11-23T14:58:07.942Z</time>
      </trkpt>
      <trkpt lat="48.36327" lon="2.81809">
        <ele>54</ele>
        <time>2022-11-23T14:58:12.362Z</time>
      </trkpt>
      <trkpt lat="48.36331" lon="2.81818">
        <ele>54</ele>
        <time>2022-11-23T14:58:17.342Z</time>
      </trkpt>
      <trkpt lat="48.36335" lon="2.81828">
        <ele>54</ele>
        <time>2022-11-23T14:58:22.304Z</time>
      </trkpt>
      <trkpt lat="48.36337" lon="2.81835">
        <ele>54</ele>
        <time>2022-11-23T14:58:26.584Z</time>
      </trkpt>
      <trkpt lat="48.36341" lon="2.81842">
        <ele>54</ele>
        <time>2022-11-23T14:58:30.823Z</time>
      </trkpt>
      <trkpt lat="48.36345" lon="2.81851">
        <ele>53</ele>
        <time>2022-11-23T14:58:35.124Z</time>
      </trkpt>
      <trkpt lat="48.36348" lon="2.81858">
        <ele>54</ele>
        <time>2022-11-23T14:58:39.437Z</time>
      </trkpt>
      <trkpt lat="48.36352" lon="2.81868">
        <ele>54</ele>
        <time>2022-11-23T14:58:44.139Z</time>
      </trkpt>
      <trkpt lat="48.36355" lon="2.81875">
        <ele>54</ele>
        <time>2022-11-23T14:58:48.359Z</time>
      </trkpt>
      <trkpt lat="48.36359" lon="2.8188">
        <ele>53</ele>
        <time>2022-11-23T14:58:52.581Z</time>
      </trkpt>
      <trkpt lat="48.36362" lon="2.81889">
        <ele>53</ele>
        <time>2022-11-23T14:58:58.099Z</time>
      </trkpt>
      <trkpt lat="48.36365" lon="2.81894">
        <ele>53</ele>
        <time>2022-11-23T14:59:02.379Z</time>
      </trkpt>
      <trkpt lat="48.3637" lon="2.81897">
        <ele>53</ele>
        <time>2022-11-23T14:59:06.899Z</time>
      </trkpt>
      <trkpt lat="48.36376" lon="2.81901">
        <ele>53</ele>
        <time>2022-11-23T14:59:10.923Z</time>
      </trkpt>
      <trkpt lat="48.36381" lon="2.81903">
        <ele>51</ele>
        <time>2022-11-23T14:59:15.062Z</time>
      </trkpt>
      <trkpt lat="48.36386" lon="2.81906">
        <ele>51</ele>
        <time>2022-11-23T14:59:19.376Z</time>
      </trkpt>
      <trkpt lat="48.3639" lon="2.81914">
        <ele>51</ele>
        <time>2022-11-23T14:59:24.176Z</time>
      </trkpt>
      <trkpt lat="48.36396" lon="2.81917">
        <ele>51</ele>
        <time>2022-11-23T14:59:28.486Z</time>
      </trkpt>
      <trkpt lat="48.36402" lon="2.81918">
        <ele>51</ele>
        <time>2022-11-23T14:59:33.020Z</time>
      </trkpt>
      <trkpt lat="48.36406" lon="2.81921">
        <ele>51</ele>
        <time>2022-11-23T14:59:37.120Z</time>
      </trkpt>
      <trkpt lat="48.36412" lon="2.81924">
        <ele>51</ele>
        <time>2022-11-23T14:59:41.381Z</time>
      </trkpt>
      <trkpt lat="48.36419" lon="2.81927">
        <ele>51</ele>
        <time>2022-11-23T14:59:45.470Z</time>
      </trkpt>
      <trkpt lat="48.36426" lon="2.81927">
        <ele>51</ele>
        <time>2022-11-23T14:59:49.800Z</time>
      </trkpt>
      <trkpt lat="48.36432" lon="2.81931">
        <ele>50</ele>
        <time>2022-11-23T14:59:54.179Z</time>
      </trkpt>
      <trkpt lat="48.36435" lon="2.81935">
        <ele>50</ele>
        <time>2022-11-23T14:59:58.456Z</time>
      </trkpt>
      <trkpt lat="48.36439" lon="2.81938">
        <ele>50</ele>
        <time>2022-11-23T15:00:02.444Z</time>
      </trkpt>
      <trkpt lat="48.3645" lon="2.81942">
        <ele>50</ele>
        <time>2022-11-23T15:00:07.116Z</time>
      </trkpt>
      <trkpt lat="48.36456" lon="2.81946">
        <ele>50</ele>
        <time>2022-11-23T15:00:11.323Z</time>
      </trkpt>
      <trkpt lat="48.36462" lon="2.81949">
        <ele>52</ele>
        <time>2022-11-23T15:00:15.452Z</time>
      </trkpt>
      <trkpt lat="48.36468" lon="2.81954">
        <ele>52</ele>
        <time>2022-11-23T15:00:20.345Z</time>
      </trkpt>
      <trkpt lat="48.36474" lon="2.81957">
        <ele>52</ele>
        <time>2022-11-23T15:00:24.452Z</time>
      </trkpt>
      <trkpt lat="48.3648" lon="2.8196">
        <ele>51</ele>
        <time>2022-11-23T15:00:29.345Z</time>
      </trkpt>
      <trkpt lat="48.36486" lon="2.81963">
        <ele>51</ele>
        <time>2022-11-23T15:00:33.453Z</time>
      </trkpt>
      <trkpt lat="48.36492" lon="2.81966">
        <ele>54</ele>
        <time>2022-11-23T15:00:38.118Z</time>
      </trkpt>
      <trkpt lat="48.36498" lon="2.81968">
        <ele>54</ele>
        <time>2022-11-23T15:00:42.262Z</time>
      </trkpt>
      <trkpt lat="48.36504" lon="2.81971">
        <ele>54</ele>
        <time>2022-11-23T15:00:46.378Z</time>
      </trkpt>
      <trkpt lat="48.3651" lon="2.81974">
        <ele>54</ele>
        <time>2022-11-23T15:00:50.977Z</time>
      </trkpt>
      <trkpt lat="48.36515" lon="2.81975">
        <ele>54</ele>
        <time>2022-11-23T15:00:55.125Z</time>
      </trkpt>
      <trkpt lat="48.3652" lon="2.81977">
        <ele>54</ele>
        <time>2022-11-23T15:00:59.143Z</time>
      </trkpt>
      <trkpt lat="48.36528" lon="2.8198">
        <ele>54</ele>
        <time>2022-11-23T15:01:04.220Z</time>
      </trkpt>
      <trkpt lat="48.36535" lon="2.81982">
        <ele>54</ele>
        <time>2022-11-23T15:01:08.451Z</time>
      </trkpt>
      <trkpt lat="48.3654" lon="2.81984">
        <ele>54</ele>
        <time>2022-11-23T15:01:12.455Z</time>
      </trkpt>
      <trkpt lat="48.36546" lon="2.81988">
        <ele>51</ele>
        <time>2022-11-23T15:01:17.137Z</time>
      </trkpt>
      <trkpt lat="48.36552" lon="2.81989">
        <ele>51</ele>
        <time>2022-11-23T15:01:22.077Z</time>
      </trkpt>
      <trkpt lat="48.36557" lon="2.81991">
        <ele>51</ele>
        <time>2022-11-23T15:01:26.359Z</time>
      </trkpt>
      <trkpt lat="48.36562" lon="2.81993">
        <ele>51</ele>
        <time>2022-11-23T15:01:30.451Z</time>
      </trkpt>
      <trkpt lat="48.36568" lon="2.81995">
        <ele>51</ele>
        <time>2022-11-23T15:01:34.897Z</time>
      </trkpt>
      <trkpt lat="48.36574" lon="2.81996">
        <ele>54</ele>
        <time>2022-11-23T15:01:39.114Z</time>
      </trkpt>
      <trkpt lat="48.3658" lon="2.81997">
        <ele>54</ele>
        <time>2022-11-23T15:01:43.365Z</time>
      </trkpt>
      <trkpt lat="48.36586" lon="2.81997">
        <ele>54</ele>
        <time>2022-11-23T15:01:48.145Z</time>
      </trkpt>
      <trkpt lat="48.36591" lon="2.81998">
        <ele>54</ele>
        <time>2022-11-23T15:01:52.210Z</time>
      </trkpt>
      <trkpt lat="48.36597" lon="2.81997">
        <ele>54</ele>
        <time>2022-11-23T15:01:56.464Z</time>
      </trkpt>
      <trkpt lat="48.36601" lon="2.81996">
        <ele>57</ele>
        <time>2022-11-23T15:02:01.184Z</time>
      </trkpt>
      <trkpt lat="48.36607" lon="2.81996">
        <ele>57</ele>
        <time>2022-11-23T15:02:05.488Z</time>
      </trkpt>
      <trkpt lat="48.36615" lon="2.81997">
        <ele>57</ele>
        <time>2022-11-23T15:02:09.944Z</time>
      </trkpt>
      <trkpt lat="48.36621" lon="2.81997">
        <ele>57</ele>
        <time>2022-11-23T15:02:13.978Z</time>
      </trkpt>
      <trkpt lat="48.36628" lon="2.81994">
        <ele>56</ele>
        <time>2022-11-23T15:02:18.503Z</time>
      </trkpt>
      <trkpt lat="48.36634" lon="2.81993">
        <ele>56</ele>
        <time>2022-11-23T15:02:23.295Z</time>
      </trkpt>
      <trkpt lat="48.3664" lon="2.81993">
        <ele>56</ele>
        <time>2022-11-23T15:02:27.720Z</time>
      </trkpt>
      <trkpt lat="48.36645" lon="2.8199">
        <ele>56</ele>
        <time>2022-11-23T15:02:32.083Z</time>
      </trkpt>
      <trkpt lat="48.3665" lon="2.81989">
        <ele>56</ele>
        <time>2022-11-23T15:02:36.179Z</time>
      </trkpt>
      <trkpt lat="48.36655" lon="2.81988">
        <ele>54</ele>
        <time>2022-11-23T15:02:40.343Z</time>
      </trkpt>
      <trkpt lat="48.36663" lon="2.81989">
        <ele>54</ele>
        <time>2022-11-23T15:02:45.200Z</time>
      </trkpt>
      <trkpt lat="48.36669" lon="2.81987">
        <ele>54</ele>
        <time>2022-11-23T15:02:49.478Z</time>
      </trkpt>
      <trkpt lat="48.36675" lon="2.81986">
        <ele>55</ele>
        <time>2022-11-23T15:02:53.939Z</time>
      </trkpt>
      <trkpt lat="48.36681" lon="2.81984">
        <ele>56</ele>
        <time>2022-11-23T15:02:58.217Z</time>
      </trkpt>
      <trkpt lat="48.36687" lon="2.81982">
        <ele>56</ele>
        <time>2022-11-23T15:03:03.163Z</time>
      </trkpt>
      <trkpt lat="48.36692" lon="2.81981">
        <ele>56</ele>
        <time>2022-11-23T15:03:07.220Z</time>
      </trkpt>
      <trkpt lat="48.36698" lon="2.81981">
        <ele>56</ele>
        <time>2022-11-23T15:03:11.425Z</time>
      </trkpt>
      <trkpt lat="48.36704" lon="2.81981">
        <ele>56</ele>
        <time>2022-11-23T15:03:15.481Z</time>
      </trkpt>
      <trkpt lat="48.3671" lon="2.8198">
        <ele>56</ele>
        <time>2022-11-23T15:03:20.036Z</time>
      </trkpt>
      <trkpt lat="48.36716" lon="2.81977">
        <ele>56</ele>
        <time>2022-11-23T15:03:24.343Z</time>
      </trkpt>
      <trkpt lat="48.36723" lon="2.81976">
        <ele>56</ele>
        <time>2022-11-23T15:03:28.638Z</time>
      </trkpt>
      <trkpt lat="48.36728" lon="2.81973">
        <ele>56</ele>
        <time>2022-11-23T15:03:32.923Z</time>
      </trkpt>
      <trkpt lat="48.36735" lon="2.81972">
        <ele>56</ele>
        <time>2022-11-23T15:03:37.280Z</time>
      </trkpt>
      <trkpt lat="48.3674" lon="2.81969">
        <ele>56</ele>
        <time>2022-11-23T15:03:41.878Z</time>
      </trkpt>
      <trkpt lat="48.36746" lon="2.8197">
        <ele>56</ele>
        <time>2022-11-23T15:03:46.077Z</time>
      </trkpt>
      <trkpt lat="48.36752" lon="2.81966">
        <ele>56</ele>
        <time>2022-11-23T15:03:50.459Z</time>
      </trkpt>
      <trkpt lat="48.36759" lon="2.81965">
        <ele>56</ele>
        <time>2022-11-23T15:03:55.478Z</time>
      </trkpt>
      <trkpt lat="48.36766" lon="2.81964">
        <ele>56</ele>
        <time>2022-11-23T15:04:00.516Z</time>
      </trkpt>
      <trkpt lat="48.36771" lon="2.81961">
        <ele>56</ele>
        <time>2022-11-23T15:04:04.836Z</time>
      </trkpt>
      <trkpt lat="48.36777" lon="2.81959">
        <ele>56</ele>
        <time>2022-11-23T15:04:09.166Z</time>
      </trkpt>
      <trkpt lat="48.36784" lon="2.81956">
        <ele>58</ele>
        <time>2022-11-23T15:04:13.979Z</time>
      </trkpt>
      <trkpt lat="48.3679" lon="2.81954">
        <ele>58</ele>
        <time>2022-11-23T15:04:18.264Z</time>
      </trkpt>
      <trkpt lat="48.36795" lon="2.81953">
        <ele>59</ele>
        <time>2022-11-23T15:04:22.680Z</time>
      </trkpt>
      <trkpt lat="48.368" lon="2.81952">
        <ele>59</ele>
        <time>2022-11-23T15:04:26.861Z</time>
      </trkpt>
      <trkpt lat="48.36806" lon="2.81951">
        <ele>59</ele>
        <time>2022-11-23T15:04:30.981Z</time>
      </trkpt>
      <trkpt lat="48.36811" lon="2.8195">
        <ele>59</ele>
        <time>2022-11-23T15:04:35.447Z</time>
      </trkpt>
      <trkpt lat="48.36818" lon="2.81951">
        <ele>59</ele>
        <time>2022-11-23T15:04:39.959Z</time>
      </trkpt>
      <trkpt lat="48.36823" lon="2.81952">
        <ele>58</ele>
        <time>2022-11-23T15:04:44.076Z</time>
      </trkpt>
      <trkpt lat="48.36829" lon="2.81949">
        <ele>58</ele>
        <time>2022-11-23T15:04:48.401Z</time>
      </trkpt>
      <trkpt lat="48.36836" lon="2.81946">
        <ele>58</ele>
        <time>2022-11-23T15:04:53.100Z</time>
      </trkpt>
      <trkpt lat="48.36842" lon="2.81943">
        <ele>58</ele>
        <time>2022-11-23T15:04:57.143Z</time>
      </trkpt>
      <trkpt lat="48.36849" lon="2.81939">
        <ele>57</ele>
        <time>2022-11-23T15:05:01.489Z</time>
      </trkpt>
      <trkpt lat="48.36854" lon="2.81935">
        <ele>57</ele>
        <time>2022-11-23T15:05:05.885Z</time>
      </trkpt>
      <trkpt lat="48.36859" lon="2.81931">
        <ele>57</ele>
        <time>2022-11-23T15:05:10.418Z</time>
      </trkpt>
      <trkpt lat="48.36865" lon="2.81927">
        <ele>60</ele>
        <time>2022-11-23T15:05:14.593Z</time>
      </trkpt>
      <trkpt lat="48.36871" lon="2.81923">
        <ele>60</ele>
        <time>2022-11-23T15:05:18.959Z</time>
      </trkpt>
      <trkpt lat="48.36875" lon="2.81919">
        <ele>59</ele>
        <time>2022-11-23T15:05:23.199Z</time>
      </trkpt>
      <trkpt lat="48.3688" lon="2.81914">
        <ele>59</ele>
        <time>2022-11-23T15:05:27.424Z</time>
      </trkpt>
      <trkpt lat="48.36887" lon="2.8191">
        <ele>59</ele>
        <time>2022-11-23T15:05:32.202Z</time>
      </trkpt>
      <trkpt lat="48.36893" lon="2.81906">
        <ele>59</ele>
        <time>2022-11-23T15:05:36.467Z</time>
      </trkpt>
      <trkpt lat="48.36898" lon="2.81901">
        <ele>62</ele>
        <time>2022-11-23T15:05:41.239Z</time>
      </trkpt>
      <trkpt lat="48.36904" lon="2.81896">
        <ele>60</ele>
        <time>2022-11-23T15:05:45.466Z</time>
      </trkpt>
      <trkpt lat="48.3691" lon="2.8189">
        <ele>60</ele>
        <time>2022-11-23T15:05:50.103Z</time>
      </trkpt>
      <trkpt lat="48.36915" lon="2.81886">
        <ele>60</ele>
        <time>2022-11-23T15:05:54.281Z</time>
      </trkpt>
      <trkpt lat="48.36921" lon="2.81881">
        <ele>60</ele>
        <time>2022-11-23T15:05:59.097Z</time>
      </trkpt>
      <trkpt lat="48.36926" lon="2.81875">
        <ele>60</ele>
        <time>2022-11-23T15:06:03.301Z</time>
      </trkpt>
      <trkpt lat="48.36931" lon="2.8187">
        <ele>59</ele>
        <time>2022-11-23T15:06:07.415Z</time>
      </trkpt>
      <trkpt lat="48.36937" lon="2.81866">
        <ele>59</ele>
        <time>2022-11-23T15:06:12.163Z</time>
      </trkpt>
      <trkpt lat="48.36942" lon="2.81863">
        <ele>59</ele>
        <time>2022-11-23T15:06:16.464Z</time>
      </trkpt>
      <trkpt lat="48.36946" lon="2.81854">
        <ele>59</ele>
        <time>2022-11-23T15:06:21.280Z</time>
      </trkpt>
      <trkpt lat="48.3695" lon="2.81848">
        <ele>59</ele>
        <time>2022-11-23T15:06:25.543Z</time>
      </trkpt>
      <trkpt lat="48.36955" lon="2.81841">
        <ele>60</ele>
        <time>2022-11-23T15:06:30.257Z</time>
      </trkpt>
      <trkpt lat="48.36959" lon="2.81835">
        <ele>59</ele>
        <time>2022-11-23T15:06:34.416Z</time>
      </trkpt>
      <trkpt lat="48.36964" lon="2.81828">
        <ele>59</ele>
        <time>2022-11-23T15:06:39.302Z</time>
      </trkpt>
      <trkpt lat="48.36968" lon="2.81822">
        <ele>59</ele>
        <time>2022-11-23T15:06:43.442Z</time>
      </trkpt>
      <trkpt lat="48.36973" lon="2.81815">
        <ele>59</ele>
        <time>2022-11-23T15:06:48.299Z</time>
      </trkpt>
      <trkpt lat="48.36978" lon="2.81808">
        <ele>59</ele>
        <time>2022-11-23T15:06:52.445Z</time>
      </trkpt>
      <trkpt lat="48.36983" lon="2.81802">
        <ele>59</ele>
        <time>2022-11-23T15:06:56.716Z</time>
      </trkpt>
      <trkpt lat="48.36988" lon="2.81797">
        <ele>59</ele>
        <time>2022-11-23T15:07:01.037Z</time>
      </trkpt>
      <trkpt lat="48.36991" lon="2.81792">
        <ele>59</ele>
        <time>2022-11-23T15:07:05.320Z</time>
      </trkpt>
      <trkpt lat="48.36996" lon="2.81789">
        <ele>59</ele>
        <time>2022-11-23T15:07:09.325Z</time>
      </trkpt>
      <trkpt lat="48.36999" lon="2.8178">
        <ele>59</ele>
        <time>2022-11-23T15:07:14.319Z</time>
      </trkpt>
      <trkpt lat="48.37003" lon="2.81774">
        <ele>59</ele>
        <time>2022-11-23T15:07:18.844Z</time>
      </trkpt>
      <trkpt lat="48.37007" lon="2.81769">
        <ele>59</ele>
        <time>2022-11-23T15:07:23.182Z</time>
      </trkpt>
      <trkpt lat="48.3701" lon="2.81764">
        <ele>59</ele>
        <time>2022-11-23T15:07:27.758Z</time>
      </trkpt>
      <trkpt lat="48.37013" lon="2.81761">
        <ele>60</ele>
        <time>2022-11-23T15:07:32.164Z</time>
      </trkpt>
      <trkpt lat="48.37016" lon="2.81755">
        <ele>61</ele>
        <time>2022-11-23T15:07:36.357Z</time>
      </trkpt>
      <trkpt lat="48.37022" lon="2.81745">
        <ele>61</ele>
        <time>2022-11-23T15:07:41.319Z</time>
      </trkpt>
      <trkpt lat="48.37027" lon="2.81738">
        <ele>61</ele>
        <time>2022-11-23T15:07:45.759Z</time>
      </trkpt>
      <trkpt lat="48.37031" lon="2.81731">
        <ele>62</ele>
        <time>2022-11-23T15:07:50.076Z</time>
      </trkpt>
      <trkpt lat="48.37033" lon="2.81723">
        <ele>62</ele>
        <time>2022-11-23T15:07:54.381Z</time>
      </trkpt>
      <trkpt lat="48.37037" lon="2.81716">
        <ele>62</ele>
        <time>2022-11-23T15:07:58.482Z</time>
      </trkpt>
      <trkpt lat="48.37042" lon="2.81708">
        <ele>62</ele>
        <time>2022-11-23T15:08:03.217Z</time>
      </trkpt>
      <trkpt lat="48.37045" lon="2.81701">
        <ele>62</ele>
        <time>2022-11-23T15:08:07.469Z</time>
      </trkpt>
      <trkpt lat="48.37049" lon="2.81694">
        <ele>62</ele>
        <time>2022-11-23T15:08:11.620Z</time>
      </trkpt>
      <trkpt lat="48.37053" lon="2.81687">
        <ele>62</ele>
        <time>2022-11-23T15:08:16.082Z</time>
      </trkpt>
      <trkpt lat="48.37056" lon="2.8168">
        <ele>62</ele>
        <time>2022-11-23T15:08:20.268Z</time>
      </trkpt>
      <trkpt lat="48.3706" lon="2.81674">
        <ele>62</ele>
        <time>2022-11-23T15:08:24.465Z</time>
      </trkpt>
      <trkpt lat="48.37063" lon="2.81666">
        <ele>62</ele>
        <time>2022-11-23T15:08:29.195Z</time>
      </trkpt>
      <trkpt lat="48.37066" lon="2.8167">
        <ele>62</ele>
        <time>2022-11-23T15:08:33.421Z</time>
      </trkpt>
      <trkpt lat="48.37071" lon="2.81681">
        <ele>62</ele>
        <time>2022-11-23T15:08:38.452Z</time>
      </trkpt>
      <trkpt lat="48.37075" lon="2.81687">
        <ele>62</ele>
        <time>2022-11-23T15:08:42.485Z</time>
      </trkpt>
      <trkpt lat="48.37078" lon="2.81693">
        <ele>62</ele>
        <time>2022-11-23T15:08:46.716Z</time>
      </trkpt>
      <trkpt lat="48.37081" lon="2.81696">
        <ele>62</ele>
        <time>2022-11-23T15:08:50.781Z</time>
      </trkpt>
      <trkpt lat="48.37086" lon="2.81698">
        <ele>62</ele>
        <time>2022-11-23T15:08:55.235Z</time>
      </trkpt>
      <trkpt lat="48.37089" lon="2.81708">
        <ele>62</ele>
        <time>2022-11-23T15:08:59.358Z</time>
      </trkpt>
      <trkpt lat="48.37092" lon="2.81717">
        <ele>62</ele>
        <time>2022-11-23T15:09:03.784Z</time>
      </trkpt>
      <trkpt lat="48.37097" lon="2.81721">
        <ele>62</ele>
        <time>2022-11-23T15:09:08.324Z</time>
      </trkpt>
      <trkpt lat="48.371" lon="2.81723">
        <ele>60</ele>
        <time>2022-11-23T15:09:12.466Z</time>
      </trkpt>
      <trkpt lat="48.37106" lon="2.81727">
        <ele>60</ele>
        <time>2022-11-23T15:09:16.698Z</time>
      </trkpt>
      <trkpt lat="48.37111" lon="2.81731">
        <ele>60</ele>
        <time>2022-11-23T15:09:20.825Z</time>
      </trkpt>
      <trkpt lat="48.37119" lon="2.81733">
        <ele>60</ele>
        <time>2022-11-23T15:09:25.003Z</time>
      </trkpt>
      <trkpt lat="48.37125" lon="2.81736">
        <ele>60</ele>
        <time>2022-11-23T15:09:29.383Z</time>
      </trkpt>
      <trkpt lat="48.37133" lon="2.8174">
        <ele>59</ele>
        <time>2022-11-23T15:09:33.699Z</time>
      </trkpt>
      <trkpt lat="48.37139" lon="2.81744">
        <ele>59</ele>
        <time>2022-11-23T15:09:37.966Z</time>
      </trkpt>
      <trkpt lat="48.37145" lon="2.81746">
        <ele>59</ele>
        <time>2022-11-23T15:09:42.504Z</time>
      </trkpt>
      <trkpt lat="48.37151" lon="2.81749">
        <ele>59</ele>
        <time>2022-11-23T15:09:47.464Z</time>
      </trkpt>
      <trkpt lat="48.37152" lon="2.81752">
        <ele>59</ele>
        <time>2022-11-23T15:09:51.879Z</time>
      </trkpt>
      <trkpt lat="48.37154" lon="2.81756">
        <ele>60</ele>
        <time>2022-11-23T15:09:56.144Z</time>
      </trkpt>
      <trkpt lat="48.37154" lon="2.81759">
        <ele>60</ele>
        <time>2022-11-23T15:10:00.452Z</time>
      </trkpt>
      <trkpt lat="48.37157" lon="2.8176">
        <ele>60</ele>
        <time>2022-11-23T15:10:04.999Z</time>
      </trkpt>
      <trkpt lat="48.37168" lon="2.81761">
        <ele>60</ele>
        <time>2022-11-23T15:10:09.346Z</time>
      </trkpt>
      <trkpt lat="48.37173" lon="2.81764">
        <ele>59</ele>
        <time>2022-11-23T15:10:13.443Z</time>
      </trkpt>
      <trkpt lat="48.37176" lon="2.81766">
        <ele>59</ele>
        <time>2022-11-23T15:10:18.451Z</time>
      </trkpt>
      <trkpt lat="48.37177" lon="2.81771">
        <ele>59</ele>
        <time>2022-11-23T15:10:23.455Z</time>
      </trkpt>
      <trkpt lat="48.37178" lon="2.81773">
        <ele>59</ele>
        <time>2022-11-23T15:10:28.453Z</time>
      </trkpt>
      <trkpt lat="48.37178" lon="2.81775">
        <ele>59</ele>
        <time>2022-11-23T15:10:33.451Z</time>
      </trkpt>
      <trkpt lat="48.37187" lon="2.81776">
        <ele>57</ele>
        <time>2022-11-23T15:13:01.014Z</time>
      </trkpt>
      <trkpt lat="48.37189" lon="2.81772">
        <ele>57</ele>
        <time>2022-11-23T15:13:05.204Z</time>
      </trkpt>
      <trkpt lat="48.37195" lon="2.81773">
        <ele>57</ele>
        <time>2022-11-23T15:13:09.483Z</time>
      </trkpt>
      <trkpt lat="48.37201" lon="2.81774">
        <ele>57</ele>
        <time>2022-11-23T15:13:14.454Z</time>
      </trkpt>
      <trkpt lat="48.37202" lon="2.81774">
        <ele>57</ele>
        <time>2022-11-23T15:13:19.450Z</time>
      </trkpt>
      <trkpt lat="48.37213" lon="2.81787">
        <ele>53</ele>
        <time>2022-11-23T15:14:28.881Z</time>
      </trkpt>
      <trkpt lat="48.3721" lon="2.81793">
        <ele>53</ele>
        <time>2022-11-23T15:14:33.425Z</time>
      </trkpt>
      <trkpt lat="48.37211" lon="2.81805">
        <ele>53</ele>
        <time>2022-11-23T15:14:38.422Z</time>
      </trkpt>
      <trkpt lat="48.37207" lon="2.81816">
        <ele>56</ele>
        <time>2022-11-23T15:14:42.745Z</time>
      </trkpt>
      <trkpt lat="48.37207" lon="2.81825">
        <ele>56</ele>
        <time>2022-11-23T15:14:46.941Z</time>
      </trkpt>
      <trkpt lat="48.37207" lon="2.81848">
        <ele>55</ele>
        <time>2022-11-23T15:15:27.453Z</time>
      </trkpt>
      <trkpt lat="48.37209" lon="2.81847">
        <ele>52</ele>
        <time>2022-11-23T15:15:32.446Z</time>
      </trkpt>
      <trkpt lat="48.3721" lon="2.8185">
        <ele>52</ele>
        <time>2022-11-23T15:15:36.476Z</time>
      </trkpt>
      <trkpt lat="48.37213" lon="2.81853">
        <ele>52</ele>
        <time>2022-11-23T15:15:41.455Z</time>
      </trkpt>
      <trkpt lat="48.37212" lon="2.81856">
        <ele>52</ele>
        <time>2022-11-23T15:15:46.451Z</time>
      </trkpt>
      <trkpt lat="48.37213" lon="2.8186">
        <ele>52</ele>
        <time>2022-11-23T15:15:51.462Z</time>
      </trkpt>
      <trkpt lat="48.37218" lon="2.8186">
        <ele>52</ele>
        <time>2022-11-23T15:15:55.819Z</time>
      </trkpt>
      <trkpt lat="48.37224" lon="2.8186">
        <ele>52</ele>
        <time>2022-11-23T15:16:00.345Z</time>
      </trkpt>
      <trkpt lat="48.3723" lon="2.8186">
        <ele>52</ele>
        <time>2022-11-23T15:16:04.826Z</time>
      </trkpt>
      <trkpt lat="48.37235" lon="2.81856">
        <ele>52</ele>
        <time>2022-11-23T15:16:09.322Z</time>
      </trkpt>
      <trkpt lat="48.37242" lon="2.81855">
        <ele>51</ele>
        <time>2022-11-23T15:16:14.168Z</time>
      </trkpt>
      <trkpt lat="48.37248" lon="2.81853">
        <ele>51</ele>
        <time>2022-11-23T15:16:18.459Z</time>
      </trkpt>
      <trkpt lat="48.37253" lon="2.81852">
        <ele>51</ele>
        <time>2022-11-23T15:16:22.842Z</time>
      </trkpt>
      <trkpt lat="48.37253" lon="2.81857">
        <ele>51</ele>
        <time>2022-11-23T15:16:26.867Z</time>
      </trkpt>
      <trkpt lat="48.37254" lon="2.81865">
        <ele>51</ele>
        <time>2022-11-23T15:16:31.101Z</time>
      </trkpt>
      <trkpt lat="48.37252" lon="2.81873">
        <ele>51</ele>
        <time>2022-11-23T15:16:35.411Z</time>
      </trkpt>
      <trkpt lat="48.37253" lon="2.8188">
        <ele>50</ele>
        <time>2022-11-23T15:16:40.449Z</time>
      </trkpt>
      <trkpt lat="48.37258" lon="2.81876">
        <ele>50</ele>
        <time>2022-11-23T15:17:34.981Z</time>
      </trkpt>
      <trkpt lat="48.3726" lon="2.81878">
        <ele>50</ele>
        <time>2022-11-23T15:17:39.209Z</time>
      </trkpt>
      <trkpt lat="48.37269" lon="2.81872">
        <ele>50</ele>
        <time>2022-11-23T15:17:44.466Z</time>
      </trkpt>
      <trkpt lat="48.37274" lon="2.8187">
        <ele>50</ele>
        <time>2022-11-23T15:17:49.440Z</time>
      </trkpt>
      <trkpt lat="48.37275" lon="2.8187">
        <ele>50</ele>
        <time>2022-11-23T15:17:53.440Z</time>
      </trkpt>
      <trkpt lat="48.37274" lon="2.81865">
        <ele>50</ele>
        <time>2022-11-23T15:17:58.205Z</time>
      </trkpt>
      <trkpt lat="48.37277" lon="2.81863">
        <ele>50</ele>
        <time>2022-11-23T15:18:02.846Z</time>
      </trkpt>
      <trkpt lat="48.3728" lon="2.81876">
        <ele>49</ele>
        <time>2022-11-23T15:18:07.217Z</time>
      </trkpt>
      <trkpt lat="48.37283" lon="2.8189">
        <ele>49</ele>
        <time>2022-11-23T15:18:11.283Z</time>
      </trkpt>
      <trkpt lat="48.37282" lon="2.81889">
        <ele>49</ele>
        <time>2022-11-23T15:18:15.451Z</time>
      </trkpt>
      <trkpt lat="48.37282" lon="2.81889">
        <ele>49</ele>
        <time>2022-11-23T15:18:19.445Z</time>
      </trkpt>
      <trkpt lat="48.37286" lon="2.81887">
        <ele>49</ele>
        <time>2022-11-23T15:18:23.444Z</time>
      </trkpt>
      <trkpt lat="48.37289" lon="2.81878">
        <ele>49</ele>
        <time>2022-11-23T15:18:27.427Z</time>
      </trkpt>
      <trkpt lat="48.37293" lon="2.81871">
        <ele>51</ele>
        <time>2022-11-23T15:18:32.027Z</time>
      </trkpt>
      <trkpt lat="48.37293" lon="2.81865">
        <ele>51</ele>
        <time>2022-11-23T15:18:36.343Z</time>
      </trkpt>
      <trkpt lat="48.37289" lon="2.81858">
        <ele>50</ele>
        <time>2022-11-23T15:18:41.481Z</time>
      </trkpt>
      <trkpt lat="48.37288" lon="2.81856">
        <ele>50</ele>
        <time>2022-11-23T15:18:46.454Z</time>
      </trkpt>
      <trkpt lat="48.37285" lon="2.81855">
        <ele>50</ele>
        <time>2022-11-23T15:18:51.452Z</time>
      </trkpt>
      <trkpt lat="48.37281" lon="2.81851">
        <ele>50</ele>
        <time>2022-11-23T15:18:56.043Z</time>
      </trkpt>
      <trkpt lat="48.37276" lon="2.81847">
        <ele>51</ele>
        <time>2022-11-23T15:19:00.302Z</time>
      </trkpt>
      <trkpt lat="48.37274" lon="2.81843">
        <ele>51</ele>
        <time>2022-11-23T15:19:04.455Z</time>
      </trkpt>
      <trkpt lat="48.37276" lon="2.81837">
        <ele>51</ele>
        <time>2022-11-23T15:19:08.460Z</time>
      </trkpt>
      <trkpt lat="48.37278" lon="2.81835">
        <ele>51</ele>
        <time>2022-11-23T15:19:13.459Z</time>
      </trkpt>
      <trkpt lat="48.37278" lon="2.81835">
        <ele>51</ele>
        <time>2022-11-23T15:19:18.385Z</time>
      </trkpt>
      <trkpt lat="48.37281" lon="2.81833">
        <ele>51</ele>
        <time>2022-11-23T15:19:22.444Z</time>
      </trkpt>
      <trkpt lat="48.37283" lon="2.81828">
        <ele>51</ele>
        <time>2022-11-23T15:19:26.458Z</time>
      </trkpt>
      <trkpt lat="48.37287" lon="2.81824">
        <ele>51</ele>
        <time>2022-11-23T15:19:31.442Z</time>
      </trkpt>
      <trkpt lat="48.37288" lon="2.81817">
        <ele>52</ele>
        <time>2022-11-23T15:19:35.989Z</time>
      </trkpt>
      <trkpt lat="48.3729" lon="2.81808">
        <ele>52</ele>
        <time>2022-11-23T15:19:40.255Z</time>
      </trkpt>
      <trkpt lat="48.37291" lon="2.81798">
        <ele>52</ele>
        <time>2022-11-23T15:19:45.299Z</time>
      </trkpt>
      <trkpt lat="48.37291" lon="2.8179">
        <ele>53</ele>
        <time>2022-11-23T15:19:50.183Z</time>
      </trkpt>
      <trkpt lat="48.37293" lon="2.81782">
        <ele>53</ele>
        <time>2022-11-23T15:19:54.583Z</time>
      </trkpt>
      <trkpt lat="48.37295" lon="2.81774">
        <ele>53</ele>
        <time>2022-11-23T15:19:58.903Z</time>
      </trkpt>
      <trkpt lat="48.37296" lon="2.81766">
        <ele>53</ele>
        <time>2022-11-23T15:20:03.003Z</time>
      </trkpt>
      <trkpt lat="48.37297" lon="2.81759">
        <ele>55</ele>
        <time>2022-11-23T15:20:07.081Z</time>
      </trkpt>
      <trkpt lat="48.37299" lon="2.8175">
        <ele>55</ele>
        <time>2022-11-23T15:20:11.447Z</time>
      </trkpt>
      <trkpt lat="48.37301" lon="2.81741">
        <ele>55</ele>
        <time>2022-11-23T15:20:16.226Z</time>
      </trkpt>
      <trkpt lat="48.37305" lon="2.81733">
        <ele>56</ele>
        <time>2022-11-23T15:20:21.468Z</time>
      </trkpt>
      <trkpt lat="48.37307" lon="2.81729">
        <ele>56</ele>
        <time>2022-11-23T15:20:38.963Z</time>
      </trkpt>
      <trkpt lat="48.37311" lon="2.81722">
        <ele>56</ele>
        <time>2022-11-23T15:20:43.444Z</time>
      </trkpt>
      <trkpt lat="48.37316" lon="2.81716">
        <ele>56</ele>
        <time>2022-11-23T15:20:47.887Z</time>
      </trkpt>
      <trkpt lat="48.37318" lon="2.81707">
        <ele>58</ele>
        <time>2022-11-23T15:20:52.060Z</time>
      </trkpt>
      <trkpt lat="48.37317" lon="2.81702">
        <ele>58</ele>
        <time>2022-11-23T15:20:56.454Z</time>
      </trkpt>
      <trkpt lat="48.37317" lon="2.81701">
        <ele>58</ele>
        <time>2022-11-23T15:21:00.458Z</time>
      </trkpt>
      <trkpt lat="48.37316" lon="2.81702">
        <ele>58</ele>
        <time>2022-11-23T15:21:04.949Z</time>
      </trkpt>
      <trkpt lat="48.37317" lon="2.81699">
        <ele>58</ele>
        <time>2022-11-23T15:21:09.080Z</time>
      </trkpt>
      <trkpt lat="48.37317" lon="2.81695">
        <ele>58</ele>
        <time>2022-11-23T15:21:13.286Z</time>
      </trkpt>
      <trkpt lat="48.37319" lon="2.81686">
        <ele>58</ele>
        <time>2022-11-23T15:21:18.384Z</time>
      </trkpt>
      <trkpt lat="48.37321" lon="2.81678">
        <ele>56</ele>
        <time>2022-11-23T15:21:22.451Z</time>
      </trkpt>
      <trkpt lat="48.37322" lon="2.81671">
        <ele>56</ele>
        <time>2022-11-23T15:21:26.862Z</time>
      </trkpt>
      <trkpt lat="48.37324" lon="2.81664">
        <ele>56</ele>
        <time>2022-11-23T15:21:31.006Z</time>
      </trkpt>
      <trkpt lat="48.37327" lon="2.81658">
        <ele>56</ele>
        <time>2022-11-23T15:21:35.188Z</time>
      </trkpt>
      <trkpt lat="48.3733" lon="2.81655">
        <ele>56</ele>
        <time>2022-11-23T15:21:39.310Z</time>
      </trkpt>
      <trkpt lat="48.37331" lon="2.81649">
        <ele>55</ele>
        <time>2022-11-23T15:21:43.449Z</time>
      </trkpt>
      <trkpt lat="48.37332" lon="2.81644">
        <ele>55</ele>
        <time>2022-11-23T15:21:48.265Z</time>
      </trkpt>
      <trkpt lat="48.37335" lon="2.8164">
        <ele>55</ele>
        <time>2022-11-23T15:21:52.450Z</time>
      </trkpt>
      <trkpt lat="48.37334" lon="2.81631">
        <ele>55</ele>
        <time>2022-11-23T15:21:57.462Z</time>
      </trkpt>
      <trkpt lat="48.37334" lon="2.81623">
        <ele>54</ele>
        <time>2022-11-23T15:22:02.088Z</time>
      </trkpt>
      <trkpt lat="48.37336" lon="2.81618">
        <ele>54</ele>
        <time>2022-11-23T15:22:06.149Z</time>
      </trkpt>
      <trkpt lat="48.3734" lon="2.81614">
        <ele>54</ele>
        <time>2022-11-23T15:22:11.446Z</time>
      </trkpt>
      <trkpt lat="48.37337" lon="2.81611">
        <ele>54</ele>
        <time>2022-11-23T15:22:19.471Z</time>
      </trkpt>
      <trkpt lat="48.37336" lon="2.81609">
        <ele>54</ele>
        <time>2022-11-23T15:22:24.391Z</time>
      </trkpt>
      <trkpt lat="48.37337" lon="2.81604">
        <ele>54</ele>
        <time>2022-11-23T15:22:28.448Z</time>
      </trkpt>
      <trkpt lat="48.37339" lon="2.81599">
        <ele>54</ele>
        <time>2022-11-23T15:22:32.460Z</time>
      </trkpt>
      <trkpt lat="48.37341" lon="2.81593">
        <ele>55</ele>
        <time>2022-11-23T15:22:36.456Z</time>
      </trkpt>
      <trkpt lat="48.37342" lon="2.81584">
        <ele>55</ele>
        <time>2022-11-23T15:22:41.322Z</time>
      </trkpt>
      <trkpt lat="48.37343" lon="2.81577">
        <ele>55</ele>
        <time>2022-11-23T15:22:45.471Z</time>
      </trkpt>
      <trkpt lat="48.37345" lon="2.81568">
        <ele>56</ele>
        <time>2022-11-23T15:22:50.455Z</time>
      </trkpt>
      <trkpt lat="48.37347" lon="2.81564">
        <ele>56</ele>
        <time>2022-11-23T15:22:54.473Z</time>
      </trkpt>
      <trkpt lat="48.37347" lon="2.81564">
        <ele>56</ele>
        <time>2022-11-23T15:22:59.449Z</time>
      </trkpt>
      <trkpt lat="48.3735" lon="2.81563">
        <ele>54</ele>
        <time>2022-11-23T15:23:04.020Z</time>
      </trkpt>
      <trkpt lat="48.37353" lon="2.81559">
        <ele>54</ele>
        <time>2022-11-23T15:23:08.282Z</time>
      </trkpt>
      <trkpt lat="48.37354" lon="2.81548">
        <ele>54</ele>
        <time>2022-11-23T15:23:12.663Z</time>
      </trkpt>
      <trkpt lat="48.37354" lon="2.8154">
        <ele>55</ele>
        <time>2022-11-23T15:23:17.025Z</time>
      </trkpt>
      <trkpt lat="48.37356" lon="2.81534">
        <ele>55</ele>
        <time>2022-11-23T15:23:21.448Z</time>
      </trkpt>
      <trkpt lat="48.37355" lon="2.81532">
        <ele>55</ele>
        <time>2022-11-23T15:23:25.457Z</time>
      </trkpt>
      <trkpt lat="48.37352" lon="2.81531">
        <ele>55</ele>
        <time>2022-11-23T15:23:29.883Z</time>
      </trkpt>
      <trkpt lat="48.37354" lon="2.81516">
        <ele>55</ele>
        <time>2022-11-23T15:23:34.061Z</time>
      </trkpt>
      <trkpt lat="48.37358" lon="2.81506">
        <ele>55</ele>
        <time>2022-11-23T15:23:38.308Z</time>
      </trkpt>
      <trkpt lat="48.37361" lon="2.81495">
        <ele>55</ele>
        <time>2022-11-23T15:23:42.885Z</time>
      </trkpt>
      <trkpt lat="48.37363" lon="2.81487">
        <ele>55</ele>
        <time>2022-11-23T15:23:47.302Z</time>
      </trkpt>
      <trkpt lat="48.37364" lon="2.8148">
        <ele>54</ele>
        <time>2022-11-23T15:23:51.304Z</time>
      </trkpt>
      <trkpt lat="48.37366" lon="2.81471">
        <ele>54</ele>
        <time>2022-11-23T15:23:55.888Z</time>
      </trkpt>
      <trkpt lat="48.37368" lon="2.81464">
        <ele>54</ele>
        <time>2022-11-23T15:24:00.320Z</time>
      </trkpt>
      <trkpt lat="48.37369" lon="2.81456">
        <ele>54</ele>
        <time>2022-11-23T15:24:05.188Z</time>
      </trkpt>
      <trkpt lat="48.37371" lon="2.81449">
        <ele>54</ele>
        <time>2022-11-23T15:24:09.485Z</time>
      </trkpt>
      <trkpt lat="48.37372" lon="2.81438">
        <ele>54</ele>
        <time>2022-11-23T15:24:14.491Z</time>
      </trkpt>
      <trkpt lat="48.37374" lon="2.81431">
        <ele>54</ele>
        <time>2022-11-23T15:24:19.187Z</time>
      </trkpt>
      <trkpt lat="48.37377" lon="2.81426">
        <ele>53</ele>
        <time>2022-11-23T15:24:23.249Z</time>
      </trkpt>
      <trkpt lat="48.37379" lon="2.8142">
        <ele>53</ele>
        <time>2022-11-23T15:24:28.227Z</time>
      </trkpt>
      <trkpt lat="48.3738" lon="2.81413">
        <ele>53</ele>
        <time>2022-11-23T15:24:32.348Z</time>
      </trkpt>
      <trkpt lat="48.37382" lon="2.81411">
        <ele>53</ele>
        <time>2022-11-23T15:24:37.215Z</time>
      </trkpt>
      <trkpt lat="48.37385" lon="2.81393">
        <ele>53</ele>
        <time>2022-11-23T15:24:41.246Z</time>
      </trkpt>
      <trkpt lat="48.37386" lon="2.81385">
        <ele>53</ele>
        <time>2022-11-23T15:24:45.722Z</time>
      </trkpt>
      <trkpt lat="48.37389" lon="2.81376">
        <ele>53</ele>
        <time>2022-11-23T15:24:50.223Z</time>
      </trkpt>
      <trkpt lat="48.37391" lon="2.81371">
        <ele>53</ele>
        <time>2022-11-23T15:24:54.461Z</time>
      </trkpt>
      <trkpt lat="48.37393" lon="2.81359">
        <ele>53</ele>
        <time>2022-11-23T15:24:58.641Z</time>
      </trkpt>
      <trkpt lat="48.37395" lon="2.81353">
        <ele>53</ele>
        <time>2022-11-23T15:25:02.844Z</time>
      </trkpt>
      <trkpt lat="48.37399" lon="2.81343">
        <ele>53</ele>
        <time>2022-11-23T15:25:24.964Z</time>
      </trkpt>
      <trkpt lat="48.37403" lon="2.81336">
        <ele>53</ele>
        <time>2022-11-23T15:25:29.457Z</time>
      </trkpt>
      <trkpt lat="48.37405" lon="2.81329">
        <ele>53</ele>
        <time>2022-11-23T15:25:33.464Z</time>
      </trkpt>
      <trkpt lat="48.37406" lon="2.81322">
        <ele>53</ele>
        <time>2022-11-23T15:25:37.927Z</time>
      </trkpt>
      <trkpt lat="48.37407" lon="2.81315">
        <ele>53</ele>
        <time>2022-11-23T15:25:42.244Z</time>
      </trkpt>
      <trkpt lat="48.37409" lon="2.81306">
        <ele>53</ele>
        <time>2022-11-23T15:25:46.406Z</time>
      </trkpt>
      <trkpt lat="48.37411" lon="2.81298">
        <ele>53</ele>
        <time>2022-11-23T15:25:50.474Z</time>
      </trkpt>
      <trkpt lat="48.37413" lon="2.81291">
        <ele>53</ele>
        <time>2022-11-23T15:25:54.866Z</time>
      </trkpt>
      <trkpt lat="48.37414" lon="2.81284">
        <ele>53</ele>
        <time>2022-11-23T15:25:58.966Z</time>
      </trkpt>
      <trkpt lat="48.37414" lon="2.81277">
        <ele>53</ele>
        <time>2022-11-23T15:26:03.152Z</time>
      </trkpt>
      <trkpt lat="48.37416" lon="2.81268">
        <ele>53</ele>
        <time>2022-11-23T15:26:07.410Z</time>
      </trkpt>
      <trkpt lat="48.37418" lon="2.8126">
        <ele>53</ele>
        <time>2022-11-23T15:26:11.431Z</time>
      </trkpt>
      <trkpt lat="48.37418" lon="2.81251">
        <ele>53</ele>
        <time>2022-11-23T15:26:15.548Z</time>
      </trkpt>
      <trkpt lat="48.3742" lon="2.81241">
        <ele>53</ele>
        <time>2022-11-23T15:26:19.721Z</time>
      </trkpt>
      <trkpt lat="48.37421" lon="2.81234">
        <ele>53</ele>
        <time>2022-11-23T15:26:23.808Z</time>
      </trkpt>
      <trkpt lat="48.37424" lon="2.81227">
        <ele>53</ele>
        <time>2022-11-23T15:26:28.188Z</time>
      </trkpt>
      <trkpt lat="48.37426" lon="2.8122">
        <ele>53</ele>
        <time>2022-11-23T15:26:32.386Z</time>
      </trkpt>
      <trkpt lat="48.37429" lon="2.81212">
        <ele>53</ele>
        <time>2022-11-23T15:26:36.489Z</time>
      </trkpt>
      <trkpt lat="48.37432" lon="2.81201">
        <ele>54</ele>
        <time>2022-11-23T15:26:41.481Z</time>
      </trkpt>
      <trkpt lat="48.37435" lon="2.8119">
        <ele>54</ele>
        <time>2022-11-23T15:26:46.247Z</time>
      </trkpt>
      <trkpt lat="48.37439" lon="2.81182">
        <ele>54</ele>
        <time>2022-11-23T15:26:50.500Z</time>
      </trkpt>
      <trkpt lat="48.37442" lon="2.81174">
        <ele>53</ele>
        <time>2022-11-23T15:26:54.942Z</time>
      </trkpt>
      <trkpt lat="48.37447" lon="2.81167">
        <ele>53</ele>
        <time>2022-11-23T15:26:59.480Z</time>
      </trkpt>
      <trkpt lat="48.3745" lon="2.81158">
        <ele>53</ele>
        <time>2022-11-23T15:27:04.149Z</time>
      </trkpt>
      <trkpt lat="48.37452" lon="2.81148">
        <ele>53</ele>
        <time>2022-11-23T15:27:08.450Z</time>
      </trkpt>
      <trkpt lat="48.37452" lon="2.8114">
        <ele>53</ele>
        <time>2022-11-23T15:27:12.566Z</time>
      </trkpt>
      <trkpt lat="48.37453" lon="2.81131">
        <ele>53</ele>
        <time>2022-11-23T15:27:16.846Z</time>
      </trkpt>
      <trkpt lat="48.37453" lon="2.81123">
        <ele>53</ele>
        <time>2022-11-23T15:27:21.505Z</time>
      </trkpt>
      <trkpt lat="48.37452" lon="2.81113">
        <ele>53</ele>
        <time>2022-11-23T15:27:26.169Z</time>
      </trkpt>
      <trkpt lat="48.3745" lon="2.81102">
        <ele>53</ele>
        <time>2022-11-23T15:27:30.467Z</time>
      </trkpt>
      <trkpt lat="48.37451" lon="2.81093">
        <ele>54</ele>
        <time>2022-11-23T15:27:34.962Z</time>
      </trkpt>
      <trkpt lat="48.3745" lon="2.81086">
        <ele>54</ele>
        <time>2022-11-23T15:27:39.388Z</time>
      </trkpt>
      <trkpt lat="48.37449" lon="2.81076">
        <ele>54</ele>
        <time>2022-11-23T15:27:43.844Z</time>
      </trkpt>
      <trkpt lat="48.37449" lon="2.81066">
        <ele>54</ele>
        <time>2022-11-23T15:27:48.143Z</time>
      </trkpt>
      <trkpt lat="48.37449" lon="2.81058">
        <ele>54</ele>
        <time>2022-11-23T15:27:52.209Z</time>
      </trkpt>
      <trkpt lat="48.37449" lon="2.81053">
        <ele>54</ele>
        <time>2022-11-23T15:27:56.496Z</time>
      </trkpt>
      <trkpt lat="48.37455" lon="2.81049">
        <ele>54</ele>
        <time>2022-11-23T15:28:01.491Z</time>
      </trkpt>
      <trkpt lat="48.37463" lon="2.81049">
        <ele>53</ele>
        <time>2022-11-23T15:28:06.001Z</time>
      </trkpt>
      <trkpt lat="48.37469" lon="2.81048">
        <ele>53</ele>
        <time>2022-11-23T15:28:10.268Z</time>
      </trkpt>
      <trkpt lat="48.37473" lon="2.81042">
        <ele>53</ele>
        <time>2022-11-23T15:28:14.341Z</time>
      </trkpt>
      <trkpt lat="48.37475" lon="2.81033">
        <ele>54</ele>
        <time>2022-11-23T15:28:18.508Z</time>
      </trkpt>
      <trkpt lat="48.37477" lon="2.81025">
        <ele>54</ele>
        <time>2022-11-23T15:28:22.805Z</time>
      </trkpt>
      <trkpt lat="48.37479" lon="2.81016">
        <ele>54</ele>
        <time>2022-11-23T15:28:27.222Z</time>
      </trkpt>
      <trkpt lat="48.3748" lon="2.81007">
        <ele>54</ele>
        <time>2022-11-23T15:28:31.522Z</time>
      </trkpt>
      <trkpt lat="48.37481" lon="2.80998">
        <ele>54</ele>
        <time>2022-11-23T15:28:36.149Z</time>
      </trkpt>
      <trkpt lat="48.37483" lon="2.8099">
        <ele>54</ele>
        <time>2022-11-23T15:28:40.386Z</time>
      </trkpt>
      <trkpt lat="48.37485" lon="2.80983">
        <ele>55</ele>
        <time>2022-11-23T15:28:44.485Z</time>
      </trkpt>
      <trkpt lat="48.3749" lon="2.80977">
        <ele>53</ele>
        <time>2022-11-23T15:28:49.430Z</time>
      </trkpt>
      <trkpt lat="48.37492" lon="2.80966">
        <ele>53</ele>
        <time>2022-11-23T15:28:54.169Z</time>
      </trkpt>
      <trkpt lat="48.37494" lon="2.80957">
        <ele>54</ele>
        <time>2022-11-23T15:28:58.408Z</time>
      </trkpt>
      <trkpt lat="48.37496" lon="2.80948">
        <ele>54</ele>
        <time>2022-11-23T15:29:03.068Z</time>
      </trkpt>
      <trkpt lat="48.37498" lon="2.80941">
        <ele>54</ele>
        <time>2022-11-23T15:29:07.164Z</time>
      </trkpt>
      <trkpt lat="48.37499" lon="2.80934">
        <ele>54</ele>
        <time>2022-11-23T15:29:11.308Z</time>
      </trkpt>
      <trkpt lat="48.37502" lon="2.80925">
        <ele>54</ele>
        <time>2022-11-23T15:29:15.428Z</time>
      </trkpt>
      <trkpt lat="48.37505" lon="2.80917">
        <ele>54</ele>
        <time>2022-11-23T15:29:19.484Z</time>
      </trkpt>
      <trkpt lat="48.37508" lon="2.8091">
        <ele>54</ele>
        <time>2022-11-23T15:29:23.783Z</time>
      </trkpt>
      <trkpt lat="48.37509" lon="2.80903">
        <ele>54</ele>
        <time>2022-11-23T15:29:28.182Z</time>
      </trkpt>
      <trkpt lat="48.3751" lon="2.80895">
        <ele>55</ele>
        <time>2022-11-23T15:29:32.388Z</time>
      </trkpt>
      <trkpt lat="48.37513" lon="2.80885">
        <ele>55</ele>
        <time>2022-11-23T15:29:36.631Z</time>
      </trkpt>
      <trkpt lat="48.37515" lon="2.80877">
        <ele>54</ele>
        <time>2022-11-23T15:29:40.889Z</time>
      </trkpt>
      <trkpt lat="48.37518" lon="2.80869">
        <ele>55</ele>
        <time>2022-11-23T15:29:45.145Z</time>
      </trkpt>
      <trkpt lat="48.37519" lon="2.8086">
        <ele>55</ele>
        <time>2022-11-23T15:29:49.328Z</time>
      </trkpt>
      <trkpt lat="48.37521" lon="2.8085">
        <ele>55</ele>
        <time>2022-11-23T15:29:53.546Z</time>
      </trkpt>
      <trkpt lat="48.37523" lon="2.80841">
        <ele>56</ele>
        <time>2022-11-23T15:29:58.405Z</time>
      </trkpt>
      <trkpt lat="48.37523" lon="2.80833">
        <ele>56</ele>
        <time>2022-11-23T15:30:02.714Z</time>
      </trkpt>
      <trkpt lat="48.37523" lon="2.80824">
        <ele>56</ele>
        <time>2022-11-23T15:30:07.368Z</time>
      </trkpt>
      <trkpt lat="48.37527" lon="2.80816">
        <ele>57</ele>
        <time>2022-11-23T15:30:11.983Z</time>
      </trkpt>
      <trkpt lat="48.37531" lon="2.80811">
        <ele>57</ele>
        <time>2022-11-23T15:30:16.221Z</time>
      </trkpt>
      <trkpt lat="48.37534" lon="2.80801">
        <ele>57</ele>
        <time>2022-11-23T15:30:20.484Z</time>
      </trkpt>
      <trkpt lat="48.37535" lon="2.80794">
        <ele>57</ele>
        <time>2022-11-23T15:30:24.926Z</time>
      </trkpt>
      <trkpt lat="48.37537" lon="2.80783">
        <ele>57</ele>
        <time>2022-11-23T15:30:29.223Z</time>
      </trkpt>
      <trkpt lat="48.37539" lon="2.80774">
        <ele>57</ele>
        <time>2022-11-23T15:30:33.480Z</time>
      </trkpt>
      <trkpt lat="48.37541" lon="2.80763">
        <ele>58</ele>
        <time>2022-11-23T15:30:38.329Z</time>
      </trkpt>
      <trkpt lat="48.37544" lon="2.80753">
        <ele>58</ele>
        <time>2022-11-23T15:30:43.164Z</time>
      </trkpt>
      <trkpt lat="48.37547" lon="2.80744">
        <ele>58</ele>
        <time>2022-11-23T15:30:47.463Z</time>
      </trkpt>
      <trkpt lat="48.3755" lon="2.80735">
        <ele>59</ele>
        <time>2022-11-23T15:30:51.948Z</time>
      </trkpt>
      <trkpt lat="48.37552" lon="2.80726">
        <ele>59</ele>
        <time>2022-11-23T15:30:56.224Z</time>
      </trkpt>
      <trkpt lat="48.37555" lon="2.80717">
        <ele>59</ele>
        <time>2022-11-23T15:31:01.143Z</time>
      </trkpt>
      <trkpt lat="48.37557" lon="2.80709">
        <ele>59</ele>
        <time>2022-11-23T15:31:05.167Z</time>
      </trkpt>
      <trkpt lat="48.3756" lon="2.807">
        <ele>60</ele>
        <time>2022-11-23T15:31:09.409Z</time>
      </trkpt>
      <trkpt lat="48.37562" lon="2.8069">
        <ele>60</ele>
        <time>2022-11-23T15:31:14.329Z</time>
      </trkpt>
      <trkpt lat="48.37564" lon="2.80682">
        <ele>60</ele>
        <time>2022-11-23T15:31:18.499Z</time>
      </trkpt>
      <trkpt lat="48.37566" lon="2.80675">
        <ele>61</ele>
        <time>2022-11-23T15:31:23.365Z</time>
      </trkpt>
      <trkpt lat="48.37568" lon="2.80669">
        <ele>61</ele>
        <time>2022-11-23T15:31:27.790Z</time>
      </trkpt>
      <trkpt lat="48.3757" lon="2.80663">
        <ele>60</ele>
        <time>2022-11-23T15:31:32.285Z</time>
      </trkpt>
      <trkpt lat="48.37572" lon="2.80653">
        <ele>60</ele>
        <time>2022-11-23T15:31:36.403Z</time>
      </trkpt>
      <trkpt lat="48.37574" lon="2.80642">
        <ele>62</ele>
        <time>2022-11-23T15:31:40.485Z</time>
      </trkpt>
      <trkpt lat="48.37577" lon="2.80631">
        <ele>62</ele>
        <time>2022-11-23T15:31:45.184Z</time>
      </trkpt>
      <trkpt lat="48.37579" lon="2.80622">
        <ele>63</ele>
        <time>2022-11-23T15:31:49.483Z</time>
      </trkpt>
      <trkpt lat="48.3758" lon="2.80613">
        <ele>63</ele>
        <time>2022-11-23T15:31:54.163Z</time>
      </trkpt>
      <trkpt lat="48.37582" lon="2.80605">
        <ele>63</ele>
        <time>2022-11-23T15:31:58.358Z</time>
      </trkpt>
      <trkpt lat="48.37584" lon="2.80595">
        <ele>63</ele>
        <time>2022-11-23T15:32:03.247Z</time>
      </trkpt>
      <trkpt lat="48.37589" lon="2.80585">
        <ele>63</ele>
        <time>2022-11-23T15:32:08.182Z</time>
      </trkpt>
      <trkpt lat="48.3759" lon="2.80575">
        <ele>63</ele>
        <time>2022-11-23T15:32:12.405Z</time>
      </trkpt>
      <trkpt lat="48.37591" lon="2.80564">
        <ele>63</ele>
        <time>2022-11-23T15:32:16.947Z</time>
      </trkpt>
      <trkpt lat="48.37594" lon="2.80559">
        <ele>63</ele>
        <time>2022-11-23T15:32:21.463Z</time>
      </trkpt>
      <trkpt lat="48.37593" lon="2.80555">
        <ele>63</ele>
        <time>2022-11-23T15:32:26.458Z</time>
      </trkpt>
      <trkpt lat="48.37594" lon="2.80554">
        <ele>63</ele>
        <time>2022-11-23T15:32:31.050Z</time>
      </trkpt>
      <trkpt lat="48.37599" lon="2.8055">
        <ele>61</ele>
        <time>2022-11-23T15:32:35.331Z</time>
      </trkpt>
      <trkpt lat="48.37602" lon="2.80537">
        <ele>62</ele>
        <time>2022-11-23T15:32:39.475Z</time>
      </trkpt>
      <trkpt lat="48.37604" lon="2.80527">
        <ele>62</ele>
        <time>2022-11-23T15:32:43.781Z</time>
      </trkpt>
      <trkpt lat="48.37606" lon="2.80516">
        <ele>62</ele>
        <time>2022-11-23T15:32:48.285Z</time>
      </trkpt>
      <trkpt lat="48.37608" lon="2.80508">
        <ele>64</ele>
        <time>2022-11-23T15:32:52.455Z</time>
      </trkpt>
      <trkpt lat="48.3761" lon="2.80499">
        <ele>64</ele>
        <time>2022-11-23T15:32:56.866Z</time>
      </trkpt>
      <trkpt lat="48.37612" lon="2.8049">
        <ele>64</ele>
        <time>2022-11-23T15:33:01.298Z</time>
      </trkpt>
      <trkpt lat="48.37613" lon="2.80482">
        <ele>64</ele>
        <time>2022-11-23T15:33:06.203Z</time>
      </trkpt>
      <trkpt lat="48.37615" lon="2.80473">
        <ele>64</ele>
        <time>2022-11-23T15:33:10.525Z</time>
      </trkpt>
      <trkpt lat="48.37617" lon="2.80464">
        <ele>64</ele>
        <time>2022-11-23T15:33:14.863Z</time>
      </trkpt>
      <trkpt lat="48.3762" lon="2.80456">
        <ele>65</ele>
        <time>2022-11-23T15:33:19.234Z</time>
      </trkpt>
      <trkpt lat="48.37623" lon="2.80448">
        <ele>65</ele>
        <time>2022-11-23T15:33:23.485Z</time>
      </trkpt>
      <trkpt lat="48.37627" lon="2.80441">
        <ele>63</ele>
        <time>2022-11-23T15:33:27.803Z</time>
      </trkpt>
      <trkpt lat="48.37631" lon="2.80433">
        <ele>63</ele>
        <time>2022-11-23T15:33:32.127Z</time>
      </trkpt>
      <trkpt lat="48.37634" lon="2.80426">
        <ele>64</ele>
        <time>2022-11-23T15:33:36.270Z</time>
      </trkpt>
      <trkpt lat="48.37638" lon="2.80418">
        <ele>64</ele>
        <time>2022-11-23T15:33:40.321Z</time>
      </trkpt>
      <trkpt lat="48.37641" lon="2.80411">
        <ele>64</ele>
        <time>2022-11-23T15:33:44.343Z</time>
      </trkpt>
      <trkpt lat="48.37644" lon="2.80406">
        <ele>64</ele>
        <time>2022-11-23T15:33:48.363Z</time>
      </trkpt>
      <trkpt lat="48.37645" lon="2.80403">
        <ele>64</ele>
        <time>2022-11-23T15:33:52.500Z</time>
      </trkpt>
      <trkpt lat="48.37645" lon="2.80399">
        <ele>66</ele>
        <time>2022-11-23T15:33:56.944Z</time>
      </trkpt>
      <trkpt lat="48.3765" lon="2.80394">
        <ele>66</ele>
        <time>2022-11-23T15:34:01.404Z</time>
      </trkpt>
      <trkpt lat="48.37656" lon="2.80384">
        <ele>65</ele>
        <time>2022-11-23T15:34:05.903Z</time>
      </trkpt>
      <trkpt lat="48.37661" lon="2.80373">
        <ele>66</ele>
        <time>2022-11-23T15:34:10.444Z</time>
      </trkpt>
      <trkpt lat="48.37665" lon="2.80364">
        <ele>66</ele>
        <time>2022-11-23T15:34:14.841Z</time>
      </trkpt>
      <trkpt lat="48.37669" lon="2.80355">
        <ele>66</ele>
        <time>2022-11-23T15:34:19.162Z</time>
      </trkpt>
      <trkpt lat="48.37672" lon="2.80347">
        <ele>66</ele>
        <time>2022-11-23T15:34:23.481Z</time>
      </trkpt>
      <trkpt lat="48.37676" lon="2.8034">
        <ele>68</ele>
        <time>2022-11-23T15:34:27.768Z</time>
      </trkpt>
      <trkpt lat="48.3768" lon="2.80333">
        <ele>68</ele>
        <time>2022-11-23T15:34:32.026Z</time>
      </trkpt>
      <trkpt lat="48.37684" lon="2.80324">
        <ele>67</ele>
        <time>2022-11-23T15:34:36.345Z</time>
      </trkpt>
      <trkpt lat="48.37688" lon="2.80317">
        <ele>68</ele>
        <time>2022-11-23T15:34:40.712Z</time>
      </trkpt>
      <trkpt lat="48.37692" lon="2.80309">
        <ele>68</ele>
        <time>2022-11-23T15:34:45.102Z</time>
      </trkpt>
      <trkpt lat="48.37696" lon="2.80302">
        <ele>68</ele>
        <time>2022-11-23T15:34:49.466Z</time>
      </trkpt>
      <trkpt lat="48.377" lon="2.80295">
        <ele>68</ele>
        <time>2022-11-23T15:34:53.784Z</time>
      </trkpt>
      <trkpt lat="48.37703" lon="2.8029">
        <ele>69</ele>
        <time>2022-11-23T15:34:58.321Z</time>
      </trkpt>
      <trkpt lat="48.37706" lon="2.8028">
        <ele>69</ele>
        <time>2022-11-23T15:35:03.350Z</time>
      </trkpt>
      <trkpt lat="48.3771" lon="2.80272">
        <ele>68</ele>
        <time>2022-11-23T15:35:07.728Z</time>
      </trkpt>
      <trkpt lat="48.37714" lon="2.80264">
        <ele>68</ele>
        <time>2022-11-23T15:35:12.006Z</time>
      </trkpt>
      <trkpt lat="48.37717" lon="2.80259">
        <ele>69</ele>
        <time>2022-11-23T15:35:16.266Z</time>
      </trkpt>
      <trkpt lat="48.37721" lon="2.80251">
        <ele>69</ele>
        <time>2022-11-23T15:35:20.663Z</time>
      </trkpt>
      <trkpt lat="48.37724" lon="2.80241">
        <ele>69</ele>
        <time>2022-11-23T15:37:19.478Z</time>
      </trkpt>
      <trkpt lat="48.37724" lon="2.80241">
        <ele>69</ele>
        <time>2022-11-23T15:37:24.501Z</time>
      </trkpt>
      <trkpt lat="48.37725" lon="2.8024">
        <ele>69</ele>
        <time>2022-11-23T15:37:29.467Z</time>
      </trkpt>
      <trkpt lat="48.37728" lon="2.80235">
        <ele>69</ele>
        <time>2022-11-23T15:37:34.022Z</time>
      </trkpt>
      <trkpt lat="48.3773" lon="2.80231">
        <ele>69</ele>
        <time>2022-11-23T15:37:38.086Z</time>
      </trkpt>
      <trkpt lat="48.37735" lon="2.80223">
        <ele>69</ele>
        <time>2022-11-23T15:37:43.260Z</time>
      </trkpt>
      <trkpt lat="48.37738" lon="2.80216">
        <ele>67</ele>
        <time>2022-11-23T15:37:47.284Z</time>
      </trkpt>
      <trkpt lat="48.37742" lon="2.80208">
        <ele>67</ele>
        <time>2022-11-23T15:37:52.490Z</time>
      </trkpt>
      <trkpt lat="48.37745" lon="2.80201">
        <ele>68</ele>
        <time>2022-11-23T15:37:57.246Z</time>
      </trkpt>
      <trkpt lat="48.3775" lon="2.80199">
        <ele>68</ele>
        <time>2022-11-23T15:38:01.492Z</time>
      </trkpt>
      <trkpt lat="48.37755" lon="2.802">
        <ele>68</ele>
        <time>2022-11-23T15:38:05.881Z</time>
      </trkpt>
      <trkpt lat="48.37761" lon="2.80194">
        <ele>68</ele>
        <time>2022-11-23T15:38:10.448Z</time>
      </trkpt>
      <trkpt lat="48.37764" lon="2.80191">
        <ele>66</ele>
        <time>2022-11-23T15:38:14.243Z</time>
      </trkpt>
    </trkseg>
  </trk>
</gpx>